# Wetter Temperatur Luftdruck Luftfeuchtigkeit Sichtweite Windgeschwindigkeit Windrichtung Zeit
1 Clear 29 1010 50 10000 4.02 77 11:31 14.08.2022
2 Clear 27 1011 65 10000 2.68 41 10:18 14.08.2022
3 Clear 22 1011 76 10000 1.34 23 08:18 14.08.2022
4 Clear 20 1012 83 10000 1.54 40 06:18 14.08.2022
5 Clear 21 1013 80 10000 1.79 79 02:35 14.08.2022
6 Clouds 22 1016 79 10000 2.06 30 23:23 13.08.2022
7 Clouds 23 1016 76 10000 1.54 160 22:28 13.08.2022
8 Clear 26 1015 53 10000 1.54 170 20:58 13.08.2022
9 Clear 26 1015 47 10000 2.06 190 19:50 13.08.2022
10 Clouds 27 1016 50 10000 2.06 160 19:20 13.08.2022
11 Clear 28 1014 49 10000 4.47 92 17:36 13.08.2022
12 Clear 26 1014 55 10000 6.17 60 15:18 13.08.2022
13 Clouds 25 1016 61 10000 4.02 78 14:24 13.08.2022
14 Clouds 25 1016 61 10000 4.02 78 14:24 13.08.2022
15 Clouds 26 1015 56 10000 5.66 90 13:37 13.08.2022
16 Clear 25 1016 54 10000 1.54 40 11:51 13.08.2022
17 Clear 23 1016 59 10000 4.02 59 09:50 13.08.2022
18 Clear 20 1016 65 10000 1.03 30 07:51 13.08.2022
19 Clear 20 1017 60 10000 3.13 29 02:56 13.08.2022
20 Clear 22 1018 54 10000 2.57 70 23:47 12.08.2022
21 Clear 24 1017 48 10000 1.79 70 21:42 12.08.2022
22 Clear 27 1017 40 10000 4.47 72 20:40 12.08.2022
23 Clear 28 1016 34 10000 5.36 72 19:36 12.08.2022
24 Clear 29 1016 33 10000 4.63 50 18:38 12.08.2022
25 Clear 29 1018 33 10000 6.26 106 16:37 12.08.2022
26 Clear 29 1016 32 10000 4.63 100 15:40 12.08.2022
27 Clear 30 1017 31 10000 5.36 101 14:27 12.08.2022
28 Clear 29 1018 32 10000 5.66 110 12:53 12.08.2022
29 Clear 25 1018 45 10000 3.09 110 09:52 12.08.2022
30 Clear 19 1020 56 10000 2.68 65 07:47 12.08.2022
31 Clear 17 1020 63 10000 2.06 70 06:38 12.08.2022
32 Clear 19 1020 58 10000 3.13 80 02:33 12.08.2022
33 Clear 21 1020 49 10000 3.58 63 00:26 12.08.2022
34 Clear 22 1020 44 10000 3.58 41 23:35 11.08.2022
35 Clear 23 1020 41 10000 2.24 90 22:27 11.08.2022
36 Clear 24 1020 37 10000 3.13 79 21:43 11.08.2022
37 Clear 25 1019 33 10000 3.6 60 20:59 11.08.2022
38 Clear 27 1018 31 10000 4.63 50 20:20 11.08.2022
39 Clear 28 1018 28 10000 4.63 40 19:32 11.08.2022
40 Clear 30 1020 27 10000 5.14 40 17:48 11.08.2022
41 Clear 30 1020 28 10000 3.6 100 16:38 11.08.2022
42 Clear 30 1021 30 10000 4.63 0 15:25 11.08.2022
43 Clear 29 1021 32 10000 4.92 113 13:37 11.08.2022
44 Clear 27 1021 41 10000 3.09 120 11:26 11.08.2022
45 Clear 19 1021 58 10000 1.54 80 07:49 11.08.2022
46 Clear 18 1022 60 10000 2.68 52 03:57 11.08.2022
47 Clear 19 1023 59 10000 3.09 50 01:54 11.08.2022
48 Clear 22 1023 50 10000 3.13 44 22:38 10.08.2022
49 Clear 23 1022 45 10000 3.13 29 21:44 10.08.2022
50 Clear 25 1022 39 10000 2.68 2 20:55 10.08.2022
51 Clear 27 1022 33 10000 1.34 45 19:44 10.08.2022
52 Clear 28 1023 31 10000 2.24 20 18:45 10.08.2022
53 Clear 29 1023 30 10000 3.09 20 17:19 10.08.2022
54 Clear 27 1025 35 10000 3.58 63 13:36 10.08.2022
55 Clear 27 1025 36 10000 3.6 10 12:48 10.08.2022
56 Clear 22 1026 60 10000 3.6 20 10:21 10.08.2022
57 Clear 18 1025 71 10000 4.02 25 08:37 10.08.2022
58 Clear 16 1025 78 10000 2.24 54 07:21 10.08.2022
59 Clear 16 1025 74 10000 2.68 48 04:49 10.08.2022
60 Clear 19 1026 63 10000 4.47 44 00:50 10.08.2022
61 Clear 20 1025 57 10000 3.6 40 23:27 09.08.2022
62 Clear 23 1016 48 10000 4.63 30 21:38 09.08.2022
63 Clear 24 1016 44 10000 4.92 25 20:56 09.08.2022
64 Clear 26 1015 37 10000 4.12 20 18:56 09.08.2022
65 Clear 27 1016 36 10000 3.6 30 17:31 09.08.2022
66 Clear 27 1012 34 10000 4.63 300 16:46 09.08.2022
67 Clear 27 1012 35 10000 3.09 350 16:22 09.08.2022
68 Clear 27 1013 35 10000 3.13 350 14:50 09.08.2022
69 Clear 24 1027 46 10000 4.63 70 11:29 09.08.2022
70 Clear 20 1017 61 10000 4.12 20 08:52 09.08.2022
71 Clear 19 1024 63 10000 2.68 16 07:58 09.08.2022
72 Clear 19 1016 63 10000 2.24 43 05:24 09.08.2022
73 Clear 19 1024 58 10000 3.6 50 00:59 09.08.2022
74 Clear 21 1015 52 10000 5.36 28 23:25 08.08.2022
75 Clear 21 1015 52 10000 4.12 30 22:42 08.08.2022
76 Clear 22 1014 46 10000 5.66 30 21:44 08.08.2022
77 Clear 25 1014 38 10000 3.58 20 20:39 08.08.2022
78 Clear 26 1013 35 10000 4.12 50 19:39 08.08.2022
79 Clear 26 1013 33 10000 3.6 50 18:18 08.08.2022
80 Clear 28 1013 30 10000 3.13 17 15:54 08.08.2022
81 Clear 28 1013 31 10000 3.58 25 15:36 08.08.2022
82 Clear 26 1021 32 10000 3.09 0 12:31 08.08.2022
83 Clear 23 1022 48 10000 1.54 310 10:37 08.08.2022
84 Clear 18 1013 52 10000 1.03 0 07:59 08.08.2022
85 Clear 16 1013 59 10000 1.03 70 04:45 08.08.2022
86 Clear 17 1013 56 10000 2.57 70 01:29 08.08.2022
87 Clear 21 1013 45 10000 2.68 17 21:42 07.08.2022
88 Clear 22 1012 41 10000 2.24 360 21:24 07.08.2022
89 Clear 23 1012 38 10000 1.79 352 20:24 07.08.2022
90 Clear 23 1012 36 10000 1.34 350 19:52 07.08.2022
91 Clear 24 1013 35 10000 2.06 30 19:24 07.08.2022
92 Clear 25 1013 34 10000 4.02 345 17:58 07.08.2022
93 Clear 25 1013 34 10000 2.06 60 16:53 07.08.2022
94 Clear 24 1013 34 10000 3.13 347 15:45 07.08.2022
95 Clear 24 1014 36 10000 3.09 360 14:32 07.08.2022
96 Clear 24 1022 36 10000 2.24 134 12:50 07.08.2022
97 Clear 24 1022 36 10000 2.24 134 12:50 07.08.2022
98 Clear 22 1023 44 10000 3.13 150 10:54 07.08.2022
99 Clear 21 1017 44 10000 2.06 0 10:21 07.08.2022
100 Clear 15 1016 65 10000 1.03 0 04:42 07.08.2022
101 Clear 15 1016 61 10000 1.34 77 02:37 07.08.2022
102 Clear 17 1024 55 10000 2.24 350 22:57 06.08.2022
103 Clear 18 1016 52 10000 2.68 4 22:19 06.08.2022
104 Clear 21 1015 42 10000 3.13 330 20:20 06.08.2022
105 Clear 22 1015 40 10000 4.02 320 19:38 06.08.2022
106 Clear 23 1015 38 10000 5.66 320 18:19 06.08.2022
107 Clear 23 1015 38 10000 7.15 300 16:33 06.08.2022
108 Clear 22 1015 48 10000 4.63 320 13:52 06.08.2022
109 Clouds 22 1023 47 10000 5.66 290 12:50 06.08.2022
110 Clouds 19 1024 56 10000 4.12 310 11:21 06.08.2022
111 Clear 19 1015 65 10000 3.13 289 09:50 06.08.2022
112 Clear 14 1014 76 10000 3.6 280 07:51 06.08.2022
113 Clear 15 1019 74 10000 6.26 291 03:24 06.08.2022
114 Clear 18 1017 69 10000 6.71 315 23:27 05.08.2022
115 Clouds 19 1016 71 10000 5.81 293 21:51 05.08.2022
116 Clouds 23 1006 68 10000 8.05 305 19:32 05.08.2022
117 Clouds 25 1004 69 10000 6.17 330 18:44 05.08.2022
118 Clouds 28 1004 56 10000 5.81 282 17:27 05.08.2022
119 Clouds 29 1004 55 10000 5.36 282 16:48 05.08.2022
120 Clear 28 1003 59 10000 1.79 330 15:21 05.08.2022
121 Clouds 26 1003 71 10000 3.09 350 13:59 05.08.2022
122 Clouds 25 1003 73 10000 2.24 70 13:23 05.08.2022
123 Clouds 24 1011 70 10000 5.81 311 12:24 05.08.2022
124 Clear 25 1011 67 10000 8.05 344 10:44 05.08.2022
125 Clear 24 1010 66 10000 4.02 328 07:58 05.08.2022
126 Clear 22 1009 67 10000 2.68 23 06:41 05.08.2022
127 Clear 28 1009 45 10000 3.09 130 00:30 05.08.2022
128 Clear 29 1000 41 10000 2.68 154 22:29 04.08.2022
129 Clear 30 999 41 10000 3.13 156 21:26 04.08.2022
130 Clear 32 1009 38 10000 2.57 190 20:43 04.08.2022
131 Clear 34 999 27 10000 5.36 225 19:40 04.08.2022
132 Clear 36 1001 26 10000 5.14 220 18:36 04.08.2022
133 Clear 36 1001 26 10000 5.36 225 18:18 04.08.2022
134 Clear 36 1003 28 10000 4.92 150 14:23 04.08.2022
135 Clear 35 1004 30 10000 4.63 190 13:18 04.08.2022
136 Clear 33 1010 37 10000 2.24 135 11:20 04.08.2022
137 Clear 25 1002 53 10000 1.54 110 07:54 04.08.2022
138 Clouds 23 1003 57 10000 1.34 119 06:41 04.08.2022
139 Clear 24 1005 57 10000 1.03 70 02:35 04.08.2022
140 Clear 25 1004 56 10000 1.03 0 23:46 03.08.2022
141 Clear 26 1004 51 10000 1.34 123 22:59 03.08.2022
142 Clear 29 1004 42 10000 2.57 190 20:57 03.08.2022
143 Clear 32 1004 34 10000 3.09 230 19:54 03.08.2022
144 Clear 33 1004 32 10000 3.09 190 18:40 03.08.2022
145 Clear 34 1004 31 10000 3.6 250 16:26 03.08.2022
146 Clear 33 1005 31 10000 3.6 0 15:47 03.08.2022
147 Clear 32 1006 29 10000 4.47 203 13:24 03.08.2022
148 Clear 27 1007 44 10000 3.58 210 09:55 03.08.2022
149 Clear 20 1006 59 10000 0.51 0 06:46 03.08.2022
150 Clear 20 1006 63 10000 1.34 173 04:22 03.08.2022
151 Clear 20 1007 62 10000 1.34 136 03:22 03.08.2022
152 Clear 22 1007 53 10000 2.68 99 23:54 02.08.2022
153 Clear 23 1006 54 10000 2.68 71 22:33 02.08.2022
154 Clear 23 1006 51 10000 0.89 336 21:50 02.08.2022
155 Clear 26 1006 49 10000 2.06 260 20:27 02.08.2022
156 Clear 28 1006 38 10000 2.68 271 16:52 02.08.2022
157 Clear 27 1008 42 10000 2.68 45 14:39 02.08.2022
158 Clouds 23 1015 56 10000 1.79 225 10:49 02.08.2022
159 Clouds 20 1017 66 10000 0.51 0 08:54 02.08.2022
160 Clouds 18 1016 71 10000 2.24 57 07:52 02.08.2022
161 Clear 18 1016 76 10000 1.79 54 04:59 02.08.2022
162 Clouds 18 1016 77 10000 1.54 10 03:36 02.08.2022
163 Clouds 20 1015 70 10000 3.58 21 23:32 01.08.2022
164 Clouds 21 1014 66 10000 2.68 340 21:54 01.08.2022
165 Clear 23 1014 67 10000 3.09 320 20:40 01.08.2022
166 Clouds 24 1005 63 10000 3.6 320 19:22 01.08.2022
167 Clouds 25 1005 64 10000 6.71 300 17:27 01.08.2022
168 Clouds 24 1005 67 10000 5.14 300 16:50 01.08.2022
169 Clouds 24 1005 69 10000 5.81 308 15:51 01.08.2022
170 Clouds 25 1004 67 10000 3.13 309 15:28 01.08.2022
171 Clouds 23 1005 69 10000 5.66 290 13:45 01.08.2022
172 Clouds 22 1004 74 10000 4.12 320 11:49 01.08.2022
173 Clouds 21 1010 80 10000 5.14 290 09:39 01.08.2022
174 Clouds 20 1010 82 10000 5.36 282 08:21 01.08.2022
175 Clouds 20 1009 75 10000 3.6 260 04:47 01.08.2022
176 Clear 20 1008 73 10000 4.63 290 02:32 01.08.2022
177 Rain 23 1010 57 10000 1.03 0 23:54 31.07.2022
178 Clear 24 1011 52 10000 1.34 256 22:36 31.07.2022
179 Clear 24 1011 52 10000 1.34 256 22:36 31.07.2022
180 Clear 25 1002 45 10000 1.79 300 21:24 31.07.2022
181 Clear 27 1003 41 10000 4.12 280 19:41 31.07.2022
182 Clear 28 1002 39 10000 4.12 270 17:47 31.07.2022
183 Clear 28 1004 45 10000 4.47 319 15:35 31.07.2022
184 Clear 28 1004 44 10000 3.58 266 13:42 31.07.2022
185 Clear 25 1014 50 10000 2.68 310 11:55 31.07.2022
186 Clear 23 1006 59 10000 1.79 293 09:36 31.07.2022
187 Clear 19 1006 65 10000 1.03 0 07:38 31.07.2022
188 Clear 18 1007 72 10000 0.89 154 02:58 31.07.2022
189 Clear 20 1006 61 10000 2.24 185 23:36 30.07.2022
190 Clear 22 1006 55 10000 2.68 157 22:19 30.07.2022
191 Clear 22 1006 52 10000 3.09 150 21:48 30.07.2022
192 Clear 23 1006 45 10000 2.24 70 20:57 30.07.2022
193 Clear 25 1006 41 10000 2.57 100 19:59 30.07.2022
194 Clear 26 1005 41 10000 2.68 41 18:53 30.07.2022
195 Clear 26 1006 40 10000 6.26 61 17:44 30.07.2022
196 Clear 26 1002 41 10000 4.63 50 15:54 30.07.2022
197 Clear 26 1004 39 10000 4.63 70 15:24 30.07.2022
198 Clear 25 1006 49 10000 2.68 10 13:18 30.07.2022
199 Clear 23 1014 57 10000 3.09 10 12:19 30.07.2022
200 Clear 21 1014 58 10000 2.57 40 10:31 30.07.2022
201 Clear 21 1014 58 10000 2.57 40 10:31 30.07.2022
202 Clear 21 1014 58 10000 2.57 40 10:31 30.07.2022
203 Clear 20 1014 62 10000 3.09 50 09:56 30.07.2022
204 Clear 19 1006 61 10000 2.57 30 07:55 30.07.2022
205 Clear 19 1006 53 10000 4.12 70 03:55 30.07.2022
206 Clear 20 1006 50 10000 4.63 70 02:25 30.07.2022
207 Clear 23 1006 43 10000 5.81 62 22:46 29.07.2022
208 Clear 25 1006 40 10000 5.66 70 21:24 29.07.2022
209 Clear 25 1006 38 10000 5.36 80 20:41 29.07.2022
210 Clear 28 1006 37 10000 5.81 66 18:26 29.07.2022
211 Clear 29 1007 36 10000 5.14 100 16:32 29.07.2022
212 Clear 27 1008 36 10000 6.26 95 13:45 29.07.2022
213 Clear 24 1008 45 10000 6.69 90 11:33 29.07.2022
214 Clear 18 1009 62 10000 4.47 78 08:51 29.07.2022
215 Clear 17 1008 67 10000 3.6 70 08:20 29.07.2022
216 Clear 15 1017 66 10000 3.6 60 02:52 29.07.2022
217 Clear 18 1009 58 10000 3.13 40 23:20 28.07.2022
218 Clear 20 1008 49 10000 2.68 40 21:31 28.07.2022
219 Clear 21 1008 45 10000 3.58 25 20:50 28.07.2022
220 Clear 23 1009 40 10000 2.68 45 19:58 28.07.2022
221 Clear 23 1009 41 10000 1.79 68 19:26 28.07.2022
222 Clear 24 1008 41 10000 2.24 300 17:46 28.07.2022
223 Clear 24 1009 41 10000 2.68 330 17:20 28.07.2022
224 Clear 24 1009 39 10000 2.24 304 16:40 28.07.2022
225 Clear 23 1010 46 10000 2.24 247 13:56 28.07.2022
226 Clouds 21 1018 52 10000 2.24 282 12:39 28.07.2022
227 Clear 14 1017 77 10000 0.51 0 07:46 28.07.2022
228 Clear 12 1010 74 10000 0.51 0 05:41 28.07.2022
229 Clear 12 1010 73 10000 0.51 0 05:20 28.07.2022
230 Clear 16 1009 59 10000 2.68 310 23:20 27.07.2022
231 Clear 19 1007 49 10000 2.68 310 21:31 27.07.2022
232 Clear 21 1007 50 10000 4.12 290 19:53 27.07.2022
233 Clear 21 1008 44 10000 4.02 280 19:20 27.07.2022
234 Clear 22 1005 43 10000 5.14 270 16:32 27.07.2022
235 Clear 22 1001 48 10000 6.17 290 15:51 27.07.2022
236 Clear 22 1001 45 10000 5.14 300 14:41 27.07.2022
237 Clouds 21 1004 50 10000 5.14 280 13:45 27.07.2022
238 Clouds 18 1014 58 10000 4.63 300 10:39 27.07.2022
239 Clear 14 1014 71 10000 3.13 271 07:53 27.07.2022
240 Clear 13 1014 70 10000 2.68 300 04:54 27.07.2022
241 Clear 18 1006 61 10000 3.09 290 23:29 26.07.2022
242 Clear 18 1012 64 10000 3.58 300 22:19 26.07.2022
243 Clear 20 1011 62 10000 5.36 307 20:58 26.07.2022
244 Clouds 22 1004 62 10000 5.81 298 19:33 26.07.2022
245 Clouds 22 1004 67 10000 6.69 290 18:41 26.07.2022
246 Clouds 21 1011 73 10000 5.36 294 17:54 26.07.2022
247 Clouds 21 997 69 10000 8.75 290 15:46 26.07.2022
248 Rain 23 1009 60 10000 8.05 259 14:43 26.07.2022
249 Clouds 24 1008 55 10000 6.71 254 12:35 26.07.2022
250 Clouds 22 1008 66 10000 6.71 261 10:32 26.07.2022
251 Clear 19 1009 82 10000 4.92 270 08:29 26.07.2022
252 Clouds 19 1008 85 10000 3.58 320 02:25 26.07.2022
253 Clouds 21 1007 78 10000 4.63 340 00:22 26.07.2022
254 Clouds 22 1005 80 10000 2.06 330 22:41 25.07.2022
255 Clouds 22 1005 83 10000 4.12 140 22:21 25.07.2022
256 Clear 23 1005 77 10000 1.79 176 21:31 25.07.2022
257 Clouds 25 991 67 10000 10.8 280 20:39 25.07.2022
258 Rain 32 995 34 10000 4.63 200 19:25 25.07.2022
259 Clear 34 995 30 10000 5.14 210 18:18 25.07.2022
260 Clear 34 997 30 10000 6.71 218 17:24 25.07.2022
261 Clear 34 999 34 10000 5.66 170 14:19 25.07.2022
262 Clear 29 1000 44 10000 5.14 170 10:56 25.07.2022
263 Clear 22 1010 53 10000 4.12 140 08:22 25.07.2022
264 Clear 20 1007 57 10000 2.68 121 01:49 25.07.2022
265 Clear 21 1007 54 10000 3.09 110 23:49 24.07.2022
266 Clear 22 1007 52 10000 3.09 100 22:54 24.07.2022
267 Clear 22 1007 52 10000 2.68 116 22:24 24.07.2022
268 Clear 24 1006 48 10000 2.24 128 21:18 24.07.2022
269 Clear 26 1006 44 10000 2.24 139 20:46 24.07.2022
270 Clear 27 1007 38 10000 2.68 268 19:54 24.07.2022
271 Clear 28 1008 36 10000 3.09 270 18:30 24.07.2022
272 Clear 28 1009 37 10000 2.68 152 16:28 24.07.2022
273 Clear 28 1009 37 10000 2.57 0 15:45 24.07.2022
274 Clear 26 1010 42 10000 2.68 265 14:19 24.07.2022
275 Clear 26 1011 46 10000 3.6 260 12:52 24.07.2022
276 Clear 23 1018 53 10000 3.13 295 11:38 24.07.2022
277 Clear 22 1018 55 10000 3.6 290 10:59 24.07.2022
278 Clear 16 1018 72 10000 2.68 282 08:32 24.07.2022
279 Clear 15 1018 74 10000 2.57 270 07:52 24.07.2022
280 Clear 12 1017 79 10000 3.13 262 05:44 24.07.2022
281 Clear 16 1017 65 10000 3.13 312 00:29 24.07.2022
282 Clear 20 1016 53 10000 4.92 330 21:37 23.07.2022
283 Clear 23 1007 52 10000 5.36 309 20:19 23.07.2022
284 Clear 24 1007 52 10000 6.17 280 18:50 23.07.2022
285 Clouds 25 1006 54 10000 5.66 280 17:28 23.07.2022
286 Clouds 24 1008 52 10000 5.36 279 16:35 23.07.2022
287 Clouds 24 1007 59 10000 5.81 306 15:31 23.07.2022
288 Clouds 23 1008 61 10000 4.63 260 14:59 23.07.2022
289 Clouds 22 1015 64 10000 5.14 280 14:28 23.07.2022
290 Clouds 22 1015 66 10000 4.12 280 13:36 23.07.2022
291 Clouds 17 1015 84 10000 2.06 30 10:49 23.07.2022
292 Clouds 16 1015 90 10000 2.24 293 10:22 23.07.2022
293 Rain 15 1014 87 10000 3.13 351 08:50 23.07.2022
294 Clear 17 1007 78 10000 1.34 221 03:40 23.07.2022
295 Clear 18 1008 77 10000 2.68 271 01:58 23.07.2022
296 Clear 19 1008 72 10000 2.68 330 23:19 22.07.2022
297 Clear 22 1008 64 10000 3.6 310 20:57 22.07.2022
298 Clear 23 1008 60 10000 4.12 310 19:47 22.07.2022
299 Clouds 25 1007 57 10000 4.47 281 18:29 22.07.2022
300 Clouds 25 1008 57 10000 5.36 309 17:28 22.07.2022
301 Clouds 25 1009 64 10000 4.02 290 14:57 22.07.2022
302 Clouds 22 1015 71 10000 5.14 250 12:23 22.07.2022
303 Clouds 21 1015 78 10000 4.12 260 09:43 22.07.2022
304 Clear 21 1015 79 10000 3.09 250 09:18 22.07.2022
305 Clouds 19 1015 83 10000 3.6 240 07:21 22.07.2022
306 Clear 20 1014 81 10000 3.13 266 04:18 22.07.2022
307 Clear 22 1008 81 10000 1.03 270 22:56 21.07.2022
308 Rain 24 1007 69 10000 2.24 294 21:35 21.07.2022
309 Clear 26 1007 62 10000 4.12 180 19:35 21.07.2022
310 Clear 26 1007 61 10000 5.14 170 18:29 21.07.2022
311 Clouds 25 1016 69 10000 4.47 180 17:20 21.07.2022
312 Rain 25 1015 64 10000 5.36 211 15:49 21.07.2022
313 Rain 28 1015 48 10000 6.71 256 14:46 21.07.2022
314 Rain 29 1007 43 10000 7.72 250 13:22 21.07.2022
315 Clear 28 1014 48 10000 5.66 250 11:43 21.07.2022
316 Clear 27 1004 52 10000 4.12 230 09:51 21.07.2022
317 Clear 25 1012 56 10000 6.17 230 08:53 21.07.2022
318 Clear 24 1012 55 10000 5.66 230 07:50 21.07.2022
319 Clear 24 1005 52 10000 5.36 156 06:27 21.07.2022
320 Clear 26 1005 46 10000 3.6 110 02:35 21.07.2022
321 Clear 28 1013 43 10000 2.68 103 22:47 20.07.2022
322 Clear 29 1013 40 10000 2.68 97 22:19 20.07.2022
323 Clear 33 1013 30 10000 2.57 140 20:46 20.07.2022
324 Clear 35 1006 25 10000 5.14 120 19:46 20.07.2022
325 Clear 36 1006 24 10000 4.63 110 18:54 20.07.2022
326 Clear 36 1006 23 10000 6.17 100 18:31 20.07.2022
327 Clear 37 1007 23 10000 3.58 90 17:28 20.07.2022
328 Clear 37 1007 22 10000 4.63 0 15:33 20.07.2022
329 Clear 37 1008 23 10000 5.66 110 14:49 20.07.2022
330 Clear 36 1009 26 10000 3.6 150 13:21 20.07.2022
331 Clear 33 1007 35 10000 2.06 0 10:59 20.07.2022
332 Clear 23 1008 55 10000 1.54 0 06:49 20.07.2022
333 Clear 24 1009 48 10000 3.09 90 01:56 20.07.2022
334 Clear 25 1016 46 10000 3.6 70 00:42 20.07.2022
335 Clear 26 1016 43 10000 3.09 70 22:38 19.07.2022
336 Clear 27 1009 39 10000 3.13 86 22:20 19.07.2022
337 Clear 30 1007 33 10000 2.06 50 20:50 19.07.2022
338 Clear 33 1008 24 10000 2.24 35 19:38 19.07.2022
339 Clear 34 1008 23 10000 2.68 360 18:43 19.07.2022
340 Clear 34 1008 23 10000 3.13 331 17:56 19.07.2022
341 Clear 35 1008 22 10000 2.68 321 16:25 19.07.2022
342 Clear 34 1009 23 10000 2.24 263 14:31 19.07.2022
343 Clear 31 1017 34 10000 1.54 0 11:35 19.07.2022
344 Clear 28 1018 41 10000 2.24 356 10:31 19.07.2022
345 Clear 24 1009 49 10000 2.06 260 08:48 19.07.2022
346 Clear 22 1018 54 10000 1.54 230 08:22 19.07.2022
347 Clear 20 1010 59 10000 0.89 116 07:18 19.07.2022
348 Clear 18 1009 63 10000 1.03 110 05:26 19.07.2022
349 Clear 18 1011 62 10000 1.34 110 04:48 19.07.2022
350 Clear 22 1011 51 10000 2.57 140 00:35 19.07.2022
351 Clear 23 1011 46 10000 3.13 136 23:31 18.07.2022
352 Clear 23 1011 51 10000 2.68 130 22:58 18.07.2022
353 Clear 24 1011 49 10000 1.54 100 21:58 18.07.2022
354 Clear 27 1011 41 10000 2.24 188 20:51 18.07.2022
355 Clear 28 1012 35 10000 2.57 230 19:26 18.07.2022
356 Clear 29 1013 34 10000 3.58 319 17:24 18.07.2022
357 Clear 28 1013 36 10000 1.79 242 15:52 18.07.2022
358 Clear 28 1013 36 10000 3.13 189 14:34 18.07.2022
359 Clear 26 1022 40 10000 2.24 300 12:58 18.07.2022
360 Clear 25 1022 46 10000 3.09 260 11:31 18.07.2022
361 Clear 21 1022 56 10000 2.06 220 08:57 18.07.2022
362 Clear 17 1022 66 10000 2.24 230 07:38 18.07.2022
363 Clear 16 1015 65 10000 1.54 180 01:43 18.07.2022
364 Clear 18 1015 57 10000 1.34 308 22:46 17.07.2022
365 Clear 19 1015 54 10000 2.24 296 22:22 17.07.2022
366 Clear 21 1015 53 10000 2.68 310 21:24 17.07.2022
367 Clear 22 1015 44 10000 2.68 301 20:44 17.07.2022
368 Clear 23 1015 40 10000 3.6 290 19:34 17.07.2022
369 Clear 23 1015 41 10000 4.12 310 18:56 17.07.2022
370 Clear 24 1016 42 10000 3.13 276 17:39 17.07.2022
371 Clear 24 1014 41 10000 2.68 293 16:51 17.07.2022
372 Clear 24 1016 41 10000 3.6 300 16:27 17.07.2022
373 Clouds 23 1016 45 10000 4.63 290 15:27 17.07.2022
374 Clouds 20 1017 51 10000 5.36 275 13:34 17.07.2022
375 Clouds 19 1024 55 10000 5.81 283 12:32 17.07.2022
376 Clear 16 1024 66 10000 7.15 290 09:31 17.07.2022
377 Clear 11 1023 75 10000 2.68 265 06:58 17.07.2022
378 Clear 13 1015 64 10000 4.63 290 02:33 17.07.2022
379 Clear 16 1021 54 10000 4.92 300 23:23 16.07.2022
380 Clear 18 1020 48 10000 5.36 300 21:57 16.07.2022
381 Clear 20 1011 43 10000 7.6 308 20:28 16.07.2022
382 Clear 22 1011 41 10000 11.18 297 18:43 16.07.2022
383 Clear 22 1010 39 10000 8.75 320 17:25 16.07.2022
384 Clear 22 1009 39 10000 9.83 288 15:50 16.07.2022
385 Clouds 19 1014 61 10000 9.39 306 11:55 16.07.2022
386 Clouds 16 1013 77 10000 6.69 270 10:18 16.07.2022
387 Clouds 15 1007 79 10000 8.23 270 09:25 16.07.2022
388 Rain 16 1007 73 10000 6.69 240 08:40 16.07.2022
389 Clouds 15 1007 68 10000 4.92 221 06:57 16.07.2022
390 Clear 16 1014 66 10000 3.6 240 03:32 16.07.2022
391 Clear 16 1016 60 10000 3.13 280 00:23 16.07.2022
392 Clear 17 1015 53 10000 4.47 276 22:54 15.07.2022
393 Clear 18 1016 53 10000 4.63 270 21:55 15.07.2022
394 Clear 19 1015 47 10000 4.47 279 20:40 15.07.2022
395 Clear 20 1017 48 10000 6.17 260 18:55 15.07.2022
396 Clear 20 1016 51 10000 6.17 290 18:22 15.07.2022
397 Clear 21 1010 44 10000 6.69 290 16:53 15.07.2022
398 Clouds 19 1010 52 10000 7.6 287 14:19 15.07.2022
399 Clouds 18 1015 51 10000 6.69 280 12:28 15.07.2022
400 Clouds 17 1015 58 10000 8.23 280 10:52 15.07.2022
401 Clear 14 1015 69 10000 7.6 272 07:48 15.07.2022
402 Clear 14 1015 69 10000 3.13 280 03:41 15.07.2022
403 Clear 16 1014 60 10000 4.92 313 00:43 15.07.2022
404 Clear 18 1014 53 10000 6.71 308 23:24 14.07.2022
405 Clear 19 1006 49 10000 6.17 310 22:32 14.07.2022
406 Clear 19 1013 47 10000 6.26 313 21:41 14.07.2022
407 Clear 20 1006 45 10000 6.71 298 21:23 14.07.2022
408 Clear 21 1012 47 10000 7.6 296 20:43 14.07.2022
409 Clear 22 1005 46 10000 8.05 334 20:19 14.07.2022
410 Clear 23 1005 38 10000 5.36 315 18:38 14.07.2022
411 Clear 25 1005 34 10000 5.36 287 16:20 14.07.2022
412 Clear 25 1005 34 10000 3.13 254 15:26 14.07.2022
413 Clear 24 1007 39 10000 3.6 340 13:52 14.07.2022
414 Clear 22 1015 44 10000 4.47 297 12:39 14.07.2022
415 Clouds 22 1015 48 10000 4.12 330 11:41 14.07.2022
416 Clouds 21 1016 50 10000 4.47 319 11:21 14.07.2022
417 Clouds 19 1016 64 10000 3.6 320 09:49 14.07.2022
418 Clear 17 1016 71 10000 4.47 310 05:20 14.07.2022
419 Clear 22 1013 57 10000 4.12 310 01:22 14.07.2022
420 Clear 22 1013 55 10000 5.14 320 00:52 14.07.2022
421 Clear 25 1015 49 10000 6.69 330 22:32 13.07.2022
422 Clear 26 1011 54 10000 6.17 320 21:54 13.07.2022
423 Clear 27 1010 49 10000 3.6 260 20:45 13.07.2022
424 Clear 29 1005 37 10000 6.69 280 19:19 13.07.2022
425 Clear 30 1006 34 10000 4.92 277 17:35 13.07.2022
426 Clear 29 1006 34 10000 5.81 271 16:23 13.07.2022
427 Clear 28 1007 36 10000 5.66 270 15:24 13.07.2022
428 Clear 27 1014 49 10000 5.14 250 12:55 13.07.2022
429 Clear 23 1015 59 10000 4.92 241 10:45 13.07.2022
430 Clear 23 1016 64 10000 3.58 249 09:58 13.07.2022
431 Clear 22 1010 64 10000 3.09 260 09:21 13.07.2022
432 Clear 17 1017 72 10000 2.57 240 06:19 13.07.2022
433 Clear 17 1018 67 10000 2.24 263 02:21 13.07.2022
434 Clear 19 1019 59 10000 2.57 300 23:45 12.07.2022
435 Clear 22 1017 48 10000 3.58 310 21:57 12.07.2022
436 Clear 24 1010 48 10000 5.14 300 21:32 12.07.2022
437 Clear 25 1017 52 10000 6.17 290 20:41 12.07.2022
438 Clear 26 1012 38 10000 5.14 300 19:28 12.07.2022
439 Clear 27 1012 40 10000 5.14 300 17:50 12.07.2022
440 Clear 26 1011 42 10000 5.36 320 16:20 12.07.2022
441 Clear 26 1012 43 10000 6.26 306 14:31 12.07.2022
442 Clear 25 1013 40 10000 5.36 326 12:48 12.07.2022
443 Clear 24 1019 43 10000 4.92 311 11:37 12.07.2022
444 Clear 21 1019 54 10000 4.63 320 10:18 12.07.2022
445 Clear 21 1019 54 10000 4.63 320 10:18 12.07.2022
446 Clear 17 1020 62 10000 3.6 330 08:24 12.07.2022
447 Clear 15 1020 69 10000 2.24 293 07:38 12.07.2022
448 Clear 13 1013 77 10000 2.24 279 05:42 12.07.2022
449 Clear 13 1019 76 10000 1.34 290 03:29 12.07.2022
450 Clear 16 1019 67 10000 1.79 359 23:43 11.07.2022
451 Clear 17 1019 66 10000 2.24 340 22:36 11.07.2022
452 Clear 22 1014 59 10000 4.12 350 20:54 11.07.2022
453 Clear 22 1018 52 10000 6.26 321 20:26 11.07.2022
454 Clear 22 1018 46 10000 5.36 341 18:39 11.07.2022
455 Clear 23 1018 45 10000 4.12 330 17:57 11.07.2022
456 Clear 23 1018 43 10000 4.12 300 16:22 11.07.2022
457 Clear 22 1017 54 10000 5.14 310 14:58 11.07.2022
458 Clouds 21 1019 57 10000 4.92 294 12:38 11.07.2022
459 Clouds 19 1017 64 10000 4.63 280 10:56 11.07.2022
460 Clear 18 1017 68 10000 5.36 292 09:54 11.07.2022
461 Clear 16 1017 71 10000 5.14 290 09:21 11.07.2022
462 Clear 14 1018 76 10000 5.81 291 08:30 11.07.2022
463 Clear 14 1018 68 10000 3.6 290 00:56 11.07.2022
464 Clear 15 1010 64 10000 3.6 290 23:53 10.07.2022
465 Clear 17 1010 62 10000 4.02 300 22:37 10.07.2022
466 Clear 18 1009 56 10000 5.14 300 20:55 10.07.2022
467 Clear 19 1009 55 10000 5.81 297 20:34 10.07.2022
468 Clear 20 1009 53 10000 5.81 295 19:29 10.07.2022
469 Clear 20 1009 53 10000 5.36 320 18:23 10.07.2022
470 Clouds 20 1009 52 10000 7.15 297 17:20 10.07.2022
471 Clouds 20 1006 56 10000 6.17 310 16:21 10.07.2022
472 Clouds 19 1010 57 10000 6.71 296 14:47 10.07.2022
473 Clouds 18 1009 58 10000 8.05 303 13:30 10.07.2022
474 Clouds 17 1016 64 10000 8.23 300 11:44 10.07.2022
475 Clouds 16 1009 71 10000 8.49 293 09:46 10.07.2022
476 Clouds 15 1010 73 10000 6.17 290 08:44 10.07.2022
477 Clouds 13 1016 76 10000 7.2 290 07:20 10.07.2022
478 Clear 15 1011 65 10000 6.17 310 23:53 09.07.2022
479 Clouds 17 1017 72 10000 3.13 300 22:26 09.07.2022
480 Clouds 17 1017 76 10000 3.13 282 21:49 09.07.2022
481 Clouds 19 1009 73 10000 6.26 280 19:57 09.07.2022
482 Clouds 20 1010 69 10000 5.14 310 18:32 09.07.2022
483 Clouds 20 1008 70 10000 6.69 280 17:32 09.07.2022
484 Clouds 20 1010 70 10000 3.6 300 16:44 09.07.2022
485 Clouds 20 996 69 10000 5.75 286 15:40 09.07.2022
486 Clouds 21 1012 63 10000 6.69 270 14:27 09.07.2022
487 Clouds 21 1011 69 10000 5.66 270 13:49 09.07.2022
488 Clouds 19 1005 78 10000 3.6 290 12:45 09.07.2022
489 Clouds 17 1019 73 10000 6.26 275 11:22 09.07.2022
490 Clouds 17 1019 71 10000 4.63 270 10:22 09.07.2022
491 Clouds 15 1014 80 10000 4.12 300 07:45 09.07.2022
492 Clear 13 1021 82 10000 3.6 300 04:57 09.07.2022
493 Clear 15 1022 77 10000 3.58 270 01:50 09.07.2022
494 Clear 17 1023 71 10000 3.6 260 22:54 08.07.2022
495 Clear 19 1021 68 10000 3.13 261 21:43 08.07.2022
496 Clouds 20 1015 65 10000 4.63 270 20:40 08.07.2022
497 Clouds 20 1021 67 10000 5.81 279 19:52 08.07.2022
498 Clouds 19 1016 68 10000 6.26 297 18:24 08.07.2022
499 Clouds 19 1017 64 10000 7.72 280 16:40 08.07.2022
500 Clouds 20 1016 57 10000 6.26 307 14:53 08.07.2022
501 Clouds 21 1008 60 10000 6.69 270 13:41 08.07.2022
502 Clouds 18 1009 66 10000 6.17 290 11:51 08.07.2022
503 Clouds 17 1016 77 10000 6.17 280 10:29 08.07.2022
504 Clouds 15 1015 86 10000 6.71 296 08:33 08.07.2022
505 Clouds 15 1021 87 10000 5.36 284 06:50 08.07.2022
506 Clouds 14 1019 86 10000 4.47 276 01:31 08.07.2022
507 Clouds 15 1011 91 10000 4.12 290 23:22 07.07.2022
508 Clouds 15 1010 92 10000 5.66 310 22:35 07.07.2022
509 Rain 17 1008 91 10000 6.26 349 20:36 07.07.2022
510 Clouds 19 1007 86 10000 3.58 230 18:20 07.07.2022
511 Clouds 20 1006 80 10000 4.63 240 16:57 07.07.2022
512 Clouds 18 1007 84 10000 5.36 223 14:56 07.07.2022
513 Clouds 16 1006 90 10000 5.66 230 13:25 07.07.2022
514 Clouds 16 1007 88 10000 5.66 230 12:37 07.07.2022
515 Clouds 16 1006 91 10000 5.66 230 12:18 07.07.2022
516 Drizzle 15 1006 91 3100 6.69 220 11:29 07.07.2022
517 Clouds 14 1006 91 10000 6.69 220 10:42 07.07.2022
518 Clouds 14 1006 92 10000 7.2 220 10:24 07.07.2022
519 Rain 13 1007 87 4900 5.81 212 07:22 07.07.2022
520 Clear 15 1009 60 10000 4.63 220 02:55 07.07.2022
521 Clouds 15 1009 63 10000 2.68 250 23:37 06.07.2022
522 Clear 15 1017 62 10000 2.57 250 23:18 06.07.2022
523 Clear 16 1017 61 10000 2.57 250 22:56 06.07.2022
524 Clear 16 1017 60 10000 2.57 250 22:38 06.07.2022
525 Clouds 18 1017 57 10000 4.63 300 21:27 06.07.2022
526 Clouds 20 1011 46 10000 5.66 300 19:38 06.07.2022
527 Clear 20 1018 54 10000 6.69 280 18:21 06.07.2022
528 Clouds 20 1019 51 10000 5.36 285 16:19 06.07.2022
529 Clear 20 1019 52 10000 7.2 280 14:55 06.07.2022
530 Clouds 19 1019 53 10000 8.94 282 12:40 06.07.2022
531 Clouds 19 1018 51 10000 6.71 289 11:49 06.07.2022
532 Clouds 19 1018 57 10000 6.26 300 10:18 06.07.2022
533 Clear 16 1018 70 10000 5.36 308 07:47 06.07.2022
534 Clear 16 1018 70 10000 4.47 293 07:23 06.07.2022
535 Clouds 16 1012 69 10000 5.14 320 05:28 06.07.2022
536 Clear 19 1018 50 10000 3.13 339 22:45 05.07.2022
537 Clear 20 1017 48 10000 4.47 320 21:53 05.07.2022
538 Clear 22 1017 42 10000 4.92 307 20:39 05.07.2022
539 Clear 24 1010 40 10000 5.14 310 19:43 05.07.2022
540 Clear 24 1010 40 10000 5.36 297 19:22 05.07.2022
541 Clear 25 1010 42 10000 5.66 280 17:48 05.07.2022
542 Clear 25 1006 44 10000 6.17 270 16:55 05.07.2022
543 Clear 24 1017 42 10000 6.17 300 15:31 05.07.2022
544 Clear 24 1018 42 10000 6.26 261 14:28 05.07.2022
545 Clear 24 1017 47 10000 5.81 289 12:47 05.07.2022
546 Clouds 24 1018 50 10000 3.58 300 11:49 05.07.2022
547 Clear 22 1019 55 10000 3.09 0 10:40 05.07.2022
548 Clear 20 1018 60 10000 4.02 15 09:23 05.07.2022
549 Clear 18 1017 66 10000 5.36 0 07:52 05.07.2022
550 Clear 16 1009 72 10000 1.79 340 05:29 05.07.2022
551 Clear 17 1009 65 10000 2.06 300 04:24 05.07.2022
552 Clear 17 1009 63 10000 2.68 187 00:37 05.07.2022
553 Clear 19 1008 59 10000 1.03 0 23:34 04.07.2022
554 Clear 19 1016 56 10000 1.79 338 22:47 04.07.2022
555 Clear 22 1015 51 10000 2.68 320 21:46 04.07.2022
556 Clear 23 1006 44 10000 3.6 310 20:53 04.07.2022
557 Clear 24 1007 43 10000 4.12 300 20:34 04.07.2022
558 Clear 24 1008 41 10000 5.66 300 19:55 04.07.2022
559 Clear 25 1008 41 10000 5.81 308 19:36 04.07.2022
560 Clear 25 1008 39 10000 5.81 281 18:18 04.07.2022
561 Clear 25 1008 42 10000 4.63 280 15:58 04.07.2022
562 Clear 25 1008 44 10000 5.36 276 15:34 04.07.2022
563 Clear 25 1009 48 10000 6.26 293 13:33 04.07.2022
564 Clouds 24 1015 51 10000 5.36 263 12:33 04.07.2022
565 Clouds 21 1016 63 10000 4.92 310 10:34 04.07.2022
566 Clouds 21 1016 67 10000 6.26 313 09:53 04.07.2022
567 Clouds 19 1015 74 10000 5.66 280 08:31 04.07.2022
568 Clear 18 1014 82 10000 4.47 315 05:18 04.07.2022
569 Clear 22 1012 56 10000 2.68 116 00:42 04.07.2022
570 Clear 24 1009 47 10000 4.12 110 22:59 03.07.2022
571 Clear 28 1004 38 10000 3.13 125 20:59 03.07.2022
572 Clear 28 1002 36 10000 3.13 127 20:41 03.07.2022
573 Clear 29 1006 34 10000 1.79 135 19:42 03.07.2022
574 Clear 29 1006 34 10000 2.24 135 19:23 03.07.2022
575 Clear 30 1006 32 10000 2.24 135 17:45 03.07.2022
576 Clear 30 1006 33 10000 1.79 120 16:54 03.07.2022
577 Clear 30 1007 33 10000 2.24 45 15:24 03.07.2022
578 Clear 30 1007 34 10000 2.68 101 14:37 03.07.2022
579 Clear 29 1008 38 10000 4.02 190 13:49 03.07.2022
580 Clear 28 1008 40 10000 4.92 118 12:41 03.07.2022
581 Clear 26 1009 42 10000 5.66 150 11:39 03.07.2022
582 Clear 26 1008 44 10000 7.2 140 10:39 03.07.2022
583 Clear 24 1016 51 10000 5.81 131 09:59 03.07.2022
584 Clear 19 1016 64 10000 4.12 140 07:37 03.07.2022
585 Clear 16 1011 66 10000 2.06 120 05:22 03.07.2022
586 Clear 19 1011 54 10000 3.13 102 00:24 03.07.2022
587 Clear 21 1011 54 10000 3.58 105 22:36 02.07.2022
588 Clear 23 1011 47 10000 3.13 100 21:43 02.07.2022
589 Clear 25 1010 37 10000 2.06 150 20:20 02.07.2022
590 Clear 25 1012 36 10000 3.58 139 19:49 02.07.2022
591 Clear 26 1012 37 10000 2.68 271 17:58 02.07.2022
592 Clear 26 1013 35 10000 2.68 267 17:37 02.07.2022
593 Clear 27 1013 36 10000 2.68 136 15:37 02.07.2022
594 Clear 25 1015 42 10000 2.57 280 12:49 02.07.2022
595 Clear 23 1020 49 10000 3.6 240 11:28 02.07.2022
596 Clouds 22 1021 53 10000 4.02 224 10:48 02.07.2022
597 Clear 21 1015 64 10000 1.54 0 09:49 02.07.2022
598 Clear 21 1015 64 10000 1.54 0 09:49 02.07.2022
599 Clear 18 1020 76 10000 2.68 215 08:37 02.07.2022
600 Clear 17 1021 82 10000 2.68 220 08:19 02.07.2022
601 Clear 14 1019 87 10000 3.13 244 02:53 02.07.2022
602 Clear 16 1018 82 10000 2.68 248 00:27 02.07.2022
603 Clouds 17 1018 82 10000 4.12 280 22:59 01.07.2022
604 Clouds 17 1017 82 10000 4.63 260 22:29 01.07.2022
605 Clouds 17 1009 81 10000 4.63 290 21:37 01.07.2022
606 Clouds 17 1009 82 10000 5.66 280 20:58 01.07.2022
607 Clouds 17 1009 81 10000 6.71 299 20:20 01.07.2022
608 Clouds 17 1008 84 10000 7.72 280 19:36 01.07.2022
609 Rain 18 1012 82 10000 7.72 280 16:41 01.07.2022
610 Rain 19 1012 85 10000 9.83 282 14:29 01.07.2022
611 Clouds 19 1011 80 10000 9.77 280 13:33 01.07.2022
612 Clouds 26 1012 65 10000 3.09 350 10:54 01.07.2022
613 Clouds 25 1010 70 10000 3.6 330 10:19 01.07.2022
614 Clear 21 1008 83 10000 2.06 80 06:31 01.07.2022
615 Clear 21 1002 78 10000 3.6 80 02:43 01.07.2022
616 Clear 23 1002 71 10000 2.68 68 23:44 30.06.2022
617 Clear 24 1002 65 10000 4.47 83 22:50 30.06.2022
618 Clear 24 1002 65 10000 4.02 70 22:31 30.06.2022
619 Clear 25 1002 66 10000 3.13 78 21:53 30.06.2022
620 Clouds 26 1002 60 10000 3.13 110 20:49 30.06.2022
621 Clouds 27 1002 58 10000 3.6 90 20:21 30.06.2022
622 Clouds 27 1002 54 10000 3.13 91 19:48 30.06.2022
623 Clouds 28 1002 55 10000 3.6 80 18:54 30.06.2022
624 Clouds 28 1002 58 10000 3.13 70 18:22 30.06.2022
625 Clouds 28 1003 57 10000 2.68 20 17:34 30.06.2022
626 Clouds 28 1002 61 10000 2.24 61 16:20 30.06.2022
627 Clouds 27 1003 59 10000 2.68 43 14:20 30.06.2022
628 Clouds 28 999 60 10000 1.34 61 13:21 30.06.2022
629 Clouds 26 1003 63 10000 2.57 60 12:34 30.06.2022
630 Clouds 25 1004 65 10000 3.13 26 11:21 30.06.2022
631 Clouds 23 1004 70 10000 2.68 65 09:52 30.06.2022
632 Clouds 22 1004 69 10000 2.68 60 09:26 30.06.2022
633 Clouds 21 1003 72 10000 4.47 74 07:41 30.06.2022
634 Clouds 20 1005 69 10000 3.58 40 05:46 30.06.2022
635 Clouds 21 1013 61 10000 2.68 65 00:26 30.06.2022
636 Clouds 21 1005 60 10000 3.13 70 22:58 29.06.2022
637 Clouds 21 1012 58 10000 3.13 90 22:37 29.06.2022
638 Clouds 22 1006 56 10000 4.63 90 21:31 29.06.2022
639 Clear 23 1011 50 10000 4.47 112 20:33 29.06.2022
640 Clear 23 1011 50 10000 4.47 112 20:33 29.06.2022
641 Clouds 24 1004 43 10000 2.68 93 19:34 29.06.2022
642 Clear 25 1006 38 10000 5.36 85 17:40 29.06.2022
643 Clear 25 1006 43 10000 6.71 86 16:35 29.06.2022
644 Clear 26 1007 42 10000 4.92 89 14:50 29.06.2022
645 Rain 24 1015 42 10000 4.47 86 12:39 29.06.2022
646 Clear 23 1014 53 10000 5.14 60 10:37 29.06.2022
647 Clear 22 1015 61 10000 4.92 74 09:32 29.06.2022
648 Clear 19 1016 73 10000 4.12 90 07:36 29.06.2022
649 Clear 17 1017 79 10000 3.13 70 04:51 29.06.2022
650 Clear 19 1017 66 10000 3.13 72 00:57 29.06.2022
651 Clear 19 1018 68 10000 3.09 70 00:35 29.06.2022
652 Clear 21 1018 62 10000 2.68 80 22:54 28.06.2022
653 Clear 21 1018 61 10000 3.6 70 22:24 28.06.2022
654 Clear 22 1017 60 10000 3.6 80 21:54 28.06.2022
655 Clear 23 1009 58 10000 3.6 80 21:32 28.06.2022
656 Clear 24 1009 47 10000 3.13 50 20:35 28.06.2022
657 Clear 25 1010 45 10000 2.57 130 19:34 28.06.2022
658 Clear 25 1010 41 10000 2.68 108 18:53 28.06.2022
659 Clear 26 1010 41 10000 4.47 73 17:40 28.06.2022
660 Clear 26 1011 44 10000 3.13 320 15:59 28.06.2022
661 Clear 26 1011 45 10000 3.13 320 15:38 28.06.2022
662 Clear 25 1011 50 10000 2.57 310 14:21 28.06.2022
663 Clouds 25 1011 52 10000 3.6 340 13:54 28.06.2022
664 Clouds 24 1011 57 10000 5.14 310 12:57 28.06.2022
665 Clouds 22 1018 65 10000 4.92 314 11:18 28.06.2022
666 Clouds 19 1017 78 10000 6.17 300 09:36 28.06.2022
667 Clouds 18 1017 81 10000 8.75 300 08:44 28.06.2022
668 Rain 18 1017 86 10000 6.17 290 07:43 28.06.2022
669 Rain 18 1018 86 10000 6.69 290 07:19 28.06.2022
670 Rain 21 1014 72 10000 7.72 300 01:33 28.06.2022
671 Clouds 23 1015 67 10000 5.66 270 23:44 27.06.2022
672 Clear 25 1014 61 10000 3.09 270 22:55 27.06.2022
673 Clear 26 1014 50 10000 3.6 280 21:38 27.06.2022
674 Clear 27 1013 47 10000 6.17 280 21:38 27.06.2022
675 Clear 29 1007 47 10000 6.17 280 20:54 27.06.2022
676 Clear 31 1009 44 10000 5.81 281 19:40 27.06.2022
677 Clouds 33 1002 38 10000 4.63 230 18:40 27.06.2022
678 Clear 35 1002 30 10000 5.14 160 16:44 27.06.2022
679 Clear 35 1002 30 10000 5.36 150 15:42 27.06.2022
680 Clear 34 1002 35 10000 6.71 155 13:44 27.06.2022
681 Clear 33 1003 39 10000 5.66 150 12:57 27.06.2022
682 Clear 31 1004 49 10000 6.17 150 10:43 27.06.2022
683 Clear 28 1004 53 10000 3.6 140 09:37 27.06.2022
684 Clear 27 1005 59 10000 3.6 110 08:38 27.06.2022
685 Clear 24 1010 67 10000 3.58 103 07:39 27.06.2022
686 Clear 20 1011 77 10000 2.24 100 04:40 27.06.2022
687 Clear 22 1011 70 10000 3.13 117 01:21 27.06.2022
688 Clear 24 1012 66 10000 2.68 92 22:48 26.06.2022
689 Clear 27 1003 55 10000 1.79 65 21:23 26.06.2022
690 Clear 29 1003 47 10000 2.68 111 20:28 26.06.2022
691 Clear 32 1004 41 10000 1.54 0 18:33 26.06.2022
692 Clear 32 1004 42 10000 1.79 135 17:38 26.06.2022
693 Clear 31 1001 42 10000 3.09 0 15:36 26.06.2022
694 Clouds 31 1005 49 10000 3.6 160 14:22 26.06.2022
695 Clouds 30 1005 47 10000 4.12 180 13:23 26.06.2022
696 Clouds 28 1011 54 10000 4.02 113 11:39 26.06.2022
697 Clouds 28 1005 54 10000 5.66 120 10:42 26.06.2022
698 Clear 27 1005 59 10000 3.09 130 09:58 26.06.2022
699 Clear 22 1004 83 10000 1.03 0 07:47 26.06.2022
700 Clear 19 1012 92 10000 1.79 124 06:19 26.06.2022
701 Clear 21 1003 84 10000 2.68 151 00:37 26.06.2022
702 Clear 21 1003 84 10000 1.54 120 00:18 26.06.2022
703 Clear 21 1011 81 10000 0.89 30 23:31 25.06.2022
704 Clear 22 1011 79 10000 1.54 250 22:48 25.06.2022
705 Clear 22 1010 78 10000 1.79 310 22:25 25.06.2022
706 Clouds 24 1003 72 10000 2.24 270 21:21 25.06.2022
707 Clear 25 1002 71 10000 2.68 293 20:48 25.06.2022
708 Clear 26 1002 67 10000 3.09 250 20:25 25.06.2022
709 Clear 26 1002 67 10000 3.09 250 20:25 25.06.2022
710 Clouds 27 1001 66 10000 3.6 180 18:24 25.06.2022
711 Clear 27 1008 56 10000 2.68 293 17:27 25.06.2022
712 Clouds 28 1009 54 10000 1.54 110 16:28 25.06.2022
713 Clouds 28 1009 60 10000 2.24 203 14:41 25.06.2022
714 Clouds 26 1008 68 10000 2.57 0 12:51 25.06.2022
715 Clouds 26 1008 66 10000 2.57 0 12:31 25.06.2022
716 Clouds 23 1009 75 10000 1.54 40 09:35 25.06.2022
717 Clear 23 1007 73 10000 2.24 138 08:54 25.06.2022
718 Clear 22 1008 77 10000 2.06 140 08:20 25.06.2022
719 Clear 20 1007 85 10000 2.24 144 06:36 25.06.2022
720 Clouds 21 1006 76 10000 1.79 120 00:50 25.06.2022
721 Clouds 21 1009 75 10000 2.57 100 23:57 24.06.2022
722 Clouds 23 1004 66 10000 2.57 150 22:29 24.06.2022
723 Clear 22 1007 79 10000 2.06 270 21:28 24.06.2022
724 Clouds 24 1007 66 10000 5.14 230 20:24 24.06.2022
725 Clear 27 1004 45 10000 7.2 250 19:37 24.06.2022
726 Clear 27 1007 44 10000 7.2 250 19:18 24.06.2022
727 Clear 29 1002 38 10000 6.17 230 18:44 24.06.2022
728 Clear 30 996 38 10000 8.75 210 18:24 24.06.2022
729 Clear 32 996 28 10000 7.15 144 16:47 24.06.2022
730 Clear 31 998 28 10000 8.49 148 14:50 24.06.2022
731 Clear 31 998 29 10000 6.26 143 14:23 24.06.2022
732 Clear 31 998 32 10000 7.72 140 13:46 24.06.2022
733 Clear 30 999 36 10000 5.66 130 11:42 24.06.2022
734 Clear 28 1000 42 10000 6.26 119 10:39 24.06.2022
735 Clear 26 1001 45 10000 6.71 133 09:42 24.06.2022
736 Clear 26 1001 45 10000 6.71 133 09:42 24.06.2022
737 Clear 24 1002 48 10000 7.15 127 08:54 24.06.2022
738 Clear 23 1007 52 10000 5.14 130 08:19 24.06.2022
739 Clear 20 1002 58 10000 4.02 121 06:44 24.06.2022
740 Clear 19 1002 60 10000 4.02 117 06:25 24.06.2022
741 Clear 19 1009 63 10000 4.47 117 04:50 24.06.2022
742 Clear 23 1009 50 10000 4.63 70 23:43 23.06.2022
743 Clear 24 1010 46 10000 3.6 60 22:43 23.06.2022
744 Clear 27 1002 37 10000 3.6 70 21:22 23.06.2022
745 Clear 28 999 32 10000 4.12 70 20:37 23.06.2022
746 Clear 29 1003 31 10000 3.13 100 19:54 23.06.2022
747 Clear 29 1003 29 10000 3.13 90 18:38 23.06.2022
748 Clear 30 1004 30 10000 4.12 110 17:34 23.06.2022
749 Clear 30 1001 30 10000 4.63 80 16:32 23.06.2022
750 Clear 30 1001 30 10000 4.12 90 15:26 23.06.2022
751 Clear 30 1002 31 10000 3.09 110 14:36 23.06.2022
752 Clear 27 1012 44 10000 2.68 81 11:42 23.06.2022
753 Clear 25 1013 50 10000 2.06 70 10:41 23.06.2022
754 Clear 22 1013 54 10000 2.24 60 09:19 23.06.2022
755 Clear 21 1014 57 10000 2.68 30 09:19 23.06.2022
756 Clear 15 1005 77 10000 3.13 31 05:37 23.06.2022
757 Clear 19 1011 64 10000 4.63 40 00:28 23.06.2022
758 Clear 19 1010 59 10000 5.14 30 23:59 22.06.2022
759 Clear 20 1002 56 10000 2.57 350 23:18 22.06.2022
760 Clear 22 993 46 10000 2.68 320 21:44 22.06.2022
761 Clear 25 1009 36 10000 3.6 350 20:52 22.06.2022
762 Clear 26 1001 32 10000 3.13 350 20:20 22.06.2022
763 Clear 26 1009 31 10000 2.68 340 19:43 22.06.2022
764 Clear 28 1001 29 10000 2.68 294 17:40 22.06.2022
765 Clear 28 999 27 10000 2.24 270 16:41 22.06.2022
766 Clear 28 1002 29 10000 1.79 240 15:29 22.06.2022
767 Clear 28 1002 30 10000 2.68 302 14:51 22.06.2022
768 Clear 27 1002 32 10000 2.57 0 13:48 22.06.2022
769 Clear 27 1002 33 10000 2.57 0 13:24 22.06.2022
770 Clear 26 1009 36 10000 3.58 143 12:18 22.06.2022
771 Clear 25 1008 37 10000 2.24 315 11:45 22.06.2022
772 Clear 24 1009 40 10000 2.57 180 10:47 22.06.2022
773 Clear 23 1009 46 10000 1.34 6 09:40 22.06.2022
774 Clear 16 1009 74 10000 1.03 0 07:22 22.06.2022
775 Clear 14 1011 78 10000 0.89 82 02:39 22.06.2022
776 Clear 15 1011 74 10000 1.03 0 00:57 22.06.2022
777 Clear 18 1011 63 10000 2.06 260 22:57 21.06.2022
778 Clear 22 1002 47 10000 3.09 260 21:21 21.06.2022
779 Clear 24 1003 40 10000 2.68 340 19:43 21.06.2022
780 Clear 25 1003 38 10000 3.13 340 17:56 21.06.2022
781 Clear 25 1004 38 10000 3.6 300 16:49 21.06.2022
782 Clear 22 1005 47 10000 5.14 290 12:36 21.06.2022
783 Clouds 19 1010 58 10000 5.14 280 10:55 21.06.2022
784 Clouds 17 1005 68 10000 5.66 320 09:39 21.06.2022
785 Clouds 13 1011 86 10000 7.15 292 07:56 21.06.2022
786 Clear 11 1010 87 10000 5.36 274 05:33 21.06.2022
787 Clear 12 1010 79 10000 4.02 290 00:35 21.06.2022
788 Clear 15 1002 77 10000 3.13 300 22:23 20.06.2022
789 Clouds 15 1002 74 10000 4.47 293 21:49 20.06.2022
790 Clouds 17 1002 74 10000 5.81 244 20:30 20.06.2022
791 Clouds 17 1001 75 10000 8.05 231 19:38 20.06.2022
792 Clouds 18 1001 71 10000 5.66 260 18:44 20.06.2022
793 Clouds 17 1002 73 10000 5.14 260 17:50 20.06.2022
794 Clouds 16 1002 82 10000 5.36 242 16:55 20.06.2022
795 Rain 15 1002 83 10000 4.12 270 15:53 20.06.2022
796 Rain 15 1009 92 10000 0.89 293 12:41 20.06.2022
797 Rain 14 1009 92 10000 2.57 110 10:32 20.06.2022
798 Clouds 15 1000 90 10000 4.02 60 09:30 20.06.2022
799 Thunderstorm 14 1001 89 6000 5.36 47 08:44 20.06.2022
800 Rain 14 1009 90 10000 3.13 23 05:35 20.06.2022
801 Rain 15 1011 80 10000 3.58 25 01:44 20.06.2022
802 Clear 16 1010 77 10000 4.47 24 00:26 20.06.2022
803 Clear 18 1008 77 10000 6.17 30 22:53 19.06.2022
804 Clouds 19 1008 72 10000 7.2 20 21:57 19.06.2022
805 Clouds 19 1008 72 10000 7.2 20 21:39 19.06.2022
806 Clear 22 999 64 10000 6.71 355 20:39 19.06.2022
807 Clear 24 1006 65 10000 7.72 350 19:47 19.06.2022
808 Clouds 26 1005 60 10000 6.26 357 18:46 19.06.2022
809 Clouds 27 997 56 10000 5.36 330 18:26 19.06.2022
810 Clear 30 996 47 10000 8.49 307 17:22 19.06.2022
811 Clear 31 995 40 10000 9.26 310 16:35 19.06.2022
812 Clear 32 995 40 10000 10.73 313 15:42 19.06.2022
813 Clear 35 992 34 10000 9.77 250 14:58 19.06.2022
814 Clear 35 1002 35 10000 9.26 250 14:20 19.06.2022
815 Clear 36 995 30 10000 9.77 230 13:36 19.06.2022
816 Clear 34 995 34 10000 10.73 216 11:38 19.06.2022
817 Clear 31 995 45 10000 8.05 198 10:31 19.06.2022
818 Clear 27 991 53 10000 5.66 170 08:54 19.06.2022
819 Clear 25 998 57 10000 4.63 170 08:22 19.06.2022
820 Clear 20 1008 75 10000 3.13 110 05:44 19.06.2022
821 Clear 21 1011 72 10000 2.68 50 02:59 19.06.2022
822 Clear 24 1010 63 10000 3.09 50 00:26 19.06.2022
823 Clear 25 1011 60 10000 3.58 53 23:36 18.06.2022
824 Clear 25 1010 55 10000 4.63 40 22:55 18.06.2022
825 Clear 28 1009 54 10000 3.6 330 21:52 18.06.2022
826 Clouds 30 1002 45 10000 4.47 298 20:50 18.06.2022
827 Clear 32 1003 39 10000 5.66 290 19:48 18.06.2022
828 Clear 32 1003 35 10000 5.66 300 18:54 18.06.2022
829 Clear 34 1010 33 10000 5.81 268 17:54 18.06.2022
830 Clear 34 1009 30 10000 5.81 310 17:23 18.06.2022
831 Clear 34 1010 29 10000 7.15 287 15:39 18.06.2022
832 Clear 34 1004 30 10000 6.26 256 14:50 18.06.2022
833 Clear 33 1005 32 10000 7.15 248 13:54 18.06.2022
834 Clear 32 1005 35 10000 4.47 235 12:25 18.06.2022
835 Clear 29 1006 37 10000 3.6 230 10:59 18.06.2022
836 Clear 26 1007 40 10000 5.66 230 09:31 18.06.2022
837 Clear 23 1013 48 10000 4.92 217 08:40 18.06.2022
838 Clear 20 1014 53 10000 4.47 200 07:34 18.06.2022
839 Clear 19 1009 55 10000 3.13 200 05:20 18.06.2022
840 Clear 20 1011 56 10000 1.79 120 01:47 18.06.2022
841 Clear 20 1011 55 10000 1.79 145 01:21 18.06.2022
842 Clear 20 1011 54 10000 2.06 130 00:23 18.06.2022
843 Clear 21 1012 52 10000 2.06 90 23:36 17.06.2022
844 Clear 22 1012 50 10000 2.24 88 22:27 17.06.2022
845 Clear 24 1012 39 10000 2.57 320 20:29 17.06.2022
846 Clear 25 1012 37 10000 3.13 326 19:24 17.06.2022
847 Clear 25 1012 37 10000 3.13 326 19:24 17.06.2022
848 Clear 26 1012 35 10000 5.36 319 17:56 17.06.2022
849 Clear 27 1013 34 10000 4.92 292 16:44 17.06.2022
850 Clear 27 1013 34 10000 3.6 290 16:25 17.06.2022
851 Clear 26 1013 34 10000 3.13 318 15:40 17.06.2022
852 Clear 26 1013 37 10000 4.47 288 14:23 17.06.2022
853 Clear 25 1014 38 10000 3.58 271 13:58 17.06.2022
854 Clear 25 1014 39 10000 3.09 0 13:38 17.06.2022
855 Clouds 24 1022 42 10000 4.63 290 12:28 17.06.2022
856 Clouds 23 1021 42 10000 3.13 315 11:55 17.06.2022
857 Clouds 22 1021 49 10000 5.14 270 11:33 17.06.2022
858 Clear 20 1020 57 10000 4.12 280 09:36 17.06.2022
859 Clear 18 1021 66 10000 3.13 300 08:26 17.06.2022
860 Clear 14 1021 73 10000 2.24 265 06:45 17.06.2022
861 Clear 13 1020 75 10000 2.68 283 04:19 17.06.2022
862 Clear 15 1021 66 10000 2.24 320 01:56 17.06.2022
863 Clear 16 1022 61 10000 3.09 340 00:24 17.06.2022
864 Clear 18 1019 50 10000 5.81 3 22:42 16.06.2022
865 Clear 20 1018 48 10000 5.14 330 21:23 16.06.2022
866 Clear 21 1017 48 10000 5.66 350 20:55 16.06.2022
867 Clear 21 1017 49 10000 5.81 340 20:35 16.06.2022
868 Clear 22 1017 49 10000 6.26 331 19:45 16.06.2022
869 Clear 24 1010 42 10000 7.2 330 18:26 16.06.2022
870 Clear 24 1009 41 10000 6.71 311 17:43 16.06.2022
871 Clear 24 1009 41 10000 6.17 320 17:43 16.06.2022
872 Clear 25 1009 41 10000 5.66 320 16:39 16.06.2022
873 Clear 25 1009 43 10000 5.36 2 15:22 16.06.2022
874 Clear 25 1009 44 10000 5.81 354 14:37 16.06.2022
875 Clear 24 1008 44 10000 4.63 30 13:22 16.06.2022
876 Clear 24 1008 45 10000 4.02 347 12:36 16.06.2022
877 Clear 23 1016 48 10000 5.14 10 11:52 16.06.2022
878 Clear 22 1015 54 10000 4.47 3 10:56 16.06.2022
879 Clear 21 1008 54 10000 4.47 18 10:20 16.06.2022
880 Clear 20 1008 61 10000 3.09 10 09:21 16.06.2022
881 Clear 18 1007 68 10000 3.6 20 08:30 16.06.2022
882 Clear 16 1007 75 10000 3.6 30 07:26 16.06.2022
883 Clear 14 1007 74 10000 2.57 30 04:50 16.06.2022
884 Clear 16 1007 67 10000 3.09 30 02:50 16.06.2022
885 Clear 16 1015 67 10000 3.13 59 01:42 16.06.2022
886 Clear 16 1015 64 10000 3.09 60 01:21 16.06.2022
887 Clear 16 1015 63 10000 3.58 60 01:21 16.06.2022
888 Clear 18 1015 58 10000 2.68 80 23:47 15.06.2022
889 Clear 19 1015 59 10000 3.13 80 22:42 15.06.2022
890 Clear 22 1007 48 10000 4.02 51 21:23 15.06.2022
891 Clear 24 1006 41 10000 4.63 60 20:45 15.06.2022
892 Clear 24 1007 38 10000 3.6 70 20:27 15.06.2022
893 Clear 25 1008 35 10000 2.24 7 19:30 15.06.2022
894 Clear 26 1008 36 10000 3.09 360 17:56 15.06.2022
895 Clear 26 1008 35 10000 2.24 343 17:33 15.06.2022
896 Clear 26 1006 35 10000 2.68 20 15:46 15.06.2022
897 Clear 25 1008 38 10000 2.24 9 14:26 15.06.2022
898 Clear 24 1011 40 10000 1.79 73 12:56 15.06.2022
899 Clear 24 1011 39 10000 3.09 0 12:32 15.06.2022
900 Clear 20 1012 50 10000 2.68 80 10:28 15.06.2022
901 Clear 20 1012 51 10000 2.24 120 09:53 15.06.2022
902 Clear 18 1017 58 10000 2.24 99 08:57 15.06.2022
903 Clear 13 1019 77 10000 2.24 72 07:21 15.06.2022
904 Clear 12 1011 79 10000 1.34 116 04:51 15.06.2022
905 Clear 13 1012 73 10000 1.79 116 02:28 15.06.2022
906 Clouds 13 1012 73 10000 1.03 100 01:33 15.06.2022
907 Clear 13 1011 70 10000 1.54 140 23:55 14.06.2022
908 Clear 14 1011 71 10000 1.54 140 23:37 14.06.2022
909 Clear 15 1011 64 10000 1.79 85 22:33 14.06.2022
910 Clear 17 1011 56 10000 2.57 30 21:42 14.06.2022
911 Clear 18 1011 55 10000 4.12 340 20:57 14.06.2022
912 Clear 18 1011 55 10000 4.92 336 20:36 14.06.2022
913 Clear 20 1011 50 10000 5.36 354 19:32 14.06.2022
914 Clear 20 1011 46 10000 5.36 322 18:33 14.06.2022
915 Clear 21 1012 43 10000 4.47 320 16:50 14.06.2022
916 Clear 21 1012 44 10000 5.14 310 16:25 14.06.2022
917 Clear 20 1012 46 10000 6.26 283 15:36 14.06.2022
918 Clear 19 1012 47 10000 6.71 298 14:53 14.06.2022
919 Clouds 18 1012 53 10000 6.71 287 13:57 14.06.2022
920 Clouds 18 1018 49 10000 4.12 300 12:58 14.06.2022
921 Clouds 17 1019 55 10000 5.81 308 11:54 14.06.2022
922 Clouds 17 1013 57 10000 6.17 310 10:51 14.06.2022
923 Clouds 15 1020 63 10000 7.2 290 10:25 14.06.2022
924 Clouds 14 1019 66 10000 6.69 290 09:18 14.06.2022
925 Clear 13 1019 72 10000 4.12 280 08:24 14.06.2022
926 Clear 11 1019 79 10000 2.68 273 06:20 14.06.2022
927 Clouds 11 1019 76 10000 4.12 290 03:45 14.06.2022
928 Clouds 12 1018 82 10000 3.6 280 01:37 14.06.2022
929 Clouds 13 1018 75 10000 3.09 270 00:21 14.06.2022
930 Clouds 15 1018 69 10000 6.17 290 22:45 13.06.2022
931 Clouds 16 1017 67 10000 4.02 293 22:22 13.06.2022
932 Clouds 16 1016 65 10000 4.02 308 21:26 13.06.2022
933 Clouds 18 1009 59 10000 8.94 287 19:59 13.06.2022
934 Clouds 18 1015 59 10000 8.05 290 18:54 13.06.2022
935 Clear 19 1016 54 10000 7.6 299 17:56 13.06.2022
936 Clear 20 1008 48 10000 6.71 278 17:25 13.06.2022
937 Clear 20 1008 48 10000 8.75 280 16:31 13.06.2022
938 Clear 20 1014 47 10000 8.94 301 14:51 13.06.2022
939 Clear 20 1014 45 10000 7.2 280 14:31 13.06.2022
940 Clear 21 1015 43 10000 8.23 270 13:33 13.06.2022
941 Clouds 19 1014 50 10000 7.15 306 12:23 13.06.2022
942 Clear 18 1014 48 10000 5.36 290 10:56 13.06.2022
943 Clear 17 1015 57 10000 5.81 316 10:26 13.06.2022
944 Clear 16 1015 60 10000 6.71 308 08:59 13.06.2022
945 Clear 15 1014 70 10000 4.92 315 06:53 13.06.2022
946 Clear 15 1015 74 10000 3.13 315 05:35 13.06.2022
947 Clear 17 1015 66 10000 5.14 340 02:27 13.06.2022
948 Clear 17 1015 62 10000 4.92 2 01:36 13.06.2022
949 Clear 18 1013 57 10000 1.54 260 23:50 12.06.2022
950 Clear 19 1013 59 10000 3.13 330 22:44 12.06.2022
951 Clear 19 1017 59 10000 3.6 330 21:58 12.06.2022
952 Clear 23 1014 41 10000 4.12 310 20:58 12.06.2022
953 Clear 24 1007 38 10000 6.71 314 20:19 12.06.2022
954 Clear 25 1007 34 10000 5.36 293 19:30 12.06.2022
955 Clear 26 1008 36 10000 6.26 271 17:47 12.06.2022
956 Clear 26 1006 39 10000 6.17 280 15:58 12.06.2022
957 Clear 26 1009 46 10000 4.12 270 14:57 12.06.2022
958 Clouds 25 1009 49 10000 4.12 330 14:21 12.06.2022
959 Clouds 25 1010 52 10000 3.58 315 13:51 12.06.2022
960 Clouds 23 1018 58 10000 2.68 340 12:37 12.06.2022
961 Clouds 23 1018 63 10000 2.68 9 11:39 12.06.2022
962 Clouds 21 1010 72 10000 2.06 360 10:22 12.06.2022
963 Clear 20 1009 79 10000 2.57 60 08:55 12.06.2022
964 Clear 19 1011 78 10000 2.57 60 08:36 12.06.2022
965 Clouds 17 1018 86 10000 0.89 132 07:32 12.06.2022
966 Clear 16 1011 83 10000 1.34 120 04:45 12.06.2022
967 Clear 17 1012 77 10000 1.79 83 03:24 12.06.2022
968 Clear 18 1012 71 10000 3.09 80 01:42 12.06.2022
969 Clear 18 1019 70 10000 1.54 280 00:58 12.06.2022
970 Clear 18 1019 67 10000 2.68 248 00:21 12.06.2022
971 Clear 19 1019 64 10000 2.06 280 23:44 11.06.2022
972 Clear 19 1018 60 10000 2.24 310 22:39 11.06.2022
973 Clouds 21 1021 68 10000 1.26 305 21:53 11.06.2022
974 Clear 25 1016 54 10000 3.58 270 20:38 11.06.2022
975 Clear 25 1020 45 10000 5.66 290 19:46 11.06.2022
976 Clear 25 1020 54 10000 7.2 280 19:26 11.06.2022
977 Clear 26 1016 48 10000 4.12 270 18:34 11.06.2022
978 Clear 26 1016 50 10000 3.58 240 17:51 11.06.2022
979 Clear 26 1018 41 10000 4.47 281 17:27 11.06.2022
980 Clear 26 1017 44 10000 6.17 290 16:56 11.06.2022
981 Clear 26 1011 44 10000 5.36 270 16:29 11.06.2022
982 Clear 26 1011 48 10000 5.81 254 15:42 11.06.2022
983 Clear 26 1017 40 10000 5.14 260 13:53 11.06.2022
984 Clear 26 1018 38 10000 5.36 222 12:57 11.06.2022
985 Clear 24 1018 48 10000 4.12 230 10:55 11.06.2022
986 Clear 23 1018 50 10000 4.92 230 10:19 11.06.2022
987 Clear 21 1018 57 10000 3.13 220 09:19 11.06.2022
988 Clear 20 1012 64 10000 1.54 200 07:43 11.06.2022
989 Clear 18 1012 70 10000 1.54 230 06:30 11.06.2022
990 Clear 17 1011 72 10000 2.24 269 05:19 11.06.2022
991 Clear 18 1019 68 10000 2.24 179 01:53 11.06.2022
992 Clear 18 1019 66 10000 0.89 121 01:33 11.06.2022
993 Clear 19 1019 63 10000 0.89 39 00:21 11.06.2022
994 Clear 20 1011 57 10000 1.54 290 22:33 10.06.2022
995 Clear 21 1019 55 10000 2.68 301 21:53 10.06.2022
996 Clear 23 1007 45 10000 3.6 290 20:43 10.06.2022
997 Clear 24 1011 42 10000 3.6 290 20:23 10.06.2022
998 Clear 24 1011 41 10000 3.6 300 19:48 10.06.2022
999 Clear 24 1011 39 10000 3.13 278 19:18 10.06.2022
1000 Clear 25 1011 37 10000 5.14 310 18:19 10.06.2022
1001 Clear 25 1011 36 10000 3.13 342 17:36 10.06.2022
1002 Clear 25 1008 34 10000 4.02 280 16:56 10.06.2022
1003 Clear 25 1011 36 10000 5.81 306 15:50 10.06.2022
1004 Clear 25 1012 35 10000 5.81 270 15:30 10.06.2022
1005 Clear 24 1013 42 10000 4.63 300 13:49 10.06.2022
1006 Clouds 22 1018 47 10000 5.66 320 12:35 10.06.2022
1007 Clouds 22 1018 52 10000 6.71 282 11:40 10.06.2022
1008 Clouds 21 1018 53 10000 8.94 296 10:43 10.06.2022
1009 Clouds 19 1018 61 10000 5.81 296 09:44 10.06.2022
1010 Clear 17 1019 74 10000 5.14 310 08:28 10.06.2022
1011 Clear 15 1019 81 10000 3.13 310 07:20 10.06.2022
1012 Clear 13 1018 84 10000 3.09 300 06:43 10.06.2022
1013 Clear 13 1018 84 10000 2.68 270 06:24 10.06.2022
1014 Clear 14 1017 80 10000 3.58 330 03:50 10.06.2022
1015 Clouds 16 1015 77 10000 2.68 320 01:41 10.06.2022
1016 Clear 17 1007 73 10000 3.58 296 00:27 10.06.2022
1017 Clear 18 1007 70 10000 2.06 290 23:29 09.06.2022
1018 Clear 20 1006 66 10000 3.13 320 21:58 09.06.2022
1019 Clear 20 1006 64 10000 3.13 304 21:32 09.06.2022
1020 Clear 21 1005 63 10000 3.13 320 20:54 09.06.2022
1021 Clear 21 1005 63 10000 3.13 320 20:54 09.06.2022
1022 Clouds 21 1004 60 10000 3.13 293 19:59 09.06.2022
1023 Clouds 22 1004 62 10000 3.58 285 18:54 09.06.2022
1024 Clouds 22 1003 61 10000 3.13 283 18:21 09.06.2022
1025 Rain 21 1000 64 10000 2.57 270 16:50 09.06.2022
1026 Clouds 22 993 61 10000 2.57 230 15:48 09.06.2022
1027 Clouds 20 1002 70 10000 3.09 280 14:35 09.06.2022
1028 Clouds 20 1003 68 10000 3.09 290 13:51 09.06.2022
1029 Clouds 20 1002 68 10000 4.12 270 13:27 09.06.2022
1030 Clouds 20 993 76 10000 3.6 300 11:54 09.06.2022
1031 Clouds 20 1001 69 10000 3.6 290 11:18 09.06.2022
1032 Clouds 19 1005 72 10000 4.63 270 09:44 09.06.2022
1033 Clear 19 1006 72 10000 5.14 280 09:23 09.06.2022
1034 Clear 18 1005 73 10000 4.92 282 07:45 09.06.2022
1035 Clear 18 1005 73 10000 4.63 290 07:45 09.06.2022
1036 Clear 16 1004 81 10000 2.68 300 06:28 09.06.2022
1037 Clouds 18 1005 78 10000 3.13 170 02:38 09.06.2022
1038 Clear 18 1005 74 10000 2.06 120 23:39 08.06.2022
1039 Clear 19 1004 70 10000 2.24 111 22:58 08.06.2022
1040 Clouds 21 1004 61 10000 3.13 113 22:27 08.06.2022
1041 Clouds 21 1004 68 10000 3.13 108 21:54 08.06.2022
1042 Clouds 22 1006 61 10000 3.6 110 21:21 08.06.2022
1043 Clouds 22 1006 61 10000 3.6 110 21:21 08.06.2022
1044 Clouds 24 1004 57 10000 3.58 114 20:21 08.06.2022
1045 Clouds 24 1004 51 10000 3.13 129 19:38 08.06.2022
1046 Clear 25 1004 51 10000 3.58 135 18:45 08.06.2022
1047 Clear 25 1005 45 10000 4.02 209 17:18 08.06.2022
1048 Clear 25 998 51 10000 4.63 190 15:44 08.06.2022
1049 Clear 24 999 52 10000 5.36 196 13:51 08.06.2022
1050 Clouds 24 1005 49 10000 3.6 210 12:20 08.06.2022
1051 Clouds 23 1006 52 10000 4.12 180 11:33 08.06.2022
1052 Clouds 22 1000 60 10000 2.06 230 09:59 08.06.2022
1053 Clear 21 1001 61 10000 2.57 240 09:22 08.06.2022
1054 Clear 20 1000 66 10000 2.06 220 08:40 08.06.2022
1055 Clear 14 1008 83 10000 1.34 196 05:55 08.06.2022
1056 Clear 15 1009 79 10000 1.54 170 03:55 08.06.2022
1057 Clear 16 1009 71 10000 1.03 100 00:45 08.06.2022
1058 Clear 17 1009 66 10000 2.68 293 23:29 07.06.2022
1059 Clear 18 1007 69 10000 2.06 260 22:45 07.06.2022
1060 Clear 18 1009 63 10000 2.68 225 22:26 07.06.2022
1061 Clear 20 1009 58 10000 2.68 235 21:34 07.06.2022
1062 Clear 20 1011 54 10000 2.06 250 20:58 07.06.2022
1063 Clear 22 1010 46 10000 2.57 270 20:32 07.06.2022
1064 Clear 23 997 45 10000 3.58 262 19:38 07.06.2022
1065 Clear 24 1000 40 10000 5.36 256 18:24 07.06.2022
1066 Clear 24 1009 42 10000 5.36 230 17:27 07.06.2022
1067 Clear 24 1008 45 10000 5.81 193 16:43 07.06.2022
1068 Clear 23 1001 45 10000 4.92 215 15:56 07.06.2022
1069 Clear 23 1002 46 10000 3.58 210 15:26 07.06.2022
1070 Clear 23 1002 47 10000 4.12 220 14:52 07.06.2022
1071 Clear 23 1002 48 10000 4.47 224 14:32 07.06.2022
1072 Clear 23 1003 50 10000 3.6 180 13:32 07.06.2022
1073 Clear 23 1010 54 10000 4.12 190 12:52 07.06.2022
1074 Clouds 22 1010 51 10000 3.13 234 11:48 07.06.2022
1075 Clear 21 1011 59 10000 1.79 315 10:27 07.06.2022
1076 Clear 18 1011 72 10000 1.54 310 08:51 07.06.2022
1077 Clear 15 1010 84 10000 3.13 308 07:35 07.06.2022
1078 Clear 14 1010 89 10000 2.24 279 06:38 07.06.2022
1079 Clear 14 1010 89 10000 2.24 283 06:38 07.06.2022
1080 Clear 14 1012 93 10000 1.79 150 04:20 07.06.2022
1081 Clear 16 1011 87 10000 1.79 107 01:27 07.06.2022
1082 Clear 15 1012 90 10000 1.54 100 01:27 07.06.2022
1083 Clear 16 1011 87 10000 1.54 170 23:52 06.06.2022
1084 Clear 17 1012 87 10000 2.06 240 22:54 06.06.2022
1085 Clear 17 1012 85 10000 1.79 236 22:29 06.06.2022
1086 Clear 19 1012 80 10000 1.79 244 20:47 06.06.2022
1087 Clouds 20 1011 75 10000 5.14 280 19:28 06.06.2022
1088 Clouds 21 1003 68 10000 7.2 290 18:49 06.06.2022
1089 Clouds 22 1004 66 10000 10.8 270 18:21 06.06.2022
1090 Clouds 24 1011 61 10000 4.02 202 17:24 06.06.2022
1091 Clouds 25 1004 50 10000 4.63 210 16:18 06.06.2022
1092 Clouds 24 1004 56 10000 4.63 210 15:23 06.06.2022
1093 Clouds 24 1014 56 10000 4.12 220 14:29 06.06.2022
1094 Clouds 23 1011 56 10000 4.63 260 13:22 06.06.2022
1095 Clouds 23 1012 58 10000 4.12 240 12:36 06.06.2022
1096 Clouds 23 1012 64 10000 4.63 270 11:53 06.06.2022
1097 Clouds 21 1013 70 10000 5.14 260 10:21 06.06.2022
1098 Clear 20 1012 80 10000 4.92 277 09:33 06.06.2022
1099 Clouds 18 1012 88 10000 4.47 237 08:32 06.06.2022
1100 Clouds 18 1004 90 10000 2.24 260 07:28 06.06.2022
1101 Rain 18 1010 84 10000 4.47 209 05:27 06.06.2022
1102 Rain 22 1012 49 10000 4.63 120 02:55 06.06.2022
1103 Clear 22 1003 54 10000 5.81 116 01:18 06.06.2022
1104 Clear 22 1004 54 10000 5.81 115 00:38 06.06.2022
1105 Clear 23 1004 56 10000 4.47 94 23:34 05.06.2022
1106 Clear 23 1012 50 10000 4.02 103 22:45 05.06.2022
1107 Clear 25 1011 45 10000 4.47 97 20:47 05.06.2022
1108 Clear 27 999 41 10000 5.14 110 19:41 05.06.2022
1109 Clear 27 1005 38 10000 6.26 111 18:30 05.06.2022
1110 Clear 28 1005 38 10000 5.14 100 17:54 05.06.2022
1111 Clear 28 1005 38 10000 7.15 113 17:25 05.06.2022
1112 Clear 28 1006 38 10000 5.81 106 16:51 05.06.2022
1113 Clear 28 1006 38 10000 4.47 107 16:32 05.06.2022
1114 Clear 27 1006 40 10000 4.63 100 14:25 05.06.2022
1115 Clear 25 1009 42 10000 3.6 90 12:55 05.06.2022
1116 Clear 25 1009 42 10000 3.6 90 12:55 05.06.2022
1117 Clear 24 1017 44 10000 3.6 90 11:47 05.06.2022
1118 Clear 21 1017 53 10000 2.68 61 10:38 05.06.2022
1119 Clear 21 1017 55 10000 2.06 90 10:20 05.06.2022
1120 Clear 16 1018 66 10000 3.09 70 08:34 05.06.2022
1121 Clear 14 1018 73 10000 3.09 60 07:48 05.06.2022
1122 Clear 11 1012 81 10000 3.58 49 05:22 05.06.2022
1123 Clear 12 1019 78 10000 3.09 40 04:19 05.06.2022
1124 Clear 14 1020 64 10000 4.47 46 01:32 05.06.2022
1125 Clear 14 1020 64 10000 4.47 46 01:32 05.06.2022
1126 Clear 15 1020 60 10000 4.02 51 00:39 05.06.2022
1127 Clear 18 1019 56 10000 4.63 40 22:36 04.06.2022
1128 Clear 22 1014 59 10000 4.12 50 20:42 04.06.2022
1129 Clear 24 1010 45 10000 3.6 40 18:51 04.06.2022
1130 Clear 25 1010 42 10000 5.36 17 16:47 04.06.2022
1131 Clear 24 1010 43 10000 4.92 41 16:19 04.06.2022
1132 Clear 24 1010 48 10000 4.47 48 14:54 04.06.2022
1133 Clouds 23 1008 50 10000 6.26 25 13:37 04.06.2022
1134 Clear 20 1010 56 10000 5.14 360 11:23 04.06.2022
1135 Clear 19 1010 57 10000 4.63 20 10:50 04.06.2022
1136 Clear 19 1009 59 10000 3.6 20 09:45 04.06.2022
1137 Clear 17 1016 58 10000 5.36 30 08:44 04.06.2022
1138 Clear 16 1015 64 10000 5.36 20 07:51 04.06.2022
1139 Clear 16 1007 67 10000 4.02 21 05:38 04.06.2022
1140 Clear 17 1015 65 10000 3.13 40 02:36 04.06.2022
1141 Clear 19 1008 54 10000 5.14 50 00:20 04.06.2022
1142 Clear 20 1008 48 10000 5.14 50 22:49 03.06.2022
1143 Clear 21 1007 48 10000 4.12 40 21:43 03.06.2022
1144 Clear 23 1007 40 10000 4.63 40 20:38 03.06.2022
1145 Clear 25 1008 37 10000 1.79 143 19:19 03.06.2022
1146 Clear 26 1008 32 10000 2.57 0 16:54 03.06.2022
1147 Clear 25 1006 32 10000 2.57 130 15:51 03.06.2022
1148 Clear 24 1008 38 10000 2.24 90 13:51 03.06.2022
1149 Clear 22 1019 43 10000 3.58 130 11:51 03.06.2022
1150 Clear 19 1019 51 10000 3.6 100 09:56 03.06.2022
1151 Clear 18 1019 55 10000 3.09 100 09:29 03.06.2022
1152 Clear 13 1020 76 10000 1.34 135 07:43 03.06.2022
1153 Clear 11 1020 82 10000 1.03 0 06:49 03.06.2022
1154 Clear 11 1012 82 10000 1.03 110 06:27 03.06.2022
1155 Clear 11 1013 79 10000 1.03 340 02:58 03.06.2022
1156 Clear 12 1020 77 10000 1.03 270 23:52 02.06.2022
1157 Clear 14 1020 68 10000 2.57 310 22:23 02.06.2022
1158 Clear 17 1019 58 10000 3.6 300 20:56 02.06.2022
1159 Clear 18 1018 53 10000 5.36 317 19:56 02.06.2022
1160 Clear 18 1019 49 10000 6.26 297 19:38 02.06.2022
1161 Clear 19 1012 46 10000 5.14 280 18:41 02.06.2022
1162 Clear 20 1011 46 10000 5.66 280 16:28 02.06.2022
1163 Clear 20 1011 44 10000 5.14 280 15:47 02.06.2022
1164 Clouds 19 1011 50 10000 6.71 280 13:31 02.06.2022
1165 Clouds 19 1011 52 10000 6.17 270 12:49 02.06.2022
1166 Clouds 16 1016 64 10000 5.14 290 10:45 02.06.2022
1167 Clouds 14 1016 74 10000 5.81 289 09:30 02.06.2022
1168 Clouds 13 1015 77 10000 4.63 260 08:45 02.06.2022
1169 Clouds 12 1015 78 10000 4.47 255 08:23 02.06.2022
1170 Clear 10 1015 85 10000 2.57 250 06:21 02.06.2022
1171 Clear 11 1014 81 10000 3.09 240 03:51 02.06.2022
1172 Clear 12 1006 76 10000 3.6 220 01:33 02.06.2022
1173 Rain 13 1012 73 10000 4.47 229 23:22 01.06.2022
1174 Clear 14 1012 69 10000 4.02 224 22:18 01.06.2022
1175 Clouds 16 1011 63 10000 4.12 230 21:24 01.06.2022
1176 Clouds 16 1012 57 10000 4.12 260 20:39 01.06.2022
1177 Clouds 18 1004 53 10000 5.81 302 19:52 01.06.2022
1178 Clear 19 1004 50 10000 4.92 280 18:52 01.06.2022
1179 Clouds 18 1010 57 10000 5.36 293 17:38 01.06.2022
1180 Rain 18 1002 64 10000 9.83 235 15:56 01.06.2022
1181 Clouds 20 1001 47 10000 8.49 239 14:51 01.06.2022
1182 Clouds 20 1003 53 10000 5.66 230 13:44 01.06.2022
1183 Clouds 18 1009 60 10000 2.68 272 11:32 01.06.2022
1184 Clear 16 1009 70 10000 2.68 204 09:34 01.06.2022
1185 Clouds 14 1010 81 10000 3.6 240 08:28 01.06.2022
1186 Clear 13 1009 83 10000 3.09 220 07:21 01.06.2022
1187 Clear 12 1009 92 10000 2.24 270 04:58 01.06.2022
1188 Rain 13 1012 81 10000 4.92 190 23:57 31.05.2022
1189 Rain 14 1013 77 10000 2.57 140 22:51 31.05.2022
1190 Rain 15 1013 73 10000 3.19 140 22:29 31.05.2022
1191 Rain 16 1008 62 10000 2.57 20 21:45 31.05.2022
1192 Clear 18 1010 53 10000 2.06 90 20:45 31.05.2022
1193 Clear 19 1002 48 10000 0.89 0 19:52 31.05.2022
1194 Clear 20 1003 43 10000 2.06 130 18:45 31.05.2022
1195 Clouds 20 1004 39 10000 2.24 190 17:49 31.05.2022
1196 Clouds 20 1004 38 10000 2.24 190 17:49 31.05.2022
1197 Clear 20 1004 43 10000 3.13 175 16:48 31.05.2022
1198 Clear 20 1004 43 10000 2.68 158 15:40 31.05.2022
1199 Clear 19 1005 44 10000 3.13 203 13:38 31.05.2022
1200 Clear 18 1006 45 10000 3.13 218 12:19 31.05.2022
1201 Clouds 17 1012 53 10000 3.13 189 10:52 31.05.2022
1202 Clear 13 1012 69 10000 1.79 165 08:41 31.05.2022
1203 Clear 9 1013 86 10000 1.54 170 06:57 31.05.2022
1204 Clear 8 1013 89 10000 0.51 250 04:53 31.05.2022
1205 Clear 9 1013 81 10000 1.54 270 00:26 31.05.2022
1206 Clouds 10 1013 79 10000 4.47 260 23:26 30.05.2022
1207 Clouds 11 1013 78 10000 3.13 259 22:48 30.05.2022
1208 Clouds 12 1012 72 10000 3.13 293 21:52 30.05.2022
1209 Clouds 13 1012 72 10000 4.12 300 21:32 30.05.2022
1210 Clouds 14 1011 65 10000 6.26 270 19:57 30.05.2022
1211 Clouds 15 1004 58 10000 6.26 281 18:40 30.05.2022
1212 Clouds 16 1003 60 10000 6.26 294 17:35 30.05.2022
1213 Clouds 16 1003 57 10000 5.14 280 16:41 30.05.2022
1214 Clouds 16 1010 54 10000 5.36 277 14:35 30.05.2022
1215 Clouds 15 1002 62 10000 5.14 290 12:24 30.05.2022
1216 Clouds 13 1002 72 10000 4.63 280 10:41 30.05.2022
1217 Clouds 11 1002 81 10000 4.12 280 09:21 30.05.2022
1218 Clouds 10 1008 89 10000 3.13 260 07:18 30.05.2022
1219 Clouds 10 1007 88 10000 1.79 267 05:48 30.05.2022
1220 Clouds 10 1006 85 10000 1.79 290 01:48 30.05.2022
1221 Clouds 12 1008 79 10000 1.03 0 23:19 29.05.2022
1222 Clouds 12 1008 78 10000 0.51 0 22:37 29.05.2022
1223 Clouds 14 1008 73 10000 1.54 230 20:55 29.05.2022
1224 Clouds 15 1001 61 10000 3.6 270 19:33 29.05.2022
1225 Clouds 15 1001 64 10000 2.06 270 18:53 29.05.2022
1226 Clouds 15 1001 67 10000 6.69 260 17:31 29.05.2022
1227 Clouds 15 1002 63 10000 5.81 235 15:48 29.05.2022
1228 Clouds 15 1002 68 10000 3.6 280 15:23 29.05.2022
1229 Clouds 14 1002 72 10000 5.36 220 13:59 29.05.2022
1230 Clouds 13 1009 76 10000 4.12 200 11:42 29.05.2022
1231 Clouds 13 1002 73 10000 4.47 244 10:40 29.05.2022
1232 Clouds 12 1002 77 10000 4.12 250 09:31 29.05.2022
1233 Clouds 9 1010 83 10000 3.13 238 06:24 29.05.2022
1234 Clouds 9 1009 83 10000 3.58 270 04:45 29.05.2022
1235 Clear 10 1010 79 10000 3.58 270 04:19 29.05.2022
1236 Clear 11 1011 71 10000 5.66 290 23:53 28.05.2022
1237 Clear 12 1004 70 10000 5.81 286 23:34 28.05.2022
1238 Clear 12 1004 71 10000 7.2 290 22:40 28.05.2022
1239 Clear 12 1004 70 10000 5.81 299 21:38 28.05.2022
1240 Clear 14 1004 66 10000 7.2 290 19:51 28.05.2022
1241 Clouds 14 1004 67 10000 9.83 284 18:58 28.05.2022
1242 Clouds 15 1003 60 10000 11.32 270 17:38 28.05.2022
1243 Clouds 15 1003 61 10000 11.62 290 16:50 28.05.2022
1244 Clouds 16 1002 57 10000 12.35 280 15:43 28.05.2022
1245 Clouds 16 1002 57 10000 10.29 280 14:35 28.05.2022
1246 Clouds 15 1003 60 10000 9.77 280 13:21 28.05.2022
1247 Clouds 15 1003 64 10000 11.32 270 12:39 28.05.2022
1248 Clouds 13 1003 65 10000 10.29 280 11:26 28.05.2022
1249 Clouds 12 1010 69 10000 10.73 277 10:25 28.05.2022
1250 Clouds 11 1009 78 10000 10.73 269 09:30 28.05.2022
1251 Clouds 9 1009 82 10000 8.23 280 07:47 28.05.2022
1252 Clouds 9 1009 81 10000 8.49 250 06:32 28.05.2022
1253 Clear 9 1003 83 10000 6.17 270 03:53 28.05.2022
1254 Clouds 10 1005 83 10000 10.8 300 00:50 28.05.2022
1255 Clear 11 1005 78 10000 6.69 270 23:42 27.05.2022
1256 Rain 12 1005 75 10000 7.6 310 22:24 27.05.2022
1257 Clouds 13 1011 68 10000 9.83 282 20:58 27.05.2022
1258 Clouds 13 1011 64 10000 7.72 290 20:40 27.05.2022
1259 Rain 15 1005 56 10000 8.23 290 19:56 27.05.2022
1260 Clouds 15 1004 59 10000 7.6 290 19:34 27.05.2022
1261 Clear 16 1004 56 10000 9.39 301 18:37 27.05.2022
1262 Clouds 18 1004 48 10000 10.73 292 16:42 27.05.2022
1263 Clear 18 1002 49 10000 10.73 299 15:46 27.05.2022
1264 Clouds 17 1002 51 10000 12.07 289 14:45 27.05.2022
1265 Clear 18 1004 51 10000 7.2 280 13:36 27.05.2022
1266 Clouds 17 1011 57 10000 12.86 280 11:48 27.05.2022
1267 Clouds 17 1011 59 10000 9.39 285 11:26 27.05.2022
1268 Clouds 16 1011 62 10000 9.77 290 10:35 27.05.2022
1269 Clouds 15 1004 77 10000 6.69 280 09:52 27.05.2022
1270 Clouds 15 1003 81 10000 8.94 286 09:28 27.05.2022
1271 Rain 14 1011 90 10000 4.63 260 06:58 27.05.2022
1272 Drizzle 14 1005 87 10000 5.14 300 02:57 27.05.2022
1273 Rain 16 1013 77 10000 2.68 255 00:57 27.05.2022
1274 Clouds 17 1007 70 10000 4.92 280 23:23 26.05.2022
1275 Clouds 18 1007 64 10000 5.66 260 21:48 26.05.2022
1276 Clear 18 1013 60 10000 4.92 257 20:59 26.05.2022
1277 Clear 19 1014 57 10000 5.36 280 19:30 26.05.2022
1278 Clear 20 1007 49 10000 9.83 288 18:24 26.05.2022
1279 Clear 20 1007 50 10000 8.23 280 17:34 26.05.2022
1280 Clouds 20 1007 47 10000 8.94 276 15:58 26.05.2022
1281 Clouds 21 1007 50 10000 9.26 280 15:19 26.05.2022
1282 Clouds 20 1007 57 10000 8.94 268 13:56 26.05.2022
1283 Clouds 18 1014 66 10000 8.94 251 11:49 26.05.2022
1284 Clouds 16 1007 77 7000 7.15 290 10:39 26.05.2022
1285 Rain 16 1013 75 10000 8.49 263 09:38 26.05.2022
1286 Clouds 16 1012 64 10000 8.49 259 08:38 26.05.2022
1287 Clear 15 1005 63 10000 4.12 260 05:30 26.05.2022
1288 Clear 13 1013 69 10000 3.6 220 02:20 26.05.2022
1289 Clear 14 1013 68 10000 4.12 240 23:50 25.05.2022
1290 Clear 15 1012 70 10000 3.6 230 22:52 25.05.2022
1291 Clear 17 1012 59 10000 3.6 230 21:42 25.05.2022
1292 Clear 19 1009 60 10000 4.12 230 20:49 25.05.2022
1293 Clear 19 1012 59 10000 6.17 230 19:42 25.05.2022
1294 Clear 20 1004 49 10000 6.17 230 18:47 25.05.2022
1295 Clouds 20 1004 47 10000 6.17 220 17:24 25.05.2022
1296 Clouds 20 1004 48 10000 5.81 205 16:33 25.05.2022
1297 Clouds 21 1004 48 10000 3.13 250 15:36 25.05.2022
1298 Clouds 21 1002 50 10000 2.68 307 14:50 25.05.2022
1299 Clouds 21 1004 50 10000 4.63 290 14:32 25.05.2022
1300 Clouds 20 1011 49 10000 3.6 270 13:23 25.05.2022
1301 Clouds 20 1010 49 10000 3.6 270 13:23 25.05.2022
1302 Clouds 18 1012 58 10000 3.58 239 11:50 25.05.2022
1303 Clouds 17 1012 63 10000 3.09 240 10:42 25.05.2022
1304 Clear 17 1012 64 10000 2.68 158 09:45 25.05.2022
1305 Clouds 15 1010 77 10000 2.68 293 08:21 25.05.2022
1306 Clear 11 1010 86 10000 1.79 202 05:57 25.05.2022
1307 Clouds 11 1007 82 10000 1.34 210 02:46 25.05.2022
1308 Clear 14 1008 76 10000 2.24 267 23:52 24.05.2022
1309 Clear 14 1008 76 10000 2.57 250 23:23 24.05.2022
1310 Clear 15 1008 73 10000 2.68 260 22:18 24.05.2022
1311 Clear 16 1007 71 10000 1.79 278 21:38 24.05.2022
1312 Clear 17 1007 68 10000 2.68 280 21:19 24.05.2022
1313 Clouds 19 998 64 10000 4.63 290 19:28 24.05.2022
1314 Clouds 19 1005 60 10000 4.92 295 18:40 24.05.2022
1315 Rain 19 1006 69 10000 7.2 220 16:40 24.05.2022
1316 Clouds 21 999 53 10000 6.17 210 15:54 24.05.2022
1317 Clouds 22 1003 59 10000 4.63 200 14:45 24.05.2022
1318 Clouds 22 995 52 10000 7.15 236 13:48 24.05.2022
1319 Clouds 22 993 56 10000 6.26 253 12:42 24.05.2022
1320 Clouds 18 993 77 10000 5.36 247 10:18 24.05.2022
1321 Clouds 18 993 80 10000 4.63 260 09:41 24.05.2022
1322 Clouds 17 992 84 10000 4.02 280 08:43 24.05.2022
1323 Clouds 16 991 83 10000 3.6 180 06:56 24.05.2022
1324 Clouds 17 1000 75 10000 5.66 140 03:48 24.05.2022
1325 Clear 18 995 51 10000 6.17 130 01:49 24.05.2022
1326 Clear 18 988 56 10000 7.15 118 01:18 24.05.2022
1327 Clear 19 993 55 10000 6.26 101 22:50 23.05.2022
1328 Clear 20 993 55 10000 6.26 105 21:54 23.05.2022
1329 Clear 20 993 55 10000 5.14 120 21:26 23.05.2022
1330 Clear 21 994 52 10000 6.69 120 20:26 23.05.2022
1331 Clear 22 994 47 10000 6.71 140 19:31 23.05.2022
1332 Clear 22 995 49 10000 6.71 131 18:57 23.05.2022
1333 Clear 22 995 48 10000 6.17 130 18:29 23.05.2022
1334 Clear 23 996 45 10000 7.6 141 17:20 23.05.2022
1335 Clear 22 998 46 10000 6.71 116 14:52 23.05.2022
1336 Clear 21 999 45 10000 5.66 130 12:56 23.05.2022
1337 Clear 20 1008 53 10000 6.69 130 11:31 23.05.2022
1338 Clear 18 1002 59 10000 6.71 126 09:50 23.05.2022
1339 Clear 17 1002 60 10000 5.81 111 09:30 23.05.2022
1340 Clear 15 1009 73 10000 5.36 111 08:31 23.05.2022
1341 Clear 12 1004 84 10000 2.68 96 06:46 23.05.2022
1342 Clear 10 1010 85 10000 3.13 94 05:31 23.05.2022
1343 Clear 11 1011 80 10000 3.09 100 02:32 23.05.2022
1344 Clear 11 1011 83 10000 3.09 60 01:37 23.05.2022
1345 Clear 11 1011 81 10000 3.13 80 00:20 23.05.2022
1346 Clear 13 1011 75 10000 1.54 30 22:40 22.05.2022
1347 Clear 14 1014 77 10000 1.03 0 21:55 22.05.2022
1348 Clouds 14 1015 77 10000 1.54 353 21:32 22.05.2022
1349 Clear 17 1012 61 10000 2.57 260 20:32 22.05.2022
1350 Clear 18 1012 59 10000 1.54 250 19:56 22.05.2022
1351 Clear 19 1002 49 10000 3.58 280 18:56 22.05.2022
1352 Clear 19 1002 49 10000 2.57 280 18:25 22.05.2022
1353 Clear 18 1012 48 10000 2.57 310 17:37 22.05.2022
1354 Clear 19 1015 48 10000 1.54 0 16:39 22.05.2022
1355 Clouds 18 1015 52 10000 3.6 310 14:53 22.05.2022
1356 Clouds 18 1007 58 10000 4.92 293 13:56 22.05.2022
1357 Clouds 17 1007 62 10000 5.14 280 12:52 22.05.2022
1358 Clouds 16 1014 63 10000 3.13 307 11:52 22.05.2022
1359 Clouds 15 1014 72 10000 4.63 300 10:27 22.05.2022
1360 Clouds 14 1015 77 10000 3.6 300 09:19 22.05.2022
1361 Clear 12 1015 82 10000 4.47 292 07:22 22.05.2022
1362 Clouds 11 1014 83 10000 3.13 270 06:40 22.05.2022
1363 Clear 11 1015 77 10000 4.02 299 03:20 22.05.2022
1364 Clouds 13 1015 69 10000 4.92 310 00:48 22.05.2022
1365 Clouds 13 1015 69 10000 4.92 310 23:56 21.05.2022
1366 Clouds 14 1015 69 10000 5.66 310 23:22 21.05.2022
1367 Clouds 15 1014 69 10000 5.81 306 21:59 21.05.2022
1368 Clouds 16 1014 68 10000 5.81 320 21:30 21.05.2022
1369 Clouds 17 1006 64 10000 5.36 290 20:34 21.05.2022
1370 Clouds 18 1007 64 10000 6.26 290 19:43 21.05.2022
1371 Clouds 18 1007 63 10000 7.72 290 18:45 21.05.2022
1372 Clouds 18 1007 70 10000 12.07 282 16:57 21.05.2022
1373 Clouds 17 1007 70 10000 12.35 270 14:39 21.05.2022
1374 Clouds 18 1006 65 10000 10.73 256 13:55 21.05.2022
1375 Clouds 17 1014 67 10000 9.39 271 13:25 21.05.2022
1376 Clouds 16 1014 70 10000 10.73 263 12:38 21.05.2022
1377 Clouds 16 1013 74 10000 9.83 255 11:25 21.05.2022
1378 Clouds 16 1014 68 10000 8.94 257 10:21 21.05.2022
1379 Clouds 14 1013 74 10000 8.94 274 08:59 21.05.2022
1380 Clouds 14 1013 73 10000 9.39 286 08:38 21.05.2022
1381 Clouds 14 1011 76 10000 10.73 274 06:20 21.05.2022
1382 Clouds 17 1005 91 10000 9.77 270 01:42 21.05.2022
1383 Clear 17 1007 89 10000 2.06 70 23:35 20.05.2022
1384 Clear 17 1001 87 10000 2.06 70 22:40 20.05.2022
1385 Clouds 17 1009 90 10000 4.12 20 21:58 20.05.2022
1386 Rain 18 1011 88 10000 4.02 178 21:19 20.05.2022
1387 Rain 20 1008 83 10000 2.57 160 20:47 20.05.2022
1388 Clouds 22 1010 70 10000 2.57 200 19:47 20.05.2022
1389 Clear 25 1003 43 10000 1.54 230 18:53 20.05.2022
1390 Clear 25 1004 45 10000 2.24 297 18:18 20.05.2022
1391 Clear 26 1006 39 10000 3.13 270 16:27 20.05.2022
1392 Clear 26 1004 40 10000 3.6 290 15:54 20.05.2022
1393 Clear 26 1005 40 10000 4.47 290 15:20 20.05.2022
1394 Clear 26 1008 45 10000 5.81 271 14:27 20.05.2022
1395 Clouds 24 1016 51 10000 5.81 280 12:37 20.05.2022
1396 Clouds 21 1016 62 10000 6.71 258 10:47 20.05.2022
1397 Clouds 20 1017 70 10000 6.26 253 09:31 20.05.2022
1398 Clouds 19 1017 78 10000 4.47 259 08:27 20.05.2022
1399 Clouds 18 1018 82 10000 4.12 280 06:43 20.05.2022
1400 Clouds 17 1017 83 10000 5.14 280 05:52 20.05.2022
1401 Clear 19 1016 77 10000 4.47 257 02:52 20.05.2022
1402 Clear 21 1014 62 10000 3.13 280 23:47 19.05.2022
1403 Clear 21 1017 61 10000 2.68 204 22:39 19.05.2022
1404 Clouds 20 1017 66 10000 2.71 187 21:52 19.05.2022
1405 Clear 22 1017 60 10000 3.09 180 21:24 19.05.2022
1406 Clouds 22 1017 61 10000 3.35 188 20:53 19.05.2022
1407 Clear 26 1013 40 10000 4.12 170 19:57 19.05.2022
1408 Clear 27 1017 42 10000 4.63 180 19:25 19.05.2022
1409 Clear 28 1008 37 10000 5.14 180 17:47 19.05.2022
1410 Clear 28 1008 37 10000 5.36 179 17:47 19.05.2022
1411 Clear 29 1009 38 10000 5.36 206 16:22 19.05.2022
1412 Clear 28 1010 42 10000 5.66 200 14:50 19.05.2022
1413 Clear 28 1011 41 10000 5.14 190 14:21 19.05.2022
1414 Clear 28 1011 41 10000 5.14 190 14:21 19.05.2022
1415 Clear 26 1017 47 10000 5.36 202 12:20 19.05.2022
1416 Clear 23 1012 54 10000 4.02 160 10:35 19.05.2022
1417 Clear 19 1013 62 10000 3.58 152 08:51 19.05.2022
1418 Clear 16 1019 66 10000 3.58 146 07:41 19.05.2022
1419 Clear 14 1013 69 10000 2.68 140 04:38 19.05.2022
1420 Clear 16 1020 69 10000 3.09 140 01:57 19.05.2022
1421 Clear 16 1023 69 10000 3.6 140 23:49 18.05.2022
1422 Clear 18 1019 68 10000 2.57 130 22:46 18.05.2022
1423 Clear 20 1019 63 10000 3.09 130 21:47 18.05.2022
1424 Clear 20 1023 59 10000 3.09 140 21:24 18.05.2022
1425 Clear 23 1013 46 10000 3.6 140 20:24 18.05.2022
1426 Clear 23 1019 47 10000 4.12 130 19:37 18.05.2022
1427 Clear 24 1015 48 10000 3.6 150 18:21 18.05.2022
1428 Clear 24 1015 45 10000 5.36 138 17:41 18.05.2022
1429 Clear 25 1015 45 10000 3.6 160 17:23 18.05.2022
1430 Clear 24 1015 43 10000 4.63 170 16:23 18.05.2022
1431 Clear 25 1015 45 10000 4.63 150 15:39 18.05.2022
1432 Clear 24 1014 48 10000 5.66 160 14:34 18.05.2022
1433 Clear 23 1014 45 10000 5.14 120 13:20 18.05.2022
1434 Clear 22 1022 45 10000 4.63 120 12:40 18.05.2022
1435 Clear 19 1022 47 10000 5.81 138 11:34 18.05.2022
1436 Clear 18 1017 50 10000 5.14 130 10:52 18.05.2022
1437 Clear 14 1017 49 10000 5.36 137 08:53 18.05.2022
1438 Clear 12 1023 58 10000 5.36 115 07:29 18.05.2022
1439 Clear 11 1022 53 10000 4.63 110 05:34 18.05.2022
1440 Clear 15 1021 73 10000 4.12 60 00:52 18.05.2022
1441 Clear 15 1020 75 10000 3.09 50 00:21 18.05.2022
1442 Clouds 17 1018 84 10000 2.06 270 21:39 17.05.2022
1443 Clouds 18 1021 82 10000 2.57 240 21:19 17.05.2022
1444 Clouds 19 1020 78 10000 3.6 260 19:59 17.05.2022
1445 Clouds 20 1020 78 10000 3.6 260 19:27 17.05.2022
1446 Clouds 20 1020 76 10000 3.09 280 17:50 17.05.2022
1447 Clouds 20 1020 74 10000 3.09 270 16:59 17.05.2022
1448 Clouds 20 1020 76 10000 2.57 290 16:29 17.05.2022
1449 Clouds 20 1021 77 10000 1.54 250 15:25 17.05.2022
1450 Clouds 19 1021 83 10000 2.57 270 14:30 17.05.2022
1451 Clouds 19 1020 68 10000 1.54 0 13:35 17.05.2022
1452 Clouds 16 1018 84 10000 3.13 277 11:43 17.05.2022
1453 Clear 15 1010 86 10000 3.6 10 09:35 17.05.2022
1454 Clouds 14 1010 88 10000 2.68 123 08:33 17.05.2022
1455 Rain 13 1016 88 10000 3.58 340 06:48 17.05.2022
1456 Rain 16 1015 66 10000 3.58 53 03:45 17.05.2022
1457 Clear 18 1015 49 10000 4.92 63 00:45 17.05.2022
1458 Clear 19 1014 49 10000 4.63 60 22:44 16.05.2022
1459 Clear 20 1010 38 10000 5.14 60 21:45 16.05.2022
1460 Clear 21 1009 34 10000 4.12 70 20:48 16.05.2022
1461 Clear 23 1010 34 10000 5.66 70 19:49 16.05.2022
1462 Clear 24 998 36 10000 3.6 100 18:21 16.05.2022
1463 Clear 25 1004 30 10000 2.57 130 16:24 16.05.2022
1464 Clear 25 1005 33 10000 4.12 90 14:38 16.05.2022
1465 Clear 24 1006 36 10000 3.6 100 13:23 16.05.2022
1466 Clear 21 1016 45 10000 4.47 106 11:31 16.05.2022
1467 Clear 18 1011 53 10000 4.12 120 09:58 16.05.2022
1468 Clear 12 1016 69 10000 3.09 80 07:21 16.05.2022
1469 Clear 11 1018 76 10000 4.02 67 04:41 16.05.2022
1470 Clear 13 1017 70 10000 3.13 70 23:56 15.05.2022
1471 Clear 14 1016 68 10000 3.09 50 22:34 15.05.2022
1472 Clear 15 1016 58 10000 2.06 60 21:48 15.05.2022
1473 Clear 17 1016 55 10000 2.24 40 21:19 15.05.2022
1474 Clear 20 1017 45 10000 3.58 80 19:56 15.05.2022
1475 Clear 22 1010 35 10000 2.68 270 17:56 15.05.2022
1476 Clear 22 1008 36 10000 2.24 315 16:36 15.05.2022
1477 Clear 21 1007 40 10000 2.06 0 14:18 15.05.2022
1478 Clear 21 1012 42 10000 2.68 293 13:27 15.05.2022
1479 Clouds 19 1020 47 10000 3.6 320 11:55 15.05.2022
1480 Clouds 17 1019 53 10000 3.58 312 10:40 15.05.2022
1481 Clear 14 1014 69 10000 2.24 316 08:52 15.05.2022
1482 Clear 10 1019 82 10000 1.79 247 06:59 15.05.2022
1483 Clear 10 1019 76 10000 1.34 239 06:39 15.05.2022
1484 Clear 10 1019 81 10000 2.24 347 02:24 15.05.2022
1485 Clear 11 1016 76 10000 2.24 320 23:59 14.05.2022
1486 Clear 12 1016 77 10000 2.24 310 23:35 14.05.2022
1487 Clear 16 1016 66 10000 4.47 330 21:45 14.05.2022
1488 Clear 16 1019 65 10000 5.14 330 21:24 14.05.2022
1489 Clear 19 1015 60 10000 5.14 330 19:54 14.05.2022
1490 Clear 19 1017 55 10000 5.81 311 19:20 14.05.2022
1491 Clear 20 1017 49 10000 6.17 300 18:51 14.05.2022
1492 Clear 20 1017 49 10000 6.17 300 18:51 14.05.2022
1493 Clear 20 1018 54 10000 6.17 300 17:43 14.05.2022
1494 Clouds 20 1016 50 10000 7.15 318 15:58 14.05.2022
1495 Clear 20 1017 53 10000 8.05 287 14:38 14.05.2022
1496 Clouds 20 1009 49 10000 10.29 280 13:24 14.05.2022
1497 Clouds 19 1016 58 10000 8.05 283 11:45 14.05.2022
1498 Clouds 17 1010 62 10000 7.6 260 10:43 14.05.2022
1499 Clouds 16 1015 64 10000 7.6 279 10:18 14.05.2022
1500 Clouds 15 1015 66 10000 5.66 260 09:23 14.05.2022
1501 Clear 13 1015 69 10000 4.92 258 07:32 14.05.2022
1502 Clear 12 1014 71 10000 3.09 260 04:35 14.05.2022
1503 Clear 12 1015 71 10000 4.92 231 00:27 14.05.2022
1504 Clear 13 1016 70 10000 4.02 250 23:25 13.05.2022
1505 Clear 13 1014 69 10000 3.09 240 22:55 13.05.2022
1506 Clear 14 1016 64 10000 4.02 233 22:21 13.05.2022
1507 Clear 16 1016 61 10000 4.02 262 20:59 13.05.2022
1508 Clear 17 1008 59 10000 4.02 263 20:38 13.05.2022
1509 Clear 16 1014 57 10000 4.47 275 20:20 13.05.2022
1510 Clear 17 1008 53 10000 6.26 297 19:18 13.05.2022
1511 Clear 18 1014 50 10000 8.23 300 17:47 13.05.2022
1512 Clear 18 1013 50 10000 10.28 274 17:23 13.05.2022
1513 Clear 18 1007 50 10000 9.26 290 15:47 13.05.2022
1514 Clear 18 1007 48 10000 9.26 270 14:39 13.05.2022
1515 Clear 19 1006 50 10000 8.05 272 12:54 13.05.2022
1516 Clear 18 1012 54 10000 7.6 278 11:56 13.05.2022
1517 Clear 17 1012 58 10000 6.17 250 10:19 13.05.2022
1518 Clear 17 1012 60 10000 4.63 220 09:29 13.05.2022
1519 Clear 14 1012 70 10000 3.58 222 07:59 13.05.2022
1520 Clear 12 1012 74 10000 3.09 220 07:26 13.05.2022
1521 Clear 10 1013 76 10000 2.06 220 05:31 13.05.2022
1522 Clear 12 1013 69 10000 3.09 210 01:21 13.05.2022
1523 Clear 14 1015 67 10000 3.13 237 23:34 12.05.2022
1524 Clear 15 1014 62 10000 3.13 236 22:35 12.05.2022
1525 Clear 16 1015 60 10000 2.57 240 21:35 12.05.2022
1526 Clear 18 1013 43 10000 5.36 275 19:55 12.05.2022
1527 Clear 20 1007 41 10000 5.36 269 18:29 12.05.2022
1528 Clear 21 1007 45 10000 7.72 270 16:48 12.05.2022
1529 Clouds 19 1008 47 10000 6.17 290 15:22 12.05.2022
1530 Clouds 20 1008 45 10000 8.49 299 13:58 12.05.2022
1531 Clouds 19 1008 48 10000 8.23 280 12:46 12.05.2022
1532 Clouds 16 1011 64 10000 11.62 280 10:34 12.05.2022
1533 Clouds 15 1009 69 10000 13.38 280 08:58 12.05.2022
1534 Clouds 15 1009 72 10000 14.31 275 08:37 12.05.2022
1535 Clouds 15 1007 79 10000 9.77 270 07:36 12.05.2022
1536 Rain 16 1005 85 10000 4.12 290 04:50 12.05.2022
1537 Clear 17 1004 81 10000 3.58 305 02:21 12.05.2022
1538 Clear 19 1004 76 10000 4.92 240 23:55 11.05.2022
1539 Rain 20 1005 71 10000 4.02 180 22:29 11.05.2022
1540 Clouds 21 1006 69 10000 7.15 217 21:29 11.05.2022
1541 Rain 22 1007 53 10000 5.66 230 20:52 11.05.2022
1542 Clear 25 1008 24 10000 9.26 240 17:56 11.05.2022
1543 Clear 27 1003 26 10000 9.77 240 16:49 11.05.2022
1544 Clear 28 996 36 10000 10.8 250 14:50 11.05.2022
1545 Clear 28 999 37 10000 10.8 220 14:26 11.05.2022
1546 Clear 27 997 41 10000 10.29 220 13:44 11.05.2022
1547 Clear 23 1002 58 10000 5.66 150 11:51 11.05.2022
1548 Clear 19 1004 71 10000 4.47 107 09:54 11.05.2022
1549 Rain 18 1005 78 10000 2.68 55 08:33 11.05.2022
1550 Clear 17 1010 74 10000 4.12 80 04:44 11.05.2022
1551 Clear 20 1012 54 10000 4.12 200 00:42 11.05.2022
1552 Clear 20 1009 45 10000 3.09 190 22:30 10.05.2022
1553 Clear 21 1009 45 10000 3.6 220 21:47 10.05.2022
1554 Clear 22 1008 30 10000 4.63 230 20:54 10.05.2022
1555 Clear 25 1011 36 10000 5.14 210 19:26 10.05.2022
1556 Clear 26 1005 34 10000 5.36 211 17:49 10.05.2022
1557 Clear 26 1007 33 10000 4.47 203 16:49 10.05.2022
1558 Clear 26 1008 35 10000 3.13 158 14:48 10.05.2022
1559 Clear 25 1010 35 10000 3.13 151 12:39 10.05.2022
1560 Clear 23 1016 37 10000 4.02 182 11:49 10.05.2022
1561 Clear 22 1017 39 10000 3.13 175 11:18 10.05.2022
1562 Clear 20 1011 47 10000 2.57 150 10:22 10.05.2022
1563 Clear 17 1012 52 10000 2.06 140 09:25 10.05.2022
1564 Clear 11 1012 63 10000 2.24 113 06:46 10.05.2022
1565 Clear 11 1021 67 10000 2.68 110 03:30 10.05.2022
1566 Clear 13 1022 57 10000 3.6 110 00:38 10.05.2022
1567 Clear 14 1022 63 10000 3.09 80 22:52 09.05.2022
1568 Clear 15 1021 58 10000 3.09 80 21:50 09.05.2022
1569 Clear 18 1020 44 10000 3.6 80 20:52 09.05.2022
1570 Clear 21 1016 34 10000 2.57 90 18:43 09.05.2022
1571 Clear 22 1016 35 10000 2.06 160 17:51 09.05.2022
1572 Clear 21 1014 34 10000 3.6 170 16:33 09.05.2022
1573 Clear 22 1014 33 10000 2.68 30 15:52 09.05.2022
1574 Clear 21 1014 34 10000 4.12 160 15:24 09.05.2022
1575 Clear 21 1015 34 10000 4.63 130 14:29 09.05.2022
1576 Clear 20 1015 36 10000 3.09 120 13:49 09.05.2022
1577 Clear 19 1026 41 10000 3.6 120 12:26 09.05.2022
1578 Clear 18 1027 48 10000 2.57 40 11:32 09.05.2022
1579 Clear 17 1026 55 10000 2.24 338 10:42 09.05.2022
1580 Clear 12 1020 69 10000 3.6 90 08:51 09.05.2022
1581 Clear 10 1025 76 10000 4.02 80 07:54 09.05.2022
1582 Clear 8 1028 80 10000 2.68 54 03:36 09.05.2022
1583 Clear 12 1027 66 10000 5.14 40 23:37 08.05.2022
1584 Clear 13 1027 65 10000 4.63 40 22:56 08.05.2022
1585 Clear 13 1026 52 10000 3.09 50 21:55 08.05.2022
1586 Clear 17 1025 34 10000 3.58 359 20:35 08.05.2022
1587 Clear 18 1025 32 10000 4.12 360 19:45 08.05.2022
1588 Clear 19 1010 29 10000 4.63 320 18:54 08.05.2022
1589 Clear 20 1014 29 10000 3.6 320 18:18 08.05.2022
1590 Clear 20 1010 25 10000 5.66 290 16:56 08.05.2022
1591 Clear 20 1012 29 10000 4.63 310 15:40 08.05.2022
1592 Clear 20 1013 34 10000 5.14 320 14:57 08.05.2022
1593 Clouds 18 1024 46 10000 4.02 293 12:39 08.05.2022
1594 Clear 15 1023 63 10000 3.13 308 10:32 08.05.2022
1595 Clear 15 1023 66 10000 1.54 290 09:58 08.05.2022
1596 Clear 15 1023 66 10000 1.54 290 09:58 08.05.2022
1597 Clear 14 1023 72 10000 2.24 318 09:31 08.05.2022
1598 Clouds 12 1022 81 10000 2.68 13 07:31 08.05.2022
1599 Clear 13 1021 78 10000 4.02 24 03:55 08.05.2022
1600 Clear 13 1021 78 10000 3.58 3 02:51 08.05.2022
1601 Clear 13 1019 79 10000 3.09 360 00:28 08.05.2022
1602 Clear 13 1019 80 10000 2.68 70 23:53 07.05.2022
1603 Clear 14 1022 78 10000 2.57 360 22:51 07.05.2022
1604 Clear 14 1022 76 10000 2.06 280 22:33 07.05.2022
1605 Clear 16 1018 64 10000 2.57 270 21:34 07.05.2022
1606 Clear 17 1018 55 10000 3.58 320 20:55 07.05.2022
1607 Clear 18 1018 50 10000 4.12 260 19:58 07.05.2022
1608 Clouds 22 1018 56 10000 5.66 330 17:43 07.05.2022
1609 Clouds 22 1018 46 10000 4.63 310 15:53 07.05.2022
1610 Clear 22 1020 47 10000 3.58 267 14:20 07.05.2022
1611 Clear 20 1020 48 10000 3.6 270 10:57 07.05.2022
1612 Clear 18 1019 52 10000 3.13 219 09:38 07.05.2022
1613 Clear 14 1018 71 10000 1.34 200 07:52 07.05.2022
1614 Clear 13 1013 70 10000 1.34 262 06:43 07.05.2022
1615 Clear 13 1013 72 10000 1.34 220 05:22 07.05.2022
1616 Clear 12 1013 74 10000 1.03 170 02:21 07.05.2022
1617 Clear 13 1021 74 10000 1.54 150 23:38 06.05.2022
1618 Clear 14 1021 69 10000 1.34 71 22:32 06.05.2022
1619 Clear 15 1021 65 10000 1.03 0 21:44 06.05.2022
1620 Clear 18 1021 56 10000 3.6 280 20:35 06.05.2022
1621 Clear 19 1021 46 10000 3.13 279 19:40 06.05.2022
1622 Clear 19 1021 45 10000 1.79 320 19:18 06.05.2022
1623 Clear 19 1021 43 10000 2.24 350 18:23 06.05.2022
1624 Clear 20 1021 44 10000 1.54 0 16:53 06.05.2022
1625 Clear 20 1021 44 10000 3.09 250 15:42 06.05.2022
1626 Clear 19 1022 46 10000 3.58 288 14:53 06.05.2022
1627 Clouds 19 1022 53 10000 3.6 340 13:26 06.05.2022
1628 Clouds 19 1023 50 10000 3.09 300 12:40 06.05.2022
1629 Clouds 18 1022 51 10000 3.13 280 11:45 06.05.2022
1630 Clouds 16 1023 63 10000 2.24 66 10:34 06.05.2022
1631 Clear 16 1023 64 10000 1.34 293 09:46 06.05.2022
1632 Clear 13 1022 71 10000 1.79 288 08:43 06.05.2022
1633 Clear 9 1022 81 10000 1.34 260 07:26 06.05.2022
1634 Clear 8 1021 84 10000 1.34 10 05:48 06.05.2022
1635 Clear 8 1022 81 10000 2.24 6 02:54 06.05.2022
1636 Clear 9 1021 78 10000 2.24 34 01:57 06.05.2022
1637 Clear 11 1019 67 10000 2.06 320 22:45 05.05.2022
1638 Clear 11 1019 71 10000 2.06 320 22:45 05.05.2022
1639 Clear 13 1019 65 10000 2.24 338 21:45 05.05.2022
1640 Clear 16 1019 50 10000 4.47 304 20:27 05.05.2022
1641 Clear 18 1010 42 10000 3.58 300 18:36 05.05.2022
1642 Clouds 19 1010 50 10000 4.63 270 16:40 05.05.2022
1643 Clouds 19 1011 48 10000 3.58 289 14:55 05.05.2022
1644 Clouds 18 1018 56 10000 2.68 350 13:27 05.05.2022
1645 Clouds 18 1018 57 10000 5.14 340 12:55 05.05.2022
1646 Clouds 15 1018 70 10000 2.57 330 10:59 05.05.2022
1647 Clouds 14 1009 77 10000 3.13 1 09:40 05.05.2022
1648 Clear 12 1017 87 10000 2.68 330 08:30 05.05.2022
1649 Rain 12 1008 81 10000 4.63 340 05:44 05.05.2022
1650 Clear 13 1015 76 10000 1.79 26 02:20 05.05.2022
1651 Clear 13 1015 74 10000 1.03 0 01:35 05.05.2022
1652 Clear 14 1014 68 10000 2.57 50 23:57 04.05.2022
1653 Clear 14 1014 67 10000 3.13 56 22:54 04.05.2022
1654 Clear 15 1012 68 10000 2.57 60 21:59 04.05.2022
1655 Clear 16 1014 65 10000 2.68 54 21:30 04.05.2022
1656 Clear 17 1014 55 10000 3.13 63 20:42 04.05.2022
1657 Clear 18 1014 57 10000 2.06 70 19:59 04.05.2022
1658 Clear 18 1014 55 10000 2.24 65 19:35 04.05.2022
1659 Clear 19 1014 46 10000 2.68 58 18:23 04.05.2022
1660 Clear 19 1015 49 10000 1.54 100 17:59 04.05.2022
1661 Clear 20 1007 48 10000 2.06 0 16:30 04.05.2022
1662 Clear 20 1006 47 10000 3.13 122 15:32 04.05.2022
1663 Clear 19 1008 49 10000 2.24 190 14:38 04.05.2022
1664 Clear 20 1015 47 10000 1.54 0 14:19 04.05.2022
1665 Clouds 19 1016 52 10000 2.68 170 12:36 04.05.2022
1666 Clouds 18 1017 55 10000 1.34 23 11:28 04.05.2022
1667 Clear 15 1009 66 10000 1.34 51 09:57 04.05.2022
1668 Clear 13 1009 73 10000 1.34 325 09:20 04.05.2022
1669 Clear 11 1009 79 10000 1.03 0 07:51 04.05.2022
1670 Clear 9 1009 81 10000 0.51 80 04:45 04.05.2022
1671 Clear 10 1016 80 10000 1.03 110 02:33 04.05.2022
1672 Clear 10 1015 76 10000 1.03 0 23:20 03.05.2022
1673 Clear 12 1013 71 10000 3.09 20 21:53 03.05.2022
1674 Clear 14 1014 66 10000 3.6 20 21:31 03.05.2022
1675 Clouds 14 1010 61 10000 4.02 320 20:52 03.05.2022
1676 Clear 17 1013 56 10000 3.6 300 19:33 03.05.2022
1677 Clear 17 1013 57 10000 4.12 360 18:47 03.05.2022
1678 Clear 18 1014 49 10000 3.6 320 17:22 03.05.2022
1679 Clear 19 1001 43 10000 3.6 270 16:19 03.05.2022
1680 Clear 19 1001 38 10000 3.6 0 14:25 03.05.2022
1681 Clear 18 1015 40 10000 3.6 320 12:42 03.05.2022
1682 Clear 17 1016 43 10000 3.09 290 11:49 03.05.2022
1683 Clear 15 1015 51 10000 1.79 26 10:49 03.05.2022
1684 Clear 11 1008 66 10000 1.34 23 08:33 03.05.2022
1685 Clear 8 1006 78 10000 1.34 7 06:45 03.05.2022
1686 Clear 9 1014 78 10000 1.54 250 03:26 03.05.2022
1687 Clear 11 1015 71 10000 0.89 63 23:32 02.05.2022
1688 Clear 12 1015 67 10000 1.34 358 22:32 02.05.2022
1689 Clear 12 1010 66 10000 2.24 330 21:48 02.05.2022
1690 Clear 12 1010 64 10000 2.24 330 21:48 02.05.2022
1691 Clear 17 1014 54 10000 4.12 330 19:59 02.05.2022
1692 Clear 19 1007 45 10000 3.58 350 18:27 02.05.2022
1693 Clear 19 1004 45 10000 3.6 330 17:42 02.05.2022
1694 Clear 19 1005 44 10000 5.14 320 16:47 02.05.2022
1695 Clear 19 1005 43 10000 2.57 270 15:52 02.05.2022
1696 Clear 20 1007 42 10000 3.58 293 14:54 02.05.2022
1697 Clear 19 1006 41 10000 2.57 330 13:47 02.05.2022
1698 Clear 18 1018 44 10000 2.68 319 11:51 02.05.2022
1699 Clear 15 1018 48 10000 2.24 78 10:18 02.05.2022
1700 Clear 12 1018 62 10000 2.06 50 08:44 02.05.2022
1701 Clear 9 1019 79 10000 2.68 352 07:30 02.05.2022
1702 Clear 10 1020 71 10000 2.68 40 01:28 02.05.2022
1703 Clear 10 1020 73 10000 3.13 11 00:23 02.05.2022
1704 Clear 11 1020 69 10000 2.06 20 23:46 01.05.2022
1705 Clear 11 1019 72 10000 2.68 353 21:56 01.05.2022
1706 Clear 13 1011 63 10000 3.58 350 20:50 01.05.2022
1707 Clear 14 1011 60 10000 3.58 360 19:46 01.05.2022
1708 Clouds 15 1011 57 10000 5.36 22 18:54 01.05.2022
1709 Clouds 15 1011 55 10000 5.81 6 18:18 01.05.2022
1710 Clouds 16 1012 46 10000 5.66 10 16:55 01.05.2022
1711 Clouds 16 1012 46 10000 6.71 360 16:23 01.05.2022
1712 Clouds 16 1012 50 10000 5.81 360 15:23 01.05.2022
1713 Clear 15 1013 54 10000 5.14 350 13:42 01.05.2022
1714 Clear 15 1021 54 10000 4.12 20 10:50 01.05.2022
1715 Clear 12 1013 64 10000 4.92 11 08:51 01.05.2022
1716 Clear 10 1013 73 10000 3.13 27 07:53 01.05.2022
1717 Clear 9 1013 75 10000 4.12 20 03:26 01.05.2022
1718 Clear 11 1020 71 10000 3.13 35 23:23 30.04.2022
1719 Clear 14 1019 63 10000 6.26 40 21:44 30.04.2022
1720 Clear 16 1011 56 10000 5.66 360 20:36 30.04.2022
1721 Clear 18 1011 50 10000 4.12 350 19:41 30.04.2022
1722 Clear 17 1019 52 10000 4.12 350 19:41 30.04.2022
1723 Clear 19 1011 36 10000 3.09 270 17:44 30.04.2022
1724 Clear 20 1012 36 10000 2.06 340 16:42 30.04.2022
1725 Clear 20 1012 40 10000 2.24 272 15:24 30.04.2022
1726 Clear 19 1011 45 10000 2.68 269 14:34 30.04.2022
1727 Clear 17 1023 47 10000 1.79 45 12:42 30.04.2022
1728 Clear 15 1014 56 10000 1.79 273 11:33 30.04.2022
1729 Clear 14 1014 58 10000 1.79 270 10:43 30.04.2022
1730 Clear 12 1014 66 10000 1.34 110 09:25 30.04.2022
1731 Clear 10 1014 64 10000 1.34 110 06:43 30.04.2022
1732 Clear 11 1015 63 10000 2.06 50 01:53 30.04.2022
1733 Clear 13 1016 58 10000 2.06 50 23:37 29.04.2022
1734 Clear 13 1023 60 10000 2.24 113 22:31 29.04.2022
1735 Clear 14 1015 54 10000 2.24 77 21:34 29.04.2022
1736 Clear 15 1023 51 10000 2.24 60 20:49 29.04.2022
1737 Clear 17 1023 41 10000 2.68 70 19:45 29.04.2022
1738 Clear 19 1015 34 10000 1.79 311 17:55 29.04.2022
1739 Clear 19 1016 31 10000 2.06 310 17:21 29.04.2022
1740 Clear 20 1017 31 10000 2.24 170 15:49 29.04.2022
1741 Clear 19 1015 34 10000 2.57 300 14:22 29.04.2022
1742 Clear 18 1026 37 10000 1.03 0 13:21 29.04.2022
1743 Clear 17 1027 42 10000 1.79 274 11:49 29.04.2022
1744 Clear 12 1026 61 10000 1.03 0 08:51 29.04.2022
1745 Clear 7 1026 83 10000 1.34 60 07:28 29.04.2022
1746 Clear 7 1026 75 10000 0.51 70 06:39 29.04.2022
1747 Clear 6 1026 79 10000 1.03 170 04:53 29.04.2022
1748 Clear 8 1027 75 10000 1.79 64 00:45 29.04.2022
1749 Clear 10 1027 67 10000 2.57 70 23:28 28.04.2022
1750 Clear 11 1027 67 10000 2.57 300 22:44 28.04.2022
1751 Clear 11 1024 68 10000 2.24 320 21:47 28.04.2022
1752 Clear 12 1026 61 10000 3.13 306 21:21 28.04.2022
1753 Clear 15 1018 51 10000 4.12 290 20:35 28.04.2022
1754 Clear 16 1025 50 10000 4.12 290 19:45 28.04.2022
1755 Clear 16 1025 52 10000 4.02 290 19:23 28.04.2022
1756 Clear 17 1010 50 10000 4.63 280 18:36 28.04.2022
1757 Clear 18 1017 44 10000 5.66 280 17:32 28.04.2022
1758 Clear 18 1017 40 10000 4.63 270 16:41 28.04.2022
1759 Clear 18 1018 41 10000 4.92 282 16:19 28.04.2022
1760 Clear 18 1018 42 10000 4.12 280 15:40 28.04.2022
1761 Clear 17 1017 46 10000 5.14 300 14:38 28.04.2022
1762 Clouds 16 1026 49 10000 4.63 300 13:19 28.04.2022
1763 Clouds 15 1028 50 10000 3.6 0 11:59 28.04.2022
1764 Clear 14 1026 57 10000 2.68 358 10:47 28.04.2022
1765 Clear 13 1028 59 10000 2.68 358 10:26 28.04.2022
1766 Clear 10 1018 73 10000 1.54 340 08:59 28.04.2022
1767 Clouds 8 1018 77 10000 1.03 340 07:38 28.04.2022
1768 Clear 5 1025 84 10000 2.06 350 06:37 28.04.2022
1769 Clear 6 1025 84 10000 3.13 360 05:39 28.04.2022
1770 Clear 7 1024 79 10000 1.54 350 04:41 28.04.2022
1771 Clear 8 1024 74 10000 1.34 60 00:36 28.04.2022
1772 Clear 10 1021 64 10000 2.24 45 22:49 27.04.2022
1773 Clouds 11 1019 62 10000 3.58 330 21:58 27.04.2022
1774 Clear 13 1023 56 10000 3.58 330 21:29 27.04.2022
1775 Clear 15 1022 51 10000 2.68 321 20:44 27.04.2022
1776 Clear 16 1022 40 10000 4.63 290 19:41 27.04.2022
1777 Clear 16 1014 41 10000 4.63 290 19:22 27.04.2022
1778 Clear 16 1014 41 10000 4.63 290 19:22 27.04.2022
1779 Clear 16 1022 38 10000 5.14 300 18:38 27.04.2022
1780 Clear 17 1014 36 10000 5.14 350 17:26 27.04.2022
1781 Clear 17 1014 36 10000 5.36 332 15:56 27.04.2022
1782 Clear 16 1021 36 10000 3.58 310 12:34 27.04.2022
1783 Clear 16 1024 40 10000 3.6 350 11:23 27.04.2022
1784 Clear 14 1023 47 10000 4.47 355 10:26 27.04.2022
1785 Clear 9 1020 71 10000 1.34 12 07:41 27.04.2022
1786 Clear 8 1012 72 10000 1.79 0 06:36 27.04.2022
1787 Clear 10 1010 67 10000 4.12 20 02:25 27.04.2022
1788 Clear 11 1010 63 10000 4.92 28 01:18 27.04.2022
1789 Clear 12 1010 58 10000 5.81 6 00:27 27.04.2022
1790 Clear 12 1017 62 10000 3.13 25 23:24 26.04.2022
1791 Clear 13 1016 63 10000 1.79 20 22:44 26.04.2022
1792 Clear 13 1016 57 10000 3.13 10 21:57 26.04.2022
1793 Clear 13 1015 58 10000 2.24 50 21:18 26.04.2022
1794 Clear 14 1015 50 10000 3.58 57 20:36 26.04.2022
1795 Clear 16 1014 43 10000 2.24 30 19:44 26.04.2022
1796 Clear 16 1006 41 10000 2.24 40 19:24 26.04.2022
1797 Clear 17 1006 35 10000 2.06 0 18:20 26.04.2022
1798 Clear 17 1006 34 10000 2.06 340 17:38 26.04.2022
1799 Clear 17 1004 36 10000 2.06 0 14:59 26.04.2022
1800 Clear 17 1004 38 10000 2.06 300 13:38 26.04.2022
1801 Clear 15 1013 39 10000 2.57 110 12:35 26.04.2022
1802 Clear 14 1014 42 10000 2.06 0 11:20 26.04.2022
1803 Clear 13 1013 49 10000 3.09 100 10:30 26.04.2022
1804 Clear 8 1013 74 10000 2.68 91 08:32 26.04.2022
1805 Clear 5 1006 85 10000 0.51 30 04:39 26.04.2022
1806 Clear 6 1005 87 10000 1.79 80 03:59 26.04.2022
1807 Clear 7 1013 84 10000 1.34 70 00:46 26.04.2022
1808 Clear 8 1013 83 10000 2.68 70 23:48 25.04.2022
1809 Clear 9 1010 74 10000 3.58 50 21:51 25.04.2022
1810 Clear 10 1012 74 10000 3.13 53 21:25 25.04.2022
1811 Clouds 13 1011 68 10000 3.6 20 19:47 25.04.2022
1812 Clouds 14 1002 63 10000 4.92 58 18:31 25.04.2022
1813 Clouds 15 1002 61 10000 4.02 20 17:39 25.04.2022
1814 Clouds 14 1000 61 10000 3.58 20 16:35 25.04.2022
1815 Clouds 14 999 63 10000 3.6 350 15:21 25.04.2022
1816 Clouds 13 1001 62 10000 2.57 0 14:23 25.04.2022
1817 Clouds 12 1002 66 10000 5.36 352 12:47 25.04.2022
1818 Clouds 9 1001 80 10000 5.36 354 10:42 25.04.2022
1819 Clouds 8 1001 79 10000 5.81 32 09:41 25.04.2022
1820 Clouds 6 999 89 10000 4.63 30 07:38 25.04.2022
1821 Clouds 6 998 87 10000 4.12 20 05:54 25.04.2022
1822 Clouds 8 997 85 10000 4.63 10 01:28 25.04.2022
1823 Clouds 9 997 82 10000 6.26 21 23:54 24.04.2022
1824 Clouds 9 996 80 10000 5.66 360 23:24 24.04.2022
1825 Clouds 10 1003 84 10000 5.66 10 22:39 24.04.2022
1826 Clouds 11 1003 79 10000 4.02 20 21:56 24.04.2022
1827 Clouds 12 1002 76 10000 4.47 20 21:22 24.04.2022
1828 Clouds 13 1002 71 10000 4.47 20 20:46 24.04.2022
1829 Clouds 14 994 68 10000 5.36 12 20:20 24.04.2022
1830 Clouds 15 993 54 10000 5.81 40 18:38 24.04.2022
1831 Clear 16 993 43 10000 8.05 65 17:49 24.04.2022
1832 Clear 17 991 40 10000 6.69 50 17:21 24.04.2022
1833 Clear 17 993 40 10000 6.71 47 17:21 24.04.2022
1834 Clear 17 990 41 10000 8.75 40 16:51 24.04.2022
1835 Clear 17 990 40 10000 7.72 40 16:25 24.04.2022
1836 Clear 17 991 38 10000 8.23 40 15:39 24.04.2022
1837 Clear 17 991 45 10000 8.23 90 14:33 24.04.2022
1838 Clear 17 995 44 10000 8.75 90 13:27 24.04.2022
1839 Clouds 16 1002 46 10000 6.69 80 12:55 24.04.2022
1840 Clouds 16 1003 47 10000 5.66 80 11:50 24.04.2022
1841 Clear 14 1003 53 10000 6.69 70 10:47 24.04.2022
1842 Clear 12 994 61 10000 5.14 60 09:47 24.04.2022
1843 Clear 8 996 75 10000 4.63 60 07:55 24.04.2022
1844 Clear 6 996 79 10000 4.02 33 05:45 24.04.2022
1845 Clear 8 998 71 10000 4.12 50 02:30 24.04.2022
1846 Clear 10 998 65 10000 5.81 70 00:45 24.04.2022
1847 Clear 10 999 63 10000 5.36 45 23:52 23.04.2022
1848 Clear 11 999 63 10000 4.92 59 23:25 23.04.2022
1849 Clear 11 999 63 10000 4.92 59 23:25 23.04.2022
1850 Clear 12 998 62 10000 5.81 50 21:59 23.04.2022
1851 Clear 13 998 61 10000 5.81 50 21:41 23.04.2022
1852 Clear 13 1006 60 10000 5.36 50 21:22 23.04.2022
1853 Clear 16 1006 43 10000 4.92 80 19:56 23.04.2022
1854 Clear 16 999 43 10000 6.26 70 19:20 23.04.2022
1855 Clear 16 998 43 10000 5.81 93 18:54 23.04.2022
1856 Clear 17 999 42 10000 7.2 60 18:32 23.04.2022
1857 Clear 17 999 40 10000 6.71 63 17:46 23.04.2022
1858 Clear 17 996 40 10000 6.17 100 16:45 23.04.2022
1859 Clear 17 997 39 10000 6.17 100 15:51 23.04.2022
1860 Clear 17 998 40 10000 5.66 90 13:31 23.04.2022
1861 Clouds 15 1009 46 10000 5.36 93 11:29 23.04.2022
1862 Clear 12 1003 56 10000 5.36 70 09:41 23.04.2022
1863 Clear 8 1009 76 10000 3.6 70 08:18 23.04.2022
1864 Clear 6 1002 81 10000 4.12 60 03:57 23.04.2022
1865 Clear 7 1002 79 10000 3.6 60 02:36 23.04.2022
1866 Clear 8 1009 78 10000 3.58 48 23:37 22.04.2022
1867 Clear 9 1002 77 10000 2.68 75 23:18 22.04.2022
1868 Clouds 11 1002 71 10000 4.12 90 21:58 22.04.2022
1869 Clouds 11 1002 67 10000 6.69 100 21:39 22.04.2022
1870 Clouds 12 1001 67 10000 9.83 95 20:34 22.04.2022
1871 Clouds 13 1001 70 10000 6.71 70 19:26 22.04.2022
1872 Clouds 13 1001 72 10000 6.17 80 18:57 22.04.2022
1873 Clouds 13 1001 70 10000 6.17 80 18:26 22.04.2022
1874 Clouds 14 1000 69 10000 7.72 70 16:57 22.04.2022
1875 Clouds 13 1001 71 10000 7.2 90 15:59 22.04.2022
1876 Clouds 13 1000 73 10000 5.36 95 15:30 22.04.2022
1877 Clouds 12 1001 79 10000 4.63 90 14:38 22.04.2022
1878 Clouds 13 1001 76 10000 6.71 95 13:41 22.04.2022
1879 Clouds 13 1001 73 10000 5.81 82 12:48 22.04.2022
1880 Clouds 12 1000 77 10000 5.36 59 11:23 22.04.2022
1881 Clouds 11 1001 76 10000 5.66 50 10:57 22.04.2022
1882 Clouds 10 1001 77 10000 6.26 49 10:34 22.04.2022
1883 Clear 10 1001 77 10000 4.47 31 09:59 22.04.2022
1884 Clear 9 1001 79 10000 3.6 60 09:30 22.04.2022
1885 Clear 8 1001 81 10000 3.58 60 08:49 22.04.2022
1886 Clear 6 1001 87 10000 3.13 44 06:54 22.04.2022
1887 Clouds 9 1003 79 10000 3.6 20 01:34 22.04.2022
1888 Clouds 11 1003 83 10000 1.54 350 23:39 21.04.2022
1889 Clouds 11 1003 86 10000 1.34 329 22:48 21.04.2022
1890 Clouds 11 1001 85 10000 0.89 358 21:49 21.04.2022
1891 Clear 12 1003 83 10000 0.89 38 20:34 21.04.2022
1892 Clear 12 1004 80 10000 1.34 70 19:36 21.04.2022
1893 Clouds 12 1005 83 10000 3.09 50 18:32 21.04.2022
1894 Clouds 12 1005 83 10000 4.12 50 17:46 21.04.2022
1895 Clouds 12 1005 80 10000 4.02 78 16:21 21.04.2022
1896 Clouds 12 1005 71 10000 4.47 63 15:19 21.04.2022
1897 Clouds 12 1005 71 10000 4.47 65 14:31 21.04.2022
1898 Clouds 12 1005 76 10000 4.63 60 13:22 21.04.2022
1899 Clouds 11 1005 76 10000 4.63 50 12:29 21.04.2022
1900 Clouds 9 1004 81 10000 3.6 40 10:19 21.04.2022
1901 Clear 8 1004 83 10000 3.09 10 08:50 21.04.2022
1902 Clouds 7 1003 84 10000 3.6 20 06:55 21.04.2022
1903 Clouds 7 1004 79 10000 4.47 360 04:34 21.04.2022
1904 Clouds 8 1004 76 10000 3.6 10 03:24 21.04.2022
1905 Clouds 8 1004 75 10000 2.68 10 02:46 21.04.2022
1906 Clear 9 1004 69 10000 4.12 10 00:43 21.04.2022
1907 Clear 9 1012 66 10000 4.92 20 23:48 20.04.2022
1908 Clouds 9 1012 70 10000 4.92 20 23:21 20.04.2022
1909 Clouds 10 1012 66 10000 4.47 40 22:45 20.04.2022
1910 Clouds 10 1012 63 10000 4.47 20 22:18 20.04.2022
1911 Clouds 11 1012 59 10000 4.63 30 21:24 20.04.2022
1912 Clear 12 1005 57 10000 6.71 16 20:22 20.04.2022
1913 Clear 12 1010 59 10000 7.72 10 19:51 20.04.2022
1914 Clouds 14 1004 56 10000 7.2 10 18:55 20.04.2022
1915 Clouds 15 1004 53 10000 7.15 354 17:53 20.04.2022
1916 Clouds 15 1004 58 10000 6.71 303 16:40 20.04.2022
1917 Clouds 14 1005 59 10000 5.36 300 16:18 20.04.2022
1918 Clouds 12 1006 64 10000 2.57 230 13:50 20.04.2022
1919 Clouds 12 1007 59 10000 6.26 47 11:44 20.04.2022
1920 Clouds 12 1008 61 10000 4.12 20 10:56 20.04.2022
1921 Clouds 10 1008 65 10000 4.12 30 09:58 20.04.2022
1922 Clouds 10 1008 71 10000 4.02 44 09:24 20.04.2022
1923 Clear 8 1015 74 10000 3.13 27 08:20 20.04.2022
1924 Clouds 8 1007 80 10000 4.47 3 07:32 20.04.2022
1925 Clear 7 1007 76 10000 2.24 13 03:34 20.04.2022
1926 Clouds 7 1015 69 10000 2.24 20 00:22 20.04.2022
1927 Clouds 8 1015 65 10000 3.13 50 23:37 19.04.2022
1928 Clouds 9 1015 66 10000 4.12 30 22:25 19.04.2022
1929 Clouds 9 1013 65 10000 3.58 20 21:56 19.04.2022
1930 Clouds 10 1014 59 10000 4.92 30 21:23 19.04.2022
1931 Clear 11 1013 59 10000 4.02 40 20:45 19.04.2022
1932 Clear 12 1011 62 10000 4.02 30 19:56 19.04.2022
1933 Clear 13 1012 45 10000 4.92 60 18:49 19.04.2022
1934 Clear 13 1002 42 10000 4.63 70 17:40 19.04.2022
1935 Clear 13 1002 44 10000 5.14 50 16:43 19.04.2022
1936 Clear 13 998 45 10000 6.69 60 16:23 19.04.2022
1937 Clear 13 1002 42 10000 7.2 30 14:50 19.04.2022
1938 Clear 14 1005 41 10000 6.17 30 13:54 19.04.2022
1939 Clouds 13 1012 41 10000 6.69 30 12:50 19.04.2022
1940 Clouds 13 1012 42 10000 6.17 20 12:26 19.04.2022
1941 Clear 11 1013 48 10000 4.12 20 10:46 19.04.2022
1942 Clear 8 1006 62 10000 4.47 40 09:22 19.04.2022
1943 Clear 4 1005 69 10000 5.36 15 05:59 19.04.2022
1944 Clear 5 1006 63 10000 4.92 6 03:37 19.04.2022
1945 Clear 7 1007 55 10000 3.58 22 00:55 19.04.2022
1946 Clear 8 1007 49 10000 5.66 20 23:36 18.04.2022
1947 Clear 11 1015 49 10000 3.6 40 21:37 18.04.2022
1948 Clear 11 1015 52 10000 2.68 23 21:18 18.04.2022
1949 Clear 12 1004 50 10000 3.58 40 20:35 18.04.2022
1950 Clear 13 1014 45 10000 4.12 40 19:54 18.04.2022
1951 Clear 15 1004 41 10000 4.63 50 18:58 18.04.2022
1952 Clear 15 1007 41 10000 4.92 46 18:32 18.04.2022
1953 Clear 16 1005 37 10000 4.12 40 17:36 18.04.2022
1954 Clear 16 1005 36 10000 3.6 10 17:18 18.04.2022
1955 Clear 16 1005 35 10000 4.63 40 16:34 18.04.2022
1956 Clear 15 1006 37 10000 5.14 360 15:18 18.04.2022
1957 Clouds 15 1007 39 10000 2.68 0 13:42 18.04.2022
1958 Clouds 14 1018 43 10000 3.13 60 12:34 18.04.2022
1959 Clear 13 1019 46 10000 4.63 40 11:42 18.04.2022
1960 Clear 11 1020 54 10000 2.68 52 10:42 18.04.2022
1961 Clear 9 1019 63 10000 2.68 32 09:31 18.04.2022
1962 Clear 6 1013 75 10000 1.79 26 08:28 18.04.2022
1963 Clear 3 1013 81 10000 1.54 350 05:51 18.04.2022
1964 Clear 5 1023 71 10000 2.68 21 01:37 18.04.2022
1965 Clear 8 1023 63 10000 3.09 50 22:44 17.04.2022
1966 Clear 10 1023 60 10000 4.12 40 21:51 17.04.2022
1967 Clear 10 1016 58 10000 3.58 48 21:32 17.04.2022
1968 Clear 11 1023 55 10000 3.6 40 20:50 17.04.2022
1969 Clear 13 1024 49 10000 4.12 50 19:53 17.04.2022
1970 Clear 14 1016 42 10000 4.12 50 18:32 17.04.2022
1971 Clear 16 1015 35 10000 4.12 360 16:33 17.04.2022
1972 Clear 15 1016 34 10000 4.12 350 15:32 17.04.2022
1973 Clear 15 1016 35 10000 4.47 20 14:28 17.04.2022
1974 Clear 14 1028 39 10000 4.12 350 13:20 17.04.2022
1975 Clear 13 1028 41 10000 2.68 350 12:29 17.04.2022
1976 Clear 11 1030 47 10000 2.24 356 10:48 17.04.2022
1977 Clear 10 1032 47 10000 2.24 68 10:29 17.04.2022
1978 Clear 9 1030 57 10000 1.79 315 09:50 17.04.2022
1979 Clear 6 1023 64 10000 2.24 315 08:58 17.04.2022
1980 Clear 4 1030 71 10000 1.79 286 08:27 17.04.2022
1981 Clear 3 1024 67 10000 0.89 180 05:20 17.04.2022
1982 Clear 3 1032 62 10000 2.24 31 01:40 17.04.2022
1983 Clear 4 1032 58 10000 3.58 24 23:59 16.04.2022
1984 Clear 6 1032 53 10000 4.12 20 22:56 16.04.2022
1985 Clear 7 1031 47 10000 4.63 30 21:44 16.04.2022
1986 Clear 8 1031 44 10000 5.14 30 20:54 16.04.2022
1987 Clear 11 1023 39 10000 5.36 20 19:21 16.04.2022
1988 Clear 12 1023 38 10000 4.92 14 18:35 16.04.2022
1989 Clear 13 1021 36 10000 5.14 30 16:44 16.04.2022
1990 Clear 13 1021 38 10000 4.63 20 15:46 16.04.2022
1991 Clouds 13 1021 40 10000 5.66 30 14:58 16.04.2022
1992 Clouds 12 1022 42 10000 5.66 30 14:30 16.04.2022
1993 Clouds 12 1022 44 10000 5.14 40 13:48 16.04.2022
1994 Clouds 10 1032 50 10000 4.12 30 12:43 16.04.2022
1995 Clouds 9 1034 63 10000 5.81 45 11:33 16.04.2022
1996 Clouds 8 1025 69 10000 5.66 60 10:29 16.04.2022
1997 Clouds 6 1024 80 10000 5.36 36 09:36 16.04.2022
1998 Clouds 5 1024 83 10000 4.92 20 08:51 16.04.2022
1999 Clouds 3 1024 87 10000 4.63 50 07:21 16.04.2022
2000 Clouds 2 1023 86 10000 4.47 13 04:58 16.04.2022
2001 Clouds 4 1022 81 10000 6.17 10 01:47 16.04.2022
2002 Clouds 6 1021 82 10000 6.71 19 23:52 15.04.2022
2003 Clouds 6 1020 83 10000 5.66 360 22:48 15.04.2022
2004 Clouds 6 1020 84 10000 6.26 354 22:28 15.04.2022
2005 Clouds 7 1019 85 10000 6.26 12 21:25 15.04.2022
2006 Clouds 7 1019 86 10000 6.26 18 20:38 15.04.2022
2007 Clouds 7 1016 86 10000 5.66 360 19:46 15.04.2022
2008 Clouds 7 1016 86 10000 7.2 360 19:23 15.04.2022
2009 Clouds 8 1017 86 10000 6.26 352 18:42 15.04.2022
2010 Clouds 8 1017 86 10000 7.6 357 18:22 15.04.2022
2011 Clouds 8 1016 88 10000 7.6 330 17:27 15.04.2022
2012 Clouds 9 1015 89 10000 5.66 310 16:25 15.04.2022
2013 Drizzle 10 1015 90 10000 5.14 330 15:46 15.04.2022
2014 Drizzle 9 1014 90 10000 4.92 300 14:18 15.04.2022
2015 Rain 9 1014 90 10000 5.36 294 12:52 15.04.2022
2016 Drizzle 9 1014 88 10000 6.71 301 12:26 15.04.2022
2017 Clouds 9 1014 87 10000 6.71 305 11:51 15.04.2022
2018 Clouds 9 1013 86 10000 6.17 300 10:48 15.04.2022
2019 Clouds 9 1013 86 10000 6.17 290 10:21 15.04.2022
2020 Clouds 9 1019 87 10000 5.66 290 09:23 15.04.2022
2021 Clouds 9 1013 87 10000 5.66 290 08:49 15.04.2022
2022 Clouds 8 1018 87 10000 5.14 290 06:51 15.04.2022
2023 Clouds 8 1018 88 10000 8.05 297 04:49 15.04.2022
2024 Clouds 11 1011 90 8000 3.58 286 01:27 15.04.2022
2025 Clouds 12 1011 90 10000 4.12 220 23:29 14.04.2022
2026 Clouds 12 1011 90 10000 5.14 220 22:46 14.04.2022
2027 Clouds 12 1011 88 10000 4.47 228 22:27 14.04.2022
2028 Rain 12 1011 88 10000 2.68 263 21:53 14.04.2022
2029 Clouds 12 1018 88 10000 2.57 250 19:57 14.04.2022
2030 Clouds 13 1017 85 10000 1.03 0 19:22 14.04.2022
2031 Clouds 13 1010 86 10000 2.68 272 17:56 14.04.2022
2032 Clouds 13 1010 86 10000 2.68 280 17:27 14.04.2022
2033 Rain 13 1017 85 10000 4.12 300 16:33 14.04.2022
2034 Clouds 14 1017 83 10000 4.63 310 14:23 14.04.2022
2035 Clouds 15 1017 76 10000 5.14 320 13:31 14.04.2022
2036 Clouds 16 1017 71 10000 4.12 340 12:42 14.04.2022
2037 Clouds 16 1016 68 10000 5.14 340 12:22 14.04.2022
2038 Clear 16 1017 66 10000 4.92 352 11:23 14.04.2022
2039 Clear 16 1016 70 10000 3.09 340 10:36 14.04.2022
2040 Clear 16 1009 69 10000 2.57 350 09:56 14.04.2022
2041 Clear 13 1009 72 10000 2.68 35 08:40 14.04.2022
2042 Clear 11 1008 74 10000 3.58 360 06:51 14.04.2022
2043 Clear 12 1007 62 10000 1.34 110 02:53 14.04.2022
2044 Clear 13 1014 61 10000 2.57 100 22:56 13.04.2022
2045 Clear 15 1015 58 10000 2.68 86 21:44 13.04.2022
2046 Clear 16 1016 55 10000 1.34 131 20:55 13.04.2022
2047 Clear 18 1016 51 10000 2.06 150 20:22 13.04.2022
2048 Clear 20 1013 44 10000 2.57 150 19:32 13.04.2022
2049 Clear 22 1007 34 10000 2.24 140 18:20 13.04.2022
2050 Clear 22 1007 33 10000 3.6 160 17:24 13.04.2022
2051 Clear 22 1007 33 10000 4.02 168 16:34 13.04.2022
2052 Clear 21 1004 32 10000 3.6 160 15:38 13.04.2022
2053 Clear 21 1007 34 10000 4.92 152 14:51 13.04.2022
2054 Clear 20 1004 36 10000 4.12 140 14:26 13.04.2022
2055 Clear 20 1007 36 10000 5.36 120 13:28 13.04.2022
2056 Clear 18 1014 41 10000 4.47 113 12:25 13.04.2022
2057 Clear 18 1014 41 10000 4.47 113 12:25 13.04.2022
2058 Clear 15 1008 45 10000 4.63 140 10:54 13.04.2022
2059 Clear 12 1009 51 10000 3.6 130 09:44 13.04.2022
2060 Clear 9 1008 59 10000 4.63 120 08:43 13.04.2022
2061 Clear 6 1008 64 10000 4.02 93 06:52 13.04.2022
2062 Clear 6 1008 63 10000 4.12 100 06:26 13.04.2022
2063 Clear 7 1008 61 10000 4.12 100 05:36 13.04.2022
2064 Clear 10 1009 49 10000 4.47 102 00:23 13.04.2022
2065 Clear 11 1008 48 10000 4.63 110 23:46 12.04.2022
2066 Clear 12 1007 44 10000 5.14 110 22:19 12.04.2022
2067 Clear 13 1007 43 10000 4.12 100 21:29 12.04.2022
2068 Clear 13 1013 44 10000 4.12 100 20:41 12.04.2022
2069 Clear 15 1003 38 10000 5.81 112 19:53 12.04.2022
2070 Clear 15 1007 35 10000 5.14 100 19:32 12.04.2022
2071 Clear 16 1005 36 10000 5.14 100 18:42 12.04.2022
2072 Clear 17 1009 35 10000 5.81 104 17:30 12.04.2022
2073 Clear 17 1005 32 10000 5.14 110 16:23 12.04.2022
2074 Clear 16 1005 33 10000 5.14 110 15:33 12.04.2022
2075 Clouds 16 1003 35 10000 3.58 120 14:32 12.04.2022
2076 Clear 15 1009 35 10000 6.26 125 13:38 12.04.2022
2077 Clear 15 1009 37 10000 6.26 139 12:53 12.04.2022
2078 Clear 13 1016 41 10000 6.71 129 11:47 12.04.2022
2079 Clear 13 1017 45 10000 5.66 120 11:20 12.04.2022
2080 Clear 9 1010 58 10000 2.68 107 09:24 12.04.2022
2081 Clouds 5 1008 65 10000 2.68 94 07:59 12.04.2022
2082 Clear 3 1009 72 10000 1.79 60 06:33 12.04.2022
2083 Clear 3 1009 74 10000 3.09 80 05:35 12.04.2022
2084 Clear 4 1016 70 10000 2.57 90 00:59 12.04.2022
2085 Clear 5 1016 68 10000 1.79 113 22:53 11.04.2022
2086 Clear 6 1016 70 10000 1.54 100 21:49 11.04.2022
2087 Clear 8 1008 63 10000 2.24 114 21:18 11.04.2022
2088 Clear 9 1008 58 10000 1.79 300 20:30 11.04.2022
2089 Clear 10 1008 54 10000 2.24 300 19:56 11.04.2022
2090 Clear 12 1008 44 10000 2.68 290 19:22 11.04.2022
2091 Clear 12 1008 42 10000 3.13 280 18:49 11.04.2022
2092 Clear 12 1008 43 10000 2.68 296 17:57 11.04.2022
2093 Clear 13 1008 41 10000 4.47 290 16:57 11.04.2022
2094 Clear 13 1008 40 10000 4.12 310 16:25 11.04.2022
2095 Clouds 13 1009 40 10000 7.6 259 14:36 11.04.2022
2096 Clouds 11 1017 42 10000 4.12 270 12:54 11.04.2022
2097 Clouds 11 1018 43 10000 6.17 280 12:35 11.04.2022
2098 Clouds 10 1017 46 10000 4.63 300 11:42 11.04.2022
2099 Clouds 8 1018 60 10000 4.92 270 10:34 11.04.2022
2100 Clear 7 1017 68 10000 4.92 262 09:30 11.04.2022
2101 Clear 2 1017 85 10000 3.09 220 07:24 11.04.2022
2102 Clear 5 1010 75 10000 4.12 270 02:36 11.04.2022
2103 Clear 5 1009 77 10000 4.02 258 22:58 10.04.2022
2104 Clear 4 1009 77 10000 4.02 300 22:26 10.04.2022
2105 Clouds 5 1008 75 10000 4.02 287 21:35 10.04.2022
2106 Clouds 5 1008 78 10000 1.54 340 20:39 10.04.2022
2107 Clouds 6 1007 76 10000 5.81 294 19:53 10.04.2022
2108 Clouds 7 1007 71 10000 5.81 260 19:30 10.04.2022
2109 Clouds 7 1007 72 10000 5.14 320 18:46 10.04.2022
2110 Clouds 8 1006 70 10000 8.23 260 17:58 10.04.2022
2111 Clouds 8 1006 68 10000 8.49 270 17:58 10.04.2022
2112 Rain 8 1006 71 10000 8.94 251 17:39 10.04.2022
2113 Clouds 8 1006 68 10000 7.6 272 16:44 10.04.2022
2114 Clouds 9 1005 65 10000 9.83 264 15:37 10.04.2022
2115 Clouds 8 1006 67 10000 9.39 281 14:34 10.04.2022
2116 Clouds 8 1012 65 10000 8.94 285 12:41 10.04.2022
2117 Clouds 7 1011 69 10000 8.49 297 12:21 10.04.2022
2118 Clouds 6 1011 71 10000 9.83 281 11:29 10.04.2022
2119 Clouds 6 1005 73 10000 9.83 272 10:57 10.04.2022
2120 Clouds 5 1005 75 10000 7.6 271 10:20 10.04.2022
2121 Clouds 5 1005 79 10000 7.72 280 09:39 10.04.2022
2122 Clouds 4 1004 82 10000 6.69 270 08:24 10.04.2022
2123 Clouds 3 1004 80 10000 5.81 270 07:47 10.04.2022
2124 Clouds 3 1003 82 10000 6.17 270 06:19 10.04.2022
2125 Clear 3 1002 81 10000 6.17 250 02:37 10.04.2022
2126 Clouds 4 1001 76 10000 5.81 246 00:51 10.04.2022
2127 Clear 5 1001 75 10000 5.81 250 23:50 09.04.2022
2128 Clear 5 1000 75 10000 4.47 230 22:50 09.04.2022
2129 Clouds 6 1000 73 10000 3.6 240 21:48 09.04.2022
2130 Clouds 6 999 75 10000 4.63 270 20:57 09.04.2022
2131 Clouds 6 998 74 10000 5.66 260 20:26 09.04.2022
2132 Clouds 6 1004 75 10000 3.6 280 19:42 09.04.2022
2133 Clouds 7 998 74 10000 4.47 273 19:18 09.04.2022
2134 Clouds 7 998 74 10000 4.47 273 19:18 09.04.2022
2135 Clouds 7 995 73 10000 6.71 278 18:22 09.04.2022
2136 Clouds 7 996 73 10000 8.94 261 17:40 09.04.2022
2137 Clouds 9 995 68 10000 11.62 263 16:53 09.04.2022
2138 Clouds 9 994 66 10000 11.32 260 16:24 09.04.2022
2139 Clouds 9 1002 65 10000 9.26 280 15:43 09.04.2022
2140 Clouds 10 994 55 10000 9.77 270 14:44 09.04.2022
2141 Clouds 10 994 55 10000 9.77 270 14:44 09.04.2022
2142 Clouds 10 994 53 10000 11.18 263 14:23 09.04.2022
2143 Clouds 9 1002 56 10000 10.28 263 13:21 09.04.2022
2144 Clouds 9 1002 56 10000 9.77 290 12:51 09.04.2022
2145 Clouds 8 1001 63 10000 9.83 271 11:41 09.04.2022
2146 Clouds 6 993 71 10000 8.75 270 10:21 09.04.2022
2147 Clouds 6 1000 73 10000 8.05 281 09:52 09.04.2022
2148 Clouds 4 991 79 10000 6.26 255 08:57 09.04.2022
2149 Clouds 3 990 83 10000 5.36 263 07:44 09.04.2022
2150 Clear 4 985 80 10000 3.6 280 03:21 09.04.2022
2151 Clear 5 985 77 10000 2.68 228 00:30 09.04.2022
2152 Clear 5 985 76 10000 2.68 312 22:58 08.04.2022
2153 Clear 6 985 68 10000 4.12 250 21:35 08.04.2022
2154 Clear 7 985 64 10000 4.92 243 20:41 08.04.2022
2155 Clear 9 985 57 10000 4.12 250 19:41 08.04.2022
2156 Clear 9 985 56 10000 4.92 249 18:34 08.04.2022
2157 Clouds 9 985 55 10000 8.05 261 17:55 08.04.2022
2158 Clouds 10 984 55 10000 6.71 252 17:27 08.04.2022
2159 Clouds 10 984 54 10000 7.2 270 16:52 08.04.2022
2160 Clouds 10 985 53 10000 7.2 250 16:22 08.04.2022
2161 Clouds 9 983 56 10000 7.15 255 15:28 08.04.2022
2162 Clouds 9 986 58 10000 7.72 260 14:40 08.04.2022
2163 Clouds 9 994 58 10000 10.29 250 13:55 08.04.2022
2164 Clouds 9 986 58 10000 11.83 260 13:30 08.04.2022
2165 Clouds 8 994 62 10000 10.73 250 12:42 08.04.2022
2166 Clouds 7 995 69 10000 9.39 258 10:56 08.04.2022
2167 Clouds 5 984 83 9000 11.18 281 09:41 08.04.2022
2168 Clouds 5 991 81 10000 6.69 270 08:59 08.04.2022
2169 Clouds 6 982 78 10000 8.94 283 07:42 08.04.2022
2170 Clouds 6 989 80 10000 8.75 260 06:44 08.04.2022
2171 Clouds 7 975 80 10000 13.41 239 02:37 08.04.2022
2172 Clear 7 975 82 10000 8.75 240 00:29 08.04.2022
2173 Clouds 7 975 82 10000 10.29 250 23:42 07.04.2022
2174 Clouds 7 975 83 10000 9.39 279 22:41 07.04.2022
2175 Clouds 7 974 79 10000 7.6 274 22:23 07.04.2022
2176 Clear 8 974 72 10000 9.83 248 21:58 07.04.2022
2177 Clear 9 973 70 10000 10.73 230 21:30 07.04.2022
2178 Clouds 9 972 75 10000 9.39 227 20:42 07.04.2022
2179 Clouds 9 972 77 10000 7.6 221 19:51 07.04.2022
2180 Clouds 9 970 82 10000 9.39 242 17:43 07.04.2022
2181 Clouds 9 967 83 10000 11.32 270 17:22 07.04.2022
2182 Clouds 10 972 84 10000 11.32 200 16:34 07.04.2022
2183 Clouds 13 971 76 10000 10.73 200 15:47 07.04.2022
2184 Clouds 13 974 71 10000 12.96 197 13:59 07.04.2022
2185 Clouds 14 976 66 10000 11.32 210 13:24 07.04.2022
2186 Clouds 14 976 66 10000 11.32 210 13:24 07.04.2022
2187 Clouds 14 977 63 10000 10.8 220 11:53 07.04.2022
2188 Clouds 14 979 66 10000 11.32 220 10:55 07.04.2022
2189 Clouds 11 980 73 10000 9.39 202 09:28 07.04.2022
2190 Clear 9 981 77 10000 7.6 198 06:59 07.04.2022
2191 Clear 9 983 76 10000 7.72 210 05:32 07.04.2022
2192 Clouds 10 985 70 10000 7.2 220 02:37 07.04.2022
2193 Clouds 10 986 67 10000 5.66 230 00:44 07.04.2022
2194 Clouds 11 987 68 10000 8.05 222 23:36 06.04.2022
2195 Clouds 11 987 71 10000 4.63 220 22:45 06.04.2022
2196 Clouds 10 987 71 10000 5.14 220 22:21 06.04.2022
2197 Clouds 11 987 69 10000 5.36 206 20:53 06.04.2022
2198 Clouds 11 987 68 10000 5.14 230 20:26 06.04.2022
2199 Clouds 11 988 68 10000 6.26 229 19:48 06.04.2022
2200 Clouds 12 988 69 10000 8.49 234 18:48 06.04.2022
2201 Clouds 12 988 68 10000 8.23 230 17:51 06.04.2022
2202 Clouds 12 988 66 10000 9.83 238 17:21 06.04.2022
2203 Clouds 12 989 66 10000 8.75 240 16:34 06.04.2022
2204 Clouds 12 989 69 10000 9.26 230 15:46 06.04.2022
2205 Clouds 12 990 73 10000 10.29 230 13:57 06.04.2022
2206 Clouds 12 990 73 10000 11.18 236 12:37 06.04.2022
2207 Clouds 12 990 77 10000 7.72 250 11:48 06.04.2022
2208 Clouds 11 990 79 10000 7.72 230 10:43 06.04.2022
2209 Clouds 11 990 85 10000 6.69 230 10:19 06.04.2022
2210 Clouds 10 991 93 10000 6.17 230 09:27 06.04.2022
2211 Clouds 9 990 92 10000 6.26 242 08:30 06.04.2022
2212 Clouds 9 990 93 10000 5.66 250 07:38 06.04.2022
2213 Clouds 9 990 90 9000 7.15 238 02:57 06.04.2022
2214 Clouds 7 991 91 10000 4.63 260 23:51 05.04.2022
2215 Clouds 7 991 90 10000 5.81 237 22:28 05.04.2022
2216 Clouds 8 991 84 10000 3.6 210 21:18 05.04.2022
2217 Clouds 8 999 81 9000 4.02 232 20:25 05.04.2022
2218 Clouds 8 999 80 10000 5.36 257 19:26 05.04.2022
2219 Clouds 8 1000 76 10000 5.66 260 17:52 05.04.2022
2220 Clouds 9 1000 75 10000 8.94 251 16:51 05.04.2022
2221 Clouds 9 992 66 10000 6.69 270 15:53 05.04.2022
2222 Clouds 9 992 63 10000 7.2 270 15:33 05.04.2022
2223 Clouds 9 992 61 10000 6.69 270 14:27 05.04.2022
2224 Clouds 9 992 63 10000 8.05 283 12:56 05.04.2022
2225 Clouds 8 1000 64 10000 10.29 280 11:50 05.04.2022
2226 Clouds 8 1000 65 10000 9.39 296 11:32 05.04.2022
2227 Clouds 6 991 75 10000 10.28 283 09:52 05.04.2022
2228 Clouds 6 990 82 10000 5.36 274 08:52 05.04.2022
2229 Clouds 5 989 85 10000 4.63 260 06:58 05.04.2022
2230 Clouds 6 987 89 10000 8.75 240 01:51 05.04.2022
2231 Clouds 5 987 91 10000 10.73 247 22:42 04.04.2022
2232 Clouds 5 987 91 10000 10.8 240 22:24 04.04.2022
2233 Clouds 4 987 90 10000 11.83 230 21:21 04.04.2022
2234 Clouds 4 988 91 8000 12.35 230 20:49 04.04.2022
2235 Clouds 3 989 91 8000 11.83 230 19:57 04.04.2022
2236 Clouds 3 989 91 9000 12.52 229 19:26 04.04.2022
2237 Clouds 3 990 90 8000 13.41 212 18:33 04.04.2022
2238 Clouds 3 992 88 9000 13.41 213 16:37 04.04.2022
2239 Clouds 4 993 82 9000 14.4 230 15:47 04.04.2022
2240 Clouds 5 993 76 10000 16.54 233 15:29 04.04.2022
2241 Clear 6 1002 68 10000 15.43 230 14:46 04.04.2022
2242 Clouds 8 995 54 10000 12.52 227 13:31 04.04.2022
2243 Clouds 8 1004 58 10000 12.35 230 12:23 04.04.2022
2244 Clouds 7 999 62 10000 12.07 227 11:29 04.04.2022
2245 Clear 4 1001 76 10000 8.94 216 09:20 04.04.2022
2246 Clear 1 1004 81 10000 5.14 240 05:21 04.04.2022
2247 Clouds 3 1005 77 10000 4.92 242 01:36 04.04.2022
2248 Clouds 4 1007 73 10000 4.12 250 22:47 03.04.2022
2249 Clouds 4 1007 70 10000 2.68 238 21:48 03.04.2022
2250 Clouds 4 1007 70 10000 4.92 279 21:19 03.04.2022
2251 Clouds 6 1007 58 10000 4.02 248 19:52 03.04.2022
2252 Clouds 7 1006 60 10000 7.72 280 18:34 03.04.2022
2253 Clouds 7 1007 54 10000 8.23 280 17:49 03.04.2022
2254 Clouds 7 1006 49 10000 8.94 277 17:27 03.04.2022
2255 Clouds 8 1007 51 10000 7.2 290 16:48 03.04.2022
2256 Clouds 8 1007 40 10000 6.69 280 15:32 03.04.2022
2257 Clouds 7 1008 37 10000 6.26 276 13:58 03.04.2022
2258 Clouds 7 1008 38 10000 5.81 284 13:58 03.04.2022
2259 Clouds 7 1009 40 10000 4.47 319 12:58 03.04.2022
2260 Clouds 5 1017 49 10000 4.63 300 11:34 03.04.2022
2261 Clouds 2 1009 59 10000 3.13 267 09:41 03.04.2022
2262 Clear 1 1010 65 10000 3.13 276 08:57 03.04.2022
2263 Clouds -1 1009 69 10000 2.57 290 05:45 03.04.2022
2264 Clouds -1 1009 69 10000 2.68 287 05:45 03.04.2022
2265 Clear -2 1009 68 10000 3.6 330 02:55 03.04.2022
2266 Clear 0 1008 62 10000 5.36 5 23:35 02.04.2022
2267 Clear 1 1008 61 10000 6.17 360 22:43 02.04.2022
2268 Clear 2 1008 59 10000 6.71 351 21:55 02.04.2022
2269 Clouds 2 1007 59 10000 6.71 351 21:19 02.04.2022
2270 Clouds 3 1007 58 10000 6.17 10 20:36 02.04.2022
2271 Clouds 4 1005 54 10000 7.72 20 18:47 02.04.2022
2272 Clouds 5 1005 56 10000 8.75 20 18:19 02.04.2022
2273 Clouds 5 1005 53 10000 8.23 10 17:23 02.04.2022
2274 Clouds 5 1004 54 10000 8.49 2 15:44 02.04.2022
2275 Clouds 5 1004 57 10000 8.94 12 15:19 02.04.2022
2276 Clouds 6 1004 53 10000 8.23 20 14:31 02.04.2022
2277 Clouds 6 1000 47 10000 8.23 30 13:34 02.04.2022
2278 Clouds 6 1003 47 10000 8.49 28 12:21 02.04.2022
2279 Clouds 4 1003 62 10000 10.73 21 10:31 02.04.2022
2280 Clear 1 1003 72 10000 6.71 10 08:26 02.04.2022
2281 Clear 0 1002 71 10000 5.81 29 05:24 02.04.2022
2282 Clear 1 1001 66 10000 5.14 30 02:56 02.04.2022
2283 Clear 2 1000 57 10000 6.71 23 23:54 01.04.2022
2284 Clear 3 1000 56 10000 8.94 37 22:51 01.04.2022
2285 Clear 4 999 59 10000 9.77 20 21:27 01.04.2022
2286 Clear 4 998 58 10000 9.83 13 20:49 01.04.2022
2287 Clear 5 998 55 10000 8.05 20 19:50 01.04.2022
2288 Clear 6 997 45 10000 6.69 40 19:26 01.04.2022
2289 Clear 7 997 39 10000 8.75 50 18:42 01.04.2022
2290 Clear 8 996 32 10000 10.29 60 17:45 01.04.2022
2291 Clear 8 993 31 10000 8.75 50 16:34 01.04.2022
2292 Clear 8 993 30 10000 8.75 50 15:19 01.04.2022
2293 Clear 7 993 30 10000 9.77 50 14:18 01.04.2022
2294 Clear 7 993 32 10000 9.26 60 13:32 01.04.2022
2295 Clear 6 993 35 10000 9.77 50 12:32 01.04.2022
2296 Clear 5 996 39 10000 9.26 60 11:18 01.04.2022
2297 Clear 4 996 46 10000 8.75 60 10:18 01.04.2022
2298 Clear 1 995 52 10000 9.39 51 07:59 01.04.2022
2299 Clouds 2 994 50 10000 8.23 60 06:31 01.04.2022
2300 Clouds 2 994 47 10000 8.23 60 04:47 01.04.2022
2301 Clouds 3 994 47 10000 7.6 54 04:28 01.04.2022
2302 Clear 4 994 39 10000 8.23 70 01:54 01.04.2022
2303 Clouds 5 994 38 10000 10.73 66 22:58 31.03.2022
2304 Clouds 5 994 38 10000 10.73 66 22:58 31.03.2022
2305 Clouds 6 994 36 10000 9.26 80 21:50 31.03.2022
2306 Clear 6 994 34 10000 9.39 65 21:31 31.03.2022
2307 Clear 6 993 34 10000 8.49 88 20:29 31.03.2022
2308 Clear 7 993 34 10000 7.2 80 19:48 31.03.2022
2309 Clear 7 993 32 10000 8.05 89 18:43 31.03.2022
2310 Clouds 7 992 34 10000 8.75 80 17:49 31.03.2022
2311 Clouds 8 993 40 10000 8.05 70 16:37 31.03.2022
2312 Clouds 8 993 44 10000 8.23 90 15:43 31.03.2022
2313 Clouds 8 993 43 10000 8.94 99 15:19 31.03.2022
2314 Clouds 8 991 46 10000 7.72 80 14:35 31.03.2022
2315 Clear 6 1003 51 10000 8.49 71 11:43 31.03.2022
2316 Clear 5 1003 52 10000 8.49 72 11:20 31.03.2022
2317 Clear 2 994 62 10000 6.26 85 09:44 31.03.2022
2318 Clear 0 995 67 10000 5.81 65 07:59 31.03.2022
2319 Clear 1 994 65 10000 4.63 70 05:23 31.03.2022
2320 Clear 5 994 62 10000 3.6 60 23:43 30.03.2022
2321 Clear 6 994 55 10000 2.68 50 22:32 30.03.2022
2322 Clear 6 995 54 10000 3.6 100 21:39 30.03.2022
2323 Clear 6 994 55 10000 4.92 40 20:53 30.03.2022
2324 Clear 6 994 56 10000 6.71 46 20:20 30.03.2022
2325 Clear 6 994 56 10000 6.17 50 20:20 30.03.2022
2326 Clouds 7 994 52 10000 4.47 50 19:19 30.03.2022
2327 Clouds 8 994 52 10000 4.47 50 18:19 30.03.2022
2328 Clouds 8 994 53 10000 4.12 70 17:45 30.03.2022
2329 Clouds 9 994 54 10000 2.68 45 16:56 30.03.2022
2330 Clouds 9 994 53 10000 3.13 70 16:32 30.03.2022
2331 Clouds 9 995 50 10000 3.58 61 15:24 30.03.2022
2332 Clouds 9 995 52 10000 2.06 20 13:42 30.03.2022
2333 Clouds 9 996 50 10000 3.13 27 12:47 30.03.2022
2334 Clouds 8 1004 61 10000 2.24 113 11:27 30.03.2022
2335 Clouds 8 1004 61 10000 2.24 113 11:27 30.03.2022
2336 Clear 7 1004 67 10000 1.54 100 10:23 30.03.2022
2337 Clear 5 997 70 10000 0.51 0 09:23 30.03.2022
2338 Clear 3 997 76 10000 1.03 0 07:33 30.03.2022
2339 Clear 3 997 70 10000 1.34 224 05:41 30.03.2022
2340 Clear 4 998 65 10000 1.34 258 03:52 30.03.2022
2341 Clear 5 998 63 10000 3.58 360 00:41 30.03.2022
2342 Clear 6 997 62 10000 2.68 304 22:28 29.03.2022
2343 Clear 7 1005 58 10000 2.68 307 21:45 29.03.2022
2344 Clear 9 997 55 10000 4.63 300 20:53 29.03.2022
2345 Clear 9 997 52 10000 4.92 320 20:18 29.03.2022
2346 Clear 11 997 50 10000 5.36 301 18:55 29.03.2022
2347 Clear 11 997 48 10000 5.36 300 18:19 29.03.2022
2348 Clear 12 998 44 10000 8.05 279 17:35 29.03.2022
2349 Clouds 12 995 44 10000 7.72 260 16:57 29.03.2022
2350 Clouds 12 996 46 10000 7.2 260 15:57 29.03.2022
2351 Clouds 13 1000 43 10000 6.26 280 14:52 29.03.2022
2352 Clouds 12 997 45 10000 6.69 280 13:58 29.03.2022
2353 Clouds 11 1009 54 10000 6.17 280 12:51 29.03.2022
2354 Clouds 10 1009 58 10000 5.81 275 11:43 29.03.2022
2355 Clouds 8 1009 66 10000 6.17 300 10:30 29.03.2022
2356 Clouds 7 1012 76 10000 5.14 290 09:42 29.03.2022
2357 Clouds 6 1010 83 10000 4.47 310 07:35 29.03.2022
2358 Clouds 6 1011 85 10000 3.6 280 04:41 29.03.2022
2359 Clear 8 1005 75 10000 5.81 290 00:35 29.03.2022
2360 Clear 9 1005 72 10000 4.12 310 23:23 28.03.2022
2361 Clear 9 1013 73 10000 5.36 330 22:52 28.03.2022
2362 Clear 10 1005 70 10000 5.81 333 22:26 28.03.2022
2363 Clear 12 1013 64 10000 4.92 300 20:58 28.03.2022
2364 Clear 13 1006 61 10000 4.92 319 20:23 28.03.2022
2365 Clear 14 1005 58 10000 4.92 295 19:44 28.03.2022
2366 Clear 15 1005 54 10000 5.66 290 19:25 28.03.2022
2367 Clear 16 1006 53 10000 5.36 270 18:37 28.03.2022
2368 Clear 17 1006 55 10000 7.15 288 17:39 28.03.2022
2369 Clear 17 1005 47 10000 5.66 290 16:21 28.03.2022
2370 Clear 17 1009 49 10000 6.71 261 14:47 28.03.2022
2371 Clear 16 1007 52 10000 7.2 250 14:21 28.03.2022
2372 Clear 14 1019 57 10000 5.36 268 12:20 28.03.2022
2373 Clear 12 1020 64 10000 5.14 260 11:31 28.03.2022
2374 Clear 9 1020 75 10000 3.6 260 09:43 28.03.2022
2375 Clear 8 1020 81 10000 3.6 250 09:19 28.03.2022
2376 Clear 6 1014 84 10000 2.68 245 08:22 28.03.2022
2377 Clear 6 1014 82 10000 3.58 241 07:34 28.03.2022
2378 Clear 8 1015 72 10000 3.58 236 03:52 28.03.2022
2379 Clear 10 1018 64 10000 3.13 236 23:30 27.03.2022
2380 Clear 10 1017 68 10000 2.24 267 22:24 27.03.2022
2381 Clear 10 1018 68 10000 2.57 290 21:42 27.03.2022
2382 Clear 11 1018 63 10000 2.68 287 20:57 27.03.2022
2383 Clear 14 1017 56 10000 3.6 300 19:49 27.03.2022
2384 Clear 14 1018 57 10000 3.6 300 19:26 27.03.2022
2385 Clear 15 1018 52 10000 3.6 270 18:28 27.03.2022
2386 Clear 16 1018 51 10000 3.09 300 17:39 27.03.2022
2387 Clear 16 1016 46 10000 2.68 310 16:31 27.03.2022
2388 Clouds 16 1015 51 10000 1.54 0 15:25 27.03.2022
2389 Clouds 16 1021 53 10000 2.57 250 13:56 27.03.2022
2390 Clouds 14 1030 66 10000 1.79 310 12:38 27.03.2022
2391 Clouds 11 1028 76 10000 1.79 293 11:20 27.03.2022
2392 Clear 8 1021 84 10000 0.45 104 09:21 27.03.2022
2393 Clear 6 1020 84 10000 0.89 122 05:56 27.03.2022
2394 Clear 6 1022 82 10000 1.03 350 00:57 27.03.2022
2395 Clear 7 1022 80 10000 0.89 310 23:46 26.03.2022
2396 Clear 7 1021 79 10000 1.03 330 22:42 26.03.2022
2397 Clear 8 1021 79 10000 1.79 330 21:46 26.03.2022
2398 Clouds 8 1021 78 10000 2.24 330 21:25 26.03.2022
2399 Clouds 11 1020 76 10000 5.14 360 19:29 26.03.2022
2400 Clouds 12 1019 72 10000 5.36 333 17:54 26.03.2022
2401 Clouds 12 1019 73 10000 6.17 330 17:33 26.03.2022
2402 Clouds 12 1019 71 10000 8.23 320 16:27 26.03.2022
2403 Clouds 12 1019 69 10000 7.2 340 15:23 26.03.2022
2404 Clouds 14 1018 66 10000 8.23 300 13:54 26.03.2022
2405 Clouds 14 1018 65 10000 7.72 280 13:18 26.03.2022
2406 Clouds 14 1018 62 10000 8.49 290 11:41 26.03.2022
2407 Clouds 14 1018 62 10000 7.72 300 11:41 26.03.2022
2408 Clear 13 1025 65 10000 7.6 286 10:29 26.03.2022
2409 Clear 10 1025 70 10000 5.14 280 08:44 26.03.2022
2410 Clear 6 1018 75 10000 3.6 260 06:25 26.03.2022
2411 Clear 7 1018 71 10000 4.02 278 05:22 26.03.2022
2412 Clear 9 1019 61 10000 2.57 250 00:30 26.03.2022
2413 Clear 10 1019 64 10000 3.13 294 21:51 25.03.2022
2414 Clear 10 1026 59 10000 2.68 281 20:46 25.03.2022
2415 Clear 11 1018 61 10000 2.57 270 20:20 25.03.2022
2416 Clear 14 1026 56 10000 2.24 340 18:47 25.03.2022
2417 Clear 16 1017 50 10000 5.36 303 17:49 25.03.2022
2418 Clear 17 1016 49 10000 4.47 297 17:27 25.03.2022
2419 Clear 17 1018 43 10000 4.12 300 16:18 25.03.2022
2420 Clear 18 1016 42 10000 2.68 340 14:49 25.03.2022
2421 Clouds 17 1017 42 10000 4.12 310 13:24 25.03.2022
2422 Clear 13 1028 47 10000 2.24 293 10:26 25.03.2022
2423 Clear 11 1020 51 10000 2.24 279 09:28 25.03.2022
2424 Clear 8 1018 56 10000 1.34 315 08:24 25.03.2022
2425 Clear 6 1017 64 10000 0.89 266 07:28 25.03.2022
2426 Clear 6 1017 60 10000 1.43 342 06:29 25.03.2022
2427 Clear 7 1018 50 10000 0.89 356 01:32 25.03.2022
2428 Clear 8 1019 43 10000 1.79 28 22:53 24.03.2022
2429 Clear 9 1019 42 10000 1.54 40 21:52 24.03.2022
2430 Clear 9 1019 44 10000 2.68 60 20:40 24.03.2022
2431 Clear 9 1025 48 10000 2.57 70 19:48 24.03.2022
2432 Clear 15 1017 30 10000 2.06 20 17:50 24.03.2022
2433 Clear 15 1018 30 10000 2.24 33 17:23 24.03.2022
2434 Clear 16 1016 27 10000 2.57 40 15:45 24.03.2022
2435 Clear 16 1016 27 10000 2.24 23 14:50 24.03.2022
2436 Clear 16 1016 28 10000 1.79 360 14:20 24.03.2022
2437 Clear 16 1017 30 10000 2.06 0 13:24 24.03.2022
2438 Clear 14 1028 37 10000 1.79 0 11:52 24.03.2022
2439 Clear 10 1027 52 10000 1.34 45 10:18 24.03.2022
2440 Clear 8 1027 58 10000 1.79 70 09:22 24.03.2022
2441 Clear 3 1020 70 10000 1.79 60 06:55 24.03.2022
2442 Clear 5 1019 60 10000 0.89 7 04:34 24.03.2022
2443 Clear 7 1021 52 10000 3.13 35 23:21 23.03.2022
2444 Clear 9 1028 50 10000 4.47 29 21:53 23.03.2022
2445 Clear 10 1020 46 10000 4.63 30 21:20 23.03.2022
2446 Clear 12 1027 40 10000 4.12 40 19:46 23.03.2022
2447 Clear 13 1027 39 10000 4.47 29 19:25 23.03.2022
2448 Clear 17 1025 29 10000 4.12 40 17:39 23.03.2022
2449 Clear 18 1019 26 10000 2.68 330 16:53 23.03.2022
2450 Clear 19 1017 24 10000 2.68 23 14:57 23.03.2022
2451 Clear 19 1017 24 10000 2.24 338 14:38 23.03.2022
2452 Clear 18 1018 25 10000 1.79 20 13:22 23.03.2022
2453 Clear 13 1029 39 10000 1.34 135 10:37 23.03.2022
2454 Clear 7 1018 61 10000 2.57 70 07:56 23.03.2022
2455 Clear 5 1018 54 10000 1.79 102 05:40 23.03.2022
2456 Clear 7 1018 47 10000 1.79 71 01:41 23.03.2022
2457 Clear 8 1020 41 10000 1.79 91 00:24 23.03.2022
2458 Clear 9 1022 36 10000 3.13 104 21:36 22.03.2022
2459 Clear 10 1022 34 10000 2.06 80 20:57 22.03.2022
2460 Clear 10 1022 33 10000 2.06 100 19:59 22.03.2022
2461 Clear 12 1032 34 10000 2.24 91 19:25 22.03.2022
2462 Clear 12 1033 34 10000 2 137 18:45 22.03.2022
2463 Clear 17 1027 20 10000 2.57 140 17:43 22.03.2022
2464 Clear 17 1021 21 10000 3.6 130 16:37 22.03.2022
2465 Clear 17 1022 20 10000 3.6 130 15:40 22.03.2022
2466 Clear 17 1019 19 10000 3.09 130 15:19 22.03.2022
2467 Clear 17 1019 19 10000 3.09 160 14:42 22.03.2022
2468 Clear 16 1020 21 10000 2.68 135 13:42 22.03.2022
2469 Clear 14 1033 27 10000 3.6 160 11:53 22.03.2022
2470 Clear 12 1033 29 10000 5.66 150 10:54 22.03.2022
2471 Clear 8 1027 38 10000 3.13 135 09:21 22.03.2022
2472 Clear 3 1026 52 10000 2.68 122 07:30 22.03.2022
2473 Clear 3 1025 53 10000 3.09 120 03:57 22.03.2022
2474 Clear 5 1026 49 10000 3.6 120 00:50 22.03.2022
2475 Clear 6 1026 43 10000 3.6 120 22:48 21.03.2022
2476 Clear 8 1025 36 10000 3.13 100 21:37 21.03.2022
2477 Clear 8 1033 38 10000 3.6 100 20:44 21.03.2022
2478 Clear 8 1025 34 10000 3.58 92 20:23 21.03.2022
2479 Clear 8 1025 34 10000 3.58 92 20:23 21.03.2022
2480 Clear 9 1033 36 10000 3.13 110 19:47 21.03.2022
2481 Clear 10 1032 32 10000 3.09 110 18:59 21.03.2022
2482 Clear 13 1023 26 10000 5.81 147 17:36 21.03.2022
2483 Clear 14 1025 24 10000 6.26 136 16:59 21.03.2022
2484 Clear 14 1025 25 10000 5.81 132 16:33 21.03.2022
2485 Clear 14 1025 24 10000 7.2 150 15:43 21.03.2022
2486 Clear 14 1023 24 10000 6.17 130 14:45 21.03.2022
2487 Clear 13 1024 24 10000 6.17 160 13:20 21.03.2022
2488 Clear 12 1027 28 10000 6.71 133 11:59 21.03.2022
2489 Clear 11 1033 29 10000 8.49 153 11:28 21.03.2022
2490 Clear 8 1028 34 10000 6.69 140 09:51 21.03.2022
2491 Clear 3 1028 49 10000 4.63 100 07:53 21.03.2022
2492 Clear 2 1028 54 10000 4.92 114 06:29 21.03.2022
2493 Clear 4 1028 45 10000 4.47 117 02:23 21.03.2022
2494 Clear 6 1028 39 10000 4.02 117 22:57 20.03.2022
2495 Clear 7 1028 38 10000 3.6 120 22:36 20.03.2022
2496 Clear 7 1028 36 10000 5.36 110 21:40 20.03.2022
2497 Clear 8 1027 35 10000 5.81 104 20:58 20.03.2022
2498 Clear 8 1028 34 10000 5.66 110 20:36 20.03.2022
2499 Clear 9 1028 33 10000 6.71 117 19:55 20.03.2022
2500 Clear 9 1027 33 10000 5.36 96 19:24 20.03.2022
2501 Clear 11 1027 29 10000 7.2 110 17:50 20.03.2022
2502 Clear 12 1027 28 10000 9.77 110 17:28 20.03.2022
2503 Clear 12 1028 27 10000 8.75 120 16:40 20.03.2022
2504 Clear 13 1026 25 10000 9.26 110 14:53 20.03.2022
2505 Clear 12 1025 29 10000 8.75 110 13:46 20.03.2022
2506 Clear 11 1027 30 10000 6.69 110 12:21 20.03.2022
2507 Clear 8 1036 39 10000 7.2 110 10:39 20.03.2022
2508 Clear 4 1031 49 10000 6.71 96 08:35 20.03.2022
2509 Clear 2 1031 55 10000 5.66 80 06:55 20.03.2022
2510 Clear 3 1031 54 10000 5.14 80 03:59 20.03.2022
2511 Clear 4 1031 53 10000 5.14 80 00:59 20.03.2022
2512 Clear 4 1032 50 10000 5.14 80 00:36 20.03.2022
2513 Clear 5 1032 50 10000 4.12 80 22:56 19.03.2022
2514 Clear 6 1032 55 10000 4.12 80 21:27 19.03.2022
2515 Clear 7 1033 53 10000 4.12 80 20:28 19.03.2022
2516 Clear 9 1032 53 10000 6.26 80 18:44 19.03.2022
2517 Clear 9 1032 50 10000 5.66 80 18:23 19.03.2022
2518 Clouds 10 1031 49 10000 8.05 79 17:35 19.03.2022
2519 Clouds 11 1029 54 10000 8.23 80 15:43 19.03.2022
2520 Clouds 11 1030 58 10000 7.2 80 14:34 19.03.2022
2521 Clouds 11 1034 55 10000 9.26 60 12:59 19.03.2022
2522 Clouds 11 1034 54 10000 9.26 60 12:39 19.03.2022
2523 Clouds 10 1041 55 10000 9.77 60 11:51 19.03.2022
2524 Clear 9 1043 63 10000 6.26 27 10:45 19.03.2022
2525 Clear 2 1034 85 10000 4.02 20 06:29 19.03.2022
2526 Clear 4 1035 79 10000 5.36 12 03:24 19.03.2022
2527 Clouds 5 1043 77 10000 4.92 15 01:41 19.03.2022
2528 Clouds 7 1045 74 10000 4.12 20 23:43 18.03.2022
2529 Clouds 7 1043 71 10000 2.68 35 22:27 18.03.2022
2530 Clouds 7 1042 70 10000 1.79 35 21:37 18.03.2022
2531 Clear 8 1042 60 10000 2.68 60 19:51 18.03.2022
2532 Clear 9 1034 55 10000 4.02 50 19:21 18.03.2022
2533 Clear 12 1032 41 10000 4.47 24 17:50 18.03.2022
2534 Clouds 13 1030 38 10000 4.63 40 16:48 18.03.2022
2535 Clouds 13 1030 38 10000 4.12 30 15:26 18.03.2022
2536 Clouds 13 1030 44 10000 4.12 360 14:22 18.03.2022
2537 Clouds 12 1030 59 10000 3.6 40 12:27 18.03.2022
2538 Clouds 10 1040 66 10000 3.6 30 10:53 18.03.2022
2539 Clouds 7 1032 75 10000 5.36 360 09:30 18.03.2022
2540 Clouds 6 1031 75 10000 4.63 350 08:32 18.03.2022
2541 Clouds 6 1037 78 10000 4.63 360 06:37 18.03.2022
2542 Clouds 7 1027 81 10000 5.14 10 03:19 18.03.2022
2543 Clear 8 1026 80 10000 6.26 330 00:39 18.03.2022
2544 Clear 8 1025 81 10000 6.26 341 23:38 17.03.2022
2545 Clear 9 1025 78 10000 4.12 320 22:25 17.03.2022
2546 Clear 9 1024 81 10000 4.63 320 21:48 17.03.2022
2547 Clear 9 1024 79 10000 4.63 320 21:48 17.03.2022
2548 Clear 9 1023 79 10000 4.63 310 21:26 17.03.2022
2549 Clear 9 1031 79 10000 1.79 293 20:51 17.03.2022
2550 Clear 9 1019 75 10000 1.03 50 19:53 17.03.2022
2551 Clouds 10 1022 73 10000 2.06 60 19:32 17.03.2022
2552 Clear 10 1022 71 10000 1.79 96 18:49 17.03.2022
2553 Rain 11 1021 63 10000 2.06 160 17:26 17.03.2022
2554 Clear 12 1020 61 10000 4.12 150 15:52 17.03.2022
2555 Clear 12 1020 61 10000 4.63 150 15:34 17.03.2022
2556 Clear 12 1019 63 10000 4.63 150 14:55 17.03.2022
2557 Clear 11 1028 62 10000 5.14 140 13:22 17.03.2022
2558 Clear 11 1029 64 10000 3.6 140 12:38 17.03.2022
2559 Clouds 9 1009 69 10000 3.13 135 11:30 17.03.2022
2560 Clouds 8 1012 79 9000 4.12 140 10:38 17.03.2022
2561 Clouds 6 1015 85 6000 4.63 110 08:42 17.03.2022
2562 Clouds 5 1018 84 6000 3.6 110 07:57 17.03.2022
2563 Mist 4 1018 85 5000 3.13 117 05:48 17.03.2022
2564 Mist 4 1019 86 4300 3.13 99 03:46 17.03.2022
2565 Clouds 6 1019 86 6000 5.36 84 00:24 17.03.2022
2566 Clouds 5 1019 88 7000 4.12 90 22:52 16.03.2022
2567 Clouds 6 1019 87 7000 4.47 83 22:33 16.03.2022
2568 Clouds 6 1019 87 7000 4.92 80 21:55 16.03.2022
2569 Clouds 7 1018 84 9000 3.6 70 20:40 16.03.2022
2570 Clear 8 1019 80 10000 3.13 80 19:23 16.03.2022
2571 Clear 9 1020 73 10000 4.02 80 18:42 16.03.2022
2572 Clear 10 1019 72 10000 3.6 70 17:46 16.03.2022
2573 Clouds 11 1018 70 10000 4.12 60 17:28 16.03.2022
2574 Clouds 12 1018 68 10000 4.12 90 15:56 16.03.2022
2575 Clouds 12 1018 65 10000 3.09 70 14:38 16.03.2022
2576 Clouds 11 1014 72 10000 4.12 70 13:36 16.03.2022
2577 Clouds 11 1017 71 10000 3.13 73 12:43 16.03.2022
2578 Clouds 10 1012 68 10000 3.6 40 11:23 16.03.2022
2579 Clouds 9 1014 75 10000 3.6 50 10:32 16.03.2022
2580 Clear 10 1011 70 10000 4.12 50 09:56 16.03.2022
2581 Clouds 5 1018 87 10000 2.06 10 07:43 16.03.2022
2582 Clear 6 1014 80 10000 4.92 16 02:45 16.03.2022
2583 Clear 8 1014 74 10000 3.6 20 22:55 15.03.2022
2584 Clear 9 1014 75 10000 3.58 23 22:35 15.03.2022
2585 Clouds 9 1014 73 10000 2.68 30 20:59 15.03.2022
2586 Clear 10 1022 73 10000 2.06 30 19:39 15.03.2022
2587 Clear 11 1022 66 10000 1.54 80 17:46 15.03.2022
2588 Clouds 12 1015 64 10000 2.68 39 16:41 15.03.2022
2589 Clouds 13 1015 63 10000 0.89 135 15:38 15.03.2022
2590 Clouds 13 1016 65 10000 1.79 170 14:54 15.03.2022
2591 Clouds 13 1017 65 10000 1.79 143 13:56 15.03.2022
2592 Clouds 13 1025 68 10000 2.24 190 13:23 15.03.2022
2593 Clouds 11 1026 76 10000 2.24 203 11:34 15.03.2022
2594 Clouds 11 1027 81 10000 2.06 230 10:53 15.03.2022
2595 Clouds 8 1027 91 6000 2.06 220 09:24 15.03.2022
2596 Fog 6 1019 95 300 1.34 203 08:27 15.03.2022
2597 Fog 5 1019 92 100 2.06 190 07:38 15.03.2022
2598 Fog 5 1018 94 400 1.79 190 06:32 15.03.2022
2599 Clouds 8 1019 89 10000 4.12 230 00:58 15.03.2022
2600 Clouds 8 1019 90 9000 4.12 220 23:30 14.03.2022
2601 Clouds 8 1019 89 10000 4.12 230 22:50 14.03.2022
2602 Clouds 8 1019 88 8000 4.12 230 21:55 14.03.2022
2603 Clouds 8 1024 86 10000 3.6 230 20:59 14.03.2022
2604 Clouds 8 1018 84 10000 4.47 244 20:28 14.03.2022
2605 Clouds 9 1018 76 10000 5.66 240 19:33 14.03.2022
2606 Clouds 11 1023 44 10000 4.47 215 17:59 14.03.2022
2607 Clouds 11 1016 37 10000 5.36 196 17:41 14.03.2022
2608 Clear 12 1016 31 10000 6.71 183 16:37 14.03.2022
2609 Clear 13 1013 27 10000 5.14 190 14:58 14.03.2022
2610 Clear 13 1015 28 10000 5.66 220 13:58 14.03.2022
2611 Clear 10 1024 30 10000 4.63 170 11:27 14.03.2022
2612 Clear 8 1021 33 10000 4.92 135 09:58 14.03.2022
2613 Clear 8 1015 32 10000 4.92 135 09:58 14.03.2022
2614 Clear 7 1015 35 10000 5.14 120 09:38 14.03.2022
2615 Clear 7 1014 35 10000 5.36 127 09:18 14.03.2022
2616 Clear 5 1015 39 10000 4.63 120 08:46 14.03.2022
2617 Clear 2 1014 46 10000 3.6 110 07:19 14.03.2022
2618 Clear 3 1013 42 10000 5.14 100 04:22 14.03.2022
2619 Clear 5 1013 37 10000 6.26 93 01:46 14.03.2022
2620 Clear 5 1020 35 10000 4.92 120 00:35 14.03.2022
2621 Clear 8 1019 29 10000 5.81 105 21:56 13.03.2022
2622 Clear 8 1019 29 10000 7.2 110 21:27 13.03.2022
2623 Clear 8 1016 29 10000 6.69 100 20:49 13.03.2022
2624 Clear 9 1019 28 10000 3.6 90 20:26 13.03.2022
2625 Clear 9 1016 27 10000 4.63 90 19:42 13.03.2022
2626 Clear 9 1017 26 10000 5.14 110 19:23 13.03.2022
2627 Clear 9 1017 26 10000 5.14 110 19:23 13.03.2022
2628 Clear 11 1017 26 10000 5.66 110 18:49 13.03.2022
2629 Clear 11 1006 24 10000 6.17 110 18:26 13.03.2022
2630 Clear 13 1012 23 10000 6.26 112 17:39 13.03.2022
2631 Clear 13 1009 22 10000 6.26 111 16:48 13.03.2022
2632 Clear 13 1012 22 10000 6.71 111 16:27 13.03.2022
2633 Clear 13 1012 23 10000 6.71 118 15:44 13.03.2022
2634 Clear 13 1009 22 10000 7.2 120 14:49 13.03.2022
2635 Clear 12 1010 21 10000 8.23 110 13:30 13.03.2022
2636 Clear 11 1010 21 10000 7.2 120 12:37 13.03.2022
2637 Clear 11 1013 22 10000 6.17 120 11:51 13.03.2022
2638 Clear 10 1020 26 10000 6.17 120 11:30 13.03.2022
2639 Clear 8 1020 29 10000 8.05 127 10:46 13.03.2022
2640 Clear 6 1013 33 10000 7.15 118 09:53 13.03.2022
2641 Clear 5 1013 36 10000 4.63 100 09:29 13.03.2022
2642 Clear 3 1014 41 10000 4.12 100 08:40 13.03.2022
2643 Clear 1 1014 47 10000 4.63 100 07:37 13.03.2022
2644 Clear 0 1013 50 10000 6.26 110 05:39 13.03.2022
2645 Clear 1 1013 46 10000 3.6 110 02:27 13.03.2022
2646 Clear 4 1021 41 10000 4.12 120 23:31 12.03.2022
2647 Clear 5 1019 37 10000 4.63 110 21:49 12.03.2022
2648 Clear 6 1019 34 10000 5.66 110 20:29 12.03.2022
2649 Clear 7 1008 31 10000 3.6 90 19:47 12.03.2022
2650 Clear 8 1021 32 10000 6.26 120 18:55 12.03.2022
2651 Clear 9 1013 27 10000 6.17 110 18:21 12.03.2022
2652 Clear 11 1014 24 10000 7.15 124 17:23 12.03.2022
2653 Clear 12 1014 22 10000 7.2 130 16:23 12.03.2022
2654 Clear 12 1012 21 10000 6.17 120 15:22 12.03.2022
2655 Clear 11 1015 22 10000 4.47 120 14:27 12.03.2022
2656 Clear 10 1016 24 10000 6.17 150 12:45 12.03.2022
2657 Clear 9 1026 26 10000 5.36 133 11:56 12.03.2022
2658 Clear 8 1024 27 10000 6.26 143 11:34 12.03.2022
2659 Clear 7 1024 28 10000 5.66 150 10:52 12.03.2022
2660 Clear 4 1017 35 10000 5.36 138 09:44 12.03.2022
2661 Clear 2 1017 43 10000 5.66 130 08:53 12.03.2022
2662 Clear -1 1017 49 10000 4.92 107 07:19 12.03.2022
2663 Clear 0 1017 46 10000 5.66 110 02:34 12.03.2022
2664 Clear 2 1017 41 10000 5.36 128 23:52 11.03.2022
2665 Clear 3 1018 39 10000 5.14 130 22:52 11.03.2022
2666 Clear 3 1024 36 10000 6.69 120 21:35 11.03.2022
2667 Clear 4 1017 34 10000 7.15 123 20:54 11.03.2022
2668 Clear 4 1017 34 10000 7.15 127 20:29 11.03.2022
2669 Clear 5 1018 30 10000 7.2 120 19:42 11.03.2022
2670 Clear 5 1018 30 10000 7.2 120 19:20 11.03.2022
2671 Clear 8 1018 26 10000 9.26 110 17:29 11.03.2022
2672 Clear 8 1018 25 10000 8.94 135 16:27 11.03.2022
2673 Clear 8 1018 24 10000 9.77 120 15:53 11.03.2022
2674 Clear 9 1019 26 10000 9.83 133 14:19 11.03.2022
2675 Clear 7 1020 32 10000 7.15 132 12:44 11.03.2022
2676 Clear 6 1020 32 10000 7.72 100 12:21 11.03.2022
2677 Clear 5 1027 36 10000 8.05 109 11:51 11.03.2022
2678 Clear 2 1021 47 10000 7.6 119 09:40 11.03.2022
2679 Clear 0 1021 51 10000 9.26 110 08:56 11.03.2022
2680 Clear -1 1021 56 10000 7.6 115 08:21 11.03.2022
2681 Clear -2 1021 55 10000 6.71 108 07:40 11.03.2022
2682 Clear -2 1021 58 10000 5.14 110 05:44 11.03.2022
2683 Clear -1 1021 55 10000 5.36 119 03:41 11.03.2022
2684 Clear 2 1021 52 10000 7.15 120 23:36 10.03.2022
2685 Clear 2 1021 51 10000 6.71 113 22:30 10.03.2022
2686 Clear 3 1029 53 10000 6.71 104 21:27 10.03.2022
2687 Clear 4 1029 52 10000 7.15 100 20:55 10.03.2022
2688 Clear 5 1028 51 10000 5.36 84 19:43 10.03.2022
2689 Clear 6 1021 51 10000 5.36 109 18:40 10.03.2022
2690 Clear 8 1021 50 10000 6.26 113 17:19 10.03.2022
2691 Clear 9 1022 53 10000 6.69 130 15:50 10.03.2022
2692 Clear 9 1019 56 10000 7.2 130 14:44 10.03.2022
2693 Clouds 9 1022 59 10000 6.71 100 13:19 10.03.2022
2694 Clouds 9 1029 60 10000 7.15 118 11:57 10.03.2022
2695 Clear 8 1029 63 10000 4.92 111 10:53 10.03.2022
2696 Clear 4 1022 73 10000 4.12 110 09:18 10.03.2022
2697 Clear 0 1030 85 10000 4.47 108 07:33 10.03.2022
2698 Clear 2 1019 77 10000 2.06 90 04:36 10.03.2022
2699 Clear 3 1018 69 10000 1.54 60 01:46 10.03.2022
2700 Clear 4 1018 66 10000 3.13 41 23:18 09.03.2022
2701 Clear 3 1026 68 10000 2.68 77 21:49 09.03.2022
2702 Clear 4 1027 65 10000 2.68 81 21:27 09.03.2022
2703 Clear 6 1026 59 10000 3.09 80 19:44 09.03.2022
2704 Clear 8 1012 51 10000 3.13 88 18:33 09.03.2022
2705 Clear 11 1015 41 10000 2.57 80 17:27 09.03.2022
2706 Clear 12 1015 38 10000 3.13 58 16:31 09.03.2022
2707 Clear 12 1011 37 10000 3.09 10 15:19 09.03.2022
2708 Clear 12 1011 39 10000 2.24 23 13:53 09.03.2022
2709 Clear 11 1026 43 10000 1.54 0 12:47 09.03.2022
2710 Clear 11 1026 48 10000 2.24 338 11:53 09.03.2022
2711 Clear 10 1026 48 10000 1.54 270 11:35 09.03.2022
2712 Clear 8 1026 61 10000 1.34 265 10:26 09.03.2022
2713 Clear 5 1016 72 10000 1.03 260 08:54 09.03.2022
2714 Clear 2 1016 81 10000 1.79 231 07:38 09.03.2022
2715 Clear 2 1014 77 10000 0.89 134 02:46 09.03.2022
2716 Clear 2 1016 75 10000 1.79 230 00:42 09.03.2022
2717 Clear 3 1016 72 10000 1.54 250 22:47 08.03.2022
2718 Clear 3 1016 71 10000 2.24 256 22:26 08.03.2022
2719 Clear 3 1023 71 10000 0.89 270 21:23 08.03.2022
2720 Clear 4 1023 69 10000 0.89 240 20:35 08.03.2022
2721 Clear 5 1016 61 10000 2.06 250 19:35 08.03.2022
2722 Clear 6 1013 60 10000 2.24 244 18:44 08.03.2022
2723 Clear 9 1015 51 10000 1.79 251 17:30 08.03.2022
2724 Clouds 10 1012 44 10000 1.54 270 15:56 08.03.2022
2725 Clouds 10 1013 46 10000 1.54 0 14:19 08.03.2022
2726 Clouds 9 1023 50 10000 1.03 0 12:43 08.03.2022
2727 Clear 8 1025 52 10000 1.54 0 11:45 08.03.2022
2728 Clear 7 1025 60 10000 1.03 0 10:48 08.03.2022
2729 Clear 5 1024 70 10000 0.51 0 09:51 08.03.2022
2730 Clear 0 1017 88 10000 1.03 170 07:32 08.03.2022
2731 Clear -1 1016 87 10000 0.89 40 05:43 08.03.2022
2732 Clear 0 1025 74 10000 3.13 26 23:51 07.03.2022
2733 Clear 1 1019 73 10000 2.24 30 21:59 07.03.2022
2734 Clear 2 1023 72 10000 3.58 21 21:32 07.03.2022
2735 Clear 2 1022 68 10000 3.09 10 20:48 07.03.2022
2736 Clear 2 1024 71 10000 2.68 16 20:20 07.03.2022
2737 Clear 4 1022 65 10000 4.02 10 19:31 07.03.2022
2738 Clear 5 1021 58 10000 4.12 360 18:44 07.03.2022
2739 Clear 8 1019 58 10000 4.63 10 17:50 07.03.2022
2740 Clear 9 1014 49 10000 5.81 350 16:56 07.03.2022
2741 Clouds 9 1012 43 10000 4.63 340 15:50 07.03.2022
2742 Clouds 8 1013 49 10000 5.14 340 13:52 07.03.2022
2743 Clouds 8 1013 49 10000 5.14 340 13:52 07.03.2022
2744 Clouds 7 1014 56 10000 4.63 320 12:28 07.03.2022
2745 Clear 5 1024 69 10000 4.12 310 10:38 07.03.2022
2746 Clear 1 1016 81 10000 3.13 297 08:57 07.03.2022
2747 Clear -2 1016 80 10000 3.13 288 04:51 07.03.2022
2748 Clouds 1 1016 73 10000 1.34 340 00:23 07.03.2022
2749 Clouds 0 1024 74 10000 2.24 320 23:35 06.03.2022
2750 Clouds 0 1023 73 10000 1.34 270 22:52 06.03.2022
2751 Clouds 1 1024 73 10000 1.79 320 22:19 06.03.2022
2752 Clouds 1 1025 74 10000 1.34 358 20:50 06.03.2022
2753 Clouds 1 1023 73 10000 2.24 360 20:23 06.03.2022
2754 Clouds 1 1016 70 10000 2.68 350 19:21 06.03.2022
2755 Clouds 2 1015 68 10000 3.09 360 18:25 06.03.2022
2756 Clouds 2 1015 68 10000 3.58 353 18:25 06.03.2022
2757 Clouds 2 1014 67 10000 3.13 344 17:21 06.03.2022
2758 Clouds 2 1014 66 10000 4.47 3 16:43 06.03.2022
2759 Clouds 2 1015 63 10000 4.12 10 15:54 06.03.2022
2760 Clouds 2 1015 56 10000 4.63 20 14:57 06.03.2022
2761 Clouds 3 1015 55 10000 4.63 20 14:33 06.03.2022
2762 Clouds 2 1016 58 10000 3.58 360 13:30 06.03.2022
2763 Clouds 2 1016 60 10000 4.12 360 12:35 06.03.2022
2764 Clouds 2 1016 66 10000 4.12 20 11:21 06.03.2022
2765 Clouds 1 1016 65 10000 4.47 356 10:28 06.03.2022
2766 Clouds 1 1015 65 10000 2.24 60 08:40 06.03.2022
2767 Clouds 0 1015 66 10000 2.24 20 08:20 06.03.2022
2768 Clouds 0 1015 68 10000 2.68 10 06:22 06.03.2022
2769 Clouds 0 1016 73 10000 1.79 335 00:55 06.03.2022
2770 Clouds -1 1023 75 10000 1.79 90 00:33 06.03.2022
2771 Clouds -1 1023 75 10000 1.79 90 00:33 06.03.2022
2772 Clouds -1 1015 74 10000 0.89 6 23:41 05.03.2022
2773 Clouds -1 1016 76 10000 0.51 0 23:18 05.03.2022
2774 Clouds -1 1016 75 10000 1.34 70 22:25 05.03.2022
2775 Clouds -1 1015 74 10000 1.34 67 21:24 05.03.2022
2776 Clouds 0 1015 70 10000 2.68 80 19:53 05.03.2022
2777 Clouds 1 1015 69 10000 3.13 77 18:56 05.03.2022
2778 Clouds 2 1015 68 10000 3.13 70 18:34 05.03.2022
2779 Clouds 4 1015 65 10000 4.12 60 16:57 05.03.2022
2780 Clouds 5 1015 60 10000 3.58 65 15:43 05.03.2022
2781 Clouds 5 1012 57 10000 3.6 70 14:52 05.03.2022
2782 Clouds 5 1015 59 10000 3.6 50 14:34 05.03.2022
2783 Clouds 6 1015 62 10000 3.09 60 13:35 05.03.2022
2784 Clouds 5 1023 67 10000 2.06 110 11:55 05.03.2022
2785 Clear 5 1024 70 10000 2.68 100 11:20 05.03.2022
2786 Clear 3 1023 78 10000 2.24 105 10:23 05.03.2022
2787 Clear 1 1023 85 10000 2.68 61 09:28 05.03.2022
2788 Fog -1 1016 90 9000 0.89 60 07:59 05.03.2022
2789 Clear -2 1015 90 10000 1.34 46 05:47 05.03.2022
2790 Clear -2 1015 87 10000 2.57 40 04:38 05.03.2022
2791 Clouds 0 1016 80 10000 1.79 6 23:39 04.03.2022
2792 Clouds 0 1016 78 10000 1.03 250 22:44 04.03.2022
2793 Clouds 0 1015 78 10000 1.03 180 22:23 04.03.2022
2794 Clouds 0 1023 80 10000 1.03 120 21:39 04.03.2022
2795 Clouds 2 1023 77 10000 1.03 70 20:32 04.03.2022
2796 Clouds 3 1015 72 10000 1.34 52 19:36 04.03.2022
2797 Clouds 3 1022 70 10000 2.24 90 18:47 04.03.2022
2798 Clouds 3 1022 70 10000 0.45 70 18:47 04.03.2022
2799 Clouds 4 1015 66 10000 2.68 50 18:27 04.03.2022
2800 Clouds 4 1015 68 10000 3.13 10 17:29 04.03.2022
2801 Clouds 5 1014 63 10000 3.13 77 15:48 04.03.2022
2802 Clouds 5 1015 66 10000 2.68 50 14:45 04.03.2022
2803 Clouds 4 1015 69 10000 3.58 60 13:34 04.03.2022
2804 Clouds 4 1015 74 10000 4.02 80 11:59 04.03.2022
2805 Clouds 3 1022 80 10000 3.6 40 11:28 04.03.2022
2806 Clouds 3 1015 84 10000 4.63 30 10:24 04.03.2022
2807 Clouds 2 1014 89 10000 4.02 360 09:27 04.03.2022
2808 Clouds 0 1014 89 8000 2.57 320 07:48 04.03.2022
2809 Clouds 0 1013 89 10000 2.24 20 05:49 04.03.2022
2810 Clouds 1 1013 90 10000 3.6 20 01:23 04.03.2022
2811 Clear 0 1013 89 10000 2.24 0 23:35 03.03.2022
2812 Clear 0 1013 88 10000 1.79 330 22:18 03.03.2022
2813 Clear 0 1013 86 10000 1.79 350 21:36 03.03.2022
2814 Clear 1 1012 86 10000 1.54 320 20:45 03.03.2022
2815 Clouds 2 1012 84 10000 3.13 24 19:29 03.03.2022
2816 Clouds 2 1012 83 10000 3.13 16 18:26 03.03.2022
2817 Clouds 2 1021 82 10000 4.63 10 17:39 03.03.2022
2818 Clouds 3 1021 80 10000 4.63 10 17:18 03.03.2022
2819 Clouds 1 1021 86 10000 4.12 40 15:46 03.03.2022
2820 Clouds 1 1021 86 10000 5.14 20 14:45 03.03.2022
2821 Clouds 1 1021 86 10000 3.6 30 14:27 03.03.2022
2822 Clouds 0 1022 93 10000 3.6 20 12:43 03.03.2022
2823 Mist 0 1021 93 3200 4.63 30 11:31 03.03.2022
2824 Mist 1 1021 100 2000 4.63 20 10:39 03.03.2022
2825 Clear -1 1009 81 10000 3.58 32 08:44 03.03.2022
2826 Clear -1 1010 78 10000 2.24 30 06:58 03.03.2022
2827 Clear -1 1010 81 10000 2.24 21 06:33 03.03.2022
2828 Clear 0 1013 72 10000 0.51 0 00:43 03.03.2022
2829 Clear 1 1013 68 10000 1.79 51 23:28 02.03.2022
2830 Clear 1 1013 71 10000 0 0 22:48 02.03.2022
2831 Clear 1 1013 64 10000 0.51 80 21:25 02.03.2022
2832 Clear 1 1021 66 10000 1.79 99 20:40 02.03.2022
2833 Clear 2 1013 58 10000 1.54 100 19:56 02.03.2022
2834 Clear 2 1014 57 10000 2.57 80 19:33 02.03.2022
2835 Clear 3 1014 54 10000 0.45 353 18:44 02.03.2022
2836 Clear 5 1014 49 10000 1.34 155 17:57 02.03.2022
2837 Clear 7 1014 44 10000 0.89 146 17:21 02.03.2022
2838 Clouds 8 1009 39 10000 1.79 149 16:42 02.03.2022
2839 Clear 8 1013 37 10000 2.06 160 14:43 02.03.2022
2840 Clear 8 1016 46 10000 2.24 45 13:24 02.03.2022
2841 Clear 7 1017 51 10000 2.68 135 12:42 02.03.2022
2842 Clear 5 1025 61 10000 3.13 116 11:40 02.03.2022
2843 Clear 5 1025 62 10000 1.54 120 11:22 02.03.2022
2844 Clear 2 1018 70 10000 1.79 106 09:42 02.03.2022
2845 Clear 1 1018 76 10000 1.54 100 08:55 02.03.2022
2846 Clear -1 1018 75 10000 1.79 86 07:38 02.03.2022
2847 Clear -1 1018 75 10000 1.79 76 06:51 02.03.2022
2848 Clear -1 1020 74 10000 2.06 70 02:35 02.03.2022
2849 Clear 0 1020 67 10000 3.13 124 23:55 01.03.2022
2850 Clear 1 1021 67 10000 2.24 106 22:46 01.03.2022
2851 Clear 1 1021 68 10000 1.79 93 22:19 01.03.2022
2852 Clear 1 1020 65 10000 2.24 98 21:25 01.03.2022
2853 Clear 1 1028 66 10000 1.54 120 20:32 01.03.2022
2854 Clear 2 1020 61 10000 1.54 110 19:44 01.03.2022
2855 Clear 3 1021 58 10000 2.24 140 18:50 01.03.2022
2856 Clear 4 1021 55 10000 2.68 140 18:21 01.03.2022
2857 Clear 6 1021 44 10000 3.09 150 17:30 01.03.2022
2858 Clear 8 1022 40 10000 3.58 162 16:35 01.03.2022
2859 Clear 8 1021 37 10000 3.13 153 15:42 01.03.2022
2860 Clear 8 1022 37 10000 5.14 150 14:41 01.03.2022
2861 Clear 8 1022 39 10000 5.14 150 14:23 01.03.2022
2862 Clear 7 1023 41 10000 5.36 159 13:25 01.03.2022
2863 Clear 7 1023 42 10000 3.58 169 12:34 01.03.2022
2864 Clear 4 1030 53 10000 5.36 160 10:38 01.03.2022
2865 Clear 1 1025 64 10000 5.36 157 09:25 01.03.2022
2866 Clear -2 1026 67 10000 2.68 150 07:55 01.03.2022
2867 Clear -2 1025 73 10000 4.02 136 06:27 01.03.2022
2868 Clear -1 1026 70 10000 4.02 130 02:48 01.03.2022
2869 Clear -1 1027 69 10000 3.13 132 00:40 01.03.2022
2870 Clear 0 1027 67 10000 4.02 133 23:35 28.02.2022
2871 Clear 0 1027 65 10000 3.13 110 22:30 28.02.2022
2872 Clear 1 1027 63 10000 2.68 114 21:43 28.02.2022
2873 Clear 2 1027 66 10000 3.09 110 20:33 28.02.2022
2874 Clear 2 1027 67 10000 3.6 120 19:42 28.02.2022
2875 Clear 3 1026 68 10000 3.58 81 18:50 28.02.2022
2876 Clear 5 1026 60 10000 3.58 77 17:37 28.02.2022
2877 Clear 5 1026 59 10000 3.09 70 17:18 28.02.2022
2878 Clear 6 1026 58 10000 5.81 123 15:59 28.02.2022
2879 Clouds 6 1027 59 10000 4.02 111 14:32 28.02.2022
2880 Clouds 6 1027 65 10000 2.68 120 13:52 28.02.2022
2881 Clouds 6 1027 65 10000 2.68 120 13:52 28.02.2022
2882 Clouds 6 1027 68 10000 2.68 130 13:19 28.02.2022
2883 Clouds 4 1028 73 10000 3.09 80 11:59 28.02.2022
2884 Clouds 3 1037 79 10000 3.6 140 11:19 28.02.2022
2885 Clouds 2 1034 83 10000 2.24 23 10:22 28.02.2022
2886 Clouds 1 1028 85 10000 2.68 90 09:44 28.02.2022
2887 Clouds 1 1028 85 10000 2.57 90 08:54 28.02.2022
2888 Clouds 0 1027 89 10000 1.79 131 07:59 28.02.2022
2889 Clouds 0 1026 90 10000 2.24 95 06:31 28.02.2022
2890 Clouds 0 1027 89 10000 2.68 119 04:31 28.02.2022
2891 Mist 0 1028 90 4500 4.12 120 01:24 28.02.2022
2892 Fog 0 1028 90 500 2.68 90 22:55 27.02.2022
2893 Fog 0 1027 91 400 2.68 111 22:32 27.02.2022
2894 Fog 1 1026 92 250 2.06 80 21:42 27.02.2022
2895 Fog 1 1027 89 350 2.06 80 20:50 27.02.2022
2896 Fog 1 1027 88 350 2.57 70 20:18 27.02.2022
2897 Fog 2 1027 88 350 3.13 103 19:50 27.02.2022
2898 Fog 2 1027 88 500 3.6 70 19:22 27.02.2022
2899 Fog 2 1023 88 500 3.13 115 18:37 27.02.2022
2900 Fog 3 1023 86 1400 3.13 104 17:52 27.02.2022
2901 Clear 5 999 80 10000 2.42 84 16:30 27.02.2022
2902 Clear 6 1014 81 10000 2.42 84 15:39 27.02.2022
2903 Clear 7 1025 70 10000 1.79 134 12:43 27.02.2022
2904 Clear 7 1025 76 10000 1.79 74 12:25 27.02.2022
2905 Fog 4 1034 82 500 2.68 87 10:37 27.02.2022
2906 Fog 3 1028 83 900 2.57 60 09:58 27.02.2022
2907 Clouds 1 1029 90 8000 2.68 70 09:24 27.02.2022
2908 Clear 1 1028 89 10000 2.06 60 08:51 27.02.2022
2909 Clear -1 1028 88 10000 1.54 50 06:42 27.02.2022
2910 Clear 0 1027 88 10000 1.03 70 04:26 27.02.2022
2911 Clear 1 1028 85 10000 2.68 43 00:34 27.02.2022
2912 Clear 1 1027 83 10000 3.58 42 22:51 26.02.2022
2913 Clear 2 1027 83 10000 3.13 40 21:38 26.02.2022
2914 Clear 3 1027 81 10000 3.09 20 20:48 26.02.2022
2915 Clouds 3 1026 78 10000 3.13 57 19:59 26.02.2022
2916 Clouds 3 1026 78 10000 3.13 57 19:59 26.02.2022
2917 Clouds 4 1026 77 10000 3.13 34 19:37 26.02.2022
2918 Clouds 4 1025 74 10000 1.79 88 18:46 26.02.2022
2919 Clouds 6 1024 71 10000 2.57 20 17:42 26.02.2022
2920 Clouds 7 1024 70 10000 4.02 350 16:49 26.02.2022
2921 Clouds 7 1024 70 10000 3.6 360 15:49 26.02.2022
2922 Clouds 7 1024 69 10000 4.47 340 15:22 26.02.2022
2923 Clouds 7 1024 71 10000 5.36 357 14:53 26.02.2022
2924 Clouds 7 1024 72 10000 5.14 360 14:33 26.02.2022
2925 Clouds 7 1024 76 10000 3.6 10 13:19 26.02.2022
2926 Clouds 6 1024 77 10000 3.6 350 12:23 26.02.2022
2927 Clouds 6 1023 80 10000 5.14 330 11:28 26.02.2022
2928 Clouds 5 1023 82 10000 4.12 320 10:40 26.02.2022
2929 Clouds 5 1021 86 10000 4.92 287 08:55 26.02.2022
2930 Clouds 4 1019 87 10000 4.47 283 06:51 26.02.2022
2931 Clouds 4 1015 83 10000 6.69 290 01:27 26.02.2022
2932 Clouds 4 1012 90 10000 5.66 280 22:55 25.02.2022
2933 Clouds 4 1011 88 10000 7.15 259 21:44 25.02.2022
2934 Clouds 4 1011 88 10000 5.66 260 21:25 25.02.2022
2935 Clouds 4 1016 86 10000 4.12 230 20:33 25.02.2022
2936 Clouds 4 1016 86 10000 4.12 230 20:33 25.02.2022
2937 Clouds 4 1009 79 10000 7.72 230 19:21 25.02.2022
2938 Clouds 5 1008 79 10000 7.6 222 17:30 25.02.2022
2939 Clouds 5 1008 76 10000 8.94 228 16:35 25.02.2022
2940 Clouds 5 1008 78 10000 11.32 240 15:48 25.02.2022
2941 Clouds 5 1008 74 10000 8.94 236 15:22 25.02.2022
2942 Clouds 6 1007 69 10000 10.73 250 14:42 25.02.2022
2943 Clouds 6 1007 69 10000 9.77 230 14:18 25.02.2022
2944 Clouds 7 1007 64 10000 9.77 240 13:20 25.02.2022
2945 Clouds 6 1013 61 10000 10.28 235 11:30 25.02.2022
2946 Clouds 6 1013 65 10000 10.29 240 10:54 25.02.2022
2947 Clouds 6 1013 67 10000 9.83 238 10:23 25.02.2022
2948 Clear 4 1012 72 10000 8.05 241 09:35 25.02.2022
2949 Clear 2 1006 79 10000 7.15 235 07:44 25.02.2022
2950 Clouds 2 1005 78 10000 6.26 242 06:45 25.02.2022
2951 Clouds 3 1007 77 10000 6.71 248 05:37 25.02.2022
2952 Clouds 5 999 74 10000 10.73 259 00:31 25.02.2022
2953 Clouds 6 997 76 10000 13.41 270 22:30 24.02.2022
2954 Clouds 7 993 75 10000 10.28 239 21:43 24.02.2022
2955 Clouds 9 994 69 10000 7.72 210 21:21 24.02.2022
2956 Clear 9 992 71 10000 8.94 203 20:42 24.02.2022
2957 Clouds 9 995 71 10000 8.23 190 19:29 24.02.2022
2958 Clouds 10 995 69 10000 7.72 190 18:20 24.02.2022
2959 Clear 10 996 68 10000 8.05 195 17:52 24.02.2022
2960 Clear 10 997 67 10000 7.2 190 17:18 24.02.2022
2961 Clear 10 997 68 10000 7.2 200 16:25 24.02.2022
2962 Clear 10 998 68 10000 7.72 200 15:42 24.02.2022
2963 Clouds 10 1000 67 10000 7.6 189 14:45 24.02.2022
2964 Clear 9 1001 70 10000 7.15 207 13:57 24.02.2022
2965 Clear 9 1001 71 10000 6.71 190 13:35 24.02.2022
2966 Clear 8 1004 72 10000 7.15 208 11:32 24.02.2022
2967 Clear 7 1005 71 10000 6.26 209 10:31 24.02.2022
2968 Clouds 4 1006 76 10000 4.92 164 08:43 24.02.2022
2969 Clear 2 1007 79 10000 4.12 160 06:45 24.02.2022
2970 Clear 2 1008 80 10000 4.92 168 05:40 24.02.2022
2971 Clear 3 1012 78 10000 3.6 180 00:31 24.02.2022
2972 Clear 4 1012 74 10000 4.47 183 22:22 23.02.2022
2973 Clear 5 1013 73 10000 3.13 191 20:45 23.02.2022
2974 Clear 5 1014 70 10000 3.6 220 20:26 23.02.2022
2975 Clear 6 1014 74 10000 4.12 220 19:35 23.02.2022
2976 Clouds 7 1014 69 10000 4.12 240 18:26 23.02.2022
2977 Clouds 9 1014 65 10000 5.81 261 16:28 23.02.2022
2978 Clouds 10 1013 63 10000 9.26 280 14:22 23.02.2022
2979 Clouds 9 1020 67 10000 9.77 280 12:36 23.02.2022
2980 Clouds 8 1018 68 10000 9.77 280 11:23 23.02.2022
2981 Clouds 7 1017 74 10000 9.26 280 10:23 23.02.2022
2982 Clouds 6 1010 83 10000 9.39 269 08:55 23.02.2022
2983 Clouds 5 1009 83 10000 8.05 276 07:56 23.02.2022
2984 Clouds 6 1004 78 10000 8.94 278 03:29 23.02.2022
2985 Clouds 7 1000 88 10000 9.77 240 00:19 23.02.2022
2986 Clouds 6 1000 92 10000 7.2 230 23:34 22.02.2022
2987 Clouds 6 1000 90 10000 7.72 210 22:28 22.02.2022
2988 Clouds 6 1001 85 10000 8.23 220 21:48 22.02.2022
2989 Clouds 6 1001 84 10000 7.2 220 21:24 22.02.2022
2990 Clouds 6 1001 84 10000 8.05 210 20:49 22.02.2022
2991 Clouds 6 1001 83 10000 8.05 210 20:29 22.02.2022
2992 Clouds 6 1002 74 10000 6.71 212 19:34 22.02.2022
2993 Clear 6 1002 70 10000 5.81 222 18:58 22.02.2022
2994 Clear 7 1003 69 10000 6.26 240 17:36 22.02.2022
2995 Clear 7 1003 65 10000 5.36 244 17:18 22.02.2022
2996 Clouds 7 1004 63 10000 6.17 270 16:36 22.02.2022
2997 Clouds 7 1004 63 10000 8.05 265 15:38 22.02.2022
2998 Clouds 8 1004 62 10000 8.49 282 14:43 22.02.2022
2999 Clouds 6 1009 68 10000 8.75 290 11:54 22.02.2022
3000 Clouds 5 1009 77 10000 9.26 280 10:28 22.02.2022
3001 Clouds 4 1000 76 10000 9.39 287 07:52 22.02.2022
3002 Clouds 4 1000 76 10000 8.49 280 07:25 22.02.2022
3003 Clouds 5 994 89 10000 8.75 270 02:52 22.02.2022
3004 Clouds 4 992 88 10000 6.71 279 00:49 22.02.2022
3005 Clouds 4 990 86 10000 8.05 276 22:41 21.02.2022
3006 Clouds 4 988 90 10000 7.72 300 21:30 21.02.2022
3007 Clouds 4 986 89 10000 5.66 260 20:34 21.02.2022
3008 Clouds 4 987 89 10000 5.81 284 20:34 21.02.2022
3009 Clouds 3 985 87 10000 8.94 234 18:42 21.02.2022
3010 Clouds 5 984 72 10000 9.39 245 16:56 21.02.2022
3011 Clouds 6 985 67 10000 11.62 235 14:52 21.02.2022
3012 Clouds 6 985 68 10000 11.32 240 14:52 21.02.2022
3013 Clouds 6 985 64 10000 15.65 247 14:21 21.02.2022
3014 Clouds 6 985 67 10000 14.31 256 12:59 21.02.2022
3015 Clouds 6 985 69 10000 12.86 250 12:23 21.02.2022
3016 Clouds 6 992 72 10000 12.96 250 10:51 21.02.2022
3017 Clouds 5 991 77 10000 11.83 260 09:34 21.02.2022
3018 Clouds 8 978 82 6000 13.38 250 04:52 21.02.2022
3019 Clouds 8 984 89 10000 9.77 210 23:32 20.02.2022
3020 Clouds 8 983 89 10000 11.62 230 22:21 20.02.2022
3021 Clouds 8 985 89 10000 10.8 220 21:42 20.02.2022
3022 Clouds 8 986 90 10000 9.83 226 20:53 20.02.2022
3023 Clouds 8 986 90 10000 11.32 230 20:33 20.02.2022
3024 Clouds 8 989 91 10000 11.32 230 19:31 20.02.2022
3025 Clouds 8 989 91 10000 11.62 232 19:31 20.02.2022
3026 Clouds 8 990 90 10000 10.8 230 18:50 20.02.2022
3027 Clouds 8 990 90 10000 10.29 220 18:31 20.02.2022
3028 Clouds 8 990 90 10000 10.29 220 18:31 20.02.2022
3029 Clouds 8 991 91 10000 11.18 217 17:47 20.02.2022
3030 Clouds 6 993 93 10000 8.05 208 15:32 20.02.2022
3031 Clouds 5 994 92 10000 6.69 190 14:41 20.02.2022
3032 Clouds 5 996 88 10000 8.75 230 13:23 20.02.2022
3033 Clouds 6 998 83 10000 7.2 240 12:25 20.02.2022
3034 Clouds 5 999 85 10000 8.94 251 10:38 20.02.2022
3035 Clouds 5 999 86 10000 7.2 260 10:19 20.02.2022
3036 Clouds 3 998 89 10000 7.2 290 08:25 20.02.2022
3037 Clear 4 1000 77 10000 7.72 240 00:54 20.02.2022
3038 Clear 5 1000 73 10000 10.8 240 00:29 20.02.2022
3039 Clear 4 1001 66 10000 7.15 216 22:47 19.02.2022
3040 Clear 4 1001 65 10000 5.14 210 22:22 19.02.2022
3041 Clear 4 1002 63 10000 4.63 210 20:51 19.02.2022
3042 Clear 5 1002 64 10000 5.14 230 19:53 19.02.2022
3043 Clear 5 1002 63 10000 6.69 240 19:28 19.02.2022
3044 Clear 6 1002 62 10000 8.23 250 18:32 19.02.2022
3045 Clouds 6 1002 62 10000 10.8 260 17:35 19.02.2022
3046 Clouds 7 1001 62 10000 12.96 259 16:22 19.02.2022
3047 Clouds 8 1000 60 10000 13.89 270 14:56 19.02.2022
3048 Clouds 8 1000 61 10000 13.89 270 14:37 19.02.2022
3049 Clouds 7 999 66 10000 12.86 270 13:22 19.02.2022
3050 Clouds 6 997 73 10000 13.38 270 11:37 19.02.2022
3051 Clouds 6 994 72 10000 15.65 250 09:45 19.02.2022
3052 Clouds 6 988 62 10000 18.33 240 06:54 19.02.2022
3053 Clear 7 984 52 10000 15.2 239 03:38 19.02.2022
3054 Clear 8 981 62 10000 19.03 260 23:29 18.02.2022
3055 Clear 9 980 62 10000 13.41 243 21:50 18.02.2022
3056 Clouds 9 977 77 10000 17.49 250 20:51 18.02.2022
3057 Clear 9 978 87 10000 9.26 190 19:53 18.02.2022
3058 Clouds 9 980 89 10000 9.26 190 18:50 18.02.2022
3059 Clouds 8 980 90 10000 8.75 200 18:22 18.02.2022
3060 Clouds 8 980 88 10000 5.66 180 17:50 18.02.2022
3061 Clouds 6 990 85 10000 7.72 190 14:54 18.02.2022
3062 Clouds 7 991 82 10000 4.92 169 13:55 18.02.2022
3063 Clouds 7 993 77 10000 7.6 221 12:53 18.02.2022
3064 Clear 8 994 75 10000 7.2 220 12:32 18.02.2022
3065 Clear 8 995 76 10000 6.71 227 11:27 18.02.2022
3066 Clear 7 997 79 10000 6.26 223 10:23 18.02.2022
3067 Clear 4 998 78 10000 5.36 247 06:57 18.02.2022
3068 Clear 4 998 75 10000 6.71 263 05:40 18.02.2022
3069 Clouds 6 994 70 10000 11.62 275 23:31 17.02.2022
3070 Clouds 6 993 71 10000 10.29 270 21:45 17.02.2022
3071 Clouds 6 992 73 10000 12.52 276 21:19 17.02.2022
3072 Clouds 6 992 74 10000 10.73 282 20:37 17.02.2022
3073 Clouds 6 991 74 10000 16.09 274 19:49 17.02.2022
3074 Clouds 6 990 79 10000 10.29 280 18:44 17.02.2022
3075 Clouds 6 989 81 10000 12.35 290 17:50 17.02.2022
3076 Clouds 7 987 79 10000 13.89 280 16:29 17.02.2022
3077 Clouds 7 986 79 10000 14.4 290 15:38 17.02.2022
3078 Clouds 8 984 74 10000 19.22 279 14:26 17.02.2022
3079 Clouds 9 988 72 10000 21.61 270 12:38 17.02.2022
3080 Clouds 9 978 67 10000 18.01 280 11:23 17.02.2022
3081 Clouds 9 978 67 10000 18.01 280 11:23 17.02.2022
3082 Clouds 9 975 63 10000 16.99 261 08:53 17.02.2022
3083 Clouds 12 972 86 10000 13.89 240 02:26 17.02.2022
3084 Clouds 11 976 82 10000 13.41 211 23:21 16.02.2022
3085 Clouds 11 980 82 10000 10.29 220 21:44 16.02.2022
3086 Clouds 10 981 84 10000 9.26 220 19:57 16.02.2022
3087 Clouds 9 982 88 10000 8.94 220 18:39 16.02.2022
3088 Clouds 9 983 88 10000 10.73 220 17:53 16.02.2022
3089 Clouds 9 985 88 10000 10.8 220 15:40 16.02.2022
3090 Clouds 8 984 89 10000 10.29 220 15:19 16.02.2022
3091 Clouds 7 984 91 10000 3.58 180 13:31 16.02.2022
3092 Clouds 6 988 90 10000 9.77 210 12:20 16.02.2022
3093 Clouds 6 989 89 10000 8.75 210 11:28 16.02.2022
3094 Clouds 6 990 87 10000 8.75 210 10:34 16.02.2022
3095 Clouds 6 993 88 10000 7.72 220 08:20 16.02.2022
3096 Clouds 5 994 85 10000 8.05 200 06:29 16.02.2022
3097 Clear 5 999 81 10000 7.2 210 23:45 15.02.2022
3098 Clear 6 1000 83 10000 6.71 218 22:33 15.02.2022
3099 Clear 6 1000 85 10000 6.26 209 21:48 15.02.2022
3100 Clear 6 1000 84 10000 5.81 186 21:29 15.02.2022
3101 Clear 6 1001 80 10000 5.66 190 20:56 15.02.2022
3102 Clear 7 1001 82 10000 5.36 181 19:59 15.02.2022
3103 Clear 7 1001 77 10000 4.92 184 19:21 15.02.2022
3104 Clear 7 1001 72 10000 3.6 190 18:23 15.02.2022
3105 Clouds 8 1001 71 10000 3.6 200 17:50 15.02.2022
3106 Clouds 9 1006 68 10000 5.81 218 17:21 15.02.2022
3107 Clouds 9 1001 68 10000 5.14 240 15:32 15.02.2022
3108 Clouds 9 1008 66 10000 6.71 264 13:28 15.02.2022
3109 Clouds 9 1008 67 10000 5.66 270 12:59 15.02.2022
3110 Clouds 9 1007 68 10000 6.71 251 11:40 15.02.2022
3111 Clear 7 1006 78 10000 4.47 217 09:52 15.02.2022
3112 Clear 5 998 83 10000 4.12 220 06:59 15.02.2022
3113 Clear 5 998 81 10000 4.47 222 06:19 15.02.2022
3114 Clear 8 996 64 10000 4.92 186 23:34 14.02.2022
3115 Clouds 9 996 65 10000 4.63 180 21:55 14.02.2022
3116 Clouds 9 994 61 10000 4.92 190 20:51 14.02.2022
3117 Clear 10 995 63 10000 4.92 162 19:46 14.02.2022
3118 Clear 10 995 59 10000 4.92 174 19:26 14.02.2022
3119 Clear 11 995 61 10000 5.81 166 18:23 14.02.2022
3120 Clear 11 995 57 10000 5.66 160 17:27 14.02.2022
3121 Clear 12 994 55 10000 5.81 180 16:27 14.02.2022
3122 Clear 13 995 49 10000 7.2 200 14:43 14.02.2022
3123 Clear 12 995 47 10000 8.05 189 13:34 14.02.2022
3124 Clear 12 996 47 10000 7.72 190 12:58 14.02.2022
3125 Clear 10 996 47 10000 8.49 186 11:57 14.02.2022
3126 Clear 9 1004 49 10000 8.05 182 11:38 14.02.2022
3127 Clear 5 997 62 10000 5.36 159 09:37 14.02.2022
3128 Clear 4 997 67 10000 5.36 158 07:49 14.02.2022
3129 Clear 4 997 67 10000 5.14 160 07:24 14.02.2022
3130 Clear 5 1002 76 10000 4.12 170 22:48 13.02.2022
3131 Clear 5 1002 78 10000 4.47 162 22:30 13.02.2022
3132 Clear 5 1002 77 10000 4.63 170 21:57 13.02.2022
3133 Clear 5 1002 79 10000 4.12 160 21:23 13.02.2022
3134 Clear 5 1003 75 10000 4.63 170 20:27 13.02.2022
3135 Clear 5 1004 74 10000 5.14 170 19:18 13.02.2022
3136 Clear 5 1004 73 10000 4.12 170 18:41 13.02.2022
3137 Clear 7 1004 65 10000 4.47 190 17:22 13.02.2022
3138 Clear 8 1006 55 10000 6.71 190 15:51 13.02.2022
3139 Clear 8 1006 55 10000 6.69 190 14:50 13.02.2022
3140 Clear 7 1007 58 10000 7.2 210 13:29 13.02.2022
3141 Clear 6 1007 60 10000 7.15 214 12:42 13.02.2022
3142 Clear 4 1014 72 10000 5.81 183 10:46 13.02.2022
3143 Clear 3 1009 76 10000 4.92 187 10:27 13.02.2022
3144 Clear 0 1009 82 10000 5.14 170 08:57 13.02.2022
3145 Clear 0 1013 82 10000 4.47 166 02:50 13.02.2022
3146 Clear 0 1015 82 10000 5.36 162 00:33 13.02.2022
3147 Clear 1 1016 82 10000 5.36 176 22:58 12.02.2022
3148 Clear 1 1016 82 10000 5.14 170 22:33 12.02.2022
3149 Clear 1 1017 80 10000 3.6 150 21:18 12.02.2022
3150 Clear 1 1018 78 10000 3.6 150 20:25 12.02.2022
3151 Clear 1 1019 75 10000 3.58 170 19:18 12.02.2022
3152 Clear 2 1019 73 10000 3.58 143 18:41 12.02.2022
3153 Clear 2 1019 72 10000 3.58 180 18:23 12.02.2022
3154 Clouds 4 1019 70 10000 6.26 190 16:55 12.02.2022
3155 Clouds 4 1020 66 10000 6.26 173 16:25 12.02.2022
3156 Clouds 5 1020 66 10000 6.17 200 15:32 12.02.2022
3157 Clouds 5 1021 65 10000 5.66 200 14:30 12.02.2022
3158 Clouds 5 1023 67 10000 4.12 200 12:55 12.02.2022
3159 Clear 2 1030 85 10000 2.68 212 10:35 12.02.2022
3160 Clear 0 1024 90 10000 3.13 190 09:38 12.02.2022
3161 Clear -1 1025 89 10000 2.57 190 08:48 12.02.2022
3162 Clear -1 1024 86 10000 2.68 190 07:50 12.02.2022
3163 Clear -1 1024 87 10000 2.68 232 05:33 12.02.2022
3164 Clear -1 1024 87 10000 3.6 230 03:32 12.02.2022
3165 Clear 0 1024 89 10000 3.58 260 02:18 12.02.2022
3166 Clouds 2 1022 79 10000 5.66 330 22:28 11.02.2022
3167 Clouds 3 1021 75 10000 7.2 350 21:51 11.02.2022
3168 Clouds 4 1020 80 10000 6.17 300 20:40 11.02.2022
3169 Clouds 4 1018 84 10000 4.63 290 19:40 11.02.2022
3170 Clear 4 1018 84 10000 4.47 260 19:20 11.02.2022
3171 Clouds 5 1016 86 10000 4.47 252 17:48 11.02.2022
3172 Clouds 5 1015 85 10000 3.6 260 17:22 11.02.2022
3173 Clouds 5 1013 84 10000 5.14 270 16:22 11.02.2022
3174 Clouds 6 1019 84 10000 6.26 243 14:43 11.02.2022
3175 Clouds 6 1011 83 10000 6.26 239 14:21 11.02.2022
3176 Clouds 6 1011 78 10000 6.71 237 13:57 11.02.2022
3177 Clouds 6 1011 79 10000 7.15 227 13:39 11.02.2022
3178 Clouds 5 1011 83 10000 5.66 250 11:42 11.02.2022
3179 Clouds 4 1010 87 10000 4.12 230 09:58 11.02.2022
3180 Clouds 4 1009 89 10000 5.36 255 08:49 11.02.2022
3181 Clouds 4 1009 88 10000 3.6 240 08:27 11.02.2022
3182 Clouds 4 1009 89 10000 3.58 250 07:18 11.02.2022
3183 Clear 3 1009 93 10000 2.68 230 02:39 11.02.2022
3184 Clouds 3 1009 90 10000 2.68 234 02:18 11.02.2022
3185 Clear 5 1009 89 10000 4.47 230 22:53 10.02.2022
3186 Clouds 5 1009 91 10000 4.47 230 21:50 10.02.2022
3187 Clouds 5 1009 88 10000 5.36 231 21:18 10.02.2022
3188 Clouds 6 1009 89 10000 5.66 240 20:45 10.02.2022
3189 Clouds 5 1008 92 10000 3.6 250 19:26 10.02.2022
3190 Clouds 5 1009 89 10000 4.02 220 18:47 10.02.2022
3191 Clouds 6 1007 92 10000 2.57 310 17:27 10.02.2022
3192 Clouds 6 1008 90 10000 4.47 330 16:57 10.02.2022
3193 Clouds 7 1007 87 10000 7.6 260 15:59 10.02.2022
3194 Clouds 7 1007 87 10000 7.6 260 15:33 10.02.2022
3195 Clouds 9 1006 80 10000 5.36 278 14:49 10.02.2022
3196 Clouds 10 1006 81 10000 6.26 270 14:26 10.02.2022
3197 Clouds 10 1006 76 10000 6.26 264 13:30 10.02.2022
3198 Clouds 10 1007 75 10000 5.81 245 12:51 10.02.2022
3199 Clouds 10 1007 82 10000 5.81 236 11:34 10.02.2022
3200 Clouds 9 1007 82 10000 4.02 217 10:56 10.02.2022
3201 Clouds 9 1008 81 10000 4.92 210 10:18 10.02.2022
3202 Clouds 8 1008 83 10000 3.13 180 09:25 10.02.2022
3203 Clouds 8 1009 82 10000 3.13 190 07:36 10.02.2022
3204 Clouds 8 1010 82 10000 4.02 204 05:51 10.02.2022
3205 Clouds 9 1012 81 10000 4.92 230 01:52 10.02.2022
3206 Clouds 9 1012 84 10000 5.36 240 00:50 10.02.2022
3207 Clouds 9 1012 84 10000 4.92 240 00:29 10.02.2022
3208 Clouds 9 1013 84 10000 5.36 245 23:26 09.02.2022
3209 Clouds 9 1013 84 10000 6.26 247 22:37 09.02.2022
3210 Clouds 9 1013 84 10000 5.81 245 21:52 09.02.2022
3211 Clouds 9 1013 85 10000 5.36 240 21:32 09.02.2022
3212 Clouds 9 1013 86 10000 5.36 243 20:51 09.02.2022
3213 Clouds 9 1013 86 10000 5.14 250 20:31 09.02.2022
3214 Clouds 9 1013 87 10000 5.36 242 19:59 09.02.2022
3215 Clouds 9 1013 88 10000 6.17 250 19:38 09.02.2022
3216 Clouds 9 1012 88 10000 5.36 210 17:39 09.02.2022
3217 Clouds 9 1012 87 10000 5.81 273 16:53 09.02.2022
3218 Clouds 10 1012 85 10000 5.81 210 15:52 09.02.2022
3219 Clouds 10 1012 84 10000 6.26 250 14:42 09.02.2022
3220 Clouds 10 1013 81 10000 9.83 243 12:30 09.02.2022
3221 Clouds 10 1013 83 10000 8.23 240 11:19 09.02.2022
3222 Clouds 9 1013 84 10000 7.2 230 10:31 09.02.2022
3223 Clouds 9 1013 85 10000 6.71 225 09:42 09.02.2022
3224 Clouds 9 1013 86 10000 6.17 230 09:19 09.02.2022
3225 Clouds 9 1013 89 10000 7.15 231 07:56 09.02.2022
3226 Clouds 9 1014 94 10000 6.26 250 05:30 09.02.2022
3227 Clouds 9 1014 94 10000 8.05 251 03:50 09.02.2022
3228 Clouds 9 1014 94 10000 7.2 260 01:27 09.02.2022
3229 Drizzle 9 1014 94 10000 6.26 269 23:39 08.02.2022
3230 Clouds 9 1014 95 4500 7.6 256 22:51 08.02.2022
3231 Drizzle 9 1013 94 5000 7.2 260 22:22 08.02.2022
3232 Drizzle 9 1013 94 8000 8.05 265 21:50 08.02.2022
3233 Drizzle 9 1013 94 10000 7.2 270 21:21 08.02.2022
3234 Drizzle 9 1013 94 8000 7.72 270 20:45 08.02.2022
3235 Drizzle 9 1012 93 10000 8.23 270 19:52 08.02.2022
3236 Clouds 9 1012 93 10000 9.39 280 18:53 08.02.2022
3237 Clouds 9 1011 92 10000 8.23 270 17:50 08.02.2022
3238 Clouds 9 1011 92 10000 8.49 251 16:35 08.02.2022
3239 Clouds 8 1011 93 10000 10.73 265 15:39 08.02.2022
3240 Clouds 8 1010 92 10000 7.15 242 14:56 08.02.2022
3241 Clouds 7 1010 91 10000 9.26 240 13:29 08.02.2022
3242 Clouds 6 1010 90 10000 9.83 230 12:20 08.02.2022
3243 Clouds 5 1011 92 10000 8.75 240 10:45 08.02.2022
3244 Drizzle 5 1012 91 8000 8.94 240 09:46 08.02.2022
3245 Clouds 4 1012 86 10000 7.15 226 08:27 08.02.2022
3246 Clear 3 1013 86 10000 5.66 230 05:45 08.02.2022
3247 Clear 3 1014 86 10000 5.81 212 04:40 08.02.2022
3248 Clear 3 1014 89 10000 4.92 232 04:21 08.02.2022
3249 Clouds 3 1014 88 10000 5.36 239 03:36 08.02.2022
3250 Clouds 3 1014 86 10000 5.36 250 03:18 08.02.2022
3251 Clouds 3 1014 86 10000 5.36 250 03:18 08.02.2022
3252 Clouds 3 1014 84 10000 5.66 260 02:59 08.02.2022
3253 Clouds 3 1014 84 10000 5.66 260 02:36 08.02.2022
3254 Clouds 3 1014 84 10000 6.71 266 02:18 08.02.2022
3255 Clouds 3 1014 84 10000 6.26 260 01:44 08.02.2022
3256 Clouds 3 1014 84 10000 8.23 280 01:25 08.02.2022
3257 Clouds 3 1013 84 10000 6.71 272 00:55 08.02.2022
3258 Clouds 3 1013 83 10000 5.66 270 00:19 08.02.2022
3259 Clouds 3 1013 85 10000 5.66 270 23:43 07.02.2022
3260 Clouds 3 1013 84 10000 6.71 290 23:18 07.02.2022
3261 Clouds 3 1012 84 10000 6.71 270 22:59 07.02.2022
3262 Clouds 3 1012 81 10000 6.71 270 22:19 07.02.2022
3263 Clouds 4 1012 78 10000 7.2 280 21:50 07.02.2022
3264 Clouds 4 1011 75 10000 8.23 290 21:27 07.02.2022
3265 Clouds 4 1011 77 10000 7.72 280 20:45 07.02.2022
3266 Clouds 4 1011 74 10000 8.94 270 20:27 07.02.2022
3267 Clouds 4 1010 76 10000 8.23 280 19:47 07.02.2022
3268 Clear 5 1009 73 10000 7.72 280 18:35 07.02.2022
3269 Clouds 5 1005 73 10000 8.75 280 17:18 07.02.2022
3270 Clouds 5 1006 75 10000 8.49 312 16:46 07.02.2022
3271 Clouds 6 1005 74 10000 9.83 326 15:48 07.02.2022
3272 Clouds 6 1002 68 10000 9.77 300 13:58 07.02.2022
3273 Clouds 6 1002 73 10000 13.89 300 13:27 07.02.2022
3274 Clouds 6 1001 74 10000 11.18 292 12:18 07.02.2022
3275 Clouds 5 1001 78 10000 10.28 294 11:40 07.02.2022
3276 Clouds 5 999 82 10000 7.6 286 11:22 07.02.2022
3277 Clouds 4 1004 82 10000 9.39 295 10:41 07.02.2022
3278 Clouds 4 1004 86 10000 11.62 295 10:22 07.02.2022
3279 Clouds 4 998 85 10000 10.28 290 09:51 07.02.2022
3280 Clouds 4 997 85 10000 8.49 297 09:18 07.02.2022
3281 Clouds 3 995 87 10000 8.94 287 07:44 07.02.2022
3282 Clouds 3 992 87 10000 9.39 273 06:34 07.02.2022
3283 Clouds 3 997 83 10000 8.94 291 04:49 07.02.2022
3284 Clouds 3 986 84 10000 8.94 280 02:37 07.02.2022
3285 Clouds 4 984 87 10000 8.05 264 00:20 07.02.2022
3286 Clouds 4 984 91 10000 6.26 243 23:20 06.02.2022
3287 Clouds 5 984 91 8000 8.05 247 22:42 06.02.2022
3288 Clouds 4 984 91 10000 5.81 243 21:47 06.02.2022
3289 Clouds 4 984 90 10000 7.6 255 21:21 06.02.2022
3290 Clouds 4 984 90 10000 11.18 272 20:48 06.02.2022
3291 Clouds 5 984 91 10000 8.94 274 20:24 06.02.2022
3292 Clouds 4 983 92 10000 10.73 274 19:30 06.02.2022
3293 Rain 5 982 92 10000 12.52 252 18:34 06.02.2022
3294 Rain 6 982 92 10000 11.18 223 17:39 06.02.2022
3295 Rain 6 983 91 10000 13.86 218 16:52 06.02.2022
3296 Rain 6 983 90 10000 9.39 222 16:29 06.02.2022
3297 Rain 7 984 87 10000 10.73 229 15:47 06.02.2022
3298 Rain 7 984 87 10000 10.73 229 15:47 06.02.2022
3299 Rain 7 985 85 10000 9.83 223 15:25 06.02.2022
3300 Rain 7 987 84 10000 12.96 226 14:23 06.02.2022
3301 Rain 8 988 83 10000 13.41 224 13:23 06.02.2022
3302 Clouds 7 990 85 10000 11.62 234 12:34 06.02.2022
3303 Rain 6 992 90 10000 10.28 238 10:43 06.02.2022
3304 Clouds 5 993 90 10000 11.62 239 09:48 06.02.2022
3305 Rain 5 993 92 10000 11.18 238 08:42 06.02.2022
3306 Rain 5 994 90 10000 11.18 226 07:36 06.02.2022
3307 Clouds 4 996 88 10000 10.73 223 05:29 06.02.2022
3308 Clouds 5 1000 79 10000 9.39 220 02:26 06.02.2022
3309 Clouds 4 1002 83 10000 10.28 236 01:20 06.02.2022
3310 Rain 5 1003 77 10000 8.94 226 00:24 06.02.2022
3311 Clear 5 1004 72 10000 7.15 221 22:18 05.02.2022
3312 Clouds 5 1005 72 10000 6.71 225 20:48 05.02.2022
3313 Clouds 5 1006 71 10000 7.15 240 20:23 05.02.2022
3314 Clear 5 1006 70 10000 6.71 234 19:44 05.02.2022
3315 Clear 5 1006 71 10000 6.71 237 18:49 05.02.2022
3316 Clouds 5 1006 70 10000 6.26 256 17:37 05.02.2022
3317 Clouds 6 1006 71 10000 5.81 245 16:37 05.02.2022
3318 Clouds 6 1006 73 10000 10.73 270 15:33 05.02.2022
3319 Clouds 6 1006 71 10000 8.05 262 14:47 05.02.2022
3320 Clouds 6 1011 77 10000 12.07 264 12:46 05.02.2022
3321 Clouds 5 1005 83 10000 9.83 274 11:49 05.02.2022
3322 Clouds 4 1010 84 10000 10.73 257 10:46 05.02.2022
3323 Clouds 4 1004 86 10000 8.05 271 09:52 05.02.2022
3324 Clouds 3 1004 89 10000 7.6 278 09:29 05.02.2022
3325 Clouds 4 1002 85 10000 8.94 262 07:38 05.02.2022
3326 Clouds 4 1002 85 10000 6.26 258 06:56 05.02.2022
3327 Clouds 4 1000 86 10000 8.49 253 03:55 05.02.2022
3328 Clouds 3 998 90 10000 10.28 275 01:19 05.02.2022
3329 Clouds 4 998 85 10000 12.52 290 00:51 05.02.2022
3330 Clouds 5 1001 87 10000 15.2 293 23:38 04.02.2022
3331 Clouds 6 992 88 10000 10.73 218 23:20 04.02.2022
3332 Rain 7 992 81 10000 8.49 216 21:37 04.02.2022
3333 Rain 8 993 79 10000 10.28 218 21:18 04.02.2022
3334 Clouds 8 993 79 10000 10.28 219 20:50 04.02.2022
3335 Clear 8 994 80 10000 8.05 214 19:36 04.02.2022
3336 Clouds 8 995 81 10000 8.94 230 17:28 04.02.2022
3337 Clouds 8 1004 82 10000 8.05 225 15:39 04.02.2022
3338 Clouds 8 1004 84 10000 7.15 211 14:52 04.02.2022
3339 Clouds 8 999 87 10000 7.15 214 13:24 04.02.2022
3340 Clouds 7 999 88 10000 5.81 219 12:42 04.02.2022
3341 Clouds 7 1007 89 10000 6.26 212 11:41 04.02.2022
3342 Clouds 6 1007 90 10000 6.26 231 10:34 04.02.2022
3343 Clouds 5 1006 90 10000 3.58 220 08:34 04.02.2022
3344 Clouds 5 1001 94 10000 4.02 243 06:18 04.02.2022
3345 Clouds 6 1006 91 10000 3.58 250 02:42 04.02.2022
3346 Clouds 6 1008 91 10000 2.68 225 01:22 04.02.2022
3347 Drizzle 6 1007 92 6000 3.58 214 23:29 03.02.2022
3348 Clouds 7 1007 92 9000 4.02 215 22:33 03.02.2022
3349 Clouds 7 1008 94 6000 3.13 198 21:49 03.02.2022
3350 Clouds 7 1002 95 6000 3.58 210 20:38 03.02.2022
3351 Clouds 7 1003 93 6000 3.58 190 20:18 03.02.2022
3352 Clouds 7 1003 93 9000 3.58 217 19:30 03.02.2022
3353 Clouds 7 1004 93 7000 4.92 229 18:34 03.02.2022
3354 Clouds 7 1003 95 9000 3.58 220 17:32 03.02.2022
3355 Clouds 6 1004 95 7000 3.58 212 16:25 03.02.2022
3356 Drizzle 6 1005 94 8000 4.47 216 14:37 03.02.2022
3357 Rain 6 1006 91 10000 5.81 204 12:51 03.02.2022
3358 Clouds 5 1007 87 10000 4.02 191 10:45 03.02.2022
3359 Clear 2 1008 86 10000 2.68 209 08:36 03.02.2022
3360 Clear 2 1010 87 10000 2.24 227 04:27 03.02.2022
3361 Clear 2 1010 83 10000 3.13 272 00:31 03.02.2022
3362 Clear 2 1009 84 10000 4.47 287 23:36 02.02.2022
3363 Clouds 3 1009 83 10000 4.47 286 21:55 02.02.2022
3364 Clouds 3 1008 81 10000 4.92 296 21:31 02.02.2022
3365 Clouds 3 1008 83 10000 5.81 284 20:40 02.02.2022
3366 Clouds 4 1007 80 10000 3.58 276 19:58 02.02.2022
3367 Clouds 4 1007 78 10000 2.24 299 19:27 02.02.2022
3368 Clouds 4 1006 77 10000 5.36 307 18:39 02.02.2022
3369 Clouds 4 1005 73 10000 8.05 311 17:56 02.02.2022
3370 Clouds 5 1010 72 10000 9.83 302 17:19 02.02.2022
3371 Clouds 5 1009 67 10000 10.28 318 16:41 02.02.2022
3372 Clouds 6 1004 75 10000 10.28 301 12:57 02.02.2022
3373 Clouds 6 1004 76 10000 8.49 310 12:20 02.02.2022
3374 Clouds 6 996 78 10000 12.07 290 11:33 02.02.2022
3375 Rain 6 994 81 10000 11.18 289 09:47 02.02.2022
3376 Clouds 5 992 83 10000 11.18 287 07:35 02.02.2022
3377 Clouds 6 988 87 10000 10.73 286 22:52 01.02.2022
3378 Clouds 6 988 90 10000 8.94 288 21:51 01.02.2022
3379 Clouds 6 987 92 10000 9.83 261 20:35 01.02.2022
3380 Clouds 3 989 94 10000 9.39 235 17:44 01.02.2022
3381 Rain 3 990 93 9000 11.62 234 16:39 01.02.2022
3382 Rain 4 994 88 10000 9.39 230 14:47 01.02.2022
3383 Rain 4 998 86 10000 7.6 255 12:45 01.02.2022
3384 Clouds 3 1000 88 10000 7.6 249 11:34 01.02.2022
3385 Clouds 2 1002 87 10000 4.47 262 04:53 01.02.2022
3386 Clouds 1 1001 86 10000 3.58 313 23:42 31.01.2022
3387 Clouds 1 1001 86 10000 3.58 310 23:42 31.01.2022
3388 Clouds 1 1000 87 10000 3.58 300 23:21 31.01.2022
3389 Clouds 1 1000 86 10000 2.24 341 21:59 31.01.2022
3390 Clouds 1 999 85 10000 1.79 343 21:32 31.01.2022
3391 Clouds 2 998 82 10000 1.79 334 20:33 31.01.2022
3392 Clouds 2 998 81 10000 3.13 4 19:45 31.01.2022
3393 Clouds 3 996 80 10000 4.02 12 18:26 31.01.2022
3394 Clouds 3 996 81 10000 2.24 352 17:43 31.01.2022
3395 Clouds 4 995 79 10000 1.34 66 16:43 31.01.2022
3396 Clouds 4 994 77 10000 2.24 53 15:43 31.01.2022
3397 Clouds 4 1001 76 10000 2.24 71 14:22 31.01.2022
3398 Clouds 4 993 74 10000 1.79 127 12:39 31.01.2022
3399 Clouds 4 993 75 10000 2.24 146 11:58 31.01.2022
3400 Clouds 3 994 73 10000 2.24 154 10:50 31.01.2022
3401 Clouds 3 994 74 10000 3.58 183 10:32 31.01.2022
3402 Clouds 2 995 75 10000 3.13 193 09:27 31.01.2022
3403 Clouds 2 995 77 10000 4.02 183 08:52 31.01.2022
3404 Clouds 2 995 77 10000 4.02 183 08:52 31.01.2022
3405 Clear 2 996 79 10000 2.68 197 08:20 31.01.2022
3406 Rain 3 999 76 10000 3.58 229 06:21 31.01.2022
3407 Clouds 3 1003 77 10000 4.92 276 03:33 31.01.2022
3408 Clouds 4 1014 68 10000 8.49 271 23:20 30.01.2022
3409 Clouds 5 1013 65 10000 8.49 272 22:30 30.01.2022
3410 Clouds 5 1013 62 10000 7.15 283 21:43 30.01.2022
3411 Clouds 5 1009 63 10000 7.6 284 21:20 30.01.2022
3412 Clouds 5 1009 62 10000 8.05 292 20:50 30.01.2022
3413 Clouds 5 1009 62 10000 6.26 286 20:29 30.01.2022
3414 Clouds 5 1009 63 10000 8.05 304 19:53 30.01.2022
3415 Clouds 6 1009 62 10000 8.05 295 18:45 30.01.2022
3416 Clouds 6 1008 62 10000 8.49 280 18:21 30.01.2022
3417 Clouds 6 1008 63 10000 9.39 297 17:29 30.01.2022
3418 Clouds 6 1007 63 10000 10.28 299 16:41 30.01.2022
3419 Clouds 7 1007 64 10000 9.39 282 16:22 30.01.2022
3420 Clouds 7 1006 64 10000 9.83 300 15:53 30.01.2022
3421 Clouds 7 1006 64 10000 8.94 296 15:32 30.01.2022
3422 Clouds 7 1005 63 10000 10.28 310 14:47 30.01.2022
3423 Clouds 7 1005 64 10000 10.28 294 13:37 30.01.2022
3424 Clouds 7 1004 66 10000 12.52 284 12:41 30.01.2022
3425 Clouds 6 1002 69 10000 16.09 281 10:38 30.01.2022
3426 Clouds 6 1001 70 10000 13.86 286 09:57 30.01.2022
3427 Clouds 6 1000 70 10000 17.88 289 09:21 30.01.2022
3428 Clouds 6 999 74 10000 16.54 270 07:57 30.01.2022
3429 Clouds 6 998 75 10000 14.31 267 02:44 30.01.2022
3430 Clouds 6 999 75 10000 14.31 285 01:52 30.01.2022
3431 Clouds 6 999 78 10000 14.31 295 23:46 29.01.2022
3432 Clouds 7 998 78 10000 14.31 271 22:48 29.01.2022
3433 Rain 8 997 82 10000 16.99 283 21:28 29.01.2022
3434 Rain 9 996 89 10000 15.2 253 20:50 29.01.2022
3435 Rain 9 995 91 10000 12.07 260 19:51 29.01.2022
3436 Clouds 9 997 91 10000 14.31 246 19:30 29.01.2022
3437 Clouds 9 998 92 8000 13.41 257 18:43 29.01.2022
3438 Drizzle 9 999 89 10000 10.73 253 17:46 29.01.2022
3439 Drizzle 9 1000 90 10000 8.94 249 16:44 29.01.2022
3440 Clouds 8 1002 89 10000 9.83 260 15:25 29.01.2022
3441 Clouds 7 1003 93 10000 9.39 247 13:48 29.01.2022
3442 Drizzle 7 1004 95 10000 7.15 259 13:27 29.01.2022
3443 Drizzle 6 1005 95 9000 6.26 233 12:52 29.01.2022
3444 Drizzle 6 1006 95 10000 8.05 250 11:39 29.01.2022
3445 Clouds 4 1007 94 6000 8.94 240 10:32 29.01.2022
3446 Rain 4 1009 93 10000 7.6 218 08:19 29.01.2022
3447 Clouds 3 1017 81 10000 5.36 233 02:26 29.01.2022
3448 Clouds 3 1018 79 10000 4.47 209 00:32 29.01.2022
3449 Clear 3 1019 79 10000 3.58 262 23:31 28.01.2022
3450 Clear 4 1020 77 10000 4.02 280 22:47 28.01.2022
3451 Clear 4 1020 76 10000 5.36 274 22:19 28.01.2022
3452 Clear 4 1025 76 10000 4.47 287 20:41 28.01.2022
3453 Clear 4 1020 74 10000 3.58 304 19:57 28.01.2022
3454 Clear 4 1020 73 10000 5.36 304 18:52 28.01.2022
3455 Clear 5 1019 70 10000 4.92 294 17:53 28.01.2022
3456 Clouds 6 1017 68 10000 7.6 307 16:23 28.01.2022
3457 Clouds 7 1016 70 10000 8.05 298 14:54 28.01.2022
3458 Clouds 6 1015 68 10000 11.18 318 12:42 28.01.2022
3459 Clouds 6 1015 68 10000 8.49 305 11:50 28.01.2022
3460 Clouds 5 1019 70 10000 8.05 298 10:27 28.01.2022
3461 Clouds 5 1012 76 10000 10.28 297 09:47 28.01.2022
3462 Clouds 5 1009 76 10000 7.15 281 07:42 28.01.2022
3463 Clouds 5 1008 75 10000 11.62 299 06:29 28.01.2022
3464 Clouds 5 1005 78 10000 11.62 277 03:51 28.01.2022
3465 Clouds 5 1004 78 10000 13.86 290 02:27 28.01.2022
3466 Clouds 5 1003 80 10000 12.52 283 01:37 28.01.2022
3467 Clouds 5 1003 80 10000 12.52 283 01:37 28.01.2022
3468 Clouds 5 1003 81 10000 11.18 264 00:46 28.01.2022
3469 Clouds 5 1003 83 10000 10.73 280 22:20 27.01.2022
3470 Clouds 5 1003 84 10000 10.28 281 21:37 27.01.2022
3471 Clouds 6 1002 85 10000 12.07 260 20:59 27.01.2022
3472 Clouds 6 1002 85 10000 12.07 260 20:59 27.01.2022
3473 Clouds 6 1002 89 10000 9.39 261 19:45 27.01.2022
3474 Clouds 6 1003 91 10000 8.94 252 18:20 27.01.2022
3475 Clouds 6 1003 93 10000 7.6 236 16:55 27.01.2022
3476 Clouds 4 1004 94 5000 9.83 237 14:23 27.01.2022
3477 Drizzle 3 1012 93 2800 8.49 250 12:49 27.01.2022
3478 Drizzle 3 1012 93 2800 8.49 250 12:49 27.01.2022
3479 Drizzle 3 1012 93 2800 8.05 237 12:49 27.01.2022
3480 Drizzle 3 1006 92 3900 8.94 236 11:54 27.01.2022
3481 Clouds 4 1007 87 10000 8.94 242 09:48 27.01.2022
3482 Clouds 4 1008 88 10000 8.05 232 08:40 27.01.2022
3483 Clouds 4 1008 89 10000 8.94 232 07:53 27.01.2022
3484 Clouds 3 1012 92 10000 7.15 231 03:34 27.01.2022
3485 Clouds 3 1014 92 7000 7.6 257 00:24 27.01.2022
3486 Mist 3 1015 92 5000 7.15 259 22:28 26.01.2022
3487 Mist 3 1015 92 4500 6.26 261 21:44 26.01.2022
3488 Mist 2 1015 92 5000 6.26 257 20:52 26.01.2022
3489 Mist 2 1016 92 5000 5.81 262 20:32 26.01.2022
3490 Drizzle 2 1016 92 5000 6.26 249 19:49 26.01.2022
3491 Drizzle 2 1016 92 6000 7.15 243 18:48 26.01.2022
3492 Drizzle 2 1016 91 7000 6.26 257 18:24 26.01.2022
3493 Drizzle 2 1016 91 10000 5.81 259 17:34 26.01.2022
3494 Clouds 2 1017 91 10000 5.81 249 16:56 26.01.2022
3495 Drizzle 2 1017 91 10000 8.49 259 16:23 26.01.2022
3496 Drizzle 2 1018 93 10000 7.6 275 14:54 26.01.2022
3497 Drizzle 3 1019 92 10000 5.81 270 12:44 26.01.2022
3498 Drizzle 3 1019 91 10000 5.36 272 10:56 26.01.2022
3499 Drizzle 3 1019 91 8000 4.92 257 09:58 26.01.2022
3500 Drizzle 3 1019 91 8000 5.36 254 09:39 26.01.2022
3501 Clouds 3 1019 92 9000 5.36 261 07:28 26.01.2022
3502 Drizzle 4 1021 92 3000 4.92 266 00:26 26.01.2022
3503 Drizzle 4 1021 92 3200 5.36 279 23:43 25.01.2022
3504 Clouds 4 1021 92 10000 5.36 269 22:49 25.01.2022
3505 Clouds 4 1021 91 9000 4.47 267 22:19 25.01.2022
3506 Clouds 4 1021 92 8000 4.02 270 21:34 25.01.2022
3507 Drizzle 4 1021 92 4500 4.47 280 20:45 25.01.2022
3508 Drizzle 4 1022 92 4000 4.92 263 19:58 25.01.2022
3509 Drizzle 4 1022 92 4000 4.92 263 19:58 25.01.2022
3510 Drizzle 4 1021 92 4000 4.02 264 19:34 25.01.2022
3511 Drizzle 4 1022 91 5000 4.47 275 18:20 25.01.2022
3512 Drizzle 4 1021 92 5000 4.02 269 17:39 25.01.2022
3513 Drizzle 5 1020 92 5000 4.02 287 16:35 25.01.2022
3514 Drizzle 5 1021 92 6000 4.92 286 15:43 25.01.2022
3515 Drizzle 5 1021 92 7000 4.47 284 15:25 25.01.2022
3516 Drizzle 5 1021 91 9000 5.81 293 14:56 25.01.2022
3517 Drizzle 4 1022 91 6000 5.81 276 12:32 25.01.2022
3518 Clouds 4 1023 90 7000 4.02 260 09:58 25.01.2022
3519 Clouds 3 1022 92 8000 4.02 274 08:29 25.01.2022
3520 Clouds 3 1022 89 9000 3.13 264 07:28 25.01.2022
3521 Drizzle 3 1023 89 6000 3.58 296 05:55 25.01.2022
3522 Clouds 4 1024 94 8000 4.47 270 00:58 25.01.2022
3523 Drizzle 5 1024 94 4500 1.79 253 23:36 24.01.2022
3524 Drizzle 5 1024 94 4500 1.79 253 23:18 24.01.2022
3525 Drizzle 5 1024 94 4000 2.24 252 22:58 24.01.2022
3526 Mist 5 1024 94 4800 1.34 263 22:40 24.01.2022
3527 Drizzle 5 1023 94 3800 1.34 257 21:43 24.01.2022
3528 Drizzle 5 1024 91 3500 1.79 243 21:25 24.01.2022
3529 Clouds 5 1024 94 6000 1.79 259 20:28 24.01.2022
3530 Clouds 5 1024 95 8000 1.79 300 19:39 24.01.2022
3531 Clouds 5 1024 94 8000 2.24 298 18:50 24.01.2022
3532 Clouds 5 1024 95 7000 2.24 304 17:43 24.01.2022
3533 Clouds 5 1025 91 7000 3.58 291 17:23 24.01.2022
3534 Clouds 5 1025 90 10000 3.13 289 16:32 24.01.2022
3535 Clouds 5 1025 90 10000 3.58 308 15:52 24.01.2022
3536 Clouds 6 1025 89 10000 2.68 277 14:27 24.01.2022
3537 Clouds 6 1030 89 10000 4.02 261 12:36 24.01.2022
3538 Clouds 6 1030 89 10000 1.79 257 11:53 24.01.2022
3539 Clouds 6 1025 96 10000 2.68 280 10:24 24.01.2022
3540 Clouds 6 1026 95 8000 3.13 293 09:46 24.01.2022
3541 Mist 5 1025 93 5000 2.24 294 08:19 24.01.2022
3542 Drizzle 6 1025 95 1200 2.68 231 02:33 24.01.2022
3543 Drizzle 6 1025 95 2500 0.45 320 01:28 24.01.2022
3544 Drizzle 6 1025 95 2900 1.79 351 00:34 24.01.2022
3545 Mist 6 1025 95 2900 0.45 250 23:47 23.01.2022
3546 Mist 6 1025 95 2900 0.45 250 23:47 23.01.2022
3547 Drizzle 6 1025 95 6000 1.79 254 22:21 23.01.2022
3548 Drizzle 6 1025 95 8000 2.24 266 21:42 23.01.2022
3549 Clouds 6 1024 95 10000 1.34 262 21:24 23.01.2022
3550 Clouds 6 1024 95 10000 2.68 300 20:29 23.01.2022
3551 Drizzle 6 1024 94 10000 1.34 313 19:21 23.01.2022
3552 Clouds 6 1024 94 10000 2.68 324 18:44 23.01.2022
3553 Drizzle 6 1024 94 10000 2.24 314 17:28 23.01.2022
3554 Drizzle 6 1023 94 10000 2.24 313 16:38 23.01.2022
3555 Clouds 6 1023 94 10000 2.68 298 14:59 23.01.2022
3556 Drizzle 6 1023 94 10000 3.58 290 14:21 23.01.2022
3557 Drizzle 6 1023 95 10000 2.68 297 12:51 23.01.2022
3558 Drizzle 6 1023 95 8000 3.13 294 12:22 23.01.2022
3559 Drizzle 6 1023 95 9000 3.13 290 11:52 23.01.2022
3560 Drizzle 6 1023 95 8000 5.36 294 11:18 23.01.2022
3561 Clouds 6 1023 92 10000 3.58 290 10:27 23.01.2022
3562 Clouds 5 1023 95 10000 3.58 288 09:51 23.01.2022
3563 Drizzle 5 1023 92 6000 3.58 286 08:53 23.01.2022
3564 Clouds 5 1021 91 10000 4.92 286 05:56 23.01.2022
3565 Drizzle 4 1021 94 2700 2.24 266 01:52 23.01.2022
3566 Mist 4 1021 94 2000 2.24 261 01:26 23.01.2022
3567 Drizzle 4 1020 94 1500 0.89 244 00:23 23.01.2022
3568 Drizzle 4 1020 93 1300 1.79 178 23:56 22.01.2022
3569 Drizzle 3 1020 91 10000 1.34 210 22:46 22.01.2022
3570 Clouds 3 1020 89 10000 0.45 269 21:36 22.01.2022
3571 Clear 2 1027 89 10000 2.68 269 20:21 22.01.2022
3572 Clear 2 1026 87 10000 1.79 260 18:56 22.01.2022
3573 Clear 2 1026 86 10000 2.24 270 18:24 22.01.2022
3574 Clear 2 1026 86 10000 1.79 270 17:40 22.01.2022
3575 Clear 3 1027 81 10000 1.34 266 16:56 22.01.2022
3576 Clear 4 1019 80 10000 3.58 298 15:53 22.01.2022
3577 Clear 4 1019 79 10000 3.58 286 15:32 22.01.2022
3578 Clouds 4 1019 84 10000 2.24 314 13:51 22.01.2022
3579 Clouds 4 1019 85 10000 3.58 340 12:53 22.01.2022
3580 Clouds 4 1019 87 10000 3.58 333 12:29 22.01.2022
3581 Clouds 3 1019 89 10000 4.47 336 11:49 22.01.2022
3582 Clouds 3 1025 93 10000 1.79 316 10:31 22.01.2022
3583 Clouds 2 1017 95 10000 2.68 291 09:59 22.01.2022
3584 Clouds 2 1017 93 10000 2.68 321 08:53 22.01.2022
3585 Clouds 2 1016 93 10000 5.36 338 07:56 22.01.2022
3586 Clouds 3 1014 91 10000 6.26 332 04:53 22.01.2022
3587 Clouds 3 1012 92 9000 6.26 301 01:58 22.01.2022
3588 Mist 3 1012 92 4500 5.36 273 23:48 21.01.2022
3589 Clouds 2 1013 90 8000 4.47 265 22:41 21.01.2022
3590 Rain 2 1014 81 10000 5.81 265 20:45 21.01.2022
3591 Clear 1 1015 70 10000 4.47 286 18:41 21.01.2022
3592 Clouds 1 1015 66 10000 7.15 282 17:45 21.01.2022
3593 Clear 2 1014 67 10000 8.49 294 15:48 21.01.2022
3594 Clear 3 1014 66 10000 7.6 300 14:37 21.01.2022
3595 Clouds 2 1018 68 10000 4.02 300 12:42 21.01.2022
3596 Clear 0 1024 77 10000 6.71 304 11:29 21.01.2022
3597 Clear -1 1021 80 10000 6.71 286 10:27 21.01.2022
3598 Clear -3 1015 77 10000 4.92 262 08:50 21.01.2022
3599 Clear -3 1015 76 10000 5.81 275 07:37 21.01.2022
3600 Clouds -1 1013 73 10000 6.26 287 01:48 21.01.2022
3601 Clear -1 1012 84 10000 7.6 296 22:47 20.01.2022
3602 Clouds -1 1011 85 10000 5.81 283 21:48 20.01.2022
3603 Clouds -1 1011 85 2800 8.05 301 21:24 20.01.2022
3604 Clouds 0 1009 81 10000 5.36 310 19:46 20.01.2022
3605 Clouds 0 1008 78 10000 6.71 304 19:18 20.01.2022
3606 Clouds 0 1006 79 10000 5.81 300 17:36 20.01.2022
3607 Clouds 2 1006 69 10000 9.83 292 15:59 20.01.2022
3608 Clouds 3 1006 68 10000 8.94 281 15:29 20.01.2022
3609 Clouds 3 1005 69 10000 10.28 289 14:19 20.01.2022
3610 Clouds 3 1006 67 10000 10.28 294 12:48 20.01.2022
3611 Clouds 2 1006 72 10000 10.73 297 12:27 20.01.2022
3612 Clouds 2 1006 70 10000 9.39 282 10:59 20.01.2022
3613 Clouds 1 1005 73 10000 8.94 284 09:50 20.01.2022
3614 Clouds 1 1004 78 10000 10.73 305 08:45 20.01.2022
3615 Clouds 1 1002 89 10000 9.83 288 06:57 20.01.2022
3616 Rain 4 1002 92 10000 7.15 259 00:40 20.01.2022
3617 Clouds 4 1003 88 10000 8.49 257 22:38 19.01.2022
3618 Clouds 4 1004 86 10000 7.6 231 21:34 19.01.2022
3619 Clouds 4 1004 84 10000 8.05 242 20:58 19.01.2022
3620 Clouds 4 1004 84 10000 6.26 243 20:40 19.01.2022
3621 Clouds 4 1006 85 10000 4.02 255 18:59 19.01.2022
3622 Clouds 4 1007 87 10000 3.58 240 17:51 19.01.2022
3623 Clouds 4 1008 87 10000 4.92 232 17:18 19.01.2022
3624 Clouds 4 1008 87 10000 4.92 232 17:18 19.01.2022
3625 Clouds 4 1008 87 10000 4.92 232 17:18 19.01.2022
3626 Clouds 3 1009 88 10000 4.92 226 15:35 19.01.2022
3627 Clouds 4 1012 87 10000 5.81 207 13:26 19.01.2022
3628 Clouds 4 1021 86 10000 8.05 222 11:59 19.01.2022
3629 Clouds 4 1021 83 10000 7.15 224 11:38 19.01.2022
3630 Clear 4 1016 86 10000 3.13 196 09:49 19.01.2022
3631 Clear 3 1021 87 10000 3.58 193 09:22 19.01.2022
3632 Clouds 4 1024 84 10000 3.13 212 06:34 19.01.2022
3633 Clouds 5 1015 89 10000 3.13 255 00:33 19.01.2022
3634 Clouds 5 1025 86 10000 2.68 223 23:18 18.01.2022
3635 Clouds 5 1025 87 10000 3.13 227 21:55 18.01.2022
3636 Clouds 5 1026 90 10000 3.13 231 20:44 18.01.2022
3637 Clouds 5 1026 86 10000 4.47 238 19:52 18.01.2022
3638 Clouds 5 1026 86 10000 3.13 233 19:33 18.01.2022
3639 Clouds 5 1026 85 10000 2.68 231 18:36 18.01.2022
3640 Clouds 5 1026 84 10000 2.68 261 17:48 18.01.2022
3641 Clouds 5 1026 82 10000 3.58 280 16:33 18.01.2022
3642 Clouds 5 1027 80 10000 2.24 260 15:26 18.01.2022
3643 Clouds 6 1026 83 10000 3.58 272 14:54 18.01.2022
3644 Clouds 5 1027 83 10000 3.58 276 11:52 18.01.2022
3645 Clouds 3 1026 90 10000 3.13 256 10:41 18.01.2022
3646 Clouds 1 1024 88 10000 4.02 242 08:49 18.01.2022
3647 Clouds 0 1023 88 10000 2.68 249 07:46 18.01.2022
3648 Clear 0 1023 87 10000 4.02 270 02:31 18.01.2022
3649 Clear 1 1022 84 10000 5.36 253 23:22 17.01.2022
3650 Clear 1 1021 83 10000 4.02 307 22:19 17.01.2022
3651 Clear 2 1020 82 10000 4.92 305 21:32 17.01.2022
3652 Clear 2 1024 81 10000 4.02 281 19:56 17.01.2022
3653 Clear 3 1017 81 10000 4.47 277 18:29 17.01.2022
3654 Clear 3 1016 80 10000 6.26 323 17:24 17.01.2022
3655 Clouds 4 1014 78 10000 5.81 318 16:35 17.01.2022
3656 Clouds 4 1012 77 10000 6.71 312 14:59 17.01.2022
3657 Clouds 4 1012 78 10000 6.71 320 14:33 17.01.2022
3658 Clouds 4 1011 83 10000 10.73 2 13:20 17.01.2022
3659 Clouds 4 1010 85 10000 8.94 330 12:55 17.01.2022
3660 Clouds 5 1009 89 4500 13.41 328 11:48 17.01.2022
3661 Rain 6 1006 92 10000 13.86 264 10:21 17.01.2022
3662 Clouds 6 1006 90 10000 13.41 274 09:33 17.01.2022
3663 Clouds 6 1007 83 10000 13.41 264 07:23 17.01.2022
3664 Clouds 6 1009 89 10000 8.94 264 02:55 17.01.2022
3665 Clouds 5 1010 92 10000 8.05 268 00:55 17.01.2022
3666 Clouds 5 1010 91 8000 9.83 267 22:18 16.01.2022
3667 Drizzle 5 1010 92 10000 7.15 251 20:34 16.01.2022
3668 Clouds 4 1010 92 10000 6.71 256 18:51 16.01.2022
3669 Clouds 3 1010 90 7000 4.92 249 17:59 16.01.2022
3670 Drizzle 3 1010 93 7000 4.92 257 16:59 16.01.2022
3671 Clouds 3 1010 92 7000 5.81 250 16:31 16.01.2022
3672 Drizzle 2 1009 93 6000 6.26 248 14:31 16.01.2022
3673 Clouds 2 1010 92 10000 4.92 267 13:45 16.01.2022
3674 Clouds 2 1008 90 8000 0.45 293 12:44 16.01.2022
3675 Mist 1 1010 90 5000 4.47 217 11:40 16.01.2022
3676 Mist 1 1010 89 5000 4.47 226 10:53 16.01.2022
3677 Clouds 0 1010 88 9000 4.47 225 09:59 16.01.2022
3678 Clear 0 1011 89 10000 4.02 233 09:40 16.01.2022
3679 Clear -1 1010 89 10000 2.24 219 09:22 16.01.2022
3680 Clear 0 1011 88 10000 2.68 172 07:30 16.01.2022
3681 Clouds 2 1023 85 10000 1.79 222 00:38 16.01.2022
3682 Clouds 2 1017 81 10000 1.79 231 23:40 15.01.2022
3683 Clouds 2 1017 81 10000 3.13 253 21:23 15.01.2022
3684 Clouds 3 1023 81 10000 3.58 248 20:56 15.01.2022
3685 Clouds 3 1024 82 10000 3.13 254 20:38 15.01.2022
3686 Clouds 3 1017 87 10000 2.68 252 19:28 15.01.2022
3687 Clouds 3 1018 88 10000 1.79 259 18:37 15.01.2022
3688 Clouds 3 1019 88 10000 0.89 347 16:57 15.01.2022
3689 Clouds 3 1019 91 10000 2.24 335 15:42 15.01.2022
3690 Clouds 3 1020 90 10000 3.13 286 13:39 15.01.2022
3691 Clouds 2 1021 90 10000 2.68 295 11:46 15.01.2022
3692 Clouds 1 1020 95 7000 3.58 300 10:25 15.01.2022
3693 Fog 1 1020 91 300 3.13 265 06:40 15.01.2022
3694 Clouds 3 1021 86 10000 3.58 306 23:50 14.01.2022
3695 Clouds 5 1020 86 10000 3.58 331 21:41 14.01.2022
3696 Clouds 6 1020 83 10000 4.02 310 20:37 14.01.2022
3697 Clouds 6 1020 86 10000 4.02 304 19:58 14.01.2022
3698 Clouds 6 1019 90 10000 6.26 276 18:48 14.01.2022
3699 Drizzle 6 1019 91 10000 6.71 282 17:57 14.01.2022
3700 Drizzle 6 1019 92 4500 6.71 284 16:48 14.01.2022
3701 Drizzle 6 1019 91 6000 8.49 270 15:34 14.01.2022
3702 Clouds 6 1018 93 10000 6.71 278 14:38 14.01.2022
3703 Clouds 6 1018 91 10000 9.39 266 13:34 14.01.2022
3704 Clouds 6 1019 89 10000 8.05 266 12:24 14.01.2022
3705 Drizzle 5 1018 93 5000 8.05 270 10:50 14.01.2022
3706 Clouds 5 1019 93 8000 8.05 276 08:54 14.01.2022
3707 Mist 5 1019 94 4500 9.83 255 08:20 14.01.2022
3708 Clouds 5 1020 91 10000 5.36 261 03:55 14.01.2022
3709 Clouds 5 1022 86 10000 7.15 260 00:50 14.01.2022
3710 Clouds 5 1022 90 10000 8.05 266 22:35 13.01.2022
3711 Clouds 5 1023 87 10000 5.36 263 21:31 13.01.2022
3712 Clouds 5 1023 89 10000 6.71 271 20:56 13.01.2022
3713 Clouds 5 1024 88 10000 7.6 289 19:32 13.01.2022
3714 Clouds 5 1024 88 10000 7.6 289 18:57 13.01.2022
3715 Clouds 5 1024 90 10000 7.6 288 17:25 13.01.2022
3716 Clouds 5 1024 91 10000 7.6 277 16:19 13.01.2022
3717 Clouds 5 1024 89 10000 6.71 282 15:35 13.01.2022
3718 Clouds 5 1024 93 10000 5.81 261 13:48 13.01.2022
3719 Clouds 4 1025 95 8000 8.94 270 12:25 13.01.2022
3720 Mist 4 1025 96 3200 6.26 260 09:38 13.01.2022
3721 Mist 3 1025 93 2500 4.92 250 08:57 13.01.2022
3722 Mist 3 1025 96 3600 5.81 267 08:26 13.01.2022
3723 Clouds 3 1024 95 6000 5.36 266 07:22 13.01.2022
3724 Clouds 3 1024 94 9000 5.36 267 05:59 13.01.2022
3725 Clouds 4 1025 91 9000 6.26 279 05:19 13.01.2022
3726 Clouds 4 1026 93 10000 4.47 249 01:53 13.01.2022
3727 Clouds 3 1027 93 10000 4.47 235 00:49 13.01.2022
3728 Clouds 3 1025 89 10000 4.02 259 23:46 12.01.2022
3729 Clouds 3 1026 88 10000 4.02 261 22:59 12.01.2022
3730 Clouds 3 1025 89 10000 4.02 240 21:57 12.01.2022
3731 Clouds 3 1025 89 10000 4.02 240 21:57 12.01.2022
3732 Clouds 3 1026 90 10000 3.58 236 21:22 12.01.2022
3733 Clouds 3 1026 90 10000 3.58 278 20:56 12.01.2022
3734 Clouds 3 1026 90 10000 3.58 278 20:56 12.01.2022
3735 Clouds 3 1028 90 10000 2.68 253 19:43 12.01.2022
3736 Clouds 3 1027 90 8000 6.71 308 18:30 12.01.2022
3737 Drizzle 3 1027 93 900 2.24 260 17:20 12.01.2022
3738 Drizzle 3 1027 93 2000 3.58 280 16:32 12.01.2022
3739 Clouds 3 1027 91 10000 3.58 272 14:48 12.01.2022
3740 Clouds 3 1027 89 10000 4.02 264 13:19 12.01.2022
3741 Mist 1 1027 90 5000 2.68 230 10:56 12.01.2022
3742 Mist -1 1026 94 3000 3.13 200 08:43 12.01.2022
3743 Mist -1 1026 94 2700 2.68 205 07:50 12.01.2022
3744 Mist -1 1027 92 2700 2.24 190 07:31 12.01.2022
3745 Clouds -2 1026 90 10000 2.24 168 23:53 11.01.2022
3746 Clouds -2 1028 90 6000 2.68 220 22:56 11.01.2022
3747 Clouds -2 1028 90 6000 3.58 243 22:23 11.01.2022
3748 Clouds -2 1028 89 8000 1.34 205 21:25 11.01.2022
3749 Clear -2 1027 89 9000 2.24 189 20:21 11.01.2022
3750 Clear -2 1027 87 9000 1.79 232 18:43 11.01.2022
3751 Clear -2 1027 86 10000 3.13 248 17:35 11.01.2022
3752 Clear -1 1026 85 10000 3.13 229 16:38 11.01.2022
3753 Clear -1 1026 84 10000 2.68 236 15:56 11.01.2022
3754 Clouds 0 1026 84 10000 2.24 221 14:43 11.01.2022
3755 Clouds 0 1026 84 10000 2.24 235 14:43 11.01.2022
3756 Clouds 0 1027 86 10000 2.68 195 13:58 11.01.2022
3757 Clear -1 1027 86 10000 2.24 199 13:39 11.01.2022
3758 Clear -1 1027 87 10000 2.68 196 13:21 11.01.2022
3759 Clouds -1 1027 85 10000 2.24 176 12:22 11.01.2022
3760 Clouds -2 1027 88 10000 3.13 160 10:24 11.01.2022
3761 Clouds -2 1026 88 8000 3.58 110 07:35 11.01.2022
3762 Mist -2 1023 87 5000 3.58 107 01:47 11.01.2022
3763 Clouds -1 1022 86 6000 2.68 89 00:22 11.01.2022
3764 Clouds 0 1022 85 6000 2.68 81 23:37 10.01.2022
3765 Clouds 0 1021 85 6000 2.68 78 22:19 10.01.2022
3766 Clouds 0 1021 85 6000 1.79 67 21:55 10.01.2022
3767 Clouds 0 1021 85 6000 2.68 64 21:32 10.01.2022
3768 Clouds 1 1020 86 6000 1.34 81 20:58 10.01.2022
3769 Clouds 1 1020 86 6000 2.68 79 20:29 10.01.2022
3770 Clouds 1 1019 87 6000 2.68 78 19:48 10.01.2022
3771 Mist 2 1019 88 5000 4.02 69 19:23 10.01.2022
3772 Mist 2 1018 89 5000 1.34 68 18:55 10.01.2022
3773 Mist 2 1018 88 5000 1.79 78 18:37 10.01.2022
3774 Mist 4 1016 90 3300 2.24 75 16:48 10.01.2022
3775 Drizzle 4 1015 90 2800 3.13 60 16:20 10.01.2022
3776 Clouds 5 1013 92 6000 0.89 80 14:42 10.01.2022
3777 Clouds 5 1011 94 10000 1.79 296 12:50 10.01.2022
3778 Clouds 5 1010 94 10000 0.89 317 11:55 10.01.2022
3779 Clouds 4 1009 95 10000 2.24 305 10:48 10.01.2022
3780 Clouds 4 1008 92 10000 3.13 299 09:33 10.01.2022
3781 Clouds 4 1003 91 10000 2.68 271 05:51 10.01.2022
3782 Clouds 4 1000 90 10000 1.79 257 02:30 10.01.2022
3783 Clouds 4 998 95 10000 1.34 224 01:20 10.01.2022
3784 Clouds 4 997 95 10000 2.24 253 00:19 10.01.2022
3785 Drizzle 3 995 91 7000 2.24 212 22:47 09.01.2022
3786 Drizzle 3 995 93 5000 2.68 200 22:18 09.01.2022
3787 Drizzle 3 994 93 6000 3.58 214 21:41 09.01.2022
3788 Drizzle 3 994 92 6000 3.58 214 21:41 09.01.2022
3789 Drizzle 3 994 92 10000 3.58 235 21:22 09.01.2022
3790 Drizzle 3 994 91 10000 3.58 235 21:22 09.01.2022
3791 Drizzle 3 991 91 10000 0.45 158 20:46 09.01.2022
3792 Drizzle 3 990 90 9000 0.89 190 20:28 09.01.2022
3793 Clouds 3 992 86 10000 3.13 203 19:39 09.01.2022
3794 Clouds 3 992 85 10000 3.58 207 19:20 09.01.2022
3795 Clouds 3 991 83 10000 3.13 180 18:41 09.01.2022
3796 Clouds 3 991 83 10000 2.68 162 18:23 09.01.2022
3797 Clouds 3 990 80 10000 3.13 121 17:30 09.01.2022
3798 Clouds 3 990 80 10000 3.13 137 16:50 09.01.2022
3799 Clouds 3 989 79 10000 3.13 131 15:51 09.01.2022
3800 Clouds 3 989 78 10000 3.58 145 15:32 09.01.2022
3801 Clouds 3 988 77 10000 4.02 140 14:39 09.01.2022
3802 Clouds 3 988 76 10000 4.47 156 13:49 09.01.2022
3803 Clouds 2 987 79 10000 4.02 145 12:26 09.01.2022
3804 Clouds 2 987 79 10000 5.81 143 11:46 09.01.2022
3805 Clouds 1 986 81 10000 5.81 142 09:55 09.01.2022
3806 Clouds 0 986 82 10000 5.81 129 09:29 09.01.2022
3807 Clouds 0 986 83 10000 5.36 143 08:25 09.01.2022
3808 Clear 0 990 87 10000 4.47 141 01:43 09.01.2022
3809 Clear 0 990 87 10000 5.36 152 01:19 09.01.2022
3810 Clear 0 990 89 10000 2.68 135 23:38 08.01.2022
3811 Clear 1 994 86 10000 4.92 159 22:59 08.01.2022
3812 Clear 1 995 89 10000 5.36 166 21:33 08.01.2022
3813 Clear 2 996 88 10000 4.47 166 20:45 08.01.2022
3814 Clouds 2 996 85 10000 4.02 163 20:23 08.01.2022
3815 Clouds 2 997 85 10000 4.02 189 19:58 08.01.2022
3816 Clouds 2 999 87 10000 1.79 210 17:51 08.01.2022
3817 Clouds 2 999 88 10000 4.47 225 17:21 08.01.2022
3818 Clouds 3 1000 87 10000 3.13 212 15:47 08.01.2022
3819 Clouds 3 999 87 10000 3.13 224 14:41 08.01.2022
3820 Clouds 2 1000 92 10000 3.13 247 12:44 08.01.2022
3821 Clouds 1 1001 91 10000 2.68 196 10:59 08.01.2022
3822 Clouds 1 1001 90 10000 3.58 212 10:25 08.01.2022
3823 Clouds 1 1001 91 10000 1.79 195 09:47 08.01.2022
3824 Clouds 1 1000 91 10000 4.47 229 07:19 08.01.2022
3825 Rain 1 1001 94 10000 4.47 193 02:39 08.01.2022
3826 Clear 1 1001 92 10000 4.92 190 00:41 08.01.2022
3827 Clouds 2 1001 93 10000 4.02 195 22:47 07.01.2022
3828 Clouds 2 1002 93 10000 4.92 208 20:56 07.01.2022
3829 Rain 2 1002 93 10000 5.81 213 19:56 07.01.2022
3830 Snow 2 1002 92 9000 4.92 211 19:18 07.01.2022
3831 Drizzle 2 1002 92 10000 5.81 215 18:44 07.01.2022
3832 Clouds 2 1002 93 10000 4.47 199 17:26 07.01.2022
3833 Drizzle 2 1003 91 10000 5.81 213 16:30 07.01.2022
3834 Snow 3 1003 84 10000 9.39 224 13:54 07.01.2022
3835 Clouds 3 1003 82 10000 6.71 215 13:22 07.01.2022
3836 Clouds 3 1004 81 10000 5.81 205 12:49 07.01.2022
3837 Clear 0 1005 87 10000 6.71 186 09:37 07.01.2022
3838 Clear -1 1009 87 10000 2.24 180 02:56 07.01.2022
3839 Clear -1 1009 88 10000 2.68 217 01:54 07.01.2022
3840 Clear -1 1009 88 10000 3.13 207 01:28 07.01.2022
3841 Clear -1 1010 88 10000 3.13 203 00:59 07.01.2022
3842 Clear -1 1010 87 10000 2.24 193 23:53 06.01.2022
3843 Clear -1 1010 86 10000 3.58 216 21:34 06.01.2022
3844 Clouds 0 1010 83 10000 4.02 220 20:22 06.01.2022
3845 Clouds 0 1010 79 10000 3.58 212 19:45 06.01.2022
3846 Clear 0 1009 83 10000 3.13 203 18:34 06.01.2022
3847 Clear 0 1009 79 10000 1.79 238 17:41 06.01.2022
3848 Clear 1 1008 76 10000 1.79 266 16:57 06.01.2022
3849 Clear 2 1007 68 10000 4.02 280 15:49 06.01.2022
3850 Clear 3 1007 67 10000 5.81 293 15:27 06.01.2022
3851 Clear 3 1007 64 10000 4.47 301 14:55 06.01.2022
3852 Clear 3 1007 66 10000 6.26 292 14:19 06.01.2022
3853 Clouds 3 1006 73 10000 6.26 310 12:58 06.01.2022
3854 Clouds 2 1013 81 10000 6.71 291 11:50 06.01.2022
3855 Clouds 2 1012 81 10000 7.6 297 11:28 06.01.2022
3856 Clouds 0 1003 84 10000 5.81 270 08:59 06.01.2022
3857 Rain 4 994 84 10000 7.15 296 01:52 06.01.2022
3858 Clouds 4 993 83 10000 7.15 282 23:54 05.01.2022
3859 Clouds 4 992 84 10000 8.05 274 23:19 05.01.2022
3860 Clouds 4 991 87 10000 8.94 263 22:40 05.01.2022
3861 Clouds 4 991 88 10000 7.6 277 21:54 05.01.2022
3862 Clouds 4 990 89 10000 7.6 271 21:22 05.01.2022
3863 Rain 4 989 89 10000 8.49 243 20:21 05.01.2022
3864 Clouds 4 989 91 10000 8.94 238 19:27 05.01.2022
3865 Clouds 3 988 92 10000 8.49 237 17:50 05.01.2022
3866 Clouds 3 988 88 10000 11.18 226 16:56 05.01.2022
3867 Clouds 3 995 85 10000 11.62 221 15:46 05.01.2022
3868 Clouds 4 995 76 10000 9.39 235 14:50 05.01.2022
3869 Clouds 5 995 76 10000 10.73 245 13:33 05.01.2022
3870 Clouds 4 988 78 10000 8.94 230 11:59 05.01.2022
3871 Clear 3 987 88 10000 4.47 240 08:21 05.01.2022
3872 Clouds 3 987 87 10000 3.58 232 06:37 05.01.2022
3873 Clouds 3 986 88 10000 3.58 232 06:37 05.01.2022
3874 Clouds 4 986 88 10000 3.58 270 01:20 05.01.2022
3875 Clouds 5 986 87 10000 5.36 290 23:42 04.01.2022
3876 Clouds 5 986 88 10000 3.58 264 23:19 04.01.2022
3877 Clouds 6 985 89 10000 4.47 279 21:36 04.01.2022
3878 Clouds 6 984 88 10000 5.36 272 20:41 04.01.2022
3879 Clouds 7 983 93 10000 4.92 247 18:35 04.01.2022
3880 Clouds 6 991 91 10000 3.58 222 17:19 04.01.2022
3881 Clouds 7 983 92 10000 3.13 245 16:31 04.01.2022
3882 Clouds 7 983 92 10000 3.58 246 15:20 04.01.2022
3883 Rain 7 991 90 10000 2.68 222 14:37 04.01.2022
3884 Clouds 7 984 91 10000 1.79 220 13:55 04.01.2022
3885 Rain 7 985 91 10000 2.24 180 12:20 04.01.2022
3886 Clouds 7 986 90 10000 3.58 184 10:21 04.01.2022
3887 Clouds 6 987 91 10000 3.58 200 08:57 04.01.2022
3888 Clear 6 989 90 10000 3.13 182 06:28 04.01.2022
3889 Clouds 7 993 90 10000 4.02 195 00:43 04.01.2022
3890 Clouds 7 994 85 10000 5.36 235 23:54 03.01.2022
3891 Clouds 7 994 86 10000 5.36 226 22:22 03.01.2022
3892 Clouds 7 994 88 10000 5.36 226 21:39 03.01.2022
3893 Clouds 8 995 86 10000 6.26 215 20:41 03.01.2022
3894 Clear 8 996 82 10000 5.36 227 19:38 03.01.2022
3895 Clouds 9 996 80 10000 5.81 230 18:31 03.01.2022
3896 Clouds 9 996 79 10000 6.71 234 17:23 03.01.2022
3897 Clouds 10 996 78 10000 5.81 232 16:53 03.01.2022
3898 Clouds 10 998 80 10000 7.15 243 14:32 03.01.2022
3899 Clouds 10 998 83 10000 7.6 259 13:25 03.01.2022
3900 Clouds 10 999 86 10000 6.71 247 12:22 03.01.2022
3901 Clouds 9 999 89 10000 10.28 258 11:22 03.01.2022
3902 Clouds 8 999 89 8000 6.71 271 09:29 03.01.2022
3903 Clouds 8 997 90 10000 7.15 275 07:55 03.01.2022
3904 Clouds 9 994 91 10000 8.05 250 05:21 03.01.2022
3905 Clouds 10 999 83 10000 8.05 249 23:44 02.01.2022
3906 Clouds 10 997 85 10000 8.05 226 22:57 02.01.2022
3907 Clouds 11 999 84 10000 5.81 236 22:22 02.01.2022
3908 Clouds 11 999 81 10000 7.15 229 21:26 02.01.2022
3909 Clouds 11 996 85 10000 9.83 247 20:30 02.01.2022
3910 Clouds 11 996 85 10000 9.83 247 20:30 02.01.2022
3911 Clear 11 998 85 10000 8.94 238 19:49 02.01.2022
3912 Clouds 11 998 86 10000 8.94 237 19:25 02.01.2022
3913 Clouds 11 998 90 10000 8.05 248 18:31 02.01.2022
3914 Clouds 10 999 91 10000 7.15 235 17:43 02.01.2022
3915 Clouds 10 999 92 10000 6.71 237 17:21 02.01.2022
3916 Clouds 10 999 92 10000 6.71 227 16:33 02.01.2022
3917 Rain 10 999 93 10000 7.15 208 15:49 02.01.2022
3918 Rain 10 999 93 10000 7.15 208 15:49 02.01.2022
3919 Clouds 10 1001 93 10000 7.6 208 13:58 02.01.2022
3920 Clouds 10 1003 92 10000 4.47 216 12:34 02.01.2022
3921 Rain 11 1003 91 10000 6.26 214 11:56 02.01.2022
3922 Rain 10 1005 91 10000 5.36 214 10:59 02.01.2022
3923 Clouds 10 1005 91 10000 5.36 211 10:26 02.01.2022
3924 Clear 8 1006 90 10000 4.02 200 08:22 02.01.2022
3925 Clear 9 1010 88 10000 4.47 188 02:58 02.01.2022
3926 Clouds 11 1012 90 10000 4.02 184 23:56 01.01.2022
3927 Clouds 11 1012 89 10000 4.02 193 23:36 01.01.2022
3928 Clouds 11 1013 87 10000 5.36 205 22:44 01.01.2022
3929 Clouds 11 1013 87 10000 5.36 198 22:18 01.01.2022
3930 Clouds 11 1013 90 10000 3.58 217 21:43 01.01.2022
3931 Clouds 11 1012 88 10000 3.58 189 20:51 01.01.2022
3932 Clouds 11 1014 88 10000 4.02 216 19:55 01.01.2022
3933 Clouds 12 1014 87 10000 3.58 234 18:58 01.01.2022
3934 Clouds 12 1012 88 10000 4.02 220 17:56 01.01.2022
3935 Clouds 12 1014 91 10000 4.47 233 16:35 01.01.2022
3936 Clouds 12 1014 88 10000 3.58 267 15:57 01.01.2022
3937 Clouds 12 1014 87 10000 4.47 269 14:57 01.01.2022
3938 Clouds 13 1014 87 10000 6.26 273 13:42 01.01.2022
3939 Clouds 12 1014 90 10000 5.81 286 12:49 01.01.2022
3940 Clouds 12 1014 89 10000 8.05 264 11:47 01.01.2022
3941 Clouds 12 1014 88 10000 7.15 274 11:20 01.01.2022
3942 Clouds 12 1012 92 10000 7.15 260 09:49 01.01.2022
3943 Clouds 12 1012 90 10000 6.71 264 09:21 01.01.2022
3944 Clouds 12 1012 90 10000 7.15 270 08:25 01.01.2022
3945 Clouds 12 1011 90 10000 6.26 264 07:43 01.01.2022
3946 Clouds 12 1011 90 10000 6.26 265 06:46 01.01.2022
3947 Clouds 12 1010 91 10000 6.26 278 05:26 01.01.2022
3948 Clouds 12 1010 92 10000 6.71 263 04:37 01.01.2022
3949 Clouds 12 1006 94 10000 7.6 265 01:28 01.01.2022
3950 Drizzle 12 1004 94 9000 8.05 251 23:35 31.12.2021
3951 Clouds 12 1005 92 10000 8.94 285 21:53 31.12.2021
3952 Drizzle 12 1003 92 10000 8.05 278 20:37 31.12.2021
3953 Clouds 12 1001 94 10000 5.81 242 19:30 31.12.2021
3954 Rain 12 1013 87 10000 5.66 240 18:35 31.12.2021
3955 Rain 13 1001 86 10000 5.81 234 17:38 31.12.2021
3956 Rain 13 1001 84 10000 5.36 224 17:18 31.12.2021
3957 Clear 13 1002 82 10000 8.49 238 16:25 31.12.2021
3958 Clouds 13 1002 83 10000 7.15 245 15:57 31.12.2021
3959 Clouds 13 1002 83 10000 7.15 245 15:28 31.12.2021
3960 Clouds 13 1002 84 10000 7.6 231 14:56 31.12.2021
3961 Clouds 13 1002 85 10000 8.05 238 14:30 31.12.2021
3962 Clouds 13 1001 87 10000 7.6 239 13:36 31.12.2021
3963 Clouds 13 1002 87 10000 8.94 231 12:45 31.12.2021
3964 Clouds 13 1002 88 10000 5.81 242 11:51 31.12.2021
3965 Clouds 13 1002 88 10000 7.6 243 11:30 31.12.2021
3966 Clouds 13 1002 89 10000 7.15 243 10:38 31.12.2021
3967 Clouds 13 1002 90 10000 6.71 239 10:20 31.12.2021
3968 Clouds 13 1002 91 10000 7.15 247 09:33 31.12.2021
3969 Clouds 12 1002 91 10000 7.15 232 08:43 31.12.2021
3970 Clouds 12 1002 91 10000 6.26 241 07:31 31.12.2021
3971 Clouds 12 1004 93 10000 6.26 255 23:32 30.12.2021
3972 Clouds 12 1003 93 10000 6.71 265 22:38 30.12.2021
3973 Clouds 12 1003 93 10000 6.26 254 22:20 30.12.2021
3974 Clouds 12 1003 93 10000 7.15 262 21:37 30.12.2021
3975 Clouds 12 1003 93 10000 7.15 262 21:37 30.12.2021
3976 Clouds 12 1001 96 10000 6.71 261 20:48 30.12.2021
3977 Clouds 12 1002 93 10000 6.71 254 20:28 30.12.2021
3978 Clouds 12 1002 94 10000 7.6 255 19:48 30.12.2021
3979 Clouds 12 1001 96 4500 6.26 263 18:51 30.12.2021
3980 Drizzle 11 1002 94 8000 5.81 245 18:20 30.12.2021
3981 Drizzle 10 1000 97 3000 5.81 224 16:34 30.12.2021
3982 Drizzle 10 1001 93 3500 4.47 231 15:52 30.12.2021
3983 Drizzle 9 1001 94 3500 5.36 225 14:49 30.12.2021
3984 Drizzle 9 1001 95 4500 6.26 220 14:30 30.12.2021
3985 Rain 9 1001 95 10000 4.92 228 13:24 30.12.2021
3986 Clouds 8 1001 94 7000 3.13 194 11:35 30.12.2021
3987 Mist 8 1002 93 5000 4.02 227 10:27 30.12.2021
3988 Clouds 7 1001 93 6000 4.02 243 09:27 30.12.2021
3989 Mist 7 1000 94 5000 4.92 259 06:56 30.12.2021
3990 Drizzle 6 998 93 3500 3.58 234 04:56 30.12.2021
3991 Clouds 5 997 94 6000 3.13 180 03:40 30.12.2021
3992 Mist 5 997 94 5000 3.13 176 02:19 30.12.2021
3993 Mist 4 997 94 1400 1.79 128 23:37 29.12.2021
3994 Fog 4 996 97 600 1.79 162 22:35 29.12.2021
3995 Fog 4 996 97 200 1.79 198 21:55 29.12.2021
3996 Drizzle 4 997 94 300 1.79 163 20:57 29.12.2021
3997 Drizzle 4 996 97 900 1.79 209 20:26 29.12.2021
3998 Drizzle 5 997 93 3000 2.68 241 19:31 29.12.2021
3999 Mist 5 996 97 2300 0.89 236 18:36 29.12.2021
4000 Drizzle 5 995 97 2700 2.68 252 17:42 29.12.2021
4001 Drizzle 5 996 94 3500 1.79 265 17:23 29.12.2021
4002 Mist 5 995 97 4500 4.47 271 16:21 29.12.2021
4003 Drizzle 5 994 93 3500 3.13 248 15:21 29.12.2021
4004 Clouds 5 992 94 6000 3.13 225 12:57 29.12.2021
4005 Clouds 5 992 93 6000 3.13 227 12:34 29.12.2021
4006 Clouds 5 992 96 7000 2.24 211 11:23 29.12.2021
4007 Clouds 4 993 93 8000 3.13 230 09:35 29.12.2021
4008 Clouds 3 992 92 7000 2.24 237 07:45 29.12.2021
4009 Fog 3 991 92 3500 2.68 248 06:34 29.12.2021
4010 Fog 3 990 92 3500 2.24 197 05:57 29.12.2021
4011 Mist 2 990 91 5000 0.45 215 05:27 29.12.2021
4012 Mist 2 988 91 5000 1.34 109 01:27 29.12.2021
4013 Clouds 2 987 91 8000 2.68 140 23:59 28.12.2021
4014 Rain 2 987 91 9000 2.24 117 23:18 28.12.2021
4015 Rain 2 987 90 10000 3.58 127 22:26 28.12.2021
4016 Clouds 2 986 89 9000 3.58 131 21:56 28.12.2021
4017 Clouds 2 986 88 10000 3.58 134 21:35 28.12.2021
4018 Clouds 2 986 86 10000 4.47 126 20:33 28.12.2021
4019 Clouds 2 986 88 10000 5.36 126 18:59 28.12.2021
4020 Clouds 2 987 85 10000 5.81 129 18:29 28.12.2021
4021 Clouds 2 987 88 10000 6.26 124 17:48 28.12.2021
4022 Clear 1 988 85 10000 4.92 119 16:29 28.12.2021
4023 Clear 1 988 84 10000 4.92 113 15:45 28.12.2021
4024 Clear 1 988 87 10000 4.92 120 15:19 28.12.2021
4025 Clear 1 989 84 10000 3.58 118 14:45 28.12.2021
4026 Clouds 1 989 87 10000 4.92 129 14:20 28.12.2021
4027 Clouds 1 990 86 10000 4.47 125 13:42 28.12.2021
4028 Clouds 0 990 84 10000 5.36 104 13:24 28.12.2021
4029 Clouds 0 991 85 10000 4.92 118 12:39 28.12.2021
4030 Clouds -1 992 86 6000 5.36 136 11:33 28.12.2021
4031 Clouds -3 992 85 8000 5.36 111 07:41 28.12.2021
4032 Clouds -3 991 85 8000 4.02 119 06:41 28.12.2021
4033 Clouds -2 996 82 10000 4.47 101 23:43 27.12.2021
4034 Clouds -2 997 81 10000 4.47 112 22:59 27.12.2021
4035 Clouds -2 997 80 10000 5.36 124 21:38 27.12.2021
4036 Clouds -2 997 80 10000 3.58 114 20:57 27.12.2021
4037 Clouds -2 998 79 10000 5.36 110 19:58 27.12.2021
4038 Clouds -1 997 79 10000 5.36 91 19:39 27.12.2021
4039 Clouds -2 997 79 10000 4.47 107 18:23 27.12.2021
4040 Clouds -1 998 79 10000 5.36 124 17:46 27.12.2021
4041 Clouds -1 997 79 10000 5.36 118 16:40 27.12.2021
4042 Clouds -1 998 80 10000 3.58 123 15:52 27.12.2021
4043 Clouds -1 998 78 10000 5.81 111 14:33 27.12.2021
4044 Clouds -1 998 80 10000 4.92 106 13:39 27.12.2021
4045 Clouds -2 998 81 10000 4.92 119 12:40 27.12.2021
4046 Clouds -4 999 82 10000 3.58 117 10:32 27.12.2021
4047 Clouds -4 999 82 10000 4.47 107 09:47 27.12.2021
4048 Clouds -5 1000 80 10000 3.13 106 08:39 27.12.2021
4049 Clouds -5 1000 79 10000 4.92 94 07:32 27.12.2021
4050 Clear -7 1003 80 10000 2.68 102 02:24 27.12.2021
4051 Clear -7 1002 81 10000 4.02 71 00:23 27.12.2021
4052 Clear -7 1002 81 10000 2.24 84 23:41 26.12.2021
4053 Clear -7 1004 80 10000 3.58 95 22:47 26.12.2021
4054 Clear -6 1004 78 10000 4.02 95 21:29 26.12.2021
4055 Clear -6 1005 76 10000 3.58 99 19:49 26.12.2021
4056 Clear -5 1005 73 10000 4.02 106 18:25 26.12.2021
4057 Clear -5 1005 73 10000 4.47 80 17:44 26.12.2021
4058 Clear -2 1005 66 10000 3.13 90 14:38 26.12.2021
4059 Clear -3 1005 67 10000 3.13 97 13:43 26.12.2021
4060 Clear -3 1005 70 10000 2.68 96 13:21 26.12.2021
4061 Clear -3 1005 74 10000 3.58 100 12:34 26.12.2021
4062 Clear -4 1005 83 10000 2.68 110 11:18 26.12.2021
4063 Clear -8 1005 90 10000 1.79 70 09:30 26.12.2021
4064 Clear -8 1005 88 10000 1.79 73 08:44 26.12.2021
4065 Clear -8 1004 88 10000 0.89 73 08:23 26.12.2021
4066 Clear -7 1005 86 10000 0.45 73 01:45 26.12.2021
4067 Clear -6 1005 86 10000 0.45 95 00:28 26.12.2021
4068 Clear -6 1006 86 10000 0.45 70 23:35 25.12.2021
4069 Clear -6 1006 88 10000 2.68 179 22:29 25.12.2021
4070 Clear -7 1006 87 10000 1.34 149 21:29 25.12.2021
4071 Clear -6 1006 87 10000 0.51 290 20:18 25.12.2021
4072 Clear -6 1005 84 10000 0.89 272 19:18 25.12.2021
4073 Clear -6 1005 84 10000 2.68 240 18:29 25.12.2021
4074 Clear -5 1005 83 10000 1.79 185 16:49 25.12.2021
4075 Clear -3 1004 76 10000 0.45 131 15:34 25.12.2021
4076 Clear -2 1004 74 10000 0.89 256 14:23 25.12.2021
4077 Clouds -3 1002 78 10000 0.89 237 12:21 25.12.2021
4078 Clear -4 1004 86 10000 0.45 335 10:49 25.12.2021
4079 Clear -5 1003 88 10000 1.34 201 09:49 25.12.2021
4080 Clear -7 1002 87 10000 0.45 27 07:28 25.12.2021
4081 Clear -5 1000 84 10000 2.24 322 01:43 25.12.2021
4082 Clear -4 999 82 10000 3.58 11 00:22 25.12.2021
4083 Clouds -2 998 85 10000 5.36 357 22:26 24.12.2021
4084 Snow 1 993 93 10000 4.47 313 19:29 24.12.2021
4085 Snow 1 992 94 10000 3.58 294 18:57 24.12.2021
4086 Snow 1 991 95 10000 4.02 311 16:49 24.12.2021
4087 Rain 2 990 94 10000 5.36 325 15:52 24.12.2021
4088 Rain 2 989 94 10000 6.26 328 15:32 24.12.2021
4089 Rain 2 989 94 10000 6.26 327 14:36 24.12.2021
4090 Rain 3 988 94 10000 6.71 328 14:18 24.12.2021
4091 Clouds 4 987 94 10000 7.15 310 13:33 24.12.2021
4092 Clouds 4 987 95 10000 4.92 303 12:47 24.12.2021
4093 Drizzle 5 987 95 5000 4.92 271 11:47 24.12.2021
4094 Drizzle 5 987 95 10000 5.81 276 11:24 24.12.2021
4095 Drizzle 5 987 96 9000 4.47 257 10:45 24.12.2021
4096 Rain 5 987 96 7000 3.13 251 09:32 24.12.2021
4097 Drizzle 4 987 95 7000 4.47 235 08:23 24.12.2021
4098 Drizzle 4 987 95 7000 3.58 238 07:46 24.12.2021
4099 Rain 1 990 94 4300 4.47 234 01:30 24.12.2021
4100 Snow 1 991 93 5000 5.36 236 23:55 23.12.2021
4101 Snow 1 992 91 5000 5.81 232 22:56 23.12.2021
4102 Snow 1 992 93 5000 4.92 234 22:37 23.12.2021
4103 Snow 1 992 93 3500 4.92 215 22:18 23.12.2021
4104 Snow 0 993 93 1600 5.36 213 20:56 23.12.2021
4105 Snow 0 994 92 2500 3.13 223 19:47 23.12.2021
4106 Snow 0 996 87 1600 5.36 231 18:35 23.12.2021
4107 Snow 1 997 83 10000 3.13 178 17:56 23.12.2021
4108 Snow 1 998 80 10000 2.68 177 16:43 23.12.2021
4109 Clear 0 998 79 10000 2.68 188 16:23 23.12.2021
4110 Clouds 0 999 78 10000 1.79 225 15:31 23.12.2021
4111 Clear 1 1000 79 10000 3.13 183 14:52 23.12.2021
4112 Clear 1 1000 81 10000 3.58 185 14:30 23.12.2021
4113 Clear 0 1002 80 10000 4.02 151 12:54 23.12.2021
4114 Clear -1 1005 86 10000 3.58 161 10:52 23.12.2021
4115 Clear -2 1006 85 10000 4.47 162 09:42 23.12.2021
4116 Clear -2 1006 87 10000 4.47 120 08:59 23.12.2021
4117 Clear -2 1006 87 10000 4.02 141 08:59 23.12.2021
4118 Clear -2 1006 87 10000 4.47 120 08:59 23.12.2021
4119 Clear -2 1008 88 10000 3.13 160 06:55 23.12.2021
4120 Clear -3 1010 87 10000 3.13 167 04:33 23.12.2021
4121 Clear -2 1014 83 10000 1.79 148 23:26 22.12.2021
4122 Clear -2 1014 84 10000 2.68 151 22:47 22.12.2021
4123 Clear -2 1015 87 10000 2.24 180 21:56 22.12.2021
4124 Clear -2 1015 89 10000 2.24 175 21:29 22.12.2021
4125 Clear -2 1015 88 10000 2.24 180 20:47 22.12.2021
4126 Clear -2 1016 85 10000 2.68 179 20:26 22.12.2021
4127 Clear -1 1016 87 10000 3.13 172 19:32 22.12.2021
4128 Clear -1 1017 82 10000 2.68 190 17:55 22.12.2021
4129 Clear -1 1017 82 10000 2.68 187 17:34 22.12.2021
4130 Clear 1 1017 80 10000 3.13 183 15:42 22.12.2021
4131 Clear 2 1017 76 10000 2.68 189 13:37 22.12.2021
4132 Clear 2 1018 77 10000 3.13 229 12:41 22.12.2021
4133 Clear 1 1019 83 10000 3.13 227 10:46 22.12.2021
4134 Clear -1 1019 85 10000 0.45 234 09:40 22.12.2021
4135 Clouds -1 1018 84 10000 3.13 240 07:32 22.12.2021
4136 Clouds 0 1019 82 10000 2.68 244 05:50 22.12.2021
4137 Clouds 0 1019 83 10000 4.02 246 05:28 22.12.2021
4138 Clouds 0 1019 83 10000 1.79 237 04:54 22.12.2021
4139 Clouds 0 1019 88 10000 2.24 228 04:30 22.12.2021
4140 Clouds 0 1019 84 10000 2.24 228 04:30 22.12.2021
4141 Clouds 0 1019 85 10000 0.89 269 03:33 22.12.2021
4142 Clouds 0 1019 88 10000 3.58 283 00:57 22.12.2021
4143 Clouds 0 1018 89 10000 2.24 287 23:33 21.12.2021
4144 Clouds 0 1018 90 10000 2.24 325 22:29 21.12.2021
4145 Clouds 0 1018 90 10000 1.79 321 21:51 21.12.2021
4146 Clouds 0 1018 90 10000 1.79 297 21:24 21.12.2021
4147 Clouds 1 1018 89 10000 3.13 270 20:23 21.12.2021
4148 Clear 1 1018 86 10000 2.24 265 19:46 21.12.2021
4149 Clouds 0 1018 89 10000 2.68 269 19:26 21.12.2021
4150 Clouds 0 1017 90 10000 2.68 265 18:22 21.12.2021
4151 Clouds 1 1017 90 10000 2.68 278 17:51 21.12.2021
4152 Clouds 1 1017 89 10000 2.68 271 16:39 21.12.2021
4153 Clouds 1 1017 89 10000 2.24 274 15:33 21.12.2021
4154 Clouds 2 1017 87 10000 1.34 14 13:51 21.12.2021
4155 Clouds 2 1017 89 10000 0.89 283 13:32 21.12.2021
4156 Clouds 2 1017 89 10000 2.24 282 12:20 21.12.2021
4157 Clouds 2 1017 90 10000 2.68 276 10:38 21.12.2021
4158 Clouds 1 1017 91 10000 1.79 292 09:41 21.12.2021
4159 Clouds 1 1017 92 10000 1.79 348 08:39 21.12.2021
4160 Clouds 1 1017 92 8000 2.24 360 07:35 21.12.2021
4161 Clouds 1 1017 92 8000 2.68 292 06:56 21.12.2021
4162 Clear 1 1017 92 10000 4.02 259 03:24 21.12.2021
4163 Clouds 1 1017 89 10000 1.79 246 01:19 21.12.2021
4164 Clouds 1 1018 92 10000 1.79 260 23:54 20.12.2021
4165 Clouds 1 1018 91 10000 2.68 284 22:35 20.12.2021
4166 Clouds 1 1017 91 10000 2.24 287 21:48 20.12.2021
4167 Clouds 0 1017 91 10000 2.68 284 21:24 20.12.2021
4168 Clouds 0 1017 90 10000 2.68 294 20:50 20.12.2021
4169 Clouds 0 1017 90 10000 2.24 267 20:19 20.12.2021
4170 Clouds 1 1017 90 10000 2.24 276 19:36 20.12.2021
4171 Clouds 1 1017 90 10000 2.24 279 19:18 20.12.2021
4172 Clouds 2 1017 89 10000 1.79 323 18:28 20.12.2021
4173 Clouds 2 1016 89 10000 2.68 292 17:49 20.12.2021
4174 Clouds 3 1016 88 10000 3.13 294 16:45 20.12.2021
4175 Clouds 3 1016 86 10000 4.02 295 15:55 20.12.2021
4176 Clouds 3 1016 85 10000 4.02 299 15:31 20.12.2021
4177 Clouds 3 1015 85 10000 4.47 302 13:31 20.12.2021
4178 Clouds 3 1015 86 10000 4.02 301 11:47 20.12.2021
4179 Clouds 1 1015 90 10000 3.58 283 10:35 20.12.2021
4180 Clouds 0 1014 90 10000 4.02 294 09:38 20.12.2021
4181 Clouds 0 1014 88 10000 5.36 278 08:44 20.12.2021
4182 Clouds 0 1014 89 10000 3.58 296 08:00 20.12.2021
4183 Clear 0 1014 86 10000 4.47 296 07:32 20.12.2021
4184 Clear 0 1013 87 10000 4.47 294 06:32 20.12.2021
4185 Clear 0 1013 87 10000 4.47 306 06:32 20.12.2021
4186 Clear 2 1012 85 10000 4.47 318 00:20 20.12.2021
4187 Clear 3 1012 85 10000 4.47 336 22:56 19.12.2021
4188 Clouds 3 1012 86 10000 7.15 330 22:24 19.12.2021
4189 Clouds 4 1012 88 10000 5.36 333 21:32 19.12.2021
4190 Clouds 5 1011 90 10000 5.81 340 20:36 19.12.2021
4191 Clouds 5 1010 93 10000 6.71 323 19:53 19.12.2021
4192 Clouds 6 1009 91 10000 5.36 323 19:34 19.12.2021
4193 Clouds 6 1010 91 10000 6.71 308 18:37 19.12.2021
4194 Drizzle 6 1010 90 10000 7.6 320 17:53 19.12.2021
4195 Drizzle 6 1009 91 8000 5.36 322 17:28 19.12.2021
4196 Drizzle 7 1009 94 7000 5.81 299 16:27 19.12.2021
4197 Drizzle 6 1009 93 4300 5.81 300 15:52 19.12.2021
4198 Drizzle 6 1009 92 6000 7.6 285 15:24 19.12.2021
4199 Drizzle 6 1009 92 6000 7.6 285 14:45 19.12.2021
4200 Drizzle 6 1010 91 10000 8.94 294 13:27 19.12.2021
4201 Drizzle 6 1011 91 7000 6.26 307 12:52 19.12.2021
4202 Drizzle 6 1011 91 7000 7.15 290 12:28 19.12.2021
4203 Drizzle 6 1012 93 8000 7.6 292 11:33 19.12.2021
4204 Drizzle 6 1012 90 8000 7.6 296 10:49 19.12.2021
4205 Drizzle 6 1013 90 10000 7.6 303 10:22 19.12.2021
4206 Drizzle 7 1013 85 10000 5.81 308 08:46 19.12.2021
4207 Drizzle 7 1014 83 10000 8.94 300 06:30 19.12.2021
4208 Clouds 7 1017 87 10000 6.71 282 01:51 19.12.2021
4209 Clouds 7 1018 88 10000 8.05 297 00:54 19.12.2021
4210 Clouds 7 1017 90 10000 4.47 271 22:59 18.12.2021
4211 Clouds 7 1019 92 10000 4.02 260 22:24 18.12.2021
4212 Clouds 7 1020 90 10000 4.02 280 21:43 18.12.2021
4213 Clouds 7 1020 91 10000 4.92 269 21:22 18.12.2021
4214 Drizzle 7 1021 92 10000 4.47 272 20:26 18.12.2021
4215 Clouds 7 1021 91 9000 4.02 278 19:35 18.12.2021
4216 Drizzle 6 1022 94 10000 4.92 300 18:24 18.12.2021
4217 Drizzle 6 1022 95 6000 5.36 283 17:49 18.12.2021
4218 Drizzle 6 1023 92 10000 5.81 280 16:36 18.12.2021
4219 Drizzle 6 1023 92 10000 6.26 283 16:18 18.12.2021
4220 Drizzle 7 1023 91 9000 4.02 277 14:54 18.12.2021
4221 Drizzle 6 1029 90 10000 5.36 276 13:45 18.12.2021
4222 Drizzle 6 1026 92 3000 4.02 260 11:57 18.12.2021
4223 Clouds 5 1026 92 10000 5.36 278 09:54 18.12.2021
4224 Drizzle 5 1026 91 9000 6.26 278 09:31 18.12.2021
4225 Drizzle 5 1027 92 10000 3.58 283 08:36 18.12.2021
4226 Drizzle 5 1027 93 9000 3.13 280 07:24 18.12.2021
4227 Clouds 5 1028 90 10000 2.68 308 01:45 18.12.2021
4228 Clouds 5 1028 89 10000 3.13 319 23:51 17.12.2021
4229 Clouds 5 1028 89 10000 4.47 315 22:40 17.12.2021
4230 Clouds 5 1025 90 10000 4.92 334 21:49 17.12.2021
4231 Clouds 5 1033 88 10000 4.47 310 20:44 17.12.2021
4232 Clouds 5 1034 88 10000 3.58 310 19:57 17.12.2021
4233 Clouds 6 1035 86 10000 4.47 324 18:40 17.12.2021
4234 Clouds 6 1035 85 10000 3.58 325 17:59 17.12.2021
4235 Clouds 6 1027 86 10000 4.92 325 16:57 17.12.2021
4236 Clouds 6 1028 81 10000 4.92 306 16:28 17.12.2021
4237 Clouds 6 1028 81 10000 3.58 315 15:51 17.12.2021
4238 Clouds 6 1028 85 10000 4.47 311 14:43 17.12.2021
4239 Clouds 6 1028 83 10000 3.58 301 13:55 17.12.2021
4240 Clouds 6 1027 87 10000 3.58 339 12:38 17.12.2021
4241 Clouds 6 1028 90 10000 3.58 339 10:49 17.12.2021
4242 Clouds 5 1027 91 10000 4.92 337 09:51 17.12.2021
4243 Clouds 5 1027 88 10000 4.92 305 08:58 17.12.2021
4244 Clouds 5 1027 88 10000 5.36 318 08:19 17.12.2021
4245 Clouds 5 1027 89 10000 4.47 296 04:58 17.12.2021
4246 Clouds 5 1027 91 10000 4.92 295 02:51 17.12.2021
4247 Clouds 6 1027 93 10000 4.47 294 22:50 16.12.2021
4248 Clouds 6 1027 91 10000 4.47 290 22:22 16.12.2021
4249 Clouds 5 1027 91 10000 4.92 280 21:44 16.12.2021
4250 Clouds 5 1027 91 10000 4.47 278 20:48 16.12.2021
4251 Clear 6 1027 91 10000 4.92 274 20:22 16.12.2021
4252 Clear 5 1027 91 10000 3.58 264 19:31 16.12.2021
4253 Clear 6 1027 89 10000 2.24 277 18:33 16.12.2021
4254 Clear 6 1026 87 10000 3.13 266 17:48 16.12.2021
4255 Clouds 8 1025 85 10000 3.13 293 16:37 16.12.2021
4256 Clouds 8 1025 84 10000 4.02 289 16:18 16.12.2021
4257 Clouds 10 1024 87 10000 5.36 314 13:47 16.12.2021
4258 Clouds 9 1024 91 10000 4.02 316 12:30 16.12.2021
4259 Clouds 8 1024 91 10000 4.02 294 11:19 16.12.2021
4260 Clouds 8 1024 91 10000 4.47 313 10:44 16.12.2021
4261 Clouds 8 1023 91 8000 3.58 300 09:50 16.12.2021
4262 Drizzle 8 1022 89 10000 4.47 270 07:19 16.12.2021
4263 Clouds 8 1021 86 10000 4.47 274 06:18 16.12.2021
4264 Clouds 8 1019 88 10000 2.24 250 00:35 16.12.2021
4265 Clouds 8 1020 88 10000 4.02 249 23:20 15.12.2021
4266 Clouds 9 1020 88 10000 3.13 255 22:21 15.12.2021
4267 Clouds 9 1020 88 10000 5.36 249 21:45 15.12.2021
4268 Clouds 9 1020 88 10000 5.36 237 21:25 15.12.2021
4269 Clouds 9 1020 88 10000 4.47 245 19:54 15.12.2021
4270 Clouds 9 1020 88 10000 3.58 246 19:19 15.12.2021
4271 Clouds 9 1020 87 10000 3.13 232 18:26 15.12.2021
4272 Clouds 9 1020 88 10000 3.58 227 17:47 15.12.2021
4273 Clouds 9 1020 88 10000 4.02 229 17:21 15.12.2021
4274 Clouds 9 1025 88 10000 4.47 231 16:25 15.12.2021
4275 Clouds 9 1020 88 10000 4.02 250 15:42 15.12.2021
4276 Clouds 9 1020 89 10000 4.02 258 15:24 15.12.2021
4277 Clouds 9 1019 89 10000 3.58 249 13:58 15.12.2021
4278 Clouds 9 1025 89 10000 4.92 243 11:57 15.12.2021
4279 Clouds 8 1020 92 10000 4.92 228 10:23 15.12.2021
4280 Clouds 8 1019 92 9000 4.47 227 08:48 15.12.2021
4281 Mist 8 1018 92 5000 4.02 232 05:59 15.12.2021
4282 Mist 8 1018 92 2600 3.58 241 00:47 15.12.2021
4283 Mist 8 1018 93 2800 4.02 254 23:41 14.12.2021
4284 Mist 8 1018 95 2800 2.68 250 22:48 14.12.2021
4285 Mist 7 1015 96 3000 3.58 264 21:51 14.12.2021
4286 Mist 7 1017 95 5000 3.13 245 20:27 14.12.2021
4287 Mist 7 1017 95 5000 3.13 245 19:40 14.12.2021
4288 Clouds 7 1017 95 7000 3.13 247 18:42 14.12.2021
4289 Clouds 7 1017 92 8000 4.02 255 17:58 14.12.2021
4290 Clouds 7 1017 92 8000 4.02 255 17:58 14.12.2021
4291 Drizzle 7 1016 94 4800 3.13 248 17:27 14.12.2021
4292 Drizzle 7 1016 94 2000 2.24 259 16:38 14.12.2021
4293 Clouds 8 1015 92 10000 2.68 259 15:26 14.12.2021
4294 Clouds 8 1015 90 10000 4.02 239 13:31 14.12.2021
4295 Clouds 7 1016 89 10000 4.02 231 11:58 14.12.2021
4296 Clouds 7 1016 90 10000 3.58 237 11:23 14.12.2021
4297 Clouds 7 1016 92 10000 4.02 225 09:57 14.12.2021
4298 Clouds 7 1016 91 10000 3.13 232 09:35 14.12.2021
4299 Clouds 7 1016 91 10000 3.58 232 08:25 14.12.2021
4300 Clouds 7 1016 91 10000 4.02 229 07:43 14.12.2021
4301 Clouds 7 1017 96 7000 3.13 212 02:27 14.12.2021
4302 Clouds 8 1024 97 7000 1.34 220 22:55 13.12.2021
4303 Mist 8 1015 97 4200 2.24 220 21:53 13.12.2021
4304 Mist 8 1025 97 3100 3.58 213 21:18 13.12.2021
4305 Mist 8 1025 97 4800 2.68 210 20:38 13.12.2021
4306 Clouds 8 1018 97 7000 1.79 241 19:52 13.12.2021
4307 Mist 8 1017 97 2800 2.24 261 18:24 13.12.2021
4308 Drizzle 8 1015 98 1500 2.24 229 17:26 13.12.2021
4309 Drizzle 8 1017 96 1500 2.24 234 15:54 13.12.2021
4310 Mist 8 1017 96 1600 2.24 218 15:25 13.12.2021
4311 Drizzle 8 1017 96 1200 1.79 220 13:45 13.12.2021
4312 Drizzle 7 1017 96 700 1.34 206 12:49 13.12.2021
4313 Fog 7 1017 94 900 0.89 194 11:59 13.12.2021
4314 Mist 7 1017 96 1300 2.24 192 11:35 13.12.2021
4315 Mist 6 1017 93 1200 1.79 189 10:47 13.12.2021
4316 Fog 6 1017 94 700 2.68 218 09:41 13.12.2021
4317 Fog 5 1015 97 900 2.68 232 07:53 13.12.2021
4318 Mist 5 1015 96 4300 1.34 242 05:36 13.12.2021
4319 Mist 5 1014 96 5000 2.24 252 03:30 13.12.2021
4320 Mist 4 1013 95 5000 2.68 239 23:26 12.12.2021
4321 Drizzle 4 1013 93 4500 3.58 214 21:41 12.12.2021
4322 Drizzle 3 1013 93 4500 2.68 191 20:18 12.12.2021
4323 Clouds 3 1013 92 6000 2.24 218 18:43 12.12.2021
4324 Clouds 2 1013 92 10000 4.47 191 17:45 12.12.2021
4325 Clouds 2 1013 90 8000 2.68 175 16:28 12.12.2021
4326 Clouds 2 1013 89 10000 3.58 178 15:50 12.12.2021
4327 Clouds 2 1013 89 10000 4.02 176 15:26 12.12.2021
4328 Clouds 2 1013 89 10000 4.02 176 15:26 12.12.2021
4329 Clouds 2 1013 89 10000 3.58 163 14:37 12.12.2021
4330 Rain 2 1014 90 10000 2.68 204 13:33 12.12.2021
4331 Clouds 1 1014 90 8000 4.47 189 12:32 12.12.2021
4332 Rain 1 1014 90 8000 3.58 193 11:44 12.12.2021
4333 Clouds 1 1015 90 9000 3.58 208 11:25 12.12.2021
4334 Clouds 0 1015 91 8000 4.47 195 10:32 12.12.2021
4335 Clouds 0 1015 91 6000 4.47 194 09:39 12.12.2021
4336 Clouds -1 1015 91 6000 2.68 183 08:38 12.12.2021
4337 Clouds -1 1014 91 8000 2.68 238 06:34 12.12.2021
4338 Clouds -1 1014 90 9000 1.79 213 05:22 12.12.2021
4339 Clouds -1 1014 91 8000 1.79 189 03:57 12.12.2021
4340 Fog -1 1013 91 800 3.13 193 00:36 12.12.2021
4341 Fog -1 1012 92 900 3.58 203 22:24 11.12.2021
4342 Fog -1 1012 92 900 4.47 191 21:52 11.12.2021
4343 Fog -1 1011 92 1000 4.02 217 21:21 11.12.2021
4344 Mist 0 1010 91 1400 4.02 219 19:37 11.12.2021
4345 Mist 0 1010 92 3800 3.13 237 18:53 11.12.2021
4346 Mist 0 1010 91 4600 3.13 236 18:30 11.12.2021
4347 Mist 0 1009 91 5000 3.58 238 17:37 11.12.2021
4348 Clouds 0 1008 94 6000 3.13 243 15:55 11.12.2021
4349 Clouds 0 1008 91 6000 3.58 245 15:35 11.12.2021
4350 Mist 0 1006 94 1800 2.24 262 13:46 11.12.2021
4351 Mist 0 1004 94 4300 3.13 277 11:55 11.12.2021
4352 Mist 0 1003 94 1300 2.24 241 10:24 11.12.2021
4353 Fog 0 1002 95 400 1.34 224 09:37 11.12.2021
4354 Fog 0 996 96 600 0.89 34 03:25 11.12.2021
4355 Mist 0 994 95 1000 1.34 151 00:44 11.12.2021
4356 Fog 0 993 92 500 1.79 149 23:40 10.12.2021
4357 Fog 0 992 92 700 1.79 116 22:33 10.12.2021
4358 Fog 1 992 92 800 3.58 121 21:37 10.12.2021
4359 Mist 1 991 94 2500 1.34 102 19:55 10.12.2021
4360 Mist 1 990 94 2700 1.79 101 19:18 10.12.2021
4361 Mist 1 990 94 2900 2.68 87 17:31 10.12.2021
4362 Mist 1 989 91 3600 0.89 90 16:34 10.12.2021
4363 Mist 1 989 94 3300 1.79 115 15:43 10.12.2021
4364 Mist 1 989 94 2700 2.24 100 15:24 10.12.2021
4365 Mist 1 988 91 3000 3.13 95 14:29 10.12.2021
4366 Mist 1 988 91 3100 3.13 92 13:48 10.12.2021
4367 Mist 1 989 92 2000 3.13 157 12:55 10.12.2021
4368 Mist 1 989 92 2000 3.13 157 12:55 10.12.2021
4369 Mist 1 989 90 3100 3.13 132 11:36 10.12.2021
4370 Snow 0 989 91 2400 1.79 90 10:56 10.12.2021
4371 Mist 0 990 94 2200 1.34 96 09:36 10.12.2021
4372 Snow -1 991 93 1300 0.89 83 07:28 10.12.2021
4373 Snow -1 991 93 1800 1.79 176 04:57 10.12.2021
4374 Snow -1 994 92 1800 0.89 116 02:39 10.12.2021
4375 Snow -1 995 93 2500 1.34 108 23:42 09.12.2021
4376 Snow -1 996 93 2800 1.34 103 22:41 09.12.2021
4377 Snow -1 996 93 2800 0.45 96 22:22 09.12.2021
4378 Snow -1 996 93 2800 1.34 107 21:40 09.12.2021
4379 Mist -1 996 93 3200 0.89 114 20:36 09.12.2021
4380 Mist -1 997 92 4000 0.89 128 19:45 09.12.2021
4381 Mist -1 997 93 4700 1.34 113 19:20 09.12.2021
4382 Snow 0 997 89 4800 2.24 120 18:22 09.12.2021
4383 Mist -1 996 92 4800 1.79 99 17:48 09.12.2021
4384 Snow -1 997 91 4800 1.79 108 17:24 09.12.2021
4385 Snow -1 997 91 4800 1.79 85 16:41 09.12.2021
4386 Snow 0 997 88 5000 1.34 103 15:19 09.12.2021
4387 Snow 0 996 90 6000 2.24 123 14:43 09.12.2021
4388 Snow 0 996 88 4800 2.68 101 12:49 09.12.2021
4389 Mist -1 996 88 4600 3.13 125 12:24 09.12.2021
4390 Snow -1 997 90 1700 2.24 96 10:40 09.12.2021
4391 Mist -1 996 89 4600 3.13 80 08:19 09.12.2021
4392 Clouds -1 996 84 10000 4.92 88 03:59 09.12.2021
4393 Clouds -1 996 84 10000 5.36 93 01:43 09.12.2021
4394 Clouds -1 996 84 10000 4.47 98 23:40 08.12.2021
4395 Clouds 0 996 84 10000 4.92 88 23:20 08.12.2021
4396 Clouds 0 996 84 10000 4.47 101 22:43 08.12.2021
4397 Clouds 0 996 84 10000 5.36 90 21:39 08.12.2021
4398 Clouds 0 996 86 10000 5.36 121 20:59 08.12.2021
4399 Clouds 0 996 85 10000 6.71 120 19:57 08.12.2021
4400 Clouds 0 995 85 10000 6.26 101 19:33 08.12.2021
4401 Clouds 0 995 85 10000 6.26 96 18:30 08.12.2021
4402 Clouds 1 996 85 10000 6.71 111 17:24 08.12.2021
4403 Clear 1 995 84 10000 6.26 125 15:46 08.12.2021
4404 Clear 1 995 84 10000 6.71 120 15:23 08.12.2021
4405 Clear 1 995 84 10000 7.15 107 14:28 08.12.2021
4406 Clouds 0 996 87 10000 7.15 112 10:54 08.12.2021
4407 Clouds 0 996 88 10000 6.26 115 10:28 08.12.2021
4408 Clouds 0 997 88 10000 6.26 118 08:54 08.12.2021
4409 Clouds 0 997 88 10000 4.92 120 07:21 08.12.2021
4410 Clouds 0 998 92 10000 5.36 121 01:40 08.12.2021
4411 Clouds 0 1005 85 10000 4.47 120 23:33 07.12.2021
4412 Clouds 0 997 89 9000 2.68 120 21:40 07.12.2021
4413 Clouds 0 997 89 9000 4.02 120 21:18 07.12.2021
4414 Clouds 0 1001 88 10000 4.92 100 20:19 07.12.2021
4415 Clouds 0 1001 90 10000 5.36 117 18:42 07.12.2021
4416 Clouds 0 1003 89 10000 4.02 113 17:48 07.12.2021
4417 Clouds 0 1003 89 10000 3.13 130 17:19 07.12.2021
4418 Clouds 0 1004 90 10000 5.36 127 16:28 07.12.2021
4419 Clouds 0 1003 90 10000 4.92 134 15:23 07.12.2021
4420 Clouds 0 1003 87 10000 4.92 126 13:53 07.12.2021
4421 Clouds 0 1003 89 10000 5.36 117 12:49 07.12.2021
4422 Clouds 0 1004 88 10000 6.26 112 11:27 07.12.2021
4423 Clouds -1 1004 89 10000 5.81 116 10:33 07.12.2021
4424 Clouds -1 1002 90 10000 4.47 107 07:57 07.12.2021
4425 Clouds -1 1001 91 10000 5.81 115 05:59 07.12.2021
4426 Clouds -1 1001 90 10000 4.47 133 05:33 07.12.2021
4427 Clouds 0 1005 93 10000 1.79 140 23:47 06.12.2021
4428 Clouds 1 1005 89 10000 1.79 115 22:46 06.12.2021
4429 Clouds 1 1002 93 10000 0.89 122 22:23 06.12.2021
4430 Clouds 1 1002 92 10000 1.79 110 21:51 06.12.2021
4431 Clouds 0 999 93 10000 1.79 120 20:33 06.12.2021
4432 Clouds 0 1012 93 10000 1.34 110 19:56 06.12.2021
4433 Clouds 0 1012 92 10000 1.79 100 19:21 06.12.2021
4434 Clouds 0 1012 93 10000 1.79 70 18:28 06.12.2021
4435 Clouds 0 1012 93 10000 2.24 80 17:40 06.12.2021
4436 Clouds 1 1012 92 10000 0.89 120 16:48 06.12.2021
4437 Clouds 2 1004 92 10000 0.89 96 15:39 06.12.2021
4438 Clouds 2 1006 90 10000 0.45 26 13:46 06.12.2021
4439 Clouds 2 1006 91 10000 1.79 41 12:39 06.12.2021
4440 Clouds 2 1007 92 10000 1.79 10 11:38 06.12.2021
4441 Clouds 1 1006 93 9000 2.68 2 09:20 06.12.2021
4442 Clouds 0 1005 93 10000 2.68 26 06:43 06.12.2021
4443 Snow 1 1001 95 2800 3.13 0 23:44 05.12.2021
4444 Snow 1 1000 94 4800 1.34 18 21:52 05.12.2021
4445 Snow 1 1000 94 5000 1.34 21 21:24 05.12.2021
4446 Mist 1 999 94 4700 1.79 67 20:19 05.12.2021
4447 Mist 1 999 94 4700 2.68 56 19:49 05.12.2021
4448 Mist 1 999 94 4000 2.24 46 19:21 05.12.2021
4449 Mist 1 998 94 5000 2.24 40 18:20 05.12.2021
4450 Mist 1 998 94 5000 2.68 45 17:49 05.12.2021
4451 Clouds 1 998 93 6000 0.89 56 16:52 05.12.2021
4452 Clouds 1 998 93 7000 3.13 55 16:27 05.12.2021
4453 Clouds 1 997 93 6000 2.68 42 15:58 05.12.2021
4454 Clouds 2 996 93 6000 2.24 17 14:45 05.12.2021
4455 Mist 1 995 93 5000 2.24 3 14:26 05.12.2021
4456 Mist 2 995 93 2800 0.89 220 13:28 05.12.2021
4457 Mist 2 995 93 2300 0.89 45 12:40 05.12.2021
4458 Mist 1 995 94 1300 0.89 55 12:21 05.12.2021
4459 Fog 1 995 93 900 0.45 52 11:35 05.12.2021
4460 Fog 1 994 94 500 0.45 46 10:19 05.12.2021
4461 Mist 1 993 94 1500 2.68 71 08:50 05.12.2021
4462 Snow 1 990 94 3600 1.34 82 04:56 05.12.2021
4463 Snow 1 989 92 2900 3.58 102 01:23 05.12.2021
4464 Clouds 1 989 88 10000 5.36 118 22:32 04.12.2021
4465 Clouds 2 989 89 10000 5.36 115 21:36 04.12.2021
4466 Clouds 2 989 89 10000 3.13 113 20:32 04.12.2021
4467 Clouds 2 990 89 10000 4.47 112 19:33 04.12.2021
4468 Clouds 2 989 90 10000 3.58 112 18:43 04.12.2021
4469 Clouds 2 990 89 10000 3.58 130 17:47 04.12.2021
4470 Clouds 2 990 92 10000 4.02 138 17:20 04.12.2021
4471 Clouds 2 990 90 10000 3.58 123 16:46 04.12.2021
4472 Clouds 2 990 89 10000 4.47 113 16:27 04.12.2021
4473 Clouds 2 991 89 10000 4.92 177 12:44 04.12.2021
4474 Clouds 2 991 90 10000 3.13 184 11:39 04.12.2021
4475 Clouds 2 992 90 10000 3.13 186 10:57 04.12.2021
4476 Clouds 2 992 91 10000 3.58 194 09:40 04.12.2021
4477 Snow 2 991 93 10000 3.58 186 08:29 04.12.2021
4478 Snow 1 992 91 10000 4.92 202 04:43 04.12.2021
4479 Rain 1 994 90 10000 6.71 215 00:56 04.12.2021
4480 Snow 1 994 88 10000 7.6 204 23:43 03.12.2021
4481 Snow 1 994 87 10000 8.05 213 22:53 03.12.2021
4482 Snow 2 995 80 10000 7.15 210 21:57 03.12.2021
4483 Rain 2 995 79 10000 7.6 210 21:23 03.12.2021
4484 Clouds 2 996 78 10000 8.94 220 20:42 03.12.2021
4485 Clear 2 997 78 10000 7.6 205 19:28 03.12.2021
4486 Clear 2 998 79 10000 8.05 213 18:24 03.12.2021
4487 Clouds 2 998 79 10000 6.71 211 17:31 03.12.2021
4488 Clouds 3 997 75 10000 8.94 233 13:45 03.12.2021
4489 Clear 3 999 72 10000 8.05 231 12:49 03.12.2021
4490 Clear 2 998 77 10000 7.15 241 11:23 03.12.2021
4491 Clear 0 998 82 10000 5.36 238 09:25 03.12.2021
4492 Clear -1 998 84 10000 6.26 249 08:21 03.12.2021
4493 Clear -1 998 83 10000 6.71 248 07:23 03.12.2021
4494 Clear -2 997 83 10000 3.58 255 01:43 03.12.2021
4495 Clear -2 996 86 10000 4.47 253 00:34 03.12.2021
4496 Clear -1 995 81 10000 3.58 267 23:40 02.12.2021
4497 Clouds -1 994 82 10000 3.13 267 21:42 02.12.2021
4498 Clear 0 994 78 10000 4.47 273 20:49 02.12.2021
4499 Clear 0 993 77 10000 4.47 286 20:29 02.12.2021
4500 Clouds 1 992 72 10000 4.92 271 19:24 02.12.2021
4501 Clear 1 991 72 10000 4.92 287 17:36 02.12.2021
4502 Clouds 3 989 69 10000 6.26 300 15:42 02.12.2021
4503 Clouds 4 988 68 10000 8.05 285 14:57 02.12.2021
4504 Clouds 4 987 64 10000 8.49 283 13:56 02.12.2021
4505 Clouds 3 994 70 10000 8.49 290 12:52 02.12.2021
4506 Clouds 4 983 71 10000 8.49 290 11:56 02.12.2021
4507 Clouds 3 985 74 10000 8.05 279 09:34 02.12.2021
4508 Clouds 2 983 75 10000 10.73 278 08:49 02.12.2021
4509 Clouds 4 980 79 10000 11.62 260 04:54 02.12.2021
4510 Clouds 6 977 70 10000 16.09 242 00:52 02.12.2021
4511 Clouds 7 975 73 10000 15.2 267 23:19 01.12.2021
4512 Clouds 7 975 73 10000 15.2 267 23:19 01.12.2021
4513 Clouds 7 975 78 10000 11.18 232 22:23 01.12.2021
4514 Clouds 8 975 79 10000 11.62 239 20:39 01.12.2021
4515 Clouds 9 975 81 10000 9.83 227 19:54 01.12.2021
4516 Clouds 9 975 81 10000 8.05 214 19:28 01.12.2021
4517 Clouds 8 977 83 10000 9.39 217 17:45 01.12.2021
4518 Clouds 8 977 85 10000 9.39 213 16:46 01.12.2021
4519 Clouds 7 979 89 10000 9.39 204 14:54 01.12.2021
4520 Clouds 7 981 91 10000 7.6 216 13:46 01.12.2021
4521 Clouds 6 982 93 5000 7.6 203 12:51 01.12.2021
4522 Clouds 6 984 94 10000 9.39 220 10:43 01.12.2021
4523 Rain 5 985 95 10000 6.26 182 09:25 01.12.2021
4524 Rain 4 987 94 10000 5.36 168 08:30 01.12.2021
4525 Rain 4 988 92 10000 5.36 144 07:37 01.12.2021
4526 Rain 3 988 91 10000 3.58 150 07:19 01.12.2021
4527 Clouds 2 992 87 10000 2.24 194 03:47 01.12.2021
4528 Clouds 2 994 89 10000 3.58 245 01:59 01.12.2021
4529 Clouds 3 994 81 10000 2.68 283 23:56 30.11.2021
4530 Clouds 3 993 81 10000 5.36 297 23:26 30.11.2021
4531 Clouds 4 992 82 10000 7.6 321 21:55 30.11.2021
4532 Rain 4 990 81 10000 8.05 291 20:46 30.11.2021
4533 Clouds 4 989 79 10000 9.83 284 20:19 30.11.2021
4534 Clouds 5 988 78 10000 8.49 290 19:38 30.11.2021
4535 Clouds 5 987 81 10000 8.49 290 18:42 30.11.2021
4536 Clouds 6 986 79 10000 10.73 278 17:21 30.11.2021
4537 Clouds 6 985 87 10000 8.94 282 15:44 30.11.2021
4538 Rain 5 984 92 10000 7.6 295 14:29 30.11.2021
4539 Clouds 5 984 93 6000 8.05 280 13:29 30.11.2021
4540 Clouds 5 984 94 10000 8.94 257 12:53 30.11.2021
4541 Drizzle 3 985 94 4000 11.18 238 11:52 30.11.2021
4542 Drizzle 3 985 94 6000 9.83 232 11:25 30.11.2021
4543 Clouds 2 986 93 6000 9.39 235 10:35 30.11.2021
4544 Snow 2 988 93 6000 8.05 210 08:54 30.11.2021
4545 Snow 2 989 92 10000 8.49 228 08:32 30.11.2021
4546 Snow 2 990 92 10000 7.6 212 07:48 30.11.2021
4547 Snow 2 992 90 10000 8.05 230 06:32 30.11.2021
4548 Clouds 2 997 89 10000 4.92 265 01:46 30.11.2021
4549 Clouds 3 998 88 10000 4.47 262 01:26 30.11.2021
4550 Clouds 2 998 90 10000 3.58 268 23:27 29.11.2021
4551 Clouds 2 998 90 10000 2.68 259 22:59 29.11.2021
4552 Clouds 2 997 93 10000 1.79 250 22:36 29.11.2021
4553 Clouds 2 997 93 10000 2.24 294 21:46 29.11.2021
4554 Clouds 2 997 93 10000 2.68 296 21:19 29.11.2021
4555 Clouds 2 997 94 10000 2.68 283 20:44 29.11.2021
4556 Clouds 2 996 94 10000 3.58 295 19:57 29.11.2021
4557 Clouds 3 996 94 10000 4.02 286 19:38 29.11.2021
4558 Clouds 3 994 93 2001 4.47 309 18:58 29.11.2021
4559 Clouds 2 1005 98 263 3.27 300 18:39 29.11.2021
4560 Rain 2 1004 91 10000 4.03 295 17:21 29.11.2021
4561 Clouds 2 1004 91 10000 4.03 295 16:40 29.11.2021
4562 Rain 2 1003 83 10000 3.97 284 16:22 29.11.2021
4563 Clouds 3 1003 79 10000 3.99 290 14:45 29.11.2021
4564 Clouds 3 1002 82 10000 4.04 290 13:52 29.11.2021
4565 Clouds 3 1002 82 10000 3.88 289 12:57 29.11.2021
4566 Clouds 2 1002 85 10000 3.68 289 11:54 29.11.2021
4567 Clouds 2 1002 86 10000 3.6 288 10:59 29.11.2021
4568 Clouds 2 1002 86 10000 3.5 285 09:58 29.11.2021
4569 Mist 1 999 100 3800 2.06 260 07:21 29.11.2021
4570 Mist 2 999 93 4300 3.09 280 05:48 29.11.2021
4571 Mist 0 998 100 4600 1.54 190 00:46 29.11.2021
4572 Mist 0 997 100 4600 2.06 190 23:47 28.11.2021
4573 Mist 0 997 100 4800 2.06 150 23:29 28.11.2021
4574 Snow 0 997 100 3400 1.54 140 21:57 28.11.2021
4575 Snow 0 997 100 3400 1.54 140 21:38 28.11.2021
4576 Mist -1 997 100 4500 1.03 0 20:36 28.11.2021
4577 Fog -1 997 100 150 1.03 0 19:44 28.11.2021
4578 Fog -1 997 100 250 1.54 140 18:40 28.11.2021
4579 Clear 0 997 100 10000 1.54 210 17:58 28.11.2021
4580 Clear 0 997 100 10000 1.54 210 17:34 28.11.2021
4581 Clear 0 996 93 10000 2.57 160 16:47 28.11.2021
4582 Clear 0 996 93 10000 2.57 160 16:47 28.11.2021
4583 Clear 1 996 93 10000 2.57 160 16:27 28.11.2021
4584 Clear 2 996 93 10000 2.57 170 15:50 28.11.2021
4585 Clouds 3 996 87 10000 1.03 0 14:55 28.11.2021
4586 Clouds 3 996 87 10000 1.54 220 14:28 28.11.2021
4587 Clouds 2 996 87 10000 2.57 170 12:54 28.11.2021
4588 Clear 2 996 87 10000 2.06 190 11:38 28.11.2021
4589 Clear 0 996 93 10000 2.06 250 10:31 28.11.2021
4590 Clear 0 996 93 7000 2.06 210 09:51 28.11.2021
4591 Clear -1 996 100 7000 2.06 190 09:30 28.11.2021
4592 Clouds 2 995 100 10000 0.51 0 00:52 28.11.2021
4593 Clouds 2 993 100 6000 1.54 110 21:54 27.11.2021
4594 Drizzle 1 993 100 6000 0.51 0 19:51 27.11.2021
4595 Snow 1 993 100 4000 3.6 190 18:26 27.11.2021
4596 Rain 2 992 93 8000 3.6 140 16:19 27.11.2021
4597 Rain 3 992 87 10000 3.6 160 15:32 27.11.2021
4598 Clear 4 992 75 10000 3.6 140 13:40 27.11.2021
4599 Clear 3 992 75 10000 3.6 160 12:19 27.11.2021
4600 Clear 2 992 80 10000 4.12 130 10:27 27.11.2021
4601 Clear 2 992 80 10000 4.12 130 09:25 27.11.2021
4602 Clear 0 991 86 10000 3.6 130 07:43 27.11.2021
4603 Clouds 0 991 86 10000 3.09 120 04:53 27.11.2021
4604 Clear 2 992 80 10000 3.09 150 00:31 27.11.2021
4605 Clear 2 993 80 10000 3.09 170 22:52 26.11.2021
4606 Clouds 3 993 75 10000 4.12 170 22:24 26.11.2021
4607 Clouds 3 993 75 10000 3.6 160 21:34 26.11.2021
4608 Clouds 3 993 75 10000 4.12 170 20:42 26.11.2021
4609 Clouds 3 994 81 10000 3.6 170 19:56 26.11.2021
4610 Clouds 3 994 81 10000 4.12 160 19:28 26.11.2021
4611 Clouds 3 995 75 10000 4.12 160 17:55 26.11.2021
4612 Clouds 4 995 75 10000 3.6 160 17:21 26.11.2021
4613 Clouds 4 995 75 10000 4.12 170 15:46 26.11.2021
4614 Clouds 6 988 78 10000 3.58 202 13:35 26.11.2021
4615 Clouds 6 990 78 10000 4.47 198 11:58 26.11.2021
4616 Clouds 5 998 79 10000 4.02 194 10:37 26.11.2021
4617 Clouds 4 1000 82 10000 5.36 231 08:57 26.11.2021
4618 Clouds 4 1001 83 10000 4.63 240 08:21 26.11.2021
4619 Clouds 4 999 83 10000 4.47 227 07:26 26.11.2021
4620 Clouds 4 998 86 10000 2.24 220 06:26 26.11.2021
4621 Clouds 4 1000 80 10000 2.68 250 03:59 26.11.2021
4622 Clouds 5 1002 85 10000 4.02 232 01:55 26.11.2021
4623 Clouds 5 996 83 10000 5.36 246 23:18 25.11.2021
4624 Clouds 5 996 85 10000 5.36 241 21:27 25.11.2021
4625 Clouds 4 996 84 10000 5.81 235 20:29 25.11.2021
4626 Clouds 4 997 86 10000 4.92 218 18:48 25.11.2021
4627 Clouds 4 997 83 10000 5.36 200 17:48 25.11.2021
4628 Clouds 4 998 83 10000 4.47 218 17:25 25.11.2021
4629 Clouds 4 998 83 10000 4.92 225 16:33 25.11.2021
4630 Clouds 5 998 83 10000 6.26 217 15:33 25.11.2021
4631 Clouds 5 999 80 10000 5.36 230 14:19 25.11.2021
4632 Clouds 5 1000 79 10000 4.02 222 12:28 25.11.2021
4633 Clouds 5 1000 78 10000 4.92 225 11:51 25.11.2021
4634 Clouds 4 1001 79 10000 5.36 189 09:41 25.11.2021
4635 Clouds 4 1005 59 10000 1.79 190 06:22 25.11.2021
4636 Clouds 5 1011 83 10000 1.79 160 02:52 25.11.2021
4637 Clouds 6 1014 91 10000 0.89 180 23:32 24.11.2021
4638 Clouds 6 1014 93 10000 0.89 170 22:26 24.11.2021
4639 Clouds 6 1016 92 10000 2.68 170 21:44 24.11.2021
4640 Clouds 7 1008 94 10000 2.68 161 20:56 24.11.2021
4641 Clouds 6 1016 93 10000 2.24 165 20:26 24.11.2021
4642 Clouds 7 1011 90 10000 2.24 184 18:37 24.11.2021
4643 Clouds 7 1011 90 10000 3.13 189 18:18 24.11.2021
4644 Clouds 7 1012 89 10000 3.58 228 16:19 24.11.2021
4645 Clouds 8 1012 93 10000 2.68 225 14:54 24.11.2021
4646 Clouds 8 1013 92 10000 3.13 230 14:20 24.11.2021
4647 Clouds 8 1014 90 10000 3.58 232 12:50 24.11.2021
4648 Drizzle 7 1015 91 5000 4.02 261 11:22 24.11.2021
4649 Clouds 7 1015 93 10000 4.02 259 10:50 24.11.2021
4650 Clouds 7 1014 91 10000 4.47 270 10:27 24.11.2021
4651 Drizzle 7 1020 92 6000 3.13 256 07:59 24.11.2021
4652 Drizzle 7 1015 95 8000 3.58 247 06:59 24.11.2021
4653 Clouds 7 1015 95 8000 3.58 243 03:59 24.11.2021
4654 Clouds 7 1016 94 8000 3.58 260 01:36 24.11.2021
4655 Clouds 7 1015 92 10000 4.47 266 23:30 23.11.2021
4656 Clouds 7 1015 95 10000 3.58 247 22:34 23.11.2021
4657 Drizzle 7 1016 92 7000 3.58 249 21:45 23.11.2021
4658 Clouds 7 1015 94 10000 3.58 254 20:21 23.11.2021
4659 Clouds 7 1016 92 10000 4.02 242 19:22 23.11.2021
4660 Clouds 7 1015 94 10000 3.13 243 18:33 23.11.2021
4661 Clouds 7 1015 95 10000 4.47 254 17:23 23.11.2021
4662 Clouds 7 1016 92 9000 3.58 240 16:35 23.11.2021
4663 Clouds 7 1016 92 9000 3.58 246 15:26 23.11.2021
4664 Clouds 7 1017 92 8000 3.13 258 14:44 23.11.2021
4665 Drizzle 6 1017 93 6000 6.26 267 12:53 23.11.2021
4666 Drizzle 5 1017 92 4800 4.47 276 10:28 23.11.2021
4667 Mist 5 1017 93 1600 3.13 266 09:46 23.11.2021
4668 Drizzle 4 1016 92 5000 5.36 242 07:56 23.11.2021
4669 Clear 2 1016 89 10000 3.58 234 04:53 23.11.2021
4670 Clear 1 1017 89 10000 3.58 235 03:29 23.11.2021
4671 Clear 1 1018 84 10000 2.24 239 23:38 22.11.2021
4672 Clear 1 1018 82 10000 2.68 253 22:58 22.11.2021
4673 Clear 1 1018 83 10000 2.68 251 22:30 22.11.2021
4674 Clear 1 1018 85 10000 2.68 280 21:44 22.11.2021
4675 Clear 1 1017 84 10000 2.68 251 21:19 22.11.2021
4676 Clear 1 1017 82 10000 2.68 276 20:27 22.11.2021
4677 Clear 2 1017 82 10000 2.24 270 19:20 22.11.2021
4678 Clear 2 1017 78 10000 2.68 282 18:41 22.11.2021
4679 Clear 3 1017 78 10000 3.13 312 17:48 22.11.2021
4680 Clouds 4 1015 77 10000 3.58 342 16:41 22.11.2021
4681 Clouds 5 1015 72 10000 5.36 332 15:29 22.11.2021
4682 Clouds 7 1014 73 10000 5.81 352 12:51 22.11.2021
4683 Clouds 6 1011 78 10000 4.47 351 11:34 22.11.2021
4684 Clouds 5 1020 89 10000 6.26 357 10:26 22.11.2021
4685 Clouds 3 1012 92 10000 4.02 347 08:43 22.11.2021
4686 Clouds 3 1012 92 10000 4.02 345 08:43 22.11.2021
4687 Clouds 3 1012 92 10000 4.47 349 08:24 22.11.2021
4688 Clouds 5 1006 94 10000 0.89 272 01:39 22.11.2021
4689 Clouds 5 1004 93 10000 3.13 290 23:21 21.11.2021
4690 Clouds 5 1004 93 10000 1.79 306 22:43 21.11.2021
4691 Clear 6 1003 93 10000 1.79 275 21:22 21.11.2021
4692 Fog 6 1003 93 10000 2.24 297 20:36 21.11.2021
4693 Clouds 6 1002 93 10000 2.24 241 19:35 21.11.2021
4694 Clouds 8 1001 91 10000 1.79 218 17:57 21.11.2021
4695 Clouds 8 1001 90 10000 0.45 247 17:36 21.11.2021
4696 Drizzle 9 1000 93 10000 2.24 264 15:21 21.11.2021
4697 Clouds 9 999 93 8000 2.24 261 14:42 21.11.2021
4698 Clouds 9 999 92 10000 4.92 260 13:23 21.11.2021
4699 Drizzle 9 999 89 9000 4.02 258 12:27 21.11.2021
4700 Drizzle 8 999 90 4100 5.36 246 11:38 21.11.2021
4701 Drizzle 8 999 91 5000 7.6 260 10:19 21.11.2021
4702 Drizzle 8 999 88 10000 5.36 254 09:47 21.11.2021
4703 Clouds 9 999 84 10000 5.36 233 08:34 21.11.2021
4704 Clouds 9 999 83 10000 6.26 254 07:54 21.11.2021
4705 Clouds 9 999 83 10000 5.36 255 07:33 21.11.2021
4706 Clouds 9 1006 80 10000 6.26 236 05:43 21.11.2021
4707 Clouds 9 1000 83 10000 6.26 225 04:35 21.11.2021
4708 Clouds 9 1000 83 10000 6.26 225 04:35 21.11.2021
4709 Clouds 9 1002 83 10000 7.15 223 03:18 21.11.2021
4710 Clouds 9 1008 83 10000 8.05 245 02:42 21.11.2021
4711 Clouds 10 1003 81 10000 6.71 233 00:53 21.11.2021
4712 Clouds 10 1004 81 10000 6.71 249 23:22 20.11.2021
4713 Clouds 10 1012 79 10000 4.47 241 21:39 20.11.2021
4714 Clouds 10 1007 77 10000 6.26 264 20:39 20.11.2021
4715 Clouds 11 1008 80 10000 6.71 231 18:46 20.11.2021
4716 Clouds 11 1008 81 10000 5.36 247 18:26 20.11.2021
4717 Clouds 11 1008 82 10000 5.81 256 17:22 20.11.2021
4718 Clouds 11 1008 82 10000 5.81 256 17:22 20.11.2021
4719 Clouds 11 1009 83 10000 5.81 247 16:41 20.11.2021
4720 Clouds 12 1010 84 10000 6.26 253 14:43 20.11.2021
4721 Clouds 12 1011 84 10000 7.15 245 14:23 20.11.2021
4722 Clouds 12 1013 87 10000 6.26 252 11:56 20.11.2021
4723 Clouds 11 1013 90 10000 6.71 253 10:35 20.11.2021
4724 Clouds 11 1012 92 10000 5.36 256 09:29 20.11.2021
4725 Clouds 11 1014 89 10000 5.36 263 07:22 20.11.2021
4726 Drizzle 11 1014 89 10000 6.26 276 05:27 20.11.2021
4727 Clouds 11 1014 89 10000 6.26 280 04:50 20.11.2021
4728 Clouds 11 1014 88 10000 7.6 296 04:50 20.11.2021
4729 Clouds 12 1014 85 10000 8.05 286 01:55 20.11.2021
4730 Clouds 12 1015 85 10000 7.15 266 00:40 20.11.2021
4731 Clouds 12 1014 83 10000 4.92 266 22:58 19.11.2021
4732 Clouds 12 1014 82 10000 6.26 264 22:21 19.11.2021
4733 Clouds 12 1014 81 10000 6.71 265 20:58 19.11.2021
4734 Clouds 12 1014 81 10000 6.26 280 20:36 19.11.2021
4735 Clouds 12 1014 80 10000 7.15 267 19:55 19.11.2021
4736 Clouds 12 1013 81 10000 6.71 278 18:54 19.11.2021
4737 Clouds 12 1014 81 10000 7.6 260 18:23 19.11.2021
4738 Clouds 12 1013 83 10000 8.49 269 17:36 19.11.2021
4739 Clouds 12 1013 84 10000 8.94 273 15:58 19.11.2021
4740 Drizzle 12 1013 88 10000 8.49 270 13:55 19.11.2021
4741 Clouds 12 1013 91 10000 8.05 269 10:28 19.11.2021
4742 Clouds 11 1013 91 10000 9.39 258 09:38 19.11.2021
4743 Clouds 11 1013 92 10000 7.15 271 08:24 19.11.2021
4744 Clouds 11 1013 91 10000 6.26 268 04:54 19.11.2021
4745 Clouds 10 1011 92 10000 8.05 259 02:40 19.11.2021
4746 Clouds 9 1013 92 10000 7.15 244 23:52 18.11.2021
4747 Drizzle 8 1013 93 8000 8.49 238 22:21 18.11.2021
4748 Clouds 8 1013 93 8000 6.71 245 20:50 18.11.2021
4749 Clouds 8 1013 92 7000 7.15 238 20:32 18.11.2021
4750 Clouds 8 1013 92 10000 8.49 236 19:58 18.11.2021
4751 Rain 8 1013 90 10000 8.05 245 19:35 18.11.2021
4752 Rain 9 1014 87 10000 8.05 239 18:34 18.11.2021
4753 Clouds 9 1014 85 10000 6.71 249 17:51 18.11.2021
4754 Rain 10 1014 83 10000 7.15 250 16:45 18.11.2021
4755 Clouds 10 1014 83 10000 6.71 244 15:52 18.11.2021
4756 Clouds 10 1015 83 10000 7.6 250 14:18 18.11.2021
4757 Clouds 10 1015 88 10000 6.71 253 12:53 18.11.2021
4758 Clouds 9 1015 90 10000 7.15 255 11:44 18.11.2021
4759 Clouds 8 1015 91 10000 6.26 250 11:25 18.11.2021
4760 Clouds 8 1015 91 10000 5.36 244 10:21 18.11.2021
4761 Clear 6 1014 92 10000 4.92 244 07:42 18.11.2021
4762 Clouds 6 1014 92 10000 4.47 246 06:20 18.11.2021
4763 Clouds 6 1013 92 10000 4.02 249 05:41 18.11.2021
4764 Clouds 6 1013 89 10000 4.47 257 01:25 18.11.2021
4765 Clouds 7 1012 89 10000 5.36 268 23:27 17.11.2021
4766 Clouds 7 1012 87 10000 6.26 251 22:39 17.11.2021
4767 Clouds 7 1011 88 10000 5.36 240 22:18 17.11.2021
4768 Clouds 7 1012 88 10000 6.26 263 21:35 17.11.2021
4769 Clouds 7 1010 89 10000 4.47 241 19:42 17.11.2021
4770 Clouds 6 1009 89 10000 4.92 214 17:35 17.11.2021
4771 Clouds 6 1009 87 10000 4.92 240 15:55 17.11.2021
4772 Clouds 5 1009 88 10000 6.26 223 13:18 17.11.2021
4773 Clouds 5 1010 89 10000 6.26 220 12:36 17.11.2021
4774 Clouds 5 1010 91 10000 4.02 231 10:54 17.11.2021
4775 Clouds 4 1016 91 10000 4.02 225 09:38 17.11.2021
4776 Drizzle 4 1016 90 10000 3.58 235 07:56 17.11.2021
4777 Drizzle 4 1016 90 10000 2.68 245 07:37 17.11.2021
4778 Clouds 6 1010 88 10000 1.79 239 02:49 17.11.2021
4779 Clouds 6 1008 88 10000 2.24 239 00:35 17.11.2021
4780 Clouds 6 1012 90 7000 1.34 150 22:32 16.11.2021
4781 Clouds 7 1012 86 7000 1.79 106 20:19 16.11.2021
4782 Clouds 7 1012 85 7000 2.68 100 19:41 16.11.2021
4783 Clouds 7 1013 85 7000 4.02 124 18:52 16.11.2021
4784 Clouds 7 1013 88 7000 3.58 125 18:29 16.11.2021
4785 Clouds 7 1013 89 8000 4.92 121 17:29 16.11.2021
4786 Clouds 7 1013 86 9000 3.58 106 16:21 16.11.2021
4787 Clouds 7 1013 86 9000 4.02 105 15:44 16.11.2021
4788 Clouds 8 1014 82 10000 3.58 115 13:49 16.11.2021
4789 Clouds 6 1016 90 7000 2.68 112 10:39 16.11.2021
4790 Clouds 6 1016 90 6000 2.24 81 09:42 16.11.2021
4791 Clouds 5 1016 92 6000 4.02 143 08:24 16.11.2021
4792 Clouds 5 1023 92 6000 4.02 130 07:30 16.11.2021
4793 Clouds 6 1018 88 10000 3.13 71 23:54 15.11.2021
4794 Clouds 5 1019 88 10000 2.68 75 22:43 15.11.2021
4795 Clouds 5 1019 88 10000 3.58 76 22:20 15.11.2021
4796 Clouds 6 1019 88 10000 2.68 62 21:51 15.11.2021
4797 Clouds 6 1019 88 10000 3.13 77 21:25 15.11.2021
4798 Clouds 6 1019 88 10000 3.13 86 19:41 15.11.2021
4799 Clouds 6 1019 87 10000 3.58 75 18:18 15.11.2021
4800 Clouds 6 1020 87 10000 4.02 68 16:19 15.11.2021
4801 Clouds 6 1020 87 10000 3.13 85 15:40 15.11.2021
4802 Clouds 6 1020 87 10000 4.02 74 15:20 15.11.2021
4803 Clouds 6 1021 87 8000 4.02 68 12:47 15.11.2021
4804 Clouds 6 1021 87 10000 5.36 70 10:57 15.11.2021
4805 Clouds 6 1021 88 10000 3.13 87 09:27 15.11.2021
4806 Clouds 6 1021 89 6000 4.02 98 07:45 15.11.2021
4807 Clouds 6 1024 84 10000 2.68 70 04:46 15.11.2021
4808 Clouds 6 1021 87 7000 2.68 73 23:37 14.11.2021
4809 Clouds 6 1021 88 7000 2.68 62 22:35 14.11.2021
4810 Clouds 6 1020 86 6000 6.26 80 19:53 14.11.2021
4811 Clouds 6 1019 87 6000 3.13 69 19:18 14.11.2021
4812 Clouds 7 1019 87 6000 5.36 72 18:54 14.11.2021
4813 Clouds 7 1019 88 6000 4.92 79 18:36 14.11.2021
4814 Clouds 7 1018 89 6000 4.02 51 18:18 14.11.2021
4815 Clouds 7 1018 89 6000 3.13 31 17:55 14.11.2021
4816 Clouds 7 1018 90 6000 2.68 40 17:37 14.11.2021
4817 Clouds 7 1018 90 6000 4.47 39 17:19 14.11.2021
4818 Clouds 7 1018 89 6000 4.02 26 16:46 14.11.2021
4819 Clouds 7 1018 90 7000 3.58 39 16:20 14.11.2021
4820 Clouds 7 1017 89 8000 3.13 29 15:23 14.11.2021
4821 Clouds 7 1016 89 9000 4.02 37 14:49 14.11.2021
4822 Clouds 8 1016 88 9000 4.92 19 14:29 14.11.2021
4823 Clouds 8 1016 87 9000 3.58 38 13:54 14.11.2021
4824 Clouds 8 1016 88 9000 4.92 25 13:35 14.11.2021
4825 Clouds 7 1015 89 10000 2.68 34 12:27 14.11.2021
4826 Clouds 7 1015 90 9000 1.79 48 11:41 14.11.2021
4827 Clouds 6 1015 90 10000 2.68 25 10:42 14.11.2021
4828 Clouds 6 1014 91 10000 3.13 28 09:52 14.11.2021
4829 Clouds 5 1014 91 10000 2.68 357 08:55 14.11.2021
4830 Clouds 6 1013 92 10000 0.89 164 07:23 14.11.2021
4831 Clouds 5 1009 94 9000 0.45 60 00:27 14.11.2021
4832 Fog 5 1008 92 8000 1.34 144 22:26 13.11.2021
4833 Fog 5 1008 90 8000 0.89 164 21:57 13.11.2021
4834 Fog 5 1008 91 8000 0.89 138 21:25 13.11.2021
4835 Clear 6 1007 91 10000 2.68 146 19:47 13.11.2021
4836 Clear 7 1007 89 10000 1.79 171 18:33 13.11.2021
4837 Clear 7 1007 88 10000 2.24 157 17:56 13.11.2021
4838 Clear 8 1006 85 10000 0.89 154 16:40 13.11.2021
4839 Clear 9 1006 82 10000 2.24 171 15:37 13.11.2021
4840 Clear 8 1005 82 10000 1.79 185 14:33 13.11.2021
4841 Clear 8 1005 83 10000 4.47 185 13:45 13.11.2021
4842 Clear 7 1004 81 10000 3.13 172 12:33 13.11.2021
4843 Clear 6 1006 84 10000 3.13 174 11:38 13.11.2021
4844 Clear 5 1006 84 10000 4.47 170 10:45 13.11.2021
4845 Clear 5 1006 88 10000 3.58 155 10:23 13.11.2021
4846 Clear 5 1006 88 10000 3.58 155 10:23 13.11.2021
4847 Clouds 4 1006 92 9000 3.13 145 09:39 13.11.2021
4848 Clouds 4 1006 92 7000 2.68 149 08:59 13.11.2021
4849 Clouds 4 1006 92 7000 3.13 149 08:34 13.11.2021
4850 Clear 4 1005 89 10000 3.13 158 06:27 13.11.2021
4851 Clouds 3 1005 90 7000 3.58 143 04:32 13.11.2021
4852 Clouds 4 1006 90 7000 3.58 139 01:55 13.11.2021
4853 Clear 5 1007 88 10000 4.47 147 23:23 12.11.2021
4854 Clear 6 1007 88 10000 5.36 130 21:51 12.11.2021
4855 Clouds 6 1008 88 10000 2.68 110 20:19 12.11.2021
4856 Clouds 7 1009 89 10000 4.02 130 19:30 12.11.2021
4857 Clouds 7 1009 86 10000 2.24 114 18:52 12.11.2021
4858 Clouds 7 1009 87 10000 2.68 100 17:34 12.11.2021
4859 Clouds 8 1010 86 10000 4.02 140 15:51 12.11.2021
4860 Clouds 9 1011 89 10000 4.47 135 13:25 12.11.2021
4861 Mist 8 1013 92 5000 3.13 150 11:21 12.11.2021
4862 Mist 7 1013 92 3800 2.24 177 09:54 12.11.2021
4863 Mist 7 1014 92 1200 2.68 178 08:45 12.11.2021
4864 Mist 7 1014 93 3200 1.79 224 06:34 12.11.2021
4865 Drizzle 7 1015 92 1800 2.68 229 23:43 11.11.2021
4866 Drizzle 7 1015 92 1800 2.68 229 23:43 11.11.2021
4867 Drizzle 7 1015 92 1600 2.24 223 22:46 11.11.2021
4868 Drizzle 7 1015 91 2800 3.13 245 21:43 11.11.2021
4869 Clouds 8 1015 90 10000 3.58 238 20:51 11.11.2021
4870 Clouds 8 1015 90 10000 1.79 246 19:48 11.11.2021
4871 Clouds 8 1014 91 10000 4.02 234 18:25 11.11.2021
4872 Clouds 8 1014 89 10000 3.58 211 17:40 11.11.2021
4873 Clouds 9 1014 85 10000 3.13 269 15:21 11.11.2021
4874 Clouds 9 1014 85 10000 2.24 257 14:39 11.11.2021
4875 Clouds 9 1014 85 10000 3.13 257 14:20 11.11.2021
4876 Clear 9 1014 82 10000 3.58 224 13:35 11.11.2021
4877 Clear 8 1012 89 10000 2.68 239 12:26 11.11.2021
4878 Clouds 5 1015 92 6000 1.79 244 09:55 11.11.2021
4879 Mist 3 1014 94 4800 1.34 236 09:22 11.11.2021
4880 Clear 3 1012 92 10000 0.89 203 06:55 11.11.2021
4881 Clear 5 1014 89 10000 0.89 8 00:38 11.11.2021
4882 Clear 5 1015 91 10000 2.24 188 22:46 10.11.2021
4883 Clear 5 1015 89 10000 1.34 199 21:54 10.11.2021
4884 Clear 5 1015 90 10000 1.79 185 20:56 10.11.2021
4885 Clear 5 1015 89 10000 0.89 179 20:25 10.11.2021
4886 Clear 5 1015 86 10000 0.89 192 19:45 10.11.2021
4887 Clear 6 1015 86 10000 2.68 164 17:28 10.11.2021
4888 Clear 7 1015 82 10000 2.68 196 16:21 10.11.2021
4889 Clear 9 1016 79 10000 3.58 200 14:25 10.11.2021
4890 Clear 9 1016 77 10000 3.58 197 13:38 10.11.2021
4891 Clear 9 1013 77 10000 4.47 185 12:31 10.11.2021
4892 Clear 5 1017 90 10000 2.68 168 09:41 10.11.2021
4893 Clouds 5 1014 90 10000 2.24 125 08:44 10.11.2021
4894 Fog 3 1017 91 10000 2.24 154 06:59 10.11.2021
4895 Fog 4 1017 92 10000 0.89 136 05:58 10.11.2021
4896 Clear 4 1017 92 10000 1.34 110 04:59 10.11.2021
4897 Clear 6 1019 89 10000 3.13 158 22:45 09.11.2021
4898 Clear 6 1019 92 10000 3.58 133 21:46 09.11.2021
4899 Clear 7 1020 89 10000 2.68 152 20:20 09.11.2021
4900 Clear 7 1020 87 10000 2.68 163 18:59 09.11.2021
4901 Clear 9 1020 83 10000 2.24 159 17:30 09.11.2021
4902 Clouds 11 1020 77 10000 2.68 209 15:38 09.11.2021
4903 Clouds 11 1020 77 10000 3.13 227 13:59 09.11.2021
4904 Clouds 11 1020 81 10000 2.24 228 12:50 09.11.2021
4905 Clouds 10 1020 90 10000 2.68 219 11:38 09.11.2021
4906 Clouds 10 1020 90 10000 2.68 219 11:38 09.11.2021
4907 Clouds 9 1019 93 10000 3.13 184 10:43 09.11.2021
4908 Clouds 8 1018 94 10000 2.24 220 09:24 09.11.2021
4909 Clouds 8 1019 95 10000 3.13 197 08:19 09.11.2021
4910 Drizzle 8 1017 95 4000 2.68 240 05:45 09.11.2021
4911 Drizzle 8 1016 94 6000 1.79 243 02:19 09.11.2021
4912 Clouds 8 1016 94 8000 1.79 241 01:39 09.11.2021
4913 Drizzle 8 1014 94 4500 2.68 247 23:36 08.11.2021
4914 Clouds 8 1015 92 10000 3.58 275 22:49 08.11.2021
4915 Clouds 9 1014 89 10000 3.13 245 21:46 08.11.2021
4916 Clouds 9 1013 90 10000 3.58 252 20:53 08.11.2021
4917 Clouds 9 1013 87 10000 3.13 260 19:49 08.11.2021
4918 Clouds 9 1012 85 10000 3.58 238 18:25 08.11.2021
4919 Clouds 10 1011 82 10000 3.58 261 16:22 08.11.2021
4920 Clouds 11 1010 81 10000 5.81 269 14:58 08.11.2021
4921 Clouds 11 1010 81 10000 6.71 261 14:38 08.11.2021
4922 Clouds 10 1016 82 10000 7.15 261 13:31 08.11.2021
4923 Clouds 10 1010 86 10000 6.26 282 11:56 08.11.2021
4924 Clouds 9 1009 89 10000 7.6 290 10:52 08.11.2021
4925 Clouds 9 1009 92 10000 5.36 279 09:44 08.11.2021
4926 Drizzle 8 1008 93 10000 6.26 277 08:54 08.11.2021
4927 Clouds 8 1007 95 10000 6.26 264 07:35 08.11.2021
4928 Drizzle 7 1005 93 8000 6.71 254 04:42 08.11.2021
4929 Clouds 7 1005 92 8000 6.26 254 03:28 08.11.2021
4930 Rain 7 1003 85 10000 4.92 256 23:46 07.11.2021
4931 Clouds 8 1002 83 10000 6.71 254 21:54 07.11.2021
4932 Clear 8 1002 86 10000 6.26 246 21:20 07.11.2021
4933 Clouds 8 1002 87 10000 6.26 231 19:40 07.11.2021
4934 Clouds 8 1001 86 10000 5.81 255 18:22 07.11.2021
4935 Clouds 8 1001 86 10000 6.71 241 16:54 07.11.2021
4936 Clouds 9 1000 86 10000 8.49 261 15:54 07.11.2021
4937 Clouds 10 1000 87 10000 9.83 245 14:29 07.11.2021
4938 Clouds 10 999 86 10000 6.26 251 13:54 07.11.2021
4939 Clouds 11 1001 79 10000 8.05 240 11:44 07.11.2021
4940 Clouds 9 1001 84 10000 7.6 234 09:57 07.11.2021
4941 Clouds 9 1002 83 10000 8.05 237 08:31 07.11.2021
4942 Clouds 8 1007 80 10000 7.6 213 02:43 07.11.2021
4943 Clouds 9 1011 79 10000 7.15 215 23:40 06.11.2021
4944 Clouds 9 1011 79 10000 8.05 219 22:50 06.11.2021
4945 Clear 9 1012 78 10000 7.15 215 21:34 06.11.2021
4946 Clear 9 1012 81 10000 6.71 215 20:52 06.11.2021
4947 Clouds 10 1014 83 10000 5.81 220 18:56 06.11.2021
4948 Clouds 10 1014 79 10000 5.36 224 17:18 06.11.2021
4949 Clouds 11 1015 79 10000 6.26 232 15:31 06.11.2021
4950 Clouds 11 1016 76 10000 7.15 239 13:39 06.11.2021
4951 Clouds 11 1016 75 10000 6.71 239 12:36 06.11.2021
4952 Clouds 9 1017 85 10000 7.15 242 09:42 06.11.2021
4953 Clouds 8 1016 88 10000 7.15 239 07:58 06.11.2021
4954 Clouds 7 1015 92 10000 5.36 238 03:20 06.11.2021
4955 Clear 7 1014 90 10000 5.36 257 23:38 05.11.2021
4956 Clear 8 1014 89 10000 4.92 234 22:52 05.11.2021
4957 Clear 8 1014 89 10000 4.92 255 21:55 05.11.2021
4958 Clear 9 1013 89 10000 5.36 245 20:20 05.11.2021
4959 Clear 9 1013 89 10000 6.26 246 19:49 05.11.2021
4960 Clouds 9 1012 90 10000 7.15 233 18:41 05.11.2021
4961 Clouds 9 1010 91 10000 5.36 242 17:34 05.11.2021
4962 Clouds 10 1010 89 10000 6.71 262 15:48 05.11.2021
4963 Clouds 10 1010 87 10000 4.92 251 13:59 05.11.2021
4964 Clouds 9 1008 90 10000 6.26 265 11:43 05.11.2021
4965 Clouds 7 1005 94 10000 5.81 254 08:57 05.11.2021
4966 Clouds 7 1004 94 10000 6.26 266 07:45 05.11.2021
4967 Rain 7 1000 94 10000 7.15 241 05:33 05.11.2021
4968 Rain 7 1000 94 10000 7.15 241 05:33 05.11.2021
4969 Rain 7 998 94 10000 8.49 281 02:27 05.11.2021
4970 Rain 7 997 94 10000 8.94 259 00:54 05.11.2021
4971 Rain 7 994 93 10000 12.52 287 23:26 04.11.2021
4972 Rain 7 994 93 10000 12.52 287 23:26 04.11.2021
4973 Rain 7 993 93 10000 12.07 280 22:21 04.11.2021
4974 Rain 7 992 93 10000 9.83 276 21:52 04.11.2021
4975 Rain 8 990 93 10000 14.31 268 21:19 04.11.2021
4976 Rain 8 989 94 10000 11.18 280 20:25 04.11.2021
4977 Rain 8 988 94 10000 14.31 269 19:48 04.11.2021
4978 Rain 8 987 94 10000 10.73 272 19:20 04.11.2021
4979 Rain 9 985 95 10000 9.39 267 18:21 04.11.2021
4980 Rain 8 985 95 6000 4.47 253 17:26 04.11.2021
4981 Rain 8 985 95 6000 4.47 253 17:26 04.11.2021
4982 Drizzle 7 985 94 4000 4.92 251 15:35 04.11.2021
4983 Rain 7 985 95 5000 4.92 329 13:45 04.11.2021
4984 Rain 7 988 94 3500 4.47 355 10:22 04.11.2021
4985 Mist 7 990 92 5000 4.47 16 08:31 04.11.2021
4986 Mist 6 990 92 5000 4.47 39 07:36 04.11.2021
4987 Clouds 6 991 92 8000 2.24 23 06:38 04.11.2021
4988 Clear 7 994 88 10000 3.13 60 22:54 03.11.2021
4989 Rain 7 994 88 10000 3.58 76 21:57 03.11.2021
4990 Clear 7 1002 88 10000 3.58 75 21:35 03.11.2021
4991 Clear 7 994 87 10000 3.58 54 20:39 03.11.2021
4992 Clear 7 994 87 10000 3.58 54 20:39 03.11.2021
4993 Clear 7 994 86 10000 3.58 50 20:19 03.11.2021
4994 Clear 8 1001 88 10000 4.02 75 19:28 03.11.2021
4995 Clear 9 994 84 10000 4.02 84 18:26 03.11.2021
4996 Clear 9 994 84 10000 2.24 79 17:41 03.11.2021
4997 Clouds 10 994 83 10000 2.24 80 16:42 03.11.2021
4998 Clouds 10 994 81 10000 2.68 85 15:49 03.11.2021
4999 Clouds 10 994 80 10000 2.68 74 15:29 03.11.2021
5000 Clouds 11 995 81 10000 1.79 143 13:18 03.11.2021
5001 Clouds 9 995 92 10000 2.24 136 11:34 03.11.2021
5002 Clouds 8 994 92 10000 2.24 161 10:50 03.11.2021
5003 Clouds 6 990 91 10000 1.79 166 09:40 03.11.2021
5004 Clouds 5 990 93 10000 1.79 154 08:49 03.11.2021
5005 Fog 4 992 93 10000 1.79 114 07:40 03.11.2021
5006 Fog 4 991 93 10000 0.45 141 06:30 03.11.2021
5007 Fog 5 993 92 10000 1.79 138 04:22 03.11.2021
5008 Clear 6 993 92 10000 1.79 216 00:57 03.11.2021
5009 Clear 7 1000 90 10000 2.68 188 22:52 02.11.2021
5010 Clouds 8 1000 91 10000 2.24 193 21:54 02.11.2021
5011 Clouds 9 1000 91 10000 3.13 207 20:36 02.11.2021
5012 Clouds 8 999 92 10000 1.79 136 19:56 02.11.2021
5013 Clouds 9 992 89 10000 3.13 143 19:27 02.11.2021
5014 Clear 9 992 88 10000 2.24 127 18:35 02.11.2021
5015 Clouds 10 991 87 10000 0.51 0 17:44 02.11.2021
5016 Clouds 11 991 84 10000 0.89 250 16:47 02.11.2021
5017 Clouds 12 991 82 10000 1.79 250 15:58 02.11.2021
5018 Clouds 12 991 81 10000 2.24 243 14:57 02.11.2021
5019 Clouds 11 991 84 10000 3.13 234 13:30 02.11.2021
5020 Clouds 11 991 86 10000 0.89 239 12:52 02.11.2021
5021 Clouds 10 991 90 10000 2.24 225 11:40 02.11.2021
5022 Clouds 10 991 92 10000 2.68 228 10:59 02.11.2021
5023 Clouds 10 991 92 10000 1.79 227 10:32 02.11.2021
5024 Clouds 9 991 93 10000 3.13 160 09:45 02.11.2021
5025 Drizzle 9 991 93 10000 2.24 134 07:47 02.11.2021
5026 Clouds 9 991 94 10000 2.68 131 05:55 02.11.2021
5027 Clouds 9 992 93 10000 2.24 144 03:27 02.11.2021
5028 Clouds 10 993 90 10000 4.47 162 00:19 02.11.2021
5029 Rain 10 994 88 10000 3.58 154 21:57 01.11.2021
5030 Rain 10 994 87 10000 4.02 177 20:45 01.11.2021
5031 Clouds 10 994 87 10000 4.47 160 20:19 01.11.2021
5032 Clouds 10 994 88 10000 4.92 154 19:42 01.11.2021
5033 Rain 10 994 89 10000 2.68 155 18:50 01.11.2021
5034 Rain 11 994 89 10000 4.47 172 17:49 01.11.2021
5035 Rain 11 994 88 10000 4.47 204 16:57 01.11.2021
5036 Clouds 11 994 88 10000 5.36 215 16:32 01.11.2021
5037 Rain 12 994 86 10000 5.36 227 15:39 01.11.2021
5038 Rain 12 994 85 10000 4.02 213 15:19 01.11.2021
5039 Rain 12 994 85 10000 4.47 211 14:38 01.11.2021
5040 Rain 12 994 85 10000 4.02 225 14:19 01.11.2021
5041 Clear 13 994 80 10000 3.58 219 12:41 01.11.2021
5042 Rain 12 994 80 10000 2.68 242 11:39 01.11.2021
5043 Clear 12 992 81 10000 3.58 231 10:20 01.11.2021
5044 Clouds 10 992 83 10000 1.79 169 08:20 01.11.2021
5045 Clear 9 991 83 10000 2.24 162 07:46 01.11.2021
5046 Clear 9 991 81 10000 4.47 150 03:55 01.11.2021
5047 Clear 9 992 81 10000 3.58 143 03:33 01.11.2021
5048 Clear 11 994 75 10000 3.58 150 23:52 31.10.2021
5049 Clear 13 996 69 10000 4.92 131 20:58 31.10.2021
5050 Clear 14 997 71 10000 5.36 136 19:54 31.10.2021
5051 Clear 14 998 74 10000 5.81 136 18:43 31.10.2021
5052 Clear 14 998 73 10000 5.36 123 18:21 31.10.2021
5053 Clear 16 999 72 10000 3.13 124 16:48 31.10.2021
5054 Clear 18 999 71 10000 4.92 155 14:53 31.10.2021
5055 Clear 17 1000 69 10000 4.02 179 12:57 31.10.2021
5056 Clear 17 999 67 10000 4.47 190 11:56 31.10.2021
5057 Clear 15 1009 74 10000 4.92 187 10:48 31.10.2021
5058 Clear 13 1002 77 10000 4.02 170 09:26 31.10.2021
5059 Clear 11 1002 80 10000 4.02 177 08:46 31.10.2021
5060 Clouds 10 1000 73 10000 4.47 189 02:54 31.10.2021
5061 Clear 11 999 72 10000 4.02 185 23:42 30.10.2021
5062 Clear 11 998 72 10000 4.02 187 21:46 30.10.2021
5063 Clear 10 998 72 10000 3.58 164 21:25 30.10.2021
5064 Clear 11 998 71 10000 2.68 170 19:35 30.10.2021
5065 Clear 13 998 63 10000 3.58 154 17:43 30.10.2021
5066 Clear 15 998 63 10000 5.81 131 15:34 30.10.2021
5067 Clear 14 999 60 10000 4.92 111 13:58 30.10.2021
5068 Clear 14 999 60 10000 4.47 127 13:38 30.10.2021
5069 Clear 14 1000 60 10000 4.02 125 13:19 30.10.2021
5070 Clear 12 1008 67 10000 4.02 142 11:49 30.10.2021
5071 Clear 9 1002 80 10000 4.02 138 10:44 30.10.2021
5072 Clear 6 1003 82 10000 1.79 97 08:56 30.10.2021
5073 Clear 6 1002 89 10000 2.24 130 07:55 30.10.2021
5074 Clear 6 1003 87 10000 2.24 160 05:46 30.10.2021
5075 Clear 7 1003 82 10000 1.79 230 02:26 30.10.2021
5076 Clear 8 1003 82 10000 4.02 167 23:21 29.10.2021
5077 Clear 8 1003 85 10000 4.92 159 22:34 29.10.2021
5078 Clear 8 1003 86 10000 2.24 150 20:59 29.10.2021
5079 Clear 9 1003 86 10000 3.13 142 20:32 29.10.2021
5080 Clear 11 1003 79 10000 2.68 123 19:18 29.10.2021
5081 Clear 12 1003 75 10000 2.24 127 17:43 29.10.2021
5082 Clear 15 1004 68 10000 2.68 144 15:42 29.10.2021
5083 Clear 12 1005 71 10000 1.79 163 12:50 29.10.2021
5084 Clear 9 1004 82 10000 3.13 176 10:46 29.10.2021
5085 Clouds 6 1006 91 9000 2.24 140 09:46 29.10.2021
5086 Clear 8 1007 84 10000 3.13 170 02:46 29.10.2021
5087 Clear 9 1008 82 10000 4.92 162 00:30 29.10.2021
5088 Clear 10 1009 79 10000 3.58 145 22:32 28.10.2021
5089 Clear 11 1009 79 10000 2.68 144 20:59 28.10.2021
5090 Clear 12 1009 80 10000 3.58 128 19:57 28.10.2021
5091 Clear 12 1010 80 10000 3.13 105 18:47 28.10.2021
5092 Clear 14 1010 75 10000 3.13 129 17:42 28.10.2021
5093 Clear 16 1010 67 10000 2.24 131 16:38 28.10.2021
5094 Clear 16 1011 67 10000 3.13 159 14:43 28.10.2021
5095 Clear 15 1012 73 10000 3.13 171 13:33 28.10.2021
5096 Clear 15 1008 77 10000 3.58 155 12:50 28.10.2021
5097 Clear 13 1018 80 10000 4.47 162 11:50 28.10.2021
5098 Clear 11 1013 84 10000 4.02 164 10:47 28.10.2021
5099 Clear 9 1014 89 10000 2.24 152 09:37 28.10.2021
5100 Clouds 7 1014 92 8000 2.24 140 08:37 28.10.2021
5101 Clear 7 1014 92 10000 2.68 162 07:41 28.10.2021
5102 Clear 10 1014 88 10000 3.58 183 03:51 28.10.2021
5103 Clouds 13 1014 81 10000 4.47 220 23:26 27.10.2021
5104 Clouds 13 1014 82 10000 4.47 214 22:29 27.10.2021
5105 Clouds 13 1014 83 10000 4.47 209 21:32 27.10.2021
5106 Clouds 13 1014 83 10000 4.92 230 20:48 27.10.2021
5107 Clouds 13 1014 85 10000 4.47 203 19:50 27.10.2021
5108 Clouds 14 1014 82 10000 5.36 195 18:56 27.10.2021
5109 Clouds 14 1014 82 10000 4.47 198 18:37 27.10.2021
5110 Clouds 14 1012 81 10000 4.47 214 16:26 27.10.2021
5111 Clouds 14 1013 80 10000 6.26 209 15:29 27.10.2021
5112 Clouds 14 1012 82 10000 5.36 226 14:38 27.10.2021
5113 Clouds 13 1020 79 10000 6.26 221 11:20 27.10.2021
5114 Clouds 12 1019 81 10000 7.6 227 10:57 27.10.2021
5115 Clouds 11 1013 84 10000 7.15 226 09:43 27.10.2021
5116 Clouds 11 1013 85 10000 5.81 234 07:52 27.10.2021
5117 Clouds 10 1013 85 10000 4.92 214 06:38 27.10.2021
5118 Clear 10 1013 86 10000 4.47 227 01:31 27.10.2021
5119 Clear 10 1012 86 10000 4.02 220 00:56 27.10.2021
5120 Clouds 10 1013 86 10000 3.13 213 00:24 27.10.2021
5121 Clouds 10 1012 87 10000 3.58 213 23:40 26.10.2021
5122 Clear 10 1012 86 10000 3.58 217 22:36 26.10.2021
5123 Clear 10 1012 86 10000 3.13 222 21:52 26.10.2021
5124 Clear 11 1012 86 10000 4.02 227 20:27 26.10.2021
5125 Clouds 11 1012 87 10000 3.13 223 19:26 26.10.2021
5126 Clouds 12 1011 85 10000 2.24 248 18:40 26.10.2021
5127 Clouds 12 1011 85 10000 2.24 233 18:40 26.10.2021
5128 Clouds 14 1011 78 10000 4.47 239 16:22 26.10.2021
5129 Clouds 13 1010 79 10000 5.36 237 14:19 26.10.2021
5130 Clouds 11 1010 86 10000 3.58 241 11:34 26.10.2021
5131 Clouds 9 1010 89 10000 4.02 225 09:59 26.10.2021
5132 Clouds 7 1009 91 10000 2.24 186 07:24 26.10.2021
5133 Clear 6 1009 93 10000 2.24 175 03:39 26.10.2021
5134 Clear 6 1010 88 10000 3.58 184 23:50 25.10.2021
5135 Clear 6 1009 90 10000 2.68 168 22:39 25.10.2021
5136 Clear 7 1010 86 10000 1.79 167 22:18 25.10.2021
5137 Clear 7 1009 86 10000 2.68 166 21:38 25.10.2021
5138 Clear 8 1010 83 10000 2.68 187 19:50 25.10.2021
5139 Clear 8 1010 81 10000 2.68 170 19:25 25.10.2021
5140 Clear 9 1010 81 10000 3.13 186 18:53 25.10.2021
5141 Clear 10 1010 77 10000 2.68 184 17:59 25.10.2021
5142 Clear 11 1011 72 10000 4.47 201 15:45 25.10.2021
5143 Clear 11 1011 70 10000 3.13 186 14:20 25.10.2021
5144 Clear 10 1019 68 10000 5.36 182 12:29 25.10.2021
5145 Clear 7 1012 79 10000 3.58 178 10:20 25.10.2021
5146 Clear 3 1012 84 10000 3.58 141 08:34 25.10.2021
5147 Clear 3 1013 83 10000 3.58 162 06:24 25.10.2021
5148 Clear 5 1015 84 10000 4.02 145 00:58 25.10.2021
5149 Clear 5 1015 84 10000 4.02 140 00:37 25.10.2021
5150 Clear 6 1015 82 10000 3.58 146 23:47 24.10.2021
5151 Clear 6 1015 80 10000 3.58 132 22:44 24.10.2021
5152 Clear 7 1016 78 10000 3.58 120 22:21 24.10.2021
5153 Clear 7 1016 77 10000 3.58 135 21:57 24.10.2021
5154 Clear 7 1016 81 10000 1.79 125 20:45 24.10.2021
5155 Clear 8 1017 77 10000 3.13 139 20:26 24.10.2021
5156 Clear 9 1017 75 10000 2.68 125 18:52 24.10.2021
5157 Clear 11 1017 67 10000 3.58 137 17:57 24.10.2021
5158 Clear 11 1018 65 10000 5.81 149 17:18 24.10.2021
5159 Clear 13 1018 63 10000 4.02 169 15:37 24.10.2021
5160 Clouds 12 1020 64 10000 5.36 153 13:52 24.10.2021
5161 Clear 11 1028 71 10000 3.58 169 12:41 24.10.2021
5162 Clear 9 1028 81 10000 2.68 158 11:41 24.10.2021
5163 Clear 8 1020 86 10000 1.79 140 10:45 24.10.2021
5164 Clear 5 1022 93 10000 0.89 127 09:54 24.10.2021
5165 Clouds 4 1028 93 10000 2.24 170 05:35 24.10.2021
5166 Clear 6 1021 90 10000 0.89 235 00:44 24.10.2021
5167 Clear 5 1021 89 10000 2.24 238 23:32 23.10.2021
5168 Clear 6 1020 88 10000 1.79 247 21:56 23.10.2021
5169 Clear 7 1019 82 10000 3.58 244 19:52 23.10.2021
5170 Clouds 8 1018 82 10000 2.24 253 18:59 23.10.2021
5171 Clouds 9 1018 76 10000 3.13 253 18:21 23.10.2021
5172 Clouds 10 1017 72 10000 5.36 296 17:43 23.10.2021
5173 Clouds 11 1016 68 10000 5.81 296 16:21 23.10.2021
5174 Clouds 11 1013 71 10000 8.05 286 13:58 23.10.2021
5175 Clear 6 1009 86 10000 6.71 250 03:33 23.10.2021
5176 Clouds 6 1006 87 10000 8.49 278 23:59 22.10.2021
5177 Clouds 6 1005 88 10000 6.71 262 22:49 22.10.2021
5178 Clouds 7 1002 87 10000 8.94 290 19:53 22.10.2021
5179 Rain 8 1000 90 10000 9.39 252 18:41 22.10.2021
5180 Rain 8 1005 88 10000 9.83 250 17:40 22.10.2021
5181 Rain 10 997 75 10000 12.07 225 15:25 22.10.2021
5182 Clouds 10 997 72 10000 12.07 238 13:48 22.10.2021
5183 Clouds 8 999 73 10000 10.28 222 11:18 22.10.2021
5184 Rain 8 999 76 10000 10.73 223 10:38 22.10.2021
5185 Clouds 8 997 78 10000 9.39 237 09:56 22.10.2021
5186 Clouds 7 1000 81 10000 6.71 212 08:36 22.10.2021
5187 Clear 7 1000 82 10000 8.05 242 07:22 22.10.2021
5188 Clear 7 999 83 10000 8.05 253 02:57 22.10.2021
5189 Clouds 8 996 80 10000 9.39 251 23:55 21.10.2021
5190 Clouds 8 996 81 10000 8.05 268 23:35 21.10.2021
5191 Clouds 8 1001 85 10000 8.49 262 21:52 21.10.2021
5192 Clouds 8 1000 89 10000 8.94 251 20:40 21.10.2021
5193 Clouds 8 999 90 10000 7.15 254 20:18 21.10.2021
5194 Rain 9 991 86 10000 12.07 242 19:29 21.10.2021
5195 Rain 11 997 77 10000 9.39 258 18:46 21.10.2021
5196 Clouds 11 990 75 10000 11.62 245 18:18 21.10.2021
5197 Clouds 11 990 77 10000 9.39 243 17:37 21.10.2021
5198 Clouds 13 988 70 10000 13.86 252 15:54 21.10.2021
5199 Clouds 13 987 74 10000 15.65 253 15:20 21.10.2021
5200 Clouds 13 993 78 10000 15.65 266 14:38 21.10.2021
5201 Rain 14 990 78 10000 23.25 239 13:19 21.10.2021
5202 Clouds 15 987 64 10000 14.75 226 11:27 21.10.2021
5203 Clouds 16 979 75 10000 9.83 203 08:55 21.10.2021
5204 Rain 15 981 81 10000 9.39 210 07:29 21.10.2021
5205 Clear 16 987 79 10000 5.36 198 03:49 21.10.2021
5206 Rain 17 991 77 10000 6.71 215 23:31 20.10.2021
5207 Clear 17 992 77 10000 7.6 211 22:18 20.10.2021
5208 Clear 17 992 76 10000 9.39 224 21:38 20.10.2021
5209 Clear 17 993 75 10000 9.83 215 20:54 20.10.2021
5210 Clear 17 993 75 10000 9.39 225 20:35 20.10.2021
5211 Clear 17 993 74 10000 8.94 215 19:59 20.10.2021
5212 Clouds 18 994 73 10000 8.94 238 18:56 20.10.2021
5213 Rain 18 994 68 10000 8.94 219 17:51 20.10.2021
5214 Clear 18 994 71 10000 7.15 218 15:44 20.10.2021
5215 Rain 16 999 72 10000 8.94 219 11:42 20.10.2021
5216 Clear 13 1000 86 10000 5.36 197 09:19 20.10.2021
5217 Clear 13 1003 90 10000 5.36 217 05:23 20.10.2021
5218 Clouds 14 1006 91 10000 4.47 207 00:48 20.10.2021
5219 Clouds 14 1006 91 10000 4.47 207 00:48 20.10.2021
5220 Drizzle 14 1006 90 10000 6.71 230 00:22 20.10.2021
5221 Clouds 15 1007 85 10000 7.6 220 21:45 19.10.2021
5222 Clouds 15 1007 84 10000 6.71 221 20:56 19.10.2021
5223 Clouds 15 1007 83 10000 5.81 228 20:25 19.10.2021
5224 Clouds 15 1007 79 10000 6.26 210 19:44 19.10.2021
5225 Clouds 15 1007 79 10000 5.81 221 19:21 19.10.2021
5226 Clouds 16 1008 76 10000 3.58 196 17:59 19.10.2021
5227 Clear 16 1008 75 10000 6.26 217 16:24 19.10.2021
5228 Clear 16 1009 72 10000 4.92 192 15:20 19.10.2021
5229 Clear 16 1007 72 10000 5.36 215 14:27 19.10.2021
5230 Clear 16 1010 70 10000 5.81 212 13:43 19.10.2021
5231 Clear 13 1016 76 10000 4.92 189 11:37 19.10.2021
5232 Clear 11 1012 82 10000 4.47 192 10:39 19.10.2021
5233 Clear 9 1012 89 10000 2.68 184 08:59 19.10.2021
5234 Clear 9 1012 89 10000 2.24 145 07:56 19.10.2021
5235 Clear 10 1014 82 10000 3.58 160 00:28 19.10.2021
5236 Clear 10 1015 83 10000 3.13 176 23:56 18.10.2021
5237 Clear 10 1015 83 10000 2.68 200 23:21 18.10.2021
5238 Clear 10 1015 81 10000 2.68 178 22:55 18.10.2021
5239 Clear 11 1015 80 10000 1.79 163 21:58 18.10.2021
5240 Clear 12 1015 77 10000 0.89 190 20:46 18.10.2021
5241 Clear 12 1015 77 10000 3.13 202 20:21 18.10.2021
5242 Clear 12 1014 75 10000 2.68 180 19:31 18.10.2021
5243 Clear 13 1014 73 10000 2.68 190 18:58 18.10.2021
5244 Clear 16 1014 61 10000 4.47 233 16:32 18.10.2021
5245 Clear 16 1015 61 10000 5.81 247 14:41 18.10.2021
5246 Clear 13 1015 71 10000 4.02 243 11:47 18.10.2021
5247 Clear 11 1015 82 10000 3.58 216 09:47 18.10.2021
5248 Clouds 9 1014 87 10000 1.79 235 07:31 18.10.2021
5249 Clouds 9 1019 89 10000 3.58 255 23:54 17.10.2021
5250 Rain 10 1012 88 10000 4.02 268 22:27 17.10.2021
5251 Rain 10 1012 88 10000 4.47 252 21:44 17.10.2021
5252 Clouds 10 1012 86 10000 2.24 256 20:56 17.10.2021
5253 Rain 11 1012 82 10000 2.68 246 19:59 17.10.2021
5254 Rain 11 1012 81 10000 4.92 254 19:38 17.10.2021
5255 Clouds 11 1010 78 10000 3.13 250 18:34 17.10.2021
5256 Clouds 12 1011 77 10000 3.58 261 16:46 17.10.2021
5257 Clouds 13 1011 71 10000 5.36 250 14:40 17.10.2021
5258 Clear 13 1011 71 10000 5.36 252 14:21 17.10.2021
5259 Clear 12 1017 67 10000 7.15 248 13:33 17.10.2021
5260 Clouds 11 1018 74 10000 4.92 242 11:49 17.10.2021
5261 Clear 9 1011 79 10000 5.36 220 10:19 17.10.2021
5262 Clear 8 1012 84 10000 3.13 223 09:21 17.10.2021
5263 Clouds 7 1017 82 10000 2.24 289 06:52 17.10.2021
5264 Clouds 9 1012 83 10000 2.24 237 00:35 17.10.2021
5265 Clouds 9 1012 83 10000 1.79 241 23:31 16.10.2021
5266 Clear 10 1012 82 10000 1.34 267 21:28 16.10.2021
5267 Clear 10 1012 82 10000 2.68 258 20:30 16.10.2021
5268 Clear 10 1012 82 10000 2.68 253 19:42 16.10.2021
5269 Clear 10 1012 79 10000 3.13 260 19:20 16.10.2021
5270 Clouds 10 1012 79 10000 4.02 239 18:45 16.10.2021
5271 Clouds 11 1012 79 10000 2.68 238 18:26 16.10.2021
5272 Clouds 11 1012 77 10000 2.68 242 17:49 16.10.2021
5273 Clouds 11 1012 77 10000 3.13 264 17:20 16.10.2021
5274 Clouds 12 1019 69 10000 4.47 251 13:54 16.10.2021
5275 Clouds 10 1019 88 10000 3.13 268 11:26 16.10.2021
5276 Clouds 8 1011 92 10000 2.68 234 09:45 16.10.2021
5277 Clouds 6 1011 93 10000 2.24 230 06:50 16.10.2021
5278 Clear 7 1010 91 10000 3.58 260 01:24 16.10.2021
5279 Clear 8 1009 90 10000 4.02 260 23:40 15.10.2021
5280 Clear 8 1007 89 10000 4.47 250 22:22 15.10.2021
5281 Clear 8 1008 91 10000 3.13 246 21:51 15.10.2021
5282 Clear 8 1008 91 10000 4.47 245 21:21 15.10.2021
5283 Clouds 9 1007 91 10000 4.47 241 20:45 15.10.2021
5284 Clouds 9 1007 90 10000 4.47 235 19:26 15.10.2021
5285 Clouds 10 1006 88 10000 3.58 259 18:40 15.10.2021
5286 Clouds 11 1004 89 10000 5.81 280 16:28 15.10.2021
5287 Rain 11 1004 87 10000 4.92 280 15:28 15.10.2021
5288 Clouds 14 1002 75 10000 9.39 238 12:41 15.10.2021
5289 Clouds 13 1002 79 10000 9.39 221 11:31 15.10.2021
5290 Clouds 13 1002 81 10000 7.6 219 10:43 15.10.2021
5291 Clear 12 1003 84 10000 7.15 229 08:59 15.10.2021
5292 Clouds 12 1005 88 10000 5.36 206 05:31 15.10.2021
5293 Clouds 12 1008 91 10000 4.47 236 00:48 15.10.2021
5294 Clouds 12 1009 91 10000 4.02 239 00:21 15.10.2021
5295 Clouds 12 1009 92 10000 4.02 245 22:51 14.10.2021
5296 Clouds 12 1009 92 10000 4.02 245 22:51 14.10.2021
5297 Clouds 12 1009 91 10000 5.81 246 21:44 14.10.2021
5298 Clouds 12 1009 92 10000 4.92 249 20:48 14.10.2021
5299 Clouds 12 1009 91 10000 5.81 250 20:18 14.10.2021
5300 Clouds 12 1009 92 10000 5.36 246 19:33 14.10.2021
5301 Clouds 13 1010 92 10000 4.47 242 17:30 14.10.2021
5302 Clouds 13 1010 92 10000 6.26 240 16:49 14.10.2021
5303 Clouds 13 1010 94 10000 4.47 245 15:44 14.10.2021
5304 Drizzle 12 1011 94 4700 4.02 252 14:43 14.10.2021
5305 Drizzle 12 1011 94 4000 5.36 222 13:39 14.10.2021
5306 Clouds 11 1012 94 10000 4.02 249 11:44 14.10.2021
5307 Drizzle 10 1011 94 3900 3.58 231 09:55 14.10.2021
5308 Clouds 9 1010 91 10000 5.81 222 06:56 14.10.2021
5309 Clouds 9 1012 84 10000 2.24 253 00:59 14.10.2021
5310 Clouds 8 1012 83 10000 2.68 246 00:25 14.10.2021
5311 Clear 8 1014 80 10000 1.79 240 21:58 13.10.2021
5312 Clear 8 1014 81 10000 2.24 236 21:32 13.10.2021
5313 Clear 8 1014 76 10000 2.68 238 20:21 13.10.2021
5314 Clear 9 1013 75 10000 3.13 257 18:57 13.10.2021
5315 Clear 10 1013 73 10000 4.02 245 18:35 13.10.2021
5316 Clouds 13 1012 67 10000 4.47 299 15:32 13.10.2021
5317 Clouds 13 1012 68 10000 4.92 285 14:46 13.10.2021
5318 Clouds 13 1012 69 10000 5.36 295 14:22 13.10.2021
5319 Clouds 11 1019 73 10000 5.36 289 12:22 13.10.2021
5320 Clouds 10 1019 76 10000 5.36 301 11:35 13.10.2021
5321 Clouds 5 1011 84 10000 3.58 271 08:48 13.10.2021
5322 Clouds 4 1010 88 10000 3.58 278 07:36 13.10.2021
5323 Clear 5 1008 82 10000 2.24 299 02:29 13.10.2021
5324 Clear 5 1008 81 10000 3.58 288 01:46 13.10.2021
5325 Clear 6 1008 80 10000 2.24 293 23:31 12.10.2021
5326 Clouds 6 1007 78 10000 2.68 274 22:47 12.10.2021
5327 Clouds 7 1007 77 10000 3.58 299 22:23 12.10.2021
5328 Clouds 8 1006 72 10000 3.13 308 20:46 12.10.2021
5329 Clouds 8 1006 70 10000 3.58 306 20:18 12.10.2021
5330 Clouds 10 1004 69 10000 5.36 315 18:45 12.10.2021
5331 Clouds 11 1004 67 10000 4.92 302 17:57 12.10.2021
5332 Clouds 12 1004 63 10000 7.6 299 16:39 12.10.2021
5333 Clouds 12 1004 59 10000 8.05 294 15:58 12.10.2021
5334 Clouds 13 1004 65 10000 6.26 323 14:46 12.10.2021
5335 Clouds 12 1004 71 10000 4.92 317 13:44 12.10.2021
5336 Clouds 11 1011 77 10000 5.36 297 12:40 12.10.2021
5337 Clouds 9 1006 91 10000 6.26 277 10:20 12.10.2021
5338 Clouds 8 1006 92 10000 3.58 256 08:44 12.10.2021
5339 Clouds 8 1012 92 10000 5.36 268 07:54 12.10.2021
5340 Rain 7 1007 92 10000 3.58 230 06:40 12.10.2021
5341 Clouds 8 1007 90 10000 4.02 241 04:33 12.10.2021
5342 Clear 9 1010 87 10000 4.47 273 01:28 12.10.2021
5343 Clear 9 1011 86 10000 4.47 270 23:41 11.10.2021
5344 Clear 10 1009 87 10000 3.13 254 22:59 11.10.2021
5345 Clouds 10 1010 86 10000 3.58 251 22:29 11.10.2021
5346 Clear 10 1011 84 10000 4.47 261 21:19 11.10.2021
5347 Clouds 11 1011 82 10000 3.58 225 19:46 11.10.2021
5348 Clouds 12 1011 79 10000 3.58 234 18:59 11.10.2021
5349 Clouds 13 1011 80 10000 2.24 242 18:18 11.10.2021
5350 Clouds 14 1011 72 10000 5.36 277 16:39 11.10.2021
5351 Clouds 14 1011 72 10000 4.47 284 16:19 11.10.2021
5352 Clouds 14 1012 70 10000 4.92 313 15:37 11.10.2021
5353 Clouds 14 1012 73 10000 6.26 320 14:53 11.10.2021
5354 Clouds 14 1012 76 10000 2.24 284 13:51 11.10.2021
5355 Clouds 11 1020 87 10000 3.58 275 12:20 11.10.2021
5356 Clouds 8 1013 85 10000 3.13 269 10:49 11.10.2021
5357 Clouds 7 1013 83 10000 2.24 245 09:45 11.10.2021
5358 Clear 6 1012 82 10000 4.02 230 07:56 11.10.2021
5359 Clear 6 1016 73 10000 1.79 256 01:42 11.10.2021
5360 Clear 7 1016 69 10000 0.45 143 00:53 11.10.2021
5361 Clear 7 1016 68 10000 2.68 150 00:33 11.10.2021
5362 Clear 8 1017 66 10000 0.45 135 22:25 10.10.2021
5363 Clouds 9 1017 64 10000 0.89 112 21:36 10.10.2021
5364 Clear 9 1017 61 10000 0.89 118 20:56 10.10.2021
5365 Clear 10 1017 62 10000 1.79 138 20:36 10.10.2021
5366 Clear 10 1017 61 10000 0.89 144 20:18 10.10.2021
5367 Clear 10 1017 60 10000 2.24 121 19:40 10.10.2021
5368 Clear 11 1018 58 10000 1.79 134 18:55 10.10.2021
5369 Clear 13 1018 52 10000 2.68 134 17:58 10.10.2021
5370 Clear 15 1019 43 10000 2.68 140 15:48 10.10.2021
5371 Clear 14 1018 44 10000 5.36 113 14:45 10.10.2021
5372 Clear 14 1020 46 10000 3.13 132 13:39 10.10.2021
5373 Clear 13 1020 50 10000 2.24 121 12:43 10.10.2021
5374 Clear 11 1028 65 10000 2.68 113 11:30 10.10.2021
5375 Clear 8 1021 77 10000 2.68 116 10:25 10.10.2021
5376 Clear 6 1019 75 10000 2.24 92 08:54 10.10.2021
5377 Clear 4 1021 81 10000 1.79 66 07:57 10.10.2021
5378 Clear 5 1022 77 10000 1.34 92 04:31 10.10.2021
5379 Clear 7 1023 71 10000 3.58 68 01:43 10.10.2021
5380 Clear 7 1024 69 10000 2.68 52 00:41 10.10.2021
5381 Clear 8 1024 65 10000 2.68 92 23:26 09.10.2021
5382 Clear 9 1024 62 10000 2.68 93 21:55 09.10.2021
5383 Clear 10 1024 66 10000 1.34 92 21:30 09.10.2021
5384 Clear 10 1023 68 10000 2.68 73 19:53 09.10.2021
5385 Clear 10 1023 64 10000 2.68 77 19:34 09.10.2021
5386 Clear 12 1023 59 10000 2.24 80 18:45 09.10.2021
5387 Clear 14 1023 52 10000 3.58 113 17:51 09.10.2021
5388 Clear 15 1024 47 10000 5.81 98 16:20 09.10.2021
5389 Clear 15 1025 45 10000 5.36 105 13:49 09.10.2021
5390 Clear 15 1025 47 10000 4.92 82 13:31 09.10.2021
5391 Clear 13 1032 51 10000 3.58 108 12:27 09.10.2021
5392 Clear 10 1023 65 10000 3.58 93 10:44 09.10.2021
5393 Clear 9 1025 70 10000 3.58 96 10:19 09.10.2021
5394 Clear 6 1024 75 10000 3.58 75 08:45 09.10.2021
5395 Clear 6 1024 74 10000 4.47 73 08:20 09.10.2021
5396 Clear 6 1024 75 10000 3.13 55 06:29 09.10.2021
5397 Clear 6 1030 75 10000 3.13 72 04:43 09.10.2021
5398 Clear 7 1024 75 10000 3.58 67 02:46 09.10.2021
5399 Clear 9 1025 68 10000 2.68 55 00:24 09.10.2021
5400 Clear 9 1031 74 10000 4.02 68 23:31 08.10.2021
5401 Clear 9 1024 73 10000 2.68 56 22:46 08.10.2021
5402 Clear 10 1024 72 10000 2.68 71 21:44 08.10.2021
5403 Clear 11 1024 71 10000 3.58 81 20:27 08.10.2021
5404 Clear 14 1023 69 10000 4.47 70 18:23 08.10.2021
5405 Clear 16 1023 61 10000 4.92 50 16:56 08.10.2021
5406 Clear 17 1023 61 10000 4.02 68 16:25 08.10.2021
5407 Clear 17 1023 59 10000 2.68 98 14:57 08.10.2021
5408 Clear 17 1023 59 10000 4.92 110 13:47 08.10.2021
5409 Clear 15 1031 68 10000 4.47 58 11:56 08.10.2021
5410 Clouds 13 1024 83 10000 4.47 64 10:43 08.10.2021
5411 Clouds 12 1024 87 6000 4.02 53 09:47 08.10.2021
5412 Clouds 10 1023 89 9000 2.24 40 05:56 08.10.2021
5413 Clouds 12 1022 82 10000 1.79 41 23:26 07.10.2021
5414 Clouds 12 1021 82 10000 1.34 57 22:54 07.10.2021
5415 Clouds 13 1021 77 10000 1.79 25 21:29 07.10.2021
5416 Clear 12 1021 76 10000 1.79 17 20:42 07.10.2021
5417 Clouds 13 1020 76 10000 2.24 19 19:38 07.10.2021
5418 Clouds 15 1020 71 10000 2.24 24 18:54 07.10.2021
5419 Clouds 17 1020 66 10000 1.79 25 17:34 07.10.2021
5420 Clouds 18 1020 60 10000 1.79 19 16:42 07.10.2021
5421 Clouds 18 1019 61 10000 1.34 69 14:56 07.10.2021
5422 Clouds 18 1020 59 10000 0.45 324 13:44 07.10.2021
5423 Clouds 18 1019 65 10000 0.89 322 13:20 07.10.2021
5424 Clear 14 1026 82 10000 0.89 239 11:26 07.10.2021
5425 Clear 13 1019 83 10000 0.89 295 10:47 07.10.2021
5426 Clear 11 1019 89 10000 0.45 178 09:47 07.10.2021
5427 Clear 10 1018 89 10000 0.89 165 08:55 07.10.2021
5428 Fog 8 1018 89 10000 0.89 240 08:20 07.10.2021
5429 Fog 8 1015 89 10000 0.89 254 07:39 07.10.2021
5430 Fog 8 1014 88 10000 0.51 220 06:47 07.10.2021
5431 Clear 10 1014 86 10000 0.89 170 00:59 07.10.2021
5432 Clear 11 1014 84 10000 1.34 149 23:30 06.10.2021
5433 Clear 11 1013 84 10000 1.79 168 22:40 06.10.2021
5434 Clear 12 1012 84 10000 1.79 116 21:41 06.10.2021
5435 Clear 12 1012 81 10000 2.68 150 20:34 06.10.2021
5436 Clouds 14 1011 77 10000 1.79 161 19:26 06.10.2021
5437 Clouds 15 1010 73 10000 2.68 197 17:56 06.10.2021
5438 Clouds 16 1009 72 10000 4.92 216 16:40 06.10.2021
5439 Clouds 17 1009 71 10000 4.02 219 15:24 06.10.2021
5440 Clouds 17 1015 71 10000 4.47 229 13:31 06.10.2021
5441 Clouds 17 1014 74 10000 4.47 213 12:53 06.10.2021
5442 Clouds 16 1014 75 10000 4.47 240 12:29 06.10.2021
5443 Clouds 15 1012 79 10000 5.81 234 11:39 06.10.2021
5444 Clear 13 1004 88 10000 5.36 225 09:57 06.10.2021
5445 Clear 13 1004 90 10000 6.26 210 09:37 06.10.2021
5446 Clear 12 1005 93 10000 3.13 175 08:39 06.10.2021
5447 Clouds 12 1003 94 10000 4.92 216 06:19 06.10.2021
5448 Clear 12 1002 94 10000 3.58 189 04:56 06.10.2021
5449 Clear 12 1001 93 10000 3.13 171 00:25 06.10.2021
5450 Clear 12 1001 94 10000 4.47 177 23:52 05.10.2021
5451 Clear 12 1000 94 10000 3.58 167 23:32 05.10.2021
5452 Clouds 12 1000 94 10000 4.02 140 22:44 05.10.2021
5453 Clouds 12 1000 92 10000 3.13 184 21:58 05.10.2021
5454 Clouds 12 1000 93 10000 2.68 187 21:35 05.10.2021
5455 Clouds 12 1000 92 10000 3.58 230 20:39 05.10.2021
5456 Clouds 12 1000 93 10000 5.36 242 20:20 05.10.2021
5457 Clouds 13 1000 92 10000 6.26 229 19:27 05.10.2021
5458 Clouds 13 1000 93 10000 6.71 211 18:46 05.10.2021
5459 Clouds 14 999 94 10000 4.92 211 16:35 05.10.2021
5460 Rain 15 1007 97 9000 1.54 190 14:30 05.10.2021
5461 Rain 15 1008 97 10000 1.54 80 13:33 05.10.2021
5462 Rain 15 993 91 10000 1.54 100 12:36 05.10.2021
5463 Rain 14 993 92 10000 1.03 0 11:59 05.10.2021
5464 Rain 14 1001 91 9000 4.47 55 10:39 05.10.2021
5465 Rain 14 1001 91 9000 4.47 55 10:39 05.10.2021
5466 Clouds 13 1003 91 10000 3.58 76 08:44 05.10.2021
5467 Rain 13 1008 86 10000 1.34 70 03:56 05.10.2021
5468 Clouds 13 1016 84 10000 1.79 119 23:53 04.10.2021
5469 Clear 13 1010 83 10000 0.89 267 21:59 04.10.2021
5470 Clear 14 1016 80 10000 1.34 190 19:34 04.10.2021
5471 Clouds 14 1010 80 10000 2.24 190 18:26 04.10.2021
5472 Clouds 15 1011 79 10000 2.24 242 16:23 04.10.2021
5473 Clouds 15 1017 80 10000 2.24 266 15:31 04.10.2021
5474 Clouds 15 1017 80 10000 2.24 266 15:31 04.10.2021
5475 Rain 15 1016 76 10000 2.68 266 14:42 04.10.2021
5476 Rain 15 1016 76 10000 3.58 294 13:50 04.10.2021
5477 Clear 15 1016 77 10000 4.02 283 13:24 04.10.2021
5478 Clouds 15 1016 82 10000 3.13 286 11:35 04.10.2021
5479 Clear 15 1015 82 10000 1.79 271 10:48 04.10.2021
5480 Clouds 14 1014 85 10000 2.24 292 09:59 04.10.2021
5481 Rain 14 1014 84 10000 1.79 309 08:40 04.10.2021
5482 Clouds 14 1013 85 10000 2.68 284 07:19 04.10.2021
5483 Clear 17 1008 74 10000 4.02 176 00:29 04.10.2021
5484 Clear 19 1007 64 10000 5.36 178 22:34 03.10.2021
5485 Rain 19 1006 61 10000 3.58 164 21:39 03.10.2021
5486 Clear 19 1006 63 10000 4.47 162 21:19 03.10.2021
5487 Clear 20 1007 62 10000 6.26 165 19:58 03.10.2021
5488 Rain 20 1006 60 10000 6.71 135 18:56 03.10.2021
5489 Clear 21 1005 59 10000 5.81 144 18:27 03.10.2021
5490 Rain 22 1004 58 10000 5.36 143 17:24 03.10.2021
5491 Clear 23 1004 63 10000 7.15 162 14:47 03.10.2021
5492 Clear 22 1004 63 10000 7.15 145 14:18 03.10.2021
5493 Clear 21 1004 59 10000 5.36 143 13:34 03.10.2021
5494 Clear 18 1005 65 10000 6.26 160 12:29 03.10.2021
5495 Clear 16 1005 73 10000 6.26 148 10:43 03.10.2021
5496 Clear 15 1005 75 10000 4.47 141 08:43 03.10.2021
5497 Clear 15 1006 76 10000 6.26 146 01:51 03.10.2021
5498 Clear 15 1007 78 10000 4.47 157 22:40 02.10.2021
5499 Clear 15 1008 78 10000 4.47 135 21:21 02.10.2021
5500 Clear 16 1009 76 10000 3.13 140 19:50 02.10.2021
5501 Clouds 17 1009 75 10000 2.68 138 18:55 02.10.2021
5502 Clouds 19 1010 69 10000 4.47 186 17:57 02.10.2021
5503 Clouds 20 1010 64 10000 4.02 177 17:26 02.10.2021
5504 Clear 20 1011 62 10000 6.71 224 15:38 02.10.2021
5505 Clouds 16 1022 63 10000 8.05 222 16:50 30.09.2021
5506 Clouds 16 1023 59 10000 7.15 225 15:37 30.09.2021
5507 Clouds 15 1022 64 10000 7.6 237 13:45 30.09.2021
5508 Clouds 13 1022 73 10000 7.15 222 11:37 30.09.2021
5509 Clear 11 1021 78 10000 7.15 233 10:44 30.09.2021
5510 Clear 11 1021 80 10000 7.6 240 09:41 30.09.2021
5511 Clear 10 1019 83 10000 7.15 236 08:29 30.09.2021
5512 Clear 9 1020 84 10000 5.81 232 07:33 30.09.2021
5513 Clear 9 1019 84 10000 7.15 228 04:58 30.09.2021
5514 Clear 10 1017 86 10000 5.81 222 01:20 30.09.2021
5515 Clear 11 1017 86 10000 4.47 234 00:18 30.09.2021
5516 Rain 12 1016 89 10000 4.47 233 22:31 29.09.2021
5517 Clouds 13 1015 87 10000 7.15 260 21:24 29.09.2021
5518 Clear 15 1014 93 10000 7.6 224 20:27 29.09.2021
5519 Clouds 15 1013 93 10000 4.47 150 19:51 29.09.2021
5520 Clouds 15 1013 91 10000 4.47 144 18:45 29.09.2021
5521 Clouds 16 1013 89 10000 5.36 170 17:41 29.09.2021
5522 Clouds 16 1013 91 10000 4.02 190 16:48 29.09.2021
5523 Clouds 16 1013 92 10000 4.47 181 15:58 29.09.2021
5524 Clouds 15 1013 94 8000 3.58 175 14:39 29.09.2021
5525 Rain 15 1014 95 5000 3.58 150 13:58 29.09.2021
5526 Rain 15 1014 95 5000 3.58 149 13:18 29.09.2021
5527 Rain 15 1014 94 3500 3.58 150 12:19 29.09.2021
5528 Rain 15 1014 93 7000 2.68 110 10:49 29.09.2021
5529 Clouds 15 1014 93 6000 3.13 100 09:53 29.09.2021
5530 Clouds 14 1014 93 6000 3.13 100 09:34 29.09.2021
5531 Mist 13 1015 94 4500 1.79 90 07:33 29.09.2021
5532 Fog 12 1017 92 200 1.79 96 04:39 29.09.2021
5533 Clear 13 1019 90 10000 1.34 136 23:29 28.09.2021
5534 Clouds 14 1020 90 10000 1.79 131 22:24 28.09.2021
5535 Clear 14 1020 89 10000 1.34 127 21:45 28.09.2021
5536 Clear 14 1020 85 10000 2.68 115 20:44 28.09.2021
5537 Clouds 15 1020 82 10000 2.68 149 19:47 28.09.2021
5538 Clouds 16 1020 75 10000 1.79 100 18:51 28.09.2021
5539 Clouds 17 1019 73 10000 2.24 111 18:18 28.09.2021
5540 Clouds 18 1020 68 10000 3.13 316 16:41 28.09.2021
5541 Clouds 17 1020 79 10000 3.58 271 14:37 28.09.2021
5542 Clouds 16 1020 86 8000 2.24 306 13:22 28.09.2021
5543 Clouds 16 1020 86 10000 1.79 309 12:22 28.09.2021
5544 Clouds 16 1020 87 10000 4.02 304 11:47 28.09.2021
5545 Clouds 16 1020 86 7000 4.92 301 11:23 28.09.2021
5546 Clouds 16 1019 84 10000 4.47 300 10:21 28.09.2021
5547 Clouds 16 1019 86 10000 4.92 294 09:22 28.09.2021
5548 Clouds 16 1018 86 10000 5.36 313 08:39 28.09.2021
5549 Clouds 16 1018 88 10000 6.26 300 07:49 28.09.2021
5550 Clear 16 1017 90 10000 4.02 278 06:23 28.09.2021
5551 Clear 17 1015 90 10000 3.13 152 01:29 28.09.2021
5552 Clear 17 1015 89 10000 1.79 151 00:28 28.09.2021
5553 Clear 17 1015 89 10000 1.34 123 23:44 27.09.2021
5554 Clear 17 1015 88 10000 1.79 138 23:23 27.09.2021
5555 Clear 18 1015 87 10000 2.68 162 22:20 27.09.2021
5556 Clear 18 1014 85 10000 2.68 135 20:54 27.09.2021
5557 Clear 18 1014 84 10000 2.24 183 20:24 27.09.2021
5558 Clear 19 1014 83 10000 1.79 192 19:36 27.09.2021
5559 Clouds 20 1014 83 10000 2.24 188 18:52 27.09.2021
5560 Rain 19 1014 83 10000 2.24 184 18:52 27.09.2021
5561 Clouds 20 1014 83 10000 2.24 188 18:52 27.09.2021
5562 Clouds 20 1014 79 10000 2.68 187 17:37 27.09.2021
5563 Clouds 20 1014 77 10000 2.68 211 16:53 27.09.2021
5564 Clouds 21 1014 77 10000 1.79 204 16:33 27.09.2021
5565 Clouds 21 1014 76 10000 2.24 190 15:36 27.09.2021
5566 Clouds 20 1014 78 10000 1.34 145 13:44 27.09.2021
5567 Clouds 19 1014 81 10000 1.34 127 12:22 27.09.2021
5568 Rain 18 1014 82 10000 3.13 130 10:48 27.09.2021
5569 Clear 17 1014 85 10000 2.24 101 09:40 27.09.2021
5570 Clear 16 1015 87 10000 2.68 150 07:54 27.09.2021
5571 Clear 16 1014 86 10000 3.13 69 03:34 27.09.2021
5572 Clear 17 1015 81 10000 3.58 123 23:49 26.09.2021
5573 Clear 19 1014 77 10000 2.68 103 21:57 26.09.2021
5574 Clear 19 1015 76 10000 4.02 85 21:27 26.09.2021
5575 Clear 20 1014 72 10000 3.58 85 20:25 26.09.2021
5576 Clear 21 1014 70 10000 3.13 85 19:54 26.09.2021
5577 Clear 21 1014 68 10000 2.24 129 19:26 26.09.2021
5578 Clear 21 1014 68 10000 2.24 129 19:26 26.09.2021
5579 Clear 22 1014 64 10000 2.24 128 18:41 26.09.2021
5580 Clear 24 1014 59 10000 5.36 126 17:38 26.09.2021
5581 Clear 24 1014 58 10000 4.47 132 17:20 26.09.2021
5582 Clear 25 1014 57 10000 5.36 163 16:23 26.09.2021
5583 Clear 24 1015 56 10000 4.47 132 15:47 26.09.2021
5584 Clear 24 1016 57 10000 5.36 135 14:23 26.09.2021
5585 Clear 24 1016 58 10000 5.36 126 13:43 26.09.2021
5586 Clear 22 1016 65 10000 5.81 121 12:31 26.09.2021
5587 Clear 23 1015 65 10000 4.47 118 12:31 26.09.2021
5588 Clear 22 1015 70 10000 4.92 108 11:56 26.09.2021
5589 Clear 21 1015 72 10000 4.92 109 11:33 26.09.2021
5590 Clear 18 1016 88 10000 3.58 118 09:52 26.09.2021
5591 Clear 16 1016 92 10000 2.68 119 08:54 26.09.2021
5592 Clear 15 1016 87 10000 1.34 152 01:28 26.09.2021
5593 Fog 15 1016 90 10000 1.34 155 00:20 26.09.2021
5594 Clouds 16 1015 87 10000 1.79 177 22:42 25.09.2021
5595 Clouds 16 1016 91 10000 0.89 233 22:23 25.09.2021
5596 Clear 16 1015 89 10000 0.45 203 21:49 25.09.2021
5597 Clouds 17 1015 87 10000 1.34 225 21:19 25.09.2021
5598 Clear 17 1014 85 10000 1.34 225 20:37 25.09.2021
5599 Clouds 19 1014 79 10000 3.13 248 18:40 25.09.2021
5600 Clouds 20 1013 75 10000 4.47 243 17:47 25.09.2021
5601 Clouds 20 1013 77 10000 4.47 278 15:35 25.09.2021
5602 Clouds 19 1013 81 10000 5.81 259 13:57 25.09.2021
5603 Clouds 19 1013 84 10000 4.47 255 13:27 25.09.2021
5604 Clouds 18 1013 81 10000 5.36 258 11:54 25.09.2021
5605 Clouds 18 1012 83 10000 4.92 250 10:33 25.09.2021
5606 Clouds 17 1012 85 10000 4.92 241 09:26 25.09.2021
5607 Drizzle 16 1011 88 8000 3.58 280 07:52 25.09.2021
5608 Clear 17 1011 81 10000 3.58 232 05:19 25.09.2021
5609 Clouds 17 1011 80 10000 4.92 231 23:45 24.09.2021
5610 Clouds 17 1011 79 10000 4.47 240 21:42 24.09.2021
5611 Clear 17 1011 78 10000 5.36 220 20:33 24.09.2021
5612 Clear 17 1010 77 10000 4.02 250 19:47 24.09.2021
5613 Clouds 17 1010 76 10000 5.36 263 18:33 24.09.2021
5614 Clouds 17 1010 77 10000 4.47 249 17:54 24.09.2021
5615 Clouds 17 1010 75 10000 4.92 246 17:36 24.09.2021
5616 Clouds 17 1010 74 10000 5.81 265 17:18 24.09.2021
5617 Clouds 17 1010 73 10000 8.05 286 13:57 24.09.2021
5618 Clouds 17 1011 70 10000 6.71 288 12:58 24.09.2021
5619 Clouds 16 1012 70 10000 7.15 291 12:39 24.09.2021
5620 Clouds 16 1011 69 10000 6.26 288 12:20 24.09.2021
5621 Clouds 15 1013 74 10000 8.49 287 10:27 24.09.2021
5622 Clouds 12 1012 80 10000 9.39 290 08:54 24.09.2021
5623 Clouds 12 1011 78 10000 8.49 282 07:34 24.09.2021
5624 Clouds 12 1011 78 10000 8.05 262 06:46 24.09.2021
5625 Clouds 12 1011 76 10000 8.75 280 04:55 24.09.2021
5626 Clouds 14 1009 81 10000 9.83 284 00:26 24.09.2021
5627 Clouds 15 1008 85 4500 13.41 295 22:30 23.09.2021
5628 Clouds 16 1007 83 10000 12.52 267 21:56 23.09.2021
5629 Clouds 18 1007 67 10000 13.41 277 20:34 23.09.2021
5630 Clouds 18 1007 66 10000 8.94 252 19:48 23.09.2021
5631 Rain 19 1008 57 10000 8.49 267 17:47 23.09.2021
5632 Clouds 19 1010 58 10000 7.15 248 15:32 23.09.2021
5633 Clear 19 1011 59 10000 9.39 234 14:59 23.09.2021
5634 Clouds 19 1012 61 10000 8.94 243 13:48 23.09.2021
5635 Clouds 18 1013 64 10000 8.94 237 13:22 23.09.2021
5636 Clear 18 1013 65 10000 8.49 244 12:53 23.09.2021
5637 Clear 18 1014 66 10000 7.6 249 12:22 23.09.2021
5638 Clear 17 1014 70 10000 7.15 243 11:47 23.09.2021
5639 Clear 15 1016 82 10000 6.26 231 10:27 23.09.2021
5640 Clear 13 1016 85 10000 6.26 233 09:53 23.09.2021
5641 Clouds 11 1017 92 7000 5.81 214 08:31 23.09.2021
5642 Clear 11 1019 92 10000 2.24 233 04:41 23.09.2021
5643 Clouds 11 1022 88 10000 3.09 240 23:45 22.09.2021
5644 Clouds 12 1022 85 10000 2.68 239 22:42 22.09.2021
5645 Clouds 12 1023 83 10000 2.24 233 21:57 22.09.2021
5646 Clouds 13 1023 82 10000 2.68 238 21:34 22.09.2021
5647 Clouds 14 1023 80 10000 1.34 257 20:57 22.09.2021
5648 Clouds 15 1023 76 10000 2.24 268 19:33 22.09.2021
5649 Clouds 17 1023 71 10000 3.13 300 18:40 22.09.2021
5650 Clouds 17 1024 68 10000 2.24 299 18:22 22.09.2021
5651 Clouds 18 1024 68 10000 3.58 327 16:41 22.09.2021
5652 Clouds 18 1025 68 10000 2.24 310 15:38 22.09.2021
5653 Clouds 17 1026 70 10000 3.58 283 14:25 22.09.2021
5654 Rain 15 1026 84 10000 3.58 316 12:22 22.09.2021
5655 Clouds 13 1026 88 10000 2.68 311 10:57 22.09.2021
5656 Clouds 13 1026 91 10000 3.58 326 09:29 22.09.2021
5657 Clouds 12 1026 92 10000 4.47 307 08:35 22.09.2021
5658 Clouds 12 1025 91 10000 4.02 319 07:30 22.09.2021
5659 Clouds 12 1025 91 10000 5.36 322 06:19 22.09.2021
5660 Clouds 12 1024 90 10000 4.47 330 05:42 22.09.2021
5661 Clouds 13 1024 90 10000 5.36 308 03:58 22.09.2021
5662 Clouds 13 1024 89 10000 4.02 303 02:55 22.09.2021
5663 Clouds 12 1024 88 10000 4.02 265 23:31 21.09.2021
5664 Rain 13 1025 80 10000 4.02 250 21:49 21.09.2021
5665 Clouds 12 1026 80 10000 4.92 275 20:28 21.09.2021
5666 Clouds 14 1026 73 10000 6.71 277 19:24 21.09.2021
5667 Clouds 14 1026 68 10000 4.47 261 18:19 21.09.2021
5668 Clear 15 1026 65 10000 5.36 271 16:41 21.09.2021
5669 Clear 15 1027 63 10000 4.92 291 15:56 21.09.2021
5670 Clouds 15 1027 62 10000 6.26 307 14:58 21.09.2021
5671 Clouds 15 1027 62 10000 4.92 281 13:58 21.09.2021
5672 Clouds 15 1027 61 10000 4.92 296 13:39 21.09.2021
5673 Clouds 16 1026 62 10000 4.47 303 12:44 21.09.2021
5674 Clouds 16 1026 62 10000 4.47 303 12:44 21.09.2021
5675 Clouds 13 1027 82 10000 1.54 300 10:42 21.09.2021
5676 Clouds 12 1026 82 10000 1.03 0 08:57 21.09.2021
5677 Clouds 12 1026 87 10000 1.54 340 07:37 21.09.2021
5678 Clouds 12 1026 87 10000 1.54 340 07:37 21.09.2021
5679 Clear 12 1025 87 10000 1.03 260 05:18 21.09.2021
5680 Clear 13 1024 76 10000 1.54 300 22:54 20.09.2021
5681 Clear 13 1023 71 10000 2.06 280 21:43 20.09.2021
5682 Clear 13 1023 71 10000 2.57 300 21:25 20.09.2021
5683 Clear 14 1013 70 10000 2.24 311 19:48 20.09.2021
5684 Clouds 15 1012 65 10000 2.24 304 17:55 20.09.2021
5685 Clouds 15 1012 65 10000 2.24 304 17:55 20.09.2021
5686 Clouds 15 1012 64 10000 0.89 35 17:25 20.09.2021
5687 Clouds 16 1012 62 10000 2.24 46 16:26 20.09.2021
5688 Clouds 15 1012 65 10000 1.34 14 15:36 20.09.2021
5689 Clouds 15 1011 66 10000 0.89 90 14:42 20.09.2021
5690 Clouds 15 1021 68 10000 1.34 19 12:44 20.09.2021
5691 Clouds 15 1021 66 10000 0.89 54 12:26 20.09.2021
5692 Clouds 14 1021 69 10000 0.89 303 10:57 20.09.2021
5693 Clear 12 1011 77 10000 0.89 26 09:51 20.09.2021
5694 Clouds 12 1011 78 10000 0.45 14 09:33 20.09.2021
5695 Clouds 12 1011 78 10000 0.45 14 09:33 20.09.2021
5696 Clouds 12 1011 81 10000 2.24 352 08:54 20.09.2021
5697 Clear 11 1010 81 10000 1.79 27 06:34 20.09.2021
5698 Clouds 12 1009 73 10000 3.13 34 23:28 19.09.2021
5699 Clear 13 1009 71 10000 3.58 27 21:53 19.09.2021
5700 Clouds 13 1009 71 10000 3.13 32 21:21 19.09.2021
5701 Clouds 13 1009 71 10000 3.13 47 20:32 19.09.2021
5702 Clouds 14 1008 66 10000 3.58 60 18:54 19.09.2021
5703 Clouds 14 1017 64 10000 3.58 37 17:57 19.09.2021
5704 Clouds 15 1008 62 10000 2.68 47 17:21 19.09.2021
5705 Clear 15 1008 62 10000 3.13 43 15:44 19.09.2021
5706 Clouds 15 1008 61 10000 3.58 46 14:49 19.09.2021
5707 Clouds 15 1008 60 10000 2.24 23 14:25 19.09.2021
5708 Clouds 15 1018 59 10000 3.13 53 12:57 19.09.2021
5709 Clouds 16 1018 59 10000 2.68 41 12:35 19.09.2021
5710 Clouds 14 1009 69 10000 2.68 72 11:25 19.09.2021
5711 Clouds 13 1009 79 10000 2.24 20 09:58 19.09.2021
5712 Clouds 13 1008 80 10000 2.24 39 09:26 19.09.2021
5713 Clouds 12 1008 82 10000 1.79 3 07:18 19.09.2021
5714 Clouds 13 1008 76 10000 2.68 14 02:24 19.09.2021
5715 Clouds 14 1009 79 10000 4.92 38 23:26 18.09.2021
5716 Clouds 14 1009 81 10000 3.13 34 21:58 18.09.2021
5717 Clouds 14 1009 81 10000 3.13 34 21:58 18.09.2021
5718 Clouds 14 1008 83 10000 3.58 33 20:48 18.09.2021
5719 Clouds 14 1008 84 10000 3.13 24 20:26 18.09.2021
5720 Clouds 14 1008 84 10000 2.68 30 19:38 18.09.2021
5721 Clouds 15 1007 83 10000 5.81 24 19:20 18.09.2021
5722 Clouds 15 1007 82 10000 4.47 34 18:31 18.09.2021
5723 Clouds 16 1007 79 10000 5.36 16 17:23 18.09.2021
5724 Clouds 16 1007 79 10000 8.05 13 15:47 18.09.2021
5725 Clouds 17 1006 81 10000 4.92 35 13:46 18.09.2021
5726 Clouds 17 1006 80 10000 5.36 10 13:25 18.09.2021
5727 Clouds 17 1005 85 10000 4.02 11 12:24 18.09.2021
5728 Clouds 17 1005 87 10000 4.02 359 11:36 18.09.2021
5729 Drizzle 15 1005 95 3500 2.68 297 10:31 18.09.2021
5730 Drizzle 14 1004 92 4000 3.13 297 09:26 18.09.2021
5731 Clouds 13 1004 91 10000 3.58 293 08:31 18.09.2021
5732 Clouds 13 1004 91 10000 3.58 293 08:30 18.09.2021
5733 Clouds 13 1004 91 10000 3.58 293 08:30 18.09.2021
5734 Clouds 13 1004 91 10000 3.58 293 08:30 18.09.2021
5735 Clouds 14 1013 79 10000 3.13 315 00:56 18.09.2021
5736 Clouds 14 1013 79 10000 3.13 292 00:35 18.09.2021
5737 Clouds 14 1013 78 10000 3.13 301 23:44 17.09.2021
5738 Clouds 14 1013 77 10000 4.47 283 22:32 17.09.2021
5739 Clouds 14 1013 76 10000 4.47 297 21:48 17.09.2021
5740 Clouds 15 1004 74 10000 1.79 291 20:18 17.09.2021
5741 Clouds 16 1003 72 10000 4.02 305 18:51 17.09.2021
5742 Clouds 16 1003 69 10000 6.26 301 16:50 17.09.2021
5743 Clouds 17 1003 69 10000 8.05 309 15:50 17.09.2021
5744 Clouds 16 1012 75 10000 6.26 270 12:32 17.09.2021
5745 Clouds 16 1012 75 10000 6.71 303 10:41 17.09.2021
5746 Clouds 14 1012 86 10000 4.92 275 08:19 17.09.2021
5747 Clouds 15 1011 89 10000 4.92 278 06:43 17.09.2021
5748 Clouds 16 1012 83 10000 4.92 263 00:39 17.09.2021
5749 Clouds 16 1013 83 10000 4.02 246 22:50 16.09.2021
5750 Clear 17 1003 82 10000 4.47 242 22:24 16.09.2021
5751 Clear 17 1003 82 10000 4.02 243 21:39 16.09.2021
5752 Clear 17 1012 81 10000 3.58 244 20:43 16.09.2021
5753 Clouds 17 1012 78 10000 4.02 261 19:41 16.09.2021
5754 Clouds 18 1012 75 10000 3.58 249 18:19 16.09.2021
5755 Clouds 18 1012 73 10000 4.92 265 17:29 16.09.2021
5756 Clouds 19 1003 70 10000 6.26 263 14:53 16.09.2021
5757 Clouds 19 1003 70 10000 5.81 271 13:48 16.09.2021
5758 Clouds 18 1012 72 10000 7.6 275 12:48 16.09.2021
5759 Clouds 18 1012 75 10000 6.71 275 12:28 16.09.2021
5760 Clouds 18 1012 81 10000 4.47 262 11:25 16.09.2021
5761 Clouds 18 1012 88 10000 6.71 270 10:31 16.09.2021
5762 Clouds 18 1012 89 10000 5.81 286 10:31 16.09.2021
5763 Clouds 18 1012 89 10000 5.81 286 10:30 16.09.2021
5764 Clouds 17 1012 92 10000 4.02 281 09:53 16.09.2021
5765 Clouds 17 1012 94 10000 5.81 276 08:42 16.09.2021
5766 Clouds 17 1011 96 7000 2.24 283 07:22 16.09.2021
5767 Drizzle 18 1001 96 8000 2.24 290 06:39 16.09.2021
5768 Clouds 18 998 97 10000 4.92 279 04:34 16.09.2021
5769 Clouds 18 1000 97 10000 4.02 213 01:27 16.09.2021
5770 Clouds 18 1000 96 10000 3.58 163 23:37 15.09.2021
5771 Clouds 18 1000 96 10000 4.47 173 22:47 15.09.2021
5772 Clouds 19 1001 96 10000 4.47 182 21:44 15.09.2021
5773 Clouds 19 1000 96 10000 5.81 164 21:25 15.09.2021
5774 Clouds 19 1010 95 10000 4.47 159 19:52 15.09.2021
5775 Clouds 19 1010 95 10000 4.92 155 19:19 15.09.2021
5776 Rain 20 1002 93 10000 4.47 151 17:49 15.09.2021
5777 Rain 20 1002 92 10000 2.68 152 16:54 15.09.2021
5778 Rain 22 1002 77 10000 9.83 201 15:34 15.09.2021
5779 Rain 23 1002 68 10000 4.47 167 14:44 15.09.2021
5780 Clouds 23 1002 67 10000 4.47 148 13:51 15.09.2021
5781 Clear 24 1004 65 10000 4.92 134 13:30 15.09.2021
5782 Clear 23 1005 65 10000 4.47 148 12:44 15.09.2021
5783 Clear 23 1005 68 10000 4.02 137 11:52 15.09.2021
5784 Clear 21 1003 72 10000 2.68 149 11:21 15.09.2021
5785 Clear 21 1003 74 10000 2.68 122 10:55 15.09.2021
5786 Clear 17 1004 84 10000 3.58 112 09:29 15.09.2021
5787 Clear 15 1004 87 10000 4.02 103 07:48 15.09.2021
5788 Clear 15 1005 86 10000 2.68 93 04:55 15.09.2021
5789 Clear 16 1007 79 10000 3.58 88 23:45 14.09.2021
5790 Clear 17 1007 76 10000 3.13 76 21:42 14.09.2021
5791 Clear 17 1007 74 10000 2.68 66 20:39 14.09.2021
5792 Clear 19 1007 70 10000 3.13 72 19:42 14.09.2021
5793 Clouds 21 1007 61 10000 3.13 88 17:40 14.09.2021
5794 Clouds 21 1007 61 10000 3.13 88 17:40 14.09.2021
5795 Clouds 21 1007 61 10000 3.13 88 17:40 14.09.2021
5796 Clouds 22 1010 59 10000 2.24 128 16:58 14.09.2021
5797 Clouds 22 1010 59 10000 1.34 110 15:33 14.09.2021
5798 Clouds 22 1011 59 10000 2.68 110 14:31 14.09.2021
5799 Clouds 21 1018 65 10000 2.24 107 12:39 14.09.2021
5800 Clear 18 1011 71 10000 2.68 92 10:54 14.09.2021
5801 Clear 16 1011 79 10000 2.68 75 09:50 14.09.2021
5802 Fog 13 1011 92 10000 2.24 80 08:41 14.09.2021
5803 Fog 12 1011 91 10000 0.89 138 06:24 14.09.2021
5804 Clear 14 1019 87 10000 0.89 74 00:31 14.09.2021
5805 Clear 15 1011 83 10000 2.24 76 22:53 13.09.2021
5806 Clear 14 1019 84 10000 2.24 37 22:24 13.09.2021
5807 Clouds 15 1019 81 10000 2.24 27 21:51 13.09.2021
5808 Clouds 16 1011 79 10000 1.34 331 20:51 13.09.2021
5809 Clouds 18 1018 74 10000 1.79 321 19:22 13.09.2021
5810 Clouds 19 1018 72 10000 2.68 335 18:43 13.09.2021
5811 Clouds 20 1011 70 10000 4.02 348 16:51 13.09.2021
5812 Clouds 20 1011 69 10000 4.02 318 15:32 13.09.2021
5813 Clouds 19 1018 70 10000 5.36 294 12:54 13.09.2021
5814 Clouds 19 1018 73 10000 4.47 272 10:58 13.09.2021
5815 Clouds 19 1018 73 10000 4.47 272 10:58 13.09.2021
5816 Clouds 17 1010 83 10000 3.13 271 09:40 13.09.2021
5817 Clear 14 1009 91 10000 2.24 284 07:27 13.09.2021
5818 Clear 17 1009 89 10000 1.79 261 23:41 12.09.2021
5819 Clear 17 1008 88 10000 2.24 247 22:26 12.09.2021
5820 Clear 17 1008 88 10000 2.24 247 22:25 12.09.2021
5821 Clear 17 1008 88 10000 2.24 247 22:25 12.09.2021
5822 Clear 18 1008 86 10000 3.58 235 21:37 12.09.2021
5823 Clear 19 1008 82 10000 3.58 250 20:34 12.09.2021
5824 Clear 19 1008 81 10000 3.13 248 19:51 12.09.2021
5825 Clear 20 1008 79 10000 1.79 271 19:20 12.09.2021
5826 Clouds 21 1008 77 10000 4.02 267 18:29 12.09.2021
5827 Clouds 22 1015 71 10000 3.58 268 16:33 12.09.2021
5828 Clouds 22 1016 72 10000 4.02 276 14:59 12.09.2021
5829 Clouds 21 1016 77 10000 4.02 249 13:49 12.09.2021
5830 Clouds 19 1009 86 10000 3.58 269 11:31 12.09.2021
5831 Clear 18 1016 90 10000 3.58 254 09:41 12.09.2021
5832 Clear 16 1008 92 10000 2.68 223 08:38 12.09.2021
5833 Fog 16 1016 92 10000 2.24 267 02:39 12.09.2021
5834 Clouds 19 1008 93 10000 1.34 242 23:38 11.09.2021
5835 Clear 18 1008 92 10000 1.34 273 22:25 11.09.2021
5836 Clear 18 1015 92 10000 3.13 218 21:36 11.09.2021
5837 Clouds 21 1007 87 10000 3.13 192 19:32 11.09.2021
5838 Clear 22 1007 82 10000 4.02 217 17:52 11.09.2021
5839 Clouds 24 1007 72 10000 2.24 175 15:52 11.09.2021
5840 Clouds 23 1007 75 10000 2.68 225 14:22 11.09.2021
5841 Clouds 23 1008 79 10000 3.58 245 13:19 11.09.2021
5842 Clouds 21 1008 89 10000 2.68 232 11:34 11.09.2021
5843 Clear 19 1015 94 10000 3.58 238 09:41 11.09.2021
5844 Clear 18 1014 95 10000 3.58 227 07:50 11.09.2021
5845 Clear 17 1007 96 10000 3.58 238 07:28 11.09.2021
5846 Clear 18 1014 94 10000 2.24 189 00:49 11.09.2021
5847 Clear 19 1006 93 10000 1.79 94 22:26 10.09.2021
5848 Clear 19 1006 92 10000 0.89 149 21:55 10.09.2021
5849 Clear 21 1000 86 10000 1.34 106 20:31 10.09.2021
5850 Rain 22 993 88 10000 1.54 100 18:34 10.09.2021
5851 Rain 21 1014 94 10000 1.54 0 17:27 10.09.2021
5852 Rain 26 1004 62 10000 4.47 240 15:36 10.09.2021
5853 Clouds 27 1013 58 10000 3.58 242 13:18 10.09.2021
5854 Clouds 22 1006 72 10000 1.79 172 10:21 10.09.2021
5855 Clouds 17 1003 82 10000 1.79 214 07:51 10.09.2021
5856 Clear 17 1012 78 10000 1.34 180 04:21 10.09.2021
5857 Clear 20 1012 64 10000 3.58 126 22:33 09.09.2021
5858 Clear 21 1005 63 10000 2.68 124 21:46 09.09.2021
5859 Clear 21 1004 63 10000 3.13 134 20:47 09.09.2021
5860 Clear 22 1004 60 10000 1.79 129 20:22 09.09.2021
5861 Clear 26 1004 47 10000 3.58 150 18:35 09.09.2021
5862 Clear 27 1012 43 10000 4.47 179 16:45 09.09.2021
5863 Clear 27 1004 44 10000 3.58 166 16:26 09.09.2021
5864 Clear 25 1004 48 10000 3.58 150 13:33 09.09.2021
5865 Clear 23 1013 54 10000 3.58 128 11:50 09.09.2021
5866 Clear 21 1004 58 10000 1.34 180 10:48 09.09.2021
5867 Clear 18 1006 70 10000 2.24 116 09:27 09.09.2021
5868 Clear 13 1007 84 10000 2.68 106 06:55 09.09.2021
5869 Clear 15 1008 81 10000 2.68 99 04:18 09.09.2021
5870 Clear 18 1009 73 10000 3.13 97 22:57 08.09.2021
5871 Clear 19 1009 71 10000 3.13 90 21:47 08.09.2021
5872 Clear 20 1010 67 10000 2.68 96 20:21 08.09.2021
5873 Clear 22 1009 62 10000 2.24 108 19:37 08.09.2021
5874 Clear 24 1010 54 10000 2.24 138 18:33 08.09.2021
5875 Clouds 24 1010 53 10000 2.24 135 17:58 08.09.2021
5876 Clouds 24 1010 52 10000 3.58 157 17:39 08.09.2021
5877 Clouds 25 1012 52 10000 2.24 141 14:50 08.09.2021
5878 Clouds 25 1013 54 10000 4.92 122 13:25 08.09.2021
5879 Clouds 24 1021 57 10000 3.58 122 12:41 08.09.2021
5880 Clouds 23 1021 58 10000 4.02 139 12:21 08.09.2021
5881 Clear 22 1021 62 10000 2.68 121 11:23 08.09.2021
5882 Clear 20 1014 68 10000 2.68 106 10:29 08.09.2021
5883 Clear 18 1015 74 10000 1.79 117 09:36 08.09.2021
5884 Clouds 14 1015 89 8000 1.34 60 07:43 08.09.2021
5885 Fog 13 1015 90 6000 1.34 73 06:40 08.09.2021
5886 Clear 15 1023 81 10000 0.89 279 23:18 07.09.2021
5887 Clear 15 1023 81 10000 0.51 0 22:19 07.09.2021
5888 Clear 17 1023 73 10000 0.45 290 20:40 07.09.2021
5889 Clouds 21 1016 61 10000 1.79 350 18:52 07.09.2021
5890 Clouds 21 1016 60 10000 2.24 326 18:25 07.09.2021
5891 Clouds 22 1016 58 10000 3.13 285 17:22 07.09.2021
5892 Clouds 22 1016 58 10000 3.58 266 15:56 07.09.2021
5893 Clouds 22 1016 60 10000 4.02 298 14:48 07.09.2021
5894 Clouds 22 1017 59 10000 3.13 281 13:50 07.09.2021
5895 Clouds 21 1024 63 10000 2.68 320 11:58 07.09.2021
5896 Clouds 20 1017 69 10000 2.68 279 10:48 07.09.2021
5897 Clouds 18 1016 78 10000 1.79 328 09:40 07.09.2021
5898 Clear 14 1016 88 10000 2.68 307 07:46 07.09.2021
5899 Clear 14 1015 85 10000 2.24 281 06:19 07.09.2021
5900 Clear 16 1015 81 10000 1.79 286 02:38 07.09.2021
5901 Clear 16 1016 80 10000 1.79 301 00:55 07.09.2021
5902 Clear 16 1023 81 10000 1.34 234 23:46 06.09.2021
5903 Clear 17 1015 79 10000 0.89 43 23:28 06.09.2021
5904 Clear 17 1016 78 10000 0 0 22:49 06.09.2021
5905 Clear 17 1016 77 10000 0.89 41 21:55 06.09.2021
5906 Clear 19 1015 69 10000 0.45 332 20:34 06.09.2021
5907 Clear 21 1015 63 10000 2.68 286 19:18 06.09.2021
5908 Clear 22 1016 59 10000 3.13 295 18:33 06.09.2021
5909 Clear 22 1015 56 10000 3.13 283 17:50 06.09.2021
5910 Clear 23 1016 53 10000 1.79 263 16:20 06.09.2021
5911 Clouds 23 1016 54 10000 2.68 260 14:59 06.09.2021
5912 Clear 22 1023 60 10000 0.89 110 12:59 06.09.2021
5913 Clear 21 1023 61 10000 2.24 128 12:41 06.09.2021
5914 Clear 17 1016 69 10000 1.34 135 10:27 06.09.2021
5915 Clear 11 1023 84 10000 2.24 64 07:39 06.09.2021
5916 Clear 12 1023 78 10000 2.68 66 04:27 06.09.2021
5917 Clear 16 1023 72 10000 2.68 94 23:23 05.09.2021
5918 Clear 16 1023 69 10000 4.02 90 22:32 05.09.2021
5919 Clear 17 1016 68 10000 4.02 88 21:56 05.09.2021
5920 Clear 17 1016 66 10000 3.58 88 21:20 05.09.2021
5921 Clear 19 1015 64 10000 2.68 88 19:45 05.09.2021
5922 Clouds 22 1014 60 10000 4.92 119 17:52 05.09.2021
5923 Clouds 22 1015 60 10000 5.36 100 16:33 05.09.2021
5924 Clouds 22 1015 61 10000 4.47 131 15:20 05.09.2021
5925 Clouds 20 1016 66 10000 3.13 75 12:44 05.09.2021
5926 Clouds 18 1014 72 10000 1.34 225 11:35 05.09.2021
5927 Clouds 16 1013 78 10000 1.79 96 10:40 05.09.2021
5928 Clouds 14 1015 84 10000 2.24 93 09:35 05.09.2021
5929 Clouds 13 1014 90 10000 2.24 75 08:34 05.09.2021
5930 Clouds 12 1013 95 10000 0.45 114 05:47 05.09.2021
5931 Clouds 14 1010 84 10000 2.24 252 00:41 05.09.2021
5932 Clouds 14 1007 83 10000 3.13 240 23:59 04.09.2021
5933 Clouds 14 1000 80 10000 2.06 280 23:25 04.09.2021
5934 Clouds 14 1010 81 10000 2.24 259 22:35 04.09.2021
5935 Clear 15 1012 78 10000 2.68 303 21:18 04.09.2021
5936 Clear 17 1005 74 10000 4.47 327 19:33 04.09.2021
5937 Clouds 19 1006 74 10000 0.45 293 17:25 04.09.2021
5938 Clouds 19 999 75 10000 3.09 270 15:41 04.09.2021
5939 Clouds 17 1006 87 9000 3.6 250 11:54 04.09.2021
5940 Mist 16 1005 92 3500 3.09 290 10:55 04.09.2021
5941 Fog 13 1008 95 600 3.58 262 08:39 04.09.2021
5942 Clear 14 1010 85 10000 1.79 235 00:50 04.09.2021
5943 Clear 15 1010 82 10000 0.89 258 00:19 04.09.2021
5944 Clear 15 1010 81 10000 0.89 257 23:22 03.09.2021
5945 Clear 17 1010 75 10000 0.89 332 21:43 03.09.2021
5946 Clear 17 1010 73 10000 0.89 306 21:23 03.09.2021
5947 Clear 18 1010 69 10000 1.79 302 20:34 03.09.2021
5948 Clear 20 1010 62 10000 3.13 302 19:44 03.09.2021
5949 Clear 23 1010 55 10000 3.58 281 18:37 03.09.2021
5950 Clear 23 1010 52 10000 6.71 296 17:32 03.09.2021
5951 Clear 24 1011 55 10000 5.81 275 15:46 03.09.2021
5952 Clear 24 1009 57 10000 5.81 269 14:47 03.09.2021
5953 Clouds 19 1020 73 10000 5.81 271 11:22 03.09.2021
5954 Clear 18 1013 82 10000 5.36 258 10:19 03.09.2021
5955 Clear 13 1012 94 10000 3.13 244 08:22 03.09.2021
5956 Fog 12 1014 95 7000 1.79 239 06:51 03.09.2021
5957 Clear 15 1015 87 10000 0.89 14 23:59 02.09.2021
5958 Clear 16 1015 85 10000 1.34 345 22:22 02.09.2021
5959 Clear 16 1017 81 10000 1.79 330 21:18 02.09.2021
5960 Clouds 19 1016 72 10000 4.92 287 18:57 02.09.2021
5961 Clouds 21 1026 67 10000 4.47 283 17:22 02.09.2021
5962 Clouds 21 1017 68 10000 4.02 299 15:43 02.09.2021
5963 Clouds 21 1014 68 10000 4.63 300 13:43 02.09.2021
5964 Clouds 21 1014 69 10000 4.63 290 11:46 02.09.2021
5965 Clouds 20 1014 73 10000 3.6 300 11:27 02.09.2021
5966 Clear 16 1019 86 10000 2.24 287 09:30 02.09.2021
5967 Clear 14 1018 92 10000 1.79 298 07:45 02.09.2021
5968 Clear 13 1018 92 10000 2.68 275 06:47 02.09.2021
5969 Clear 14 1017 90 10000 2.68 251 02:38 02.09.2021
5970 Clear 14 1018 90 10000 2.68 252 01:53 02.09.2021
5971 Clear 14 1018 89 10000 1.34 280 01:18 02.09.2021
5972 Clear 15 1017 86 10000 3.13 280 23:34 01.09.2021
5973 Clear 16 1017 85 10000 3.13 283 22:31 01.09.2021
5974 Clear 16 1017 84 10000 3.58 268 21:33 01.09.2021
5975 Clouds 19 1016 77 10000 4.02 285 19:55 01.09.2021
5976 Clouds 21 1017 72 10000 4.02 281 17:58 01.09.2021
5977 Clouds 21 1017 71 10000 5.36 270 17:18 01.09.2021
5978 Clouds 21 1005 71 10000 4.12 290 16:46 01.09.2021
5979 Clouds 21 1005 73 10000 5.14 290 15:24 01.09.2021
5980 Clouds 18 1012 78 10000 6.17 340 11:49 01.09.2021
5981 Clouds 18 1017 79 10000 6.26 306 10:55 01.09.2021
5982 Clear 15 1014 88 10000 3.58 309 08:46 01.09.2021
5983 Clear 13 1015 91 10000 3.58 308 07:50 01.09.2021
5984 Clear 13 1015 82 10000 2.68 274 23:43 31.08.2021
5985 Clear 15 1014 77 10000 2.24 330 22:29 31.08.2021
5986 Clouds 17 1013 70 10000 3.58 352 20:57 31.08.2021
5987 Clouds 18 1013 63 10000 6.71 349 19:44 31.08.2021
5988 Clouds 19 1012 61 10000 8.05 6 18:23 31.08.2021
5989 Clouds 19 1010 60 10000 7.6 346 17:33 31.08.2021
5990 Clouds 20 1012 58 10000 7.15 331 16:49 31.08.2021
5991 Clouds 20 1012 66 10000 8.05 348 15:59 31.08.2021
5992 Clouds 19 1011 77 10000 7.15 357 12:56 31.08.2021
5993 Clouds 18 1011 82 10000 7.15 345 11:26 31.08.2021
5994 Clouds 18 1011 83 10000 6.26 330 10:49 31.08.2021
5995 Clouds 16 1010 91 10000 4.92 332 09:43 31.08.2021
5996 Drizzle 15 1008 91 10000 2.24 338 08:36 31.08.2021
5997 Clouds 15 1007 93 10000 1.79 338 05:58 31.08.2021
5998 Clouds 15 1009 93 10000 6.26 351 00:23 31.08.2021
5999 Clouds 15 1009 93 10000 6.26 9 23:29 30.08.2021
6000 Clouds 16 1015 93 10000 6.71 358 21:43 30.08.2021
6001 Clouds 16 1015 93 10000 6.26 10 20:42 30.08.2021
6002 Clouds 17 1007 93 10000 5.81 353 19:58 30.08.2021
6003 Clouds 17 1007 94 10000 6.71 353 19:29 30.08.2021
6004 Clouds 17 1014 93 10000 5.36 340 18:29 30.08.2021
6005 Clouds 18 1007 92 10000 4.47 358 17:44 30.08.2021
6006 Clouds 18 1014 91 10000 4.92 341 15:56 30.08.2021
6007 Rain 18 1007 92 10000 5.36 335 14:39 30.08.2021
6008 Rain 17 1007 94 10000 4.02 322 13:27 30.08.2021
6009 Clouds 16 1007 94 10000 4.47 4 11:57 30.08.2021
6010 Rain 15 1007 96 10000 1.34 40 08:27 30.08.2021
6011 Rain 15 1006 95 10000 1.34 356 22:26 29.08.2021
6012 Rain 16 1006 95 10000 0.89 286 21:31 29.08.2021
6013 Rain 16 1005 94 10000 2.68 318 19:33 29.08.2021
6014 Rain 17 1005 92 8000 4.02 320 18:47 29.08.2021
6015 Rain 17 1005 88 10000 3.58 300 17:41 29.08.2021
6016 Clouds 19 1006 82 10000 3.58 287 15:30 29.08.2021
6017 Clouds 19 1013 80 10000 2.24 277 14:18 29.08.2021
6018 Clouds 18 1013 84 10000 2.24 286 13:28 29.08.2021
6019 Clouds 17 1014 90 10000 2.24 306 12:31 29.08.2021
6020 Clouds 16 1014 94 10000 2.24 297 11:41 29.08.2021
6021 Clouds 15 1007 96 10000 1.79 239 10:52 29.08.2021
6022 Clouds 15 1007 96 10000 1.34 229 10:32 29.08.2021
6023 Rain 15 1007 95 10000 1.79 249 09:50 29.08.2021
6024 Rain 15 1006 94 10000 1.34 262 06:41 29.08.2021
6025 Clear 15 1008 92 10000 2.24 321 23:48 28.08.2021
6026 Clouds 16 1008 88 10000 2.68 315 20:55 28.08.2021
6027 Clouds 17 1007 85 10000 4.92 332 19:53 28.08.2021
6028 Clouds 19 1007 71 10000 4.02 285 18:27 28.08.2021
6029 Clouds 19 1007 68 10000 3.13 307 17:47 28.08.2021
6030 Clouds 20 1007 65 10000 2.68 275 16:58 28.08.2021
6031 Clouds 20 1007 65 10000 2.24 293 15:28 28.08.2021
6032 Clouds 19 1008 68 10000 1.79 320 14:19 28.08.2021
6033 Clouds 18 1006 72 10000 0.89 315 13:43 28.08.2021
6034 Clouds 17 1002 78 10000 0.45 315 12:41 28.08.2021
6035 Clouds 16 1015 94 10000 1.54 340 11:51 28.08.2021
6036 Clouds 14 1008 92 10000 2.24 321 10:29 28.08.2021
6037 Clouds 13 1007 93 10000 1.34 7 08:38 28.08.2021
6038 Clouds 13 1014 93 10000 0.45 338 06:23 28.08.2021
6039 Clouds 14 1006 87 10000 1.79 354 22:26 27.08.2021
6040 Clouds 15 1005 85 10000 0.45 48 20:56 27.08.2021
6041 Clouds 15 1005 84 10000 0.89 70 20:19 27.08.2021
6042 Clouds 16 1004 76 10000 3.13 19 18:46 27.08.2021
6043 Clouds 16 1002 75 10000 3.58 10 18:28 27.08.2021
6044 Clouds 17 1003 74 10000 3.58 61 16:50 27.08.2021
6045 Clouds 16 1003 77 10000 3.58 48 15:21 27.08.2021
6046 Clouds 17 1003 75 10000 4.47 10 14:41 27.08.2021
6047 Clouds 16 1009 77 10000 3.58 29 12:30 27.08.2021
6048 Clouds 16 1009 83 10000 2.24 335 11:24 27.08.2021
6049 Clouds 15 1002 86 10000 1.79 10 10:42 27.08.2021
6050 Clouds 14 1001 93 5000 1.79 294 09:30 27.08.2021
6051 Clouds 14 1001 94 3200 2.24 323 08:41 27.08.2021
6052 Clouds 13 1008 95 10000 3.58 246 05:54 27.08.2021
6053 Rain 13 1008 94 10000 4.02 293 02:48 27.08.2021
6054 Clouds 13 1009 93 10000 3.58 309 00:32 27.08.2021
6055 Rain 13 1009 92 10000 4.02 276 22:29 26.08.2021
6056 Clouds 13 1008 91 10000 5.36 273 21:57 26.08.2021
6057 Rain 14 1008 88 10000 4.02 304 20:18 26.08.2021
6058 Clouds 15 1008 80 10000 2.68 267 18:49 26.08.2021
6059 Clouds 15 1008 79 10000 5.36 331 17:44 26.08.2021
6060 Clouds 17 1008 75 10000 5.36 292 16:32 26.08.2021
6061 Clouds 17 1000 70 10000 4.92 330 15:54 26.08.2021
6062 Clouds 17 1007 73 10000 7.15 300 13:33 26.08.2021
6063 Clouds 17 1007 80 10000 4.92 315 12:50 26.08.2021
6064 Clouds 16 1007 81 10000 3.58 331 12:24 26.08.2021
6065 Clouds 16 1000 88 10000 4.47 310 09:43 26.08.2021
6066 Clouds 14 1000 94 10000 4.47 289 08:34 26.08.2021
6067 Clouds 15 1008 94 10000 3.58 277 02:32 26.08.2021
6068 Clouds 15 1003 92 4000 5.81 278 22:49 25.08.2021
6069 Drizzle 15 1003 91 5000 5.81 280 22:30 25.08.2021
6070 Rain 17 1003 79 10000 7.6 282 21:29 25.08.2021
6071 Rain 18 1004 69 10000 6.26 295 20:46 25.08.2021
6072 Clouds 19 1004 66 10000 6.71 288 20:26 25.08.2021
6073 Clear 21 1005 58 10000 8.05 269 18:42 25.08.2021
6074 Clouds 22 1006 54 10000 8.05 259 17:31 25.08.2021
6075 Clear 21 1008 56 10000 7.6 271 15:44 25.08.2021
6076 Clear 21 1009 57 10000 5.81 226 14:48 25.08.2021
6077 Clouds 21 1008 57 10000 5.81 240 14:26 25.08.2021
6078 Clear 18 1000 58 10000 4.63 270 12:56 25.08.2021
6079 Clear 17 1020 61 10000 3.58 285 11:26 25.08.2021
6080 Clear 17 1021 61 10000 4.02 282 10:40 25.08.2021
6081 Clear 16 1014 68 10000 3.13 273 09:51 25.08.2021
6082 Clear 14 1014 77 10000 0.45 338 08:50 25.08.2021
6083 Clear 13 1015 81 10000 0.89 250 08:29 25.08.2021
6084 Clear 10 1024 82 10000 1.79 7 03:53 25.08.2021
6085 Clear 14 1026 73 10000 2.68 30 23:44 24.08.2021
6086 Clear 16 1026 67 10000 4.47 11 21:49 24.08.2021
6087 Clear 16 1026 67 10000 4.47 11 21:48 24.08.2021
6088 Clear 18 1019 60 10000 4.47 39 20:48 24.08.2021
6089 Clear 19 1019 55 10000 5.36 6 19:52 24.08.2021
6090 Clear 21 1019 51 10000 4.92 28 17:58 24.08.2021
6091 Clear 21 1019 51 10000 4.92 28 17:58 24.08.2021
6092 Clear 21 1019 51 10000 4.92 28 17:58 24.08.2021
6093 Clear 21 1019 51 10000 4.02 31 17:58 24.08.2021
6094 Clear 21 1019 49 10000 5.36 36 17:28 24.08.2021
6095 Clear 22 1019 47 10000 6.26 22 16:56 24.08.2021
6096 Clear 21 1019 46 10000 5.36 20 14:29 24.08.2021
6097 Clouds 21 1019 50 10000 4.92 37 13:25 24.08.2021
6098 Clouds 20 1026 55 10000 5.36 20 12:33 24.08.2021
6099 Clouds 19 1019 64 10000 4.92 41 10:48 24.08.2021
6100 Clouds 18 1019 67 10000 5.36 45 10:27 24.08.2021
6101 Clear 15 1018 81 10000 4.92 40 08:50 24.08.2021
6102 Clear 12 1018 89 10000 4.47 25 06:55 24.08.2021
6103 Clear 13 1017 85 10000 4.47 8 04:54 24.08.2021
6104 Clouds 15 1016 79 10000 6.71 12 00:48 24.08.2021
6105 Clear 15 1016 78 10000 4.92 352 23:19 23.08.2021
6106 Clear 16 1015 76 10000 7.15 9 22:39 23.08.2021
6107 Clouds 17 1015 69 10000 7.15 350 20:49 23.08.2021
6108 Clouds 18 1014 59 10000 6.26 353 19:24 23.08.2021
6109 Clouds 19 1013 68 10000 3.58 29 16:41 23.08.2021
6110 Clouds 17 1013 74 10000 3.58 50 14:49 23.08.2021
6111 Clouds 15 1019 83 10000 8.94 37 13:26 23.08.2021
6112 Clouds 15 1019 89 10000 7.15 39 12:20 23.08.2021
6113 Clouds 15 1011 89 10000 7.15 13 10:39 23.08.2021
6114 Clouds 15 1010 91 10000 4.92 32 09:51 23.08.2021
6115 Clouds 15 1010 94 10000 5.36 49 08:34 23.08.2021
6116 Clouds 16 1009 95 6000 7.15 41 06:51 23.08.2021
6117 Rain 16 1009 96 10000 7.6 52 06:33 23.08.2021
6118 Rain 18 1008 92 10000 2.68 63 00:55 23.08.2021
6119 Clear 18 1008 90 10000 2.24 39 22:51 22.08.2021
6120 Clear 17 1015 90 10000 3.13 16 22:28 22.08.2021
6121 Clear 19 1007 86 10000 3.13 12 20:23 22.08.2021
6122 Clouds 19 1007 85 10000 3.13 18 19:46 22.08.2021
6123 Clouds 20 1007 85 10000 4.02 41 17:37 22.08.2021
6124 Rain 19 1002 86 10000 0.89 90 15:32 22.08.2021
6125 Rain 19 1003 83 10000 1.79 90 14:51 22.08.2021
6126 Rain 21 1008 73 10000 2.24 44 13:37 22.08.2021
6127 Rain 21 1008 65 10000 2.68 140 13:18 22.08.2021
6128 Rain 22 1007 61 10000 4.92 83 12:29 22.08.2021
6129 Clear 22 1007 61 10000 5.81 101 11:43 22.08.2021
6130 Clear 20 1008 63 10000 4.47 76 10:43 22.08.2021
6131 Clear 18 1008 68 10000 5.81 75 08:36 22.08.2021
6132 Clear 16 1009 76 10000 4.47 78 04:58 22.08.2021
6133 Clear 18 1011 71 10000 2.68 66 00:32 22.08.2021
6134 Clear 19 1011 70 10000 3.58 68 22:35 21.08.2021
6135 Clear 20 1011 68 10000 2.68 69 21:34 21.08.2021
6136 Clouds 23 1010 59 10000 1.79 4 18:46 21.08.2021
6137 Clouds 23 1011 58 10000 2.68 342 17:59 21.08.2021
6138 Clouds 24 1011 57 10000 1.79 329 16:56 21.08.2021
6139 Clouds 24 1011 57 10000 1.34 326 16:29 21.08.2021
6140 Clouds 24 1012 57 10000 2.24 310 15:38 21.08.2021
6141 Clouds 24 1012 57 10000 2.24 310 15:38 21.08.2021
6142 Clouds 24 1012 58 10000 0.89 327 15:20 21.08.2021
6143 Clouds 23 1019 61 10000 2.68 235 13:35 21.08.2021
6144 Clouds 22 1019 64 10000 1.79 243 12:39 21.08.2021
6145 Clouds 20 1019 70 10000 2.24 123 10:39 21.08.2021
6146 Clear 16 1012 91 10000 0.45 234 07:50 21.08.2021
6147 Clear 15 1011 91 10000 0.51 0 07:50 21.08.2021
6148 Clouds 17 1010 80 10000 2.68 236 23:51 20.08.2021
6149 Clear 18 1009 78 10000 1.79 258 21:56 20.08.2021
6150 Clouds 20 1008 69 10000 4.47 281 19:31 20.08.2021
6151 Clouds 20 1008 68 10000 5.81 276 16:29 20.08.2021
6152 Clouds 20 1008 65 10000 4.92 258 14:34 20.08.2021
6153 Clouds 17 1008 83 10000 4.92 282 11:55 20.08.2021
6154 Clouds 17 1008 83 10000 6.71 281 11:27 20.08.2021
6155 Clouds 18 1007 85 10000 3.58 241 09:46 20.08.2021
6156 Clouds 18 1007 88 10000 4.47 247 09:18 20.08.2021
6157 Clouds 17 1007 91 10000 2.68 206 08:36 20.08.2021
6158 Clouds 17 1006 89 10000 2.68 253 04:40 20.08.2021
6159 Clouds 17 1006 88 10000 2.24 246 04:20 20.08.2021
6160 Clouds 19 1005 79 10000 4.47 243 23:27 19.08.2021
6161 Clouds 19 1005 78 10000 3.58 234 22:38 19.08.2021
6162 Clouds 19 1005 76 10000 1.79 235 21:50 19.08.2021
6163 Clouds 20 1005 70 10000 4.92 232 20:19 19.08.2021
6164 Clouds 21 1011 61 10000 5.81 220 17:59 19.08.2021
6165 Clouds 21 1012 59 10000 6.17 240 16:51 19.08.2021
6166 Clouds 21 1011 65 10000 6.26 264 14:36 19.08.2021
6167 Clouds 19 1004 72 10000 7.15 259 12:46 19.08.2021
6168 Clouds 19 1011 73 10000 8.05 263 12:27 19.08.2021
6169 Clouds 18 1011 75 10000 6.71 244 10:49 19.08.2021
6170 Clouds 17 1010 77 10000 5.36 251 09:48 19.08.2021
6171 Clouds 17 1010 78 10000 7.15 253 09:27 19.08.2021
6172 Clouds 17 1003 79 10000 7.15 243 08:33 19.08.2021
6173 Clouds 18 1002 74 10000 7.6 255 03:53 19.08.2021
6174 Clear 18 1002 72 10000 6.71 258 02:20 19.08.2021
6175 Clear 18 1003 67 10000 5.36 222 23:29 18.08.2021
6176 Clear 18 1003 68 10000 5.36 239 22:36 18.08.2021
6177 Clear 19 1003 67 10000 6.71 246 21:33 18.08.2021
6178 Clear 19 1003 67 10000 5.81 223 20:20 18.08.2021
6179 Clouds 19 1003 67 10000 7.15 252 19:26 18.08.2021
6180 Clouds 19 1011 67 10000 8.05 250 18:34 18.08.2021
6181 Clouds 19 1004 65 10000 7.6 263 16:56 18.08.2021
6182 Clouds 19 1011 63 10000 8.49 266 15:40 18.08.2021
6183 Clouds 19 1004 61 10000 7.6 258 15:21 18.08.2021
6184 Clouds 20 1004 59 10000 7.15 257 13:21 18.08.2021
6185 Clouds 19 1011 67 10000 6.26 235 12:38 18.08.2021
6186 Clouds 18 1011 67 10000 8.05 237 12:19 18.08.2021
6187 Clouds 16 1005 78 10000 5.81 228 08:43 18.08.2021
6188 Clouds 15 1004 77 10000 5.81 242 02:37 18.08.2021
6189 Clouds 15 1011 74 10000 6.26 252 22:40 17.08.2021
6190 Clouds 16 1011 72 10000 7.15 253 21:59 17.08.2021
6191 Clouds 17 1011 71 10000 6.71 260 21:22 17.08.2021
6192 Clouds 17 1011 70 10000 6.71 243 20:42 17.08.2021
6193 Clouds 18 1011 62 10000 9.39 265 17:54 17.08.2021
6194 Clouds 18 1011 63 10000 10.28 254 17:26 17.08.2021
6195 Clouds 17 1011 70 10000 9.39 257 16:28 17.08.2021
6196 Rain 17 1011 72 10000 8.94 266 15:35 17.08.2021
6197 Clouds 17 1003 70 10000 11.62 266 13:23 17.08.2021
6198 Clouds 16 1010 78 10000 10.28 264 11:00 17.08.2021
6199 Clouds 15 1009 82 10000 8.94 248 09:20 17.08.2021
6200 Clouds 14 1008 81 10000 8.94 242 07:30 17.08.2021
6201 Rain 14 1009 90 10000 6.26 238 23:28 16.08.2021
6202 Clouds 14 1009 91 10000 4.92 262 22:54 16.08.2021
6203 Rain 14 1009 90 10000 4.02 258 22:35 16.08.2021
6204 Rain 14 1009 90 10000 4.02 268 21:51 16.08.2021
6205 Rain 15 1009 88 10000 5.81 253 20:53 16.08.2021
6206 Rain 17 1008 75 10000 5.36 254 19:43 16.08.2021
6207 Clouds 18 1008 73 10000 7.15 274 19:22 16.08.2021
6208 Clear 21 1006 59 10000 8.94 261 17:55 16.08.2021
6209 Clear 23 1006 48 10000 9.83 255 16:57 16.08.2021
6210 Clear 24 1005 48 10000 7.15 276 15:29 16.08.2021
6211 Clear 25 998 46 10000 7.15 281 14:28 16.08.2021
6212 Clouds 25 1006 48 10000 8.94 273 13:24 16.08.2021
6213 Clouds 24 1006 51 10000 9.39 257 12:29 16.08.2021
6214 Clouds 22 1006 63 10000 7.6 268 10:37 16.08.2021
6215 Clear 21 998 67 10000 6.26 265 08:44 16.08.2021
6216 Clear 18 998 73 10000 4.47 228 07:32 16.08.2021
6217 Clear 17 998 76 10000 3.58 173 06:24 16.08.2021
6218 Clear 19 1000 68 10000 3.58 202 02:18 16.08.2021
6219 Clear 21 1003 65 10000 0.45 116 21:51 15.08.2021
6220 Clear 24 1003 55 10000 0.89 257 20:28 15.08.2021
6221 Clear 26 1004 49 10000 4.02 252 18:46 15.08.2021
6222 Clear 26 1004 49 10000 2.68 248 17:54 15.08.2021
6223 Clear 26 1004 47 10000 4.47 283 17:24 15.08.2021
6224 Clear 26 1005 48 10000 6.26 268 16:24 15.08.2021
6225 Clouds 26 1006 50 10000 5.36 257 14:42 15.08.2021
6226 Clouds 26 1006 50 10000 5.36 257 14:42 15.08.2021
6227 Clouds 26 1006 49 10000 4.92 255 13:55 15.08.2021
6228 Clouds 23 1015 59 10000 2.68 228 11:18 15.08.2021
6229 Clear 20 1008 71 10000 2.24 233 08:50 15.08.2021
6230 Clear 18 1016 71 10000 2.24 253 01:55 15.08.2021
6231 Clear 19 1016 67 10000 1.79 293 00:37 15.08.2021
6232 Clear 22 1015 58 10000 2.68 308 21:59 14.08.2021
6233 Clear 24 1008 51 10000 2.24 282 20:58 14.08.2021
6234 Clear 25 1008 47 10000 2.68 305 19:43 14.08.2021
6235 Clear 26 1009 45 10000 4.47 289 18:40 14.08.2021
6236 Clear 27 1010 42 10000 6.26 246 16:59 14.08.2021
6237 Clear 27 1011 41 10000 4.47 277 15:47 14.08.2021
6238 Clear 27 1011 44 10000 7.15 275 14:24 14.08.2021
6239 Clouds 24 1020 52 10000 4.92 260 12:19 14.08.2021
6240 Clouds 23 1020 60 10000 4.92 262 10:45 14.08.2021
6241 Clear 18 1020 78 10000 2.68 260 07:40 14.08.2021
6242 Clear 22 1018 68 10000 2.57 260 23:53 13.08.2021
6243 Clear 24 1011 63 10000 1.79 190 22:27 13.08.2021
6244 Clear 25 1010 56 10000 1.34 277 20:47 13.08.2021
6245 Clear 28 1011 47 10000 3.58 286 18:47 13.08.2021
6246 Clear 29 1011 45 10000 4.92 279 17:43 13.08.2021
6247 Clear 29 1011 46 10000 6.26 261 16:25 13.08.2021
6248 Clear 30 1012 45 10000 2.24 248 13:30 13.08.2021
6249 Clear 27 1019 54 10000 2.68 213 11:20 13.08.2021
6250 Clear 24 1010 62 10000 0.45 180 09:42 13.08.2021
6251 Clear 20 1010 73 10000 1.34 139 08:36 13.08.2021
6252 Clear 17 1019 78 10000 2.24 130 07:20 13.08.2021
6253 Clear 17 1019 78 10000 0.45 95 04:59 13.08.2021
6254 Clear 21 1013 63 10000 2.68 147 23:37 12.08.2021
6255 Clear 22 1012 59 10000 2.68 166 21:21 12.08.2021
6256 Clear 24 1012 53 10000 2.24 153 20:22 12.08.2021
6257 Clear 25 1012 46 10000 2.24 185 19:45 12.08.2021
6258 Clear 25 1012 47 10000 2.24 185 19:45 12.08.2021
6259 Clear 26 1013 43 10000 1.79 191 17:54 12.08.2021
6260 Clear 27 1013 41 10000 3.58 175 16:34 12.08.2021
6261 Clear 27 1013 40 10000 2.24 203 15:20 12.08.2021
6262 Clear 26 1021 45 10000 1.34 232 12:59 12.08.2021
6263 Clear 24 1021 54 10000 2.24 190 11:20 12.08.2021
6264 Clear 17 1014 88 10000 0.89 215 07:57 12.08.2021
6265 Clear 15 1013 86 10000 0.51 0 01:52 12.08.2021
6266 Clear 17 1020 78 10000 0.89 173 22:55 11.08.2021
6267 Clouds 19 1012 67 10000 2.24 284 21:23 11.08.2021
6268 Clouds 23 1012 56 10000 4.47 278 18:29 11.08.2021
6269 Clouds 23 1012 55 10000 4.47 259 16:30 11.08.2021
6270 Clouds 23 1012 55 10000 4.47 298 15:21 11.08.2021
6271 Clouds 23 1012 55 10000 5.81 261 14:23 11.08.2021
6272 Clouds 22 1019 64 10000 4.02 278 12:35 11.08.2021
6273 Clouds 20 1019 73 10000 4.02 287 11:47 11.08.2021
6274 Clouds 19 1019 75 10000 4.47 290 11:22 11.08.2021
6275 Clouds 18 1019 84 10000 4.02 254 10:25 11.08.2021
6276 Fog 16 1018 94 500 2.68 246 08:32 11.08.2021
6277 Clear 15 1016 89 10000 2.24 309 00:39 11.08.2021
6278 Rain 18 1015 76 10000 1.79 223 22:32 10.08.2021
6279 Clouds 19 1015 71 10000 2.24 182 21:37 10.08.2021
6280 Clouds 22 1007 58 10000 3.58 336 20:38 10.08.2021
6281 Clear 23 1007 54 10000 3.58 248 19:25 10.08.2021
6282 Clouds 23 1007 56 10000 5.81 230 16:49 10.08.2021
6283 Clouds 23 1008 59 10000 4.47 210 15:22 10.08.2021
6284 Clouds 22 1016 60 10000 4.92 222 14:38 10.08.2021
6285 Clear 19 1009 76 10000 2.24 191 10:47 10.08.2021
6286 Clear 16 1017 90 10000 1.34 167 08:18 10.08.2021
6287 Clear 14 1010 92 10000 0.89 177 04:59 10.08.2021
6288 Clear 14 1010 92 10000 0.89 177 04:59 10.08.2021
6289 Clear 15 1017 90 10000 1.34 127 00:33 10.08.2021
6290 Clouds 16 1010 87 10000 2.68 130 23:24 09.08.2021
6291 Rain 17 1011 81 10000 5.81 280 21:52 09.08.2021
6292 Rain 20 1010 58 10000 1.34 268 20:35 09.08.2021
6293 Clear 23 1009 49 10000 4.92 290 17:57 09.08.2021
6294 Clear 24 1010 48 10000 3.58 240 15:35 09.08.2021
6295 Clear 24 1010 48 10000 3.58 240 15:35 09.08.2021
6296 Clouds 23 1010 49 10000 4.02 193 14:36 09.08.2021
6297 Clouds 23 1010 54 10000 4.02 230 13:29 09.08.2021
6298 Clear 20 998 66 10000 3.6 200 11:48 09.08.2021
6299 Clear 17 1010 73 10000 4.47 225 09:27 09.08.2021
6300 Clear 15 1010 81 10000 3.58 210 07:59 09.08.2021
6301 Clear 19 1005 61 10000 3.13 230 21:32 08.08.2021
6302 Clear 20 1005 55 10000 4.47 235 20:36 08.08.2021
6303 Clear 23 1003 51 10000 5.36 244 17:36 08.08.2021
6304 Clear 24 1002 48 10000 7.15 259 15:46 08.08.2021
6305 Clear 23 1009 49 10000 8.05 243 14:34 08.08.2021
6306 Clouds 22 1008 56 10000 9.39 248 12:47 08.08.2021
6307 Clouds 21 1007 65 10000 7.6 240 10:36 08.08.2021
6308 Clear 16 998 91 10000 5.36 227 06:41 08.08.2021
6309 Clear 18 997 91 10000 2.68 176 00:53 08.08.2021
6310 Clear 18 1004 90 10000 2.24 221 00:25 08.08.2021
6311 Rain 21 996 70 10000 2.68 153 21:47 07.08.2021
6312 Rain 21 996 68 10000 2.68 153 21:47 07.08.2021
6313 Rain 21 996 68 10000 2.68 153 21:47 07.08.2021
6314 Rain 21 996 68 10000 2.68 153 21:47 07.08.2021
6315 Rain 22 996 61 10000 3.58 155 21:19 07.08.2021
6316 Clear 24 996 53 10000 4.92 161 18:22 07.08.2021
6317 Clear 25 997 50 10000 4.92 206 16:52 07.08.2021
6318 Clear 25 997 50 10000 4.02 222 15:37 07.08.2021
6319 Clouds 25 998 55 10000 4.92 209 13:53 07.08.2021
6320 Clouds 22 1006 69 10000 4.47 190 11:37 07.08.2021
6321 Clear 20 999 83 10000 3.13 249 09:35 07.08.2021
6322 Clear 15 998 94 10000 3.58 221 04:56 07.08.2021
6323 Rain 17 997 90 10000 3.58 192 23:21 06.08.2021
6324 Rain 19 997 85 10000 1.79 212 20:39 06.08.2021
6325 Clouds 19 998 82 10000 2.24 274 20:18 06.08.2021
6326 Rain 20 997 79 10000 5.81 255 19:45 06.08.2021
6327 Clear 25 995 48 10000 2.24 156 17:51 06.08.2021
6328 Clouds 25 998 48 10000 4.02 161 13:33 06.08.2021
6329 Clouds 20 999 76 10000 1.34 125 09:57 06.08.2021
6330 Clear 17 1005 87 10000 2.24 95 08:38 06.08.2021
6331 Clear 16 1006 84 10000 0.89 283 00:35 06.08.2021
6332 Clear 17 1007 80 10000 1.34 320 23:19 05.08.2021
6333 Clouds 19 1001 75 10000 3.58 238 21:30 05.08.2021
6334 Clear 20 1001 71 10000 3.58 197 19:53 05.08.2021
6335 Clouds 21 999 67 10000 0.45 68 18:26 05.08.2021
6336 Clouds 24 1001 56 10000 5.36 104 15:44 05.08.2021
6337 Clouds 24 1003 58 10000 3.58 30 12:49 05.08.2021
6338 Clear 18 1009 75 10000 3.58 57 08:52 05.08.2021
6339 Clear 17 1009 77 10000 4.02 56 08:19 05.08.2021
6340 Clear 15 1010 78 10000 2.24 41 02:51 05.08.2021
6341 Clear 18 1010 71 10000 2.24 58 22:41 04.08.2021
6342 Clouds 19 1005 70 10000 2.68 48 21:26 04.08.2021
6343 Clouds 22 1005 64 10000 3.13 70 19:37 04.08.2021
6344 Clouds 22 1006 62 10000 2.24 75 17:23 04.08.2021
6345 Clouds 22 1006 63 10000 4.02 101 14:46 04.08.2021
6346 Clouds 21 1011 68 10000 4.02 79 12:23 04.08.2021
6347 Clouds 21 1011 68 10000 2.68 81 12:23 04.08.2021
6348 Clouds 16 1011 86 10000 2.68 76 07:49 04.08.2021
6349 Clear 20 1005 62 10000 1.79 346 21:18 03.08.2021
6350 Clear 21 1005 61 10000 1.34 317 20:29 03.08.2021
6351 Clear 21 1011 58 10000 2.68 279 18:47 03.08.2021
6352 Clear 22 1011 53 10000 3.13 266 17:30 03.08.2021
6353 Clouds 22 1007 55 10000 1.79 189 13:57 03.08.2021
6354 Clouds 18 1012 69 10000 2.68 251 10:58 03.08.2021
6355 Clouds 18 1006 76 10000 1.34 253 09:50 03.08.2021
6356 Clear 16 1011 67 10000 3.13 302 22:58 02.08.2021
6357 Clear 22 1004 51 10000 7.6 275 16:40 02.08.2021
6358 Clear 21 1004 52 10000 9.83 279 15:35 02.08.2021
6359 Clouds 20 1009 64 10000 5.81 298 12:40 02.08.2021
6360 Clouds 19 1008 65 10000 7.6 272 11:57 02.08.2021
6361 Clouds 18 1008 74 10000 6.26 281 10:26 02.08.2021
6362 Clouds 15 1008 87 10000 3.58 257 07:45 02.08.2021
6363 Rain 21 997 62 10000 1.79 210 19:33 01.08.2021
6364 Clouds 22 999 70 10000 5.36 254 17:46 01.08.2021
6365 Clouds 20 1001 70 10000 3.13 254 11:39 01.08.2021
6366 Clouds 19 1005 71 10000 4.02 270 10:56 01.08.2021
6367 Clear 16 1005 75 10000 2.68 221 03:49 01.08.2021
6368 Clear 18 1006 66 10000 3.13 258 00:34 01.08.2021
6369 Clear 20 1005 60 10000 4.47 260 22:36 31.07.2021
6370 Clear 23 1005 50 10000 7.6 245 19:28 31.07.2021
6371 Clear 24 999 41 10000 10.28 245 16:37 31.07.2021
6372 Clear 24 1005 45 10000 9.83 255 15:27 31.07.2021
6373 Clouds 23 1004 51 10000 10.73 233 10:59 31.07.2021
6374 Clear 19 997 69 10000 4.02 189 03:31 31.07.2021
6375 Clear 22 999 61 10000 1.79 171 22:27 30.07.2021
6376 Clear 25 998 50 10000 3.13 235 20:23 30.07.2021
6377 Clear 25 1000 43 10000 4.92 265 14:19 30.07.2021
6378 Clear 23 1007 42 10000 4.47 281 19:57 29.07.2021
6379 Clear 20 1003 70 10000 6.71 228 08:43 29.07.2021
6380 Clear 17 1008 83 10000 4.02 227 04:51 29.07.2021
6381 Clear 20 1003 70 10000 4.02 179 22:48 28.07.2021
6382 Clouds 24 1003 56 10000 7.15 223 17:53 28.07.2021
6383 Clouds 25 1003 52 10000 5.81 239 16:54 28.07.2021
6384 Clouds 21 1004 74 10000 3.58 235 09:44 28.07.2021
6385 Clear 20 1010 72 10000 3.13 183 23:56 27.07.2021
6386 Clear 23 1002 67 10000 2.68 225 21:34 27.07.2021
6387 Clear 28 1004 48 10000 8.05 233 15:35 27.07.2021
6388 Clear 28 1004 48 10000 7.15 245 14:51 27.07.2021
6389 Clear 25 1009 61 10000 3.13 240 10:33 27.07.2021
6390 Clear 20 1004 79 10000 2.24 168 02:58 27.07.2021
6391 Clouds 29 1003 58 10000 3.58 220 15:34 26.07.2021
6392 Clear 24 1003 78 10000 1.34 188 10:38 26.07.2021
6393 Rain 20 1002 90 10000 1.79 79 20:58 25.07.2021
6394 Rain 20 1009 95 10000 1.54 50 20:37 25.07.2021
6395 Thunderstorm 23 1010 69 10000 3.6 20 20:37 25.07.2021
6396 Clouds 28 1001 55 10000 1.79 167 17:45 25.07.2021
6397 Clear 30 1002 48 10000 5.36 116 14:34 25.07.2021
6398 Clear 21 1003 71 10000 1.79 145 08:21 25.07.2021
6399 Clear 21 1002 70 10000 4.02 100 07:52 25.07.2021
6400 Clear 27 1002 51 10000 4.02 104 20:22 24.07.2021
6401 Clear 28 1002 43 10000 5.36 117 19:36 24.07.2021
6402 Clear 27 1010 52 10000 5.81 103 11:27 24.07.2021
6403 Clouds 26 1008 54 10000 3.13 285 17:35 23.07.2021
6404 Clear 26 1016 38 10000 2.49 273 14:35 23.07.2021
6405 Clouds 24 1016 61 10000 4.02 277 12:40 23.07.2021
6406 Clouds 24 1016 61 10000 4.02 277 12:40 23.07.2021
6407 Clear 19 1017 74 10000 2.24 257 22:51 22.07.2021
6408 Clouds 22 1014 69 10000 4.47 254 15:27 22.07.2021
6409 Clouds 21 1020 67 10000 2.68 251 11:19 22.07.2021
6410 Clouds 20 1019 74 10000 0.45 240 08:34 22.07.2021
6411 Clear 18 1021 81 10000 1.34 262 01:43 22.07.2021
6412 Clouds 19 1020 73 10000 2.24 290 21:42 21.07.2021
6413 Clouds 20 1020 73 10000 6.26 301 21:22 21.07.2021
6414 Clouds 21 1021 64 10000 5.36 291 11:52 21.07.2021
6415 Clouds 19 1015 75 10000 2.24 299 09:20 21.07.2021
6416 Clear 14 1018 84 10000 1.79 260 05:45 21.07.2021
6417 Clouds 18 1018 72 10000 2.68 274 21:54 20.07.2021
6418 Clouds 22 1011 64 10000 4.47 278 16:36 20.07.2021
6419 Clouds 21 1011 63 10000 5.81 300 15:28 20.07.2021
6420 Clouds 20 1017 59 10000 5.81 280 12:36 20.07.2021
6421 Clear 16 1016 74 10000 2.68 290 07:57 20.07.2021
6422 Clear 16 1011 75 10000 1.79 274 03:20 20.07.2021
6423 Clouds 20 1016 60 10000 3.58 320 19:21 19.07.2021
6424 Clouds 19 1017 63 10000 5.36 296 12:52 19.07.2021
6425 Clouds 16 1017 73 10000 4.92 302 07:39 19.07.2021
6426 Clouds 27 1010 51 10000 6.71 316 17:22 18.07.2021
6427 Clouds 23 1017 64 10000 4.92 313 10:53 18.07.2021
6428 Clear 20 1016 73 10000 2.57 340 00:21 18.07.2021
6429 Clear 22 1018 68 10000 5.81 333 22:21 17.07.2021
6430 Clear 24 1015 67 10000 4.92 334 21:41 17.07.2021
6431 Clouds 28 1010 63 10000 6.71 9 17:33 17.07.2021
6432 Clouds 23 1018 84 10000 4.47 350 11:34 17.07.2021
6433 Clouds 20 1016 92 10000 3.58 328 04:55 17.07.2021
6434 Clouds 27 1014 72 10000 4.92 326 17:58 16.07.2021
6435 Clouds 28 1014 60 10000 2.68 288 13:20 16.07.2021
6436 Clouds 20 1008 90 10000 0.89 300 07:25 16.07.2021
6437 Clouds 20 1012 84 10000 0.45 29 23:50 15.07.2021
6438 Clouds 27 1005 55 10000 2.68 290 13:51 15.07.2021
6439 Clear 23 1010 71 10000 4.47 317 10:31 15.07.2021
6440 Clear 19 1004 79 10000 1.34 77 00:33 15.07.2021
6441 Clouds 26 1002 67 10000 1.79 200 16:57 14.07.2021
6442 Clouds 25 1002 73 10000 2.68 129 14:57 14.07.2021
6443 Clouds 19 1005 92 10000 2.68 180 06:32 14.07.2021
6444 Clear 25 1005 63 10000 3.13 54 21:38 13.07.2021
6445 Clear 28 999 53 10000 3.13 87 19:55 13.07.2021
6446 Clear 29 1000 51 10000 4.92 100 19:27 13.07.2021
6447 Clear 29 1000 50 10000 4.47 51 18:45 13.07.2021
6448 Clear 29 1000 49 10000 4.47 81 18:27 13.07.2021
6449 Clear 30 1000 49 10000 5.36 89 17:56 13.07.2021
6450 Clouds 29 1002 52 10000 5.36 100 12:52 13.07.2021
6451 Clear 23 1008 75 10000 1.79 74 08:49 13.07.2021
6452 Clouds 24 1004 69 10000 4.47 142 20:00 12.07.2021
6453 Clouds 26 1004 66 10000 4.47 169 16:45 12.07.2021
6454 Clouds 24 1006 69 10000 3.58 69 10:56 12.07.2021
6455 Clear 23 1013 63 10000 2.68 58 21:59 11.07.2021
6456 Clear 26 1012 48 10000 3.58 80 19:53 11.07.2021
6457 Clear 22 1009 69 10000 4.92 103 09:19 11.07.2021
6458 Clear 19 1008 75 10000 1.79 97 22:45 10.07.2021
6459 Clouds 21 1009 70 10000 6.26 279 12:20 10.07.2021
6460 Clouds 16 1008 95 10000 4.47 239 07:49 10.07.2021
6461 Drizzle 16 1006 95 6000 4.02 289 23:19 09.07.2021
6462 Clouds 18 1011 90 10000 6.71 303 18:20 09.07.2021
6463 Clouds 19 1014 95 10000 2.68 41 14:48 09.07.2021
6464 Clouds 18 1007 95 10000 4.47 40 08:37 09.07.2021
6465 Clouds 19 1017 87 10000 4.92 12 23:49 08.07.2021
6466 Clear 19 1017 85 10000 3.13 12 22:35 08.07.2021
6467 Clear 20 1018 87 10000 3.13 15 18:56 08.07.2021
6468 Rain 20 1012 86 10000 3.13 55 17:42 08.07.2021
6469 Clouds 21 1013 77 10000 4.47 88 13:31 08.07.2021
6470 Clouds 21 1013 75 10000 3.13 88 12:43 08.07.2021
6471 Clear 20 1013 85 10000 2.68 40 11:32 08.07.2021
6472 Rain 19 1013 86 10000 1.79 58 09:52 08.07.2021
6473 Clear 16 1018 92 10000 0.89 82 04:42 08.07.2021
6474 Clear 17 1019 88 10000 1.79 92 00:47 08.07.2021
6475 Clear 18 1019 81 10000 2.24 152 22:56 07.07.2021
6476 Clear 19 1018 82 10000 2.24 166 22:18 07.07.2021
6477 Clear 20 1011 78 10000 2.68 163 21:41 07.07.2021
6478 Clear 21 1017 74 10000 2.68 145 21:22 07.07.2021
6479 Clouds 22 1012 75 10000 3.58 200 19:57 07.07.2021
6480 Clouds 22 1012 75 10000 3.58 185 19:28 07.07.2021
6481 Clouds 22 1012 77 10000 1.79 237 17:36 07.07.2021
6482 Clouds 21 1012 77 10000 2.24 273 15:45 07.07.2021
6483 Rain 18 1011 91 10000 2.24 250 12:25 07.07.2021
6484 Rain 18 1014 92 10000 2.24 249 08:36 07.07.2021
6485 Rain 17 1013 93 10000 1.79 270 06:46 07.07.2021
6486 Rain 18 1013 91 10000 0.45 260 05:47 07.07.2021
6487 Clear 24 1003 68 10000 3.58 181 21:32 06.07.2021
6488 Clear 26 1002 63 10000 3.58 234 19:30 06.07.2021
6489 Clear 26 1002 61 10000 4.47 248 18:47 06.07.2021
6490 Clouds 27 1002 56 10000 4.47 252 18:28 06.07.2021
6491 Clear 29 1002 44 10000 6.26 153 14:58 06.07.2021
6492 Clear 28 1001 49 10000 4.92 175 12:58 06.07.2021
6493 Clear 24 1001 68 10000 4.92 176 09:42 06.07.2021
6494 Clear 21 1007 77 10000 4.47 180 08:35 06.07.2021
6495 Clear 19 1007 82 10000 3.58 172 07:34 06.07.2021
6496 Clear 17 1009 86 10000 0.89 162 01:53 06.07.2021
6497 Clouds 19 1010 81 10000 1.22 267 22:44 05.07.2021
6498 Clear 21 1010 73 10000 3.58 243 21:24 05.07.2021
6499 Clouds 24 1002 63 10000 2.68 232 16:50 05.07.2021
6500 Clear 20 1005 76 10000 4.02 243 08:48 05.07.2021
6501 Clear 17 1006 80 10000 0.45 80 05:47 05.07.2021
6502 Clear 18 1006 78 10000 1.79 83 04:41 05.07.2021
6503 Clear 21 1008 61 10000 2.68 85 23:21 04.07.2021
6504 Clear 25 1006 49 10000 4.02 55 20:42 04.07.2021
6505 Clear 27 1002 45 10000 4.02 76 17:35 04.07.2021
6506 Clear 26 1003 47 10000 3.58 31 13:51 04.07.2021
6507 Clear 23 1005 58 10000 0.89 57 09:35 04.07.2021
6508 Clear 18 1011 76 10000 1.34 69 01:30 04.07.2021
6509 Clear 18 1011 77 10000 1.34 20 01:30 04.07.2021
6510 Clear 19 1011 67 10000 0.45 280 23:19 03.07.2021
6511 Clear 25 1006 45 10000 3.58 320 17:23 03.07.2021
6512 Clouds 23 1013 56 10000 4.92 289 12:39 03.07.2021
6513 Clouds 21 1014 72 10000 4.92 276 10:59 03.07.2021
6514 Clouds 20 1014 74 10000 2.68 275 09:27 03.07.2021
6515 Clouds 18 1013 78 10000 2.24 283 08:45 03.07.2021
6516 Clouds 20 1015 65 10000 4.02 257 21:31 02.07.2021
6517 Clouds 17 1011 93 10000 3.13 310 08:28 02.07.2021
6518 Clouds 17 1011 95 10000 3.13 303 07:28 02.07.2021
6519 Drizzle 16 1006 96 4400 4.02 238 02:19 02.07.2021
6520 Clouds 16 1010 93 10000 4.02 241 22:30 01.07.2021
6521 Clouds 16 1010 92 10000 4.47 257 21:35 01.07.2021
6522 Clouds 16 1009 91 10000 4.47 255 19:40 01.07.2021
6523 Clouds 17 1004 91 10000 4.47 260 19:20 01.07.2021
6524 Clouds 17 1004 91 10000 4.02 248 18:47 01.07.2021
6525 Clouds 17 1004 91 10000 6.26 250 17:33 01.07.2021
6526 Clouds 16 1003 93 10000 4.92 252 16:24 01.07.2021
6527 Clouds 16 1003 93 10000 5.81 252 15:22 01.07.2021
6528 Clouds 15 1007 94 10000 6.71 253 12:31 01.07.2021
6529 Rain 15 1006 94 10000 8.05 269 09:42 01.07.2021
6530 Clouds 17 1005 94 10000 5.81 250 03:18 01.07.2021
6531 Clouds 17 1006 94 10000 4.92 246 23:18 30.06.2021
6532 Clouds 17 1006 94 10000 4.47 232 21:58 30.06.2021
6533 Clouds 17 1006 94 10000 5.36 262 21:20 30.06.2021
6534 Clouds 17 1006 94 10000 6.26 244 20:23 30.06.2021
6535 Rain 18 1005 94 10000 6.26 263 16:50 30.06.2021
6536 Rain 18 1004 94 10000 5.36 262 13:27 30.06.2021
6537 Rain 18 1004 94 10000 3.13 255 10:43 30.06.2021
6538 Clouds 19 1005 84 10000 1.79 360 00:54 30.06.2021
6539 Rain 22 1006 71 10000 1.79 26 20:30 29.06.2021
6540 Clouds 27 1006 60 10000 3.58 290 17:48 29.06.2021
6541 Clear 27 1006 59 10000 4.02 298 17:28 29.06.2021
6542 Clear 28 1001 52 10000 0.89 90 15:51 29.06.2021
6543 Clear 28 1001 52 10000 0.45 45 14:55 29.06.2021
6544 Rain 29 1002 48 10000 6.26 201 13:26 29.06.2021
6545 Clear 24 1005 60 10000 2.24 154 08:26 29.06.2021
6546 Clear 24 1012 49 10000 2.24 103 23:52 28.06.2021
6547 Clear 27 1006 41 10000 2.68 81 21:32 28.06.2021
6548 Clear 30 1006 32 10000 2.68 112 19:21 28.06.2021
6549 Clear 31 1007 31 10000 3.13 76 17:21 28.06.2021
6550 Clear 30 1008 33 10000 4.47 189 14:32 28.06.2021
6551 Clear 30 1007 35 10000 2.68 194 12:57 28.06.2021
6552 Clear 19 1015 69 10000 2.68 70 00:57 28.06.2021
6553 Clear 21 1014 59 10000 1.79 80 22:53 27.06.2021
6554 Clouds 26 1015 44 10000 2.24 60 19:46 27.06.2021
6555 Clear 27 1015 41 10000 1.79 304 18:56 27.06.2021
6556 Clear 27 1006 38 10000 0.45 338 15:57 27.06.2021
6557 Clear 26 1016 43 10000 1.34 342 12:35 27.06.2021
6558 Clear 16 1018 72 10000 2.24 62 02:53 27.06.2021
6559 Clear 19 1015 58 10000 3.13 30 22:46 26.06.2021
6560 Clear 23 1015 45 10000 0.89 326 20:58 26.06.2021
6561 Clear 24 1015 43 10000 0.89 334 20:39 26.06.2021
6562 Clear 26 1010 35 10000 2.68 308 17:46 26.06.2021
6563 Clear 27 1011 30 10000 2.68 310 14:58 26.06.2021
6564 Clear 25 1016 43 10000 3.13 98 12:27 26.06.2021
6565 Clear 19 1017 74 10000 0.45 315 07:53 26.06.2021
6566 Clouds 18 1016 70 10000 0.89 350 01:24 26.06.2021
6567 Clear 22 1014 54 10000 2.24 303 20:39 25.06.2021
6568 Clear 22 1014 52 10000 3.58 313 19:37 25.06.2021
6569 Clear 24 1009 48 10000 3.13 309 17:48 25.06.2021
6570 Clear 25 1009 47 10000 2.68 305 16:49 25.06.2021
6571 Clouds 24 1015 48 10000 2.24 294 14:58 25.06.2021
6572 Clouds 22 1014 64 10000 3.13 229 11:19 25.06.2021
6573 Clear 18 1015 85 10000 1.34 256 08:22 25.06.2021
6574 Clear 17 1015 89 10000 1.34 258 07:20 25.06.2021
6575 Clouds 16 1015 89 10000 0.89 210 03:46 25.06.2021
6576 Clouds 18 1014 80 10000 1.34 40 22:20 24.06.2021
6577 Clouds 18 1006 77 10000 1.79 83 21:40 24.06.2021
6578 Clouds 19 1015 75 10000 1.79 38 20:40 24.06.2021
6579 Clouds 20 1016 76 10000 2.24 4 18:45 24.06.2021
6580 Clouds 20 1015 72 10000 1.79 330 16:19 24.06.2021
6581 Clouds 21 1018 60 10000 2.06 340 15:22 24.06.2021
6582 Clouds 19 1015 73 10000 2.24 10 14:47 24.06.2021
6583 Clouds 18 1017 86 10000 1.34 335 11:26 24.06.2021
6584 Rain 17 1017 88 10000 1.34 338 09:34 24.06.2021
6585 Rain 16 1012 85 10000 1.79 39 08:24 24.06.2021
6586 Clear 15 1019 79 10000 1.79 357 03:32 24.06.2021
6587 Clear 17 1018 71 10000 1.34 36 23:28 23.06.2021
6588 Clear 18 1019 67 10000 2.68 353 21:46 23.06.2021
6589 Clear 19 1019 65 10000 2.24 293 20:47 23.06.2021
6590 Clouds 20 1019 63 10000 0.89 347 18:38 23.06.2021
6591 Clouds 19 1019 67 10000 2.68 318 17:38 23.06.2021
6592 Clear 19 1019 68 10000 4.02 304 16:34 23.06.2021
6593 Rain 20 1013 62 10000 4.47 303 14:29 23.06.2021
6594 Rain 21 1018 57 10000 2.68 297 11:59 23.06.2021
6595 Clouds 20 1017 64 10000 2.24 298 10:22 23.06.2021
6596 Clouds 19 1012 69 10000 2.68 289 08:50 23.06.2021
6597 Clouds 18 1017 70 10000 1.79 305 08:25 23.06.2021
6598 Clouds 17 1016 74 10000 0.45 279 07:47 23.06.2021
6599 Clear 14 1015 81 10000 0.45 200 04:34 23.06.2021
6600 Clear 16 1016 74 10000 1.34 0 00:46 23.06.2021
6601 Clouds 17 1015 71 10000 3.58 16 23:57 22.06.2021
6602 Clouds 18 1015 71 10000 1.34 263 22:47 22.06.2021
6603 Clouds 19 1013 68 10000 0.89 338 22:25 22.06.2021
6604 Clouds 19 1014 68 10000 1.79 50 21:39 22.06.2021
6605 Clouds 21 1014 64 10000 2.68 351 19:47 22.06.2021
6606 Clouds 21 1013 64 10000 2.24 46 18:57 22.06.2021
6607 Clouds 22 1012 63 10000 1.34 41 18:26 22.06.2021
6608 Clouds 22 1007 63 10000 1.79 28 17:22 22.06.2021
6609 Clouds 21 1013 66 10000 3.13 8 16:32 22.06.2021
6610 Rain 20 1012 74 10000 4.02 341 14:44 22.06.2021
6611 Rain 19 1012 76 10000 4.02 340 14:21 22.06.2021
6612 Rain 18 1013 80 10000 3.58 335 12:56 22.06.2021
6613 Rain 18 1012 84 10000 4.92 300 11:51 22.06.2021
6614 Rain 18 1011 80 10000 4.02 291 10:31 22.06.2021
6615 Clouds 19 1009 81 10000 3.58 308 06:52 22.06.2021
6616 Clear 22 1006 65 10000 0.45 140 00:50 22.06.2021
6617 Clear 23 1006 59 10000 4.47 254 23:29 21.06.2021
6618 Clear 24 1006 55 10000 4.02 250 22:27 21.06.2021
6619 Clouds 27 1005 49 10000 3.58 265 21:23 21.06.2021
6620 Clear 28 1003 48 10000 3.58 260 20:45 21.06.2021
6621 Clear 29 1005 47 10000 6.26 253 19:55 21.06.2021
6622 Clear 30 998 43 10000 6.71 219 18:57 21.06.2021
6623 Clear 31 999 42 10000 3.58 230 17:26 21.06.2021
6624 Clear 31 998 43 10000 4.02 253 16:44 21.06.2021
6625 Clear 31 998 43 10000 4.92 231 16:23 21.06.2021
6626 Clear 31 998 45 10000 4.47 264 15:45 21.06.2021
6627 Clouds 30 997 51 10000 3.13 244 14:18 21.06.2021
6628 Clouds 29 997 53 10000 6.26 256 13:34 21.06.2021
6629 Clouds 29 998 55 10000 5.81 214 12:36 21.06.2021
6630 Clouds 28 998 56 10000 5.36 227 11:52 21.06.2021
6631 Clouds 26 1004 64 10000 3.58 250 10:31 21.06.2021
6632 Clear 25 1004 69 10000 1.79 233 09:29 21.06.2021
6633 Clear 23 1003 77 10000 4.47 63 08:24 21.06.2021
6634 Clear 22 1003 78 10000 3.13 40 07:28 21.06.2021
6635 Clear 23 1006 65 10000 3.6 20 00:44 21.06.2021
6636 Clouds 24 1008 67 10000 4.52 16 23:36 20.06.2021
6637 Clear 26 1008 58 10000 2.57 340 22:59 20.06.2021
6638 Clouds 26 1008 56 10000 3.65 349 22:19 20.06.2021
6639 Clear 28 1007 48 10000 2.68 251 21:33 20.06.2021
6640 Clouds 30 1005 37 10000 5.81 236 19:54 20.06.2021
6641 Clouds 31 1000 36 10000 5.36 229 19:32 20.06.2021
6642 Clouds 32 999 36 10000 4.02 234 18:34 20.06.2021
6643 Clear 34 1000 35 10000 5.81 233 16:52 20.06.2021
6644 Clear 34 1006 37 10000 7.15 216 16:28 20.06.2021
6645 Clear 34 1001 37 10000 7.15 211 15:34 20.06.2021
6646 Clear 34 1001 38 10000 6.26 218 14:55 20.06.2021
6647 Clear 33 1006 41 10000 6.71 226 13:52 20.06.2021
6648 Clear 33 1000 44 10000 6.71 230 12:58 20.06.2021
6649 Clear 32 1001 47 10000 8.49 207 11:47 20.06.2021
6650 Clear 30 1001 56 10000 4.02 120 10:52 20.06.2021
6651 Clear 28 1002 62 10000 2.68 110 09:48 20.06.2021
6652 Clear 26 1007 68 10000 2.68 110 08:36 20.06.2021
6653 Clouds